<?xml version='1.0' encoding='UTF-8'?><gpx version="1.1" creator="JPX - https://github.com/jenetics/jpx" xmlns="http://www.topografix.com/GPX/1/1"><trk><trkseg><trkpt lat="41.9785886" lon="14.1336702"><ele>808.0</ele><time>2026-04-05T09:46:06.125Z</time></trkpt><trkpt lat="41.9783043" lon="14.1337109"><ele>808.0</ele><time>2026-04-05T09:46:10.544Z</time></trkpt><trkpt lat="41.9783645" lon="14.1336706"><ele>808.0</ele><time>2026-04-05T09:46:31.467Z</time></trkpt><trkpt lat="41.9785848" lon="14.1337176"><ele>808.0</ele><time>2026-04-05T09:46:34.471Z</time></trkpt><trkpt lat="41.9787418" lon="14.1337853"><ele>808.0</ele><time>2026-04-05T09:46:35.471Z</time></trkpt><trkpt lat="41.9789276" lon="14.133889"><ele>808.0</ele><time>2026-04-05T09:46:36.472Z</time></trkpt><trkpt lat="41.9791301" lon="14.1340071"><ele>807.5</ele><time>2026-04-05T09:46:37.471Z</time></trkpt><trkpt lat="41.9793571" lon="14.1341396"><ele>807.0</ele><time>2026-04-05T09:46:38.471Z</time></trkpt><trkpt lat="41.9795895" lon="14.1342765"><ele>807.0</ele><time>2026-04-05T09:46:39.471Z</time></trkpt><trkpt lat="41.9798027" lon="14.1344012"><ele>807.0</ele><time>2026-04-05T09:46:40.47Z</time></trkpt><trkpt lat="41.979995" lon="14.1345067"><ele>807.0</ele><time>2026-04-05T09:46:41.471Z</time></trkpt><trkpt lat="41.9801883" lon="14.1345867"><ele>807.6666666666667</ele><time>2026-04-05T09:46:42.473Z</time></trkpt><trkpt lat="41.980405" lon="14.1346317"><ele>808.3333333333334</ele><time>2026-04-05T09:46:43.471Z</time></trkpt><trkpt lat="41.9806333" lon="14.1346633"><ele>809.0</ele><time>2026-04-05T09:46:44.47Z</time></trkpt><trkpt lat="41.9808717" lon="14.1346967"><ele>811.0</ele><time>2026-04-05T09:46:45.471Z</time></trkpt><trkpt lat="41.981105" lon="14.1347417"><ele>813.0</ele><time>2026-04-05T09:46:46.471Z</time></trkpt><trkpt lat="41.9813317" lon="14.1348083"><ele>811.6666666666667</ele><time>2026-04-05T09:46:47.474Z</time></trkpt><trkpt lat="41.9815383" lon="14.134895"><ele>810.3333333333334</ele><time>2026-04-05T09:46:48.472Z</time></trkpt><trkpt lat="41.9817217" lon="14.1349917"><ele>809.0</ele><time>2026-04-05T09:46:49.471Z</time></trkpt><trkpt lat="41.9818783" lon="14.13509"><ele>809.0</ele><time>2026-04-05T09:46:50.47Z</time></trkpt><trkpt lat="41.9820067" lon="14.1351983"><ele>809.0</ele><time>2026-04-05T09:46:51.471Z</time></trkpt><trkpt lat="41.9821167" lon="14.135315"><ele>809.0</ele><time>2026-04-05T09:46:52.472Z</time></trkpt><trkpt lat="41.9821983" lon="14.1354517"><ele>809.0</ele><time>2026-04-05T09:46:53.47Z</time></trkpt><trkpt lat="41.9822533" lon="14.135605"><ele>805.75</ele><time>2026-04-05T09:46:54.471Z</time></trkpt><trkpt lat="41.9822867" lon="14.13577"><ele>802.5</ele><time>2026-04-05T09:46:55.472Z</time></trkpt><trkpt lat="41.98232" lon="14.1359267"><ele>799.25</ele><time>2026-04-05T09:46:56.471Z</time></trkpt><trkpt lat="41.9823583" lon="14.1360717"><ele>796.0</ele><time>2026-04-05T09:46:57.474Z</time></trkpt><trkpt lat="41.9824117" lon="14.1362"><ele>796.0</ele><time>2026-04-05T09:46:58.47Z</time></trkpt><trkpt lat="41.9824717" lon="14.13632"><ele>796.0</ele><time>2026-04-05T09:46:59.47Z</time></trkpt><trkpt lat="41.982535" lon="14.1364317"><ele>796.0</ele><time>2026-04-05T09:47:00.474Z</time></trkpt><trkpt lat="41.98261" lon="14.13653"><ele>796.0</ele><time>2026-04-05T09:47:01.471Z</time></trkpt><trkpt lat="41.9826783" lon="14.13663"><ele>796.0</ele><time>2026-04-05T09:47:02.475Z</time></trkpt><trkpt lat="41.9827517" lon="14.1367267"><ele>795.4</ele><time>2026-04-05T09:47:03.471Z</time></trkpt><trkpt lat="41.9828283" lon="14.1368217"><ele>794.8</ele><time>2026-04-05T09:47:04.471Z</time></trkpt><trkpt lat="41.982915" lon="14.1369017"><ele>794.1999999999999</ele><time>2026-04-05T09:47:05.472Z</time></trkpt><trkpt lat="41.9830017" lon="14.1369717"><ele>793.5999999999999</ele><time>2026-04-05T09:47:06.47Z</time></trkpt><trkpt lat="41.9830983" lon="14.1370433"><ele>793.0</ele><time>2026-04-05T09:47:07.47Z</time></trkpt><trkpt lat="41.9832017" lon="14.1371033"><ele>793.0</ele><time>2026-04-05T09:47:08.475Z</time></trkpt><trkpt lat="41.98332" lon="14.1371633"><ele>793.0</ele><time>2026-04-05T09:47:09.471Z</time></trkpt><trkpt lat="41.9834417" lon="14.1372083"><ele>793.0</ele><time>2026-04-05T09:47:10.471Z</time></trkpt><trkpt lat="41.9835617" lon="14.1372367"><ele>793.0</ele><time>2026-04-05T09:47:11.471Z</time></trkpt><trkpt lat="41.9836717" lon="14.1372483"><ele>792.8</ele><time>2026-04-05T09:47:12.473Z</time></trkpt><trkpt lat="41.9837767" lon="14.1372483"><ele>792.5999999999999</ele><time>2026-04-05T09:47:13.47Z</time></trkpt><trkpt lat="41.9838783" lon="14.1372417"><ele>792.4000000000001</ele><time>2026-04-05T09:47:14.47Z</time></trkpt><trkpt lat="41.9839817" lon="14.1372317"><ele>792.2</ele><time>2026-04-05T09:47:15.47Z</time></trkpt><trkpt lat="41.984085" lon="14.1372167"><ele>792.0</ele><time>2026-04-05T09:47:16.471Z</time></trkpt><trkpt lat="41.984185" lon="14.1371933"><ele>790.2</ele><time>2026-04-05T09:47:17.472Z</time></trkpt><trkpt lat="41.9842783" lon="14.1371583"><ele>788.4000000000001</ele><time>2026-04-05T09:47:18.472Z</time></trkpt><trkpt lat="41.9843617" lon="14.1371033"><ele>786.5999999999999</ele><time>2026-04-05T09:47:19.474Z</time></trkpt><trkpt lat="41.9844433" lon="14.1370417"><ele>784.8</ele><time>2026-04-05T09:47:20.471Z</time></trkpt><trkpt lat="41.9845217" lon="14.136975"><ele>783.0</ele><time>2026-04-05T09:47:21.471Z</time></trkpt><trkpt lat="41.9846" lon="14.1368917"><ele>783.0</ele><time>2026-04-05T09:47:22.471Z</time></trkpt><trkpt lat="41.9846767" lon="14.1367783"><ele>783.0</ele><time>2026-04-05T09:47:23.471Z</time></trkpt><trkpt lat="41.98475" lon="14.1366133"><ele>783.0</ele><time>2026-04-05T09:47:24.469Z</time></trkpt><trkpt lat="41.98485" lon="14.1364183"><ele>783.0</ele><time>2026-04-05T09:47:25.47Z</time></trkpt><trkpt lat="41.98497" lon="14.13621"><ele>782.3333333333333</ele><time>2026-04-05T09:47:26.47Z</time></trkpt><trkpt lat="41.9850933" lon="14.135995"><ele>781.6666666666666</ele><time>2026-04-05T09:47:27.472Z</time></trkpt><trkpt lat="41.985195" lon="14.13578"><ele>781.0</ele><time>2026-04-05T09:47:28.471Z</time></trkpt><trkpt lat="41.98529" lon="14.135575"><ele>781.0</ele><time>2026-04-05T09:47:29.47Z</time></trkpt><trkpt lat="41.9853917" lon="14.1353883"><ele>781.0</ele><time>2026-04-05T09:47:30.473Z</time></trkpt><trkpt lat="41.985495" lon="14.135225"><ele>781.0</ele><time>2026-04-05T09:47:31.473Z</time></trkpt><trkpt lat="41.9856" lon="14.1350817"><ele>781.0</ele><time>2026-04-05T09:47:32.471Z</time></trkpt><trkpt lat="41.9857133" lon="14.1349633"><ele>781.0</ele><time>2026-04-05T09:47:33.47Z</time></trkpt><trkpt lat="41.985825" lon="14.1348717"><ele>781.0</ele><time>2026-04-05T09:47:34.472Z</time></trkpt><trkpt lat="41.985945" lon="14.1348033"><ele>781.0</ele><time>2026-04-05T09:47:35.473Z</time></trkpt><trkpt lat="41.9860817" lon="14.13476"><ele>781.3333333333333</ele><time>2026-04-05T09:47:36.471Z</time></trkpt><trkpt lat="41.9862333" lon="14.13473"><ele>781.6666666666667</ele><time>2026-04-05T09:47:37.474Z</time></trkpt><trkpt lat="41.9864017" lon="14.1347033"><ele>782.0</ele><time>2026-04-05T09:47:38.471Z</time></trkpt><trkpt lat="41.9865867" lon="14.1346833"><ele>782.6666666666667</ele><time>2026-04-05T09:47:39.471Z</time></trkpt><trkpt lat="41.9867867" lon="14.1346717"><ele>783.3333333333333</ele><time>2026-04-05T09:47:40.47Z</time></trkpt><trkpt lat="41.98699" lon="14.1346583"><ele>784.0</ele><time>2026-04-05T09:47:41.472Z</time></trkpt><trkpt lat="41.9871783" lon="14.1346733"><ele>784.0</ele><time>2026-04-05T09:47:42.471Z</time></trkpt><trkpt lat="41.9873367" lon="14.1346717"><ele>784.0</ele><time>2026-04-05T09:47:43.47Z</time></trkpt><trkpt lat="41.9874583" lon="14.1346683"><ele>784.0</ele><time>2026-04-05T09:47:44.475Z</time></trkpt><trkpt lat="41.987545" lon="14.13462"><ele>784.0</ele><time>2026-04-05T09:47:45.47Z</time></trkpt><trkpt lat="41.9875933" lon="14.1345317"><ele>785.0</ele><time>2026-04-05T09:47:46.47Z</time></trkpt><trkpt lat="41.9876217" lon="14.13442"><ele>786.0</ele><time>2026-04-05T09:47:47.469Z</time></trkpt><trkpt lat="41.9876083" lon="14.1342317"><ele>787.0</ele><time>2026-04-05T09:47:48.47Z</time></trkpt><trkpt lat="41.9876017" lon="14.1340033"><ele>788.0</ele><time>2026-04-05T09:47:49.468Z</time></trkpt><trkpt lat="41.987615" lon="14.1337483"><ele>788.0</ele><time>2026-04-05T09:47:50.47Z</time></trkpt><trkpt lat="41.9876417" lon="14.1334867"><ele>788.0</ele><time>2026-04-05T09:47:51.471Z</time></trkpt><trkpt lat="41.987685" lon="14.1332433"><ele>788.0</ele><time>2026-04-05T09:47:52.471Z</time></trkpt><trkpt lat="41.9877517" lon="14.13304"><ele>791.0</ele><time>2026-04-05T09:47:53.471Z</time></trkpt><trkpt lat="41.987825" lon="14.1328833"><ele>794.0</ele><time>2026-04-05T09:47:54.473Z</time></trkpt><trkpt lat="41.9879117" lon="14.1327717"><ele>797.0</ele><time>2026-04-05T09:47:55.471Z</time></trkpt><trkpt lat="41.98802" lon="14.1327017"><ele>800.0</ele><time>2026-04-05T09:47:56.474Z</time></trkpt><trkpt lat="41.9881283" lon="14.1326583"><ele>800.0</ele><time>2026-04-05T09:47:57.472Z</time></trkpt><trkpt lat="41.9882233" lon="14.1326483"><ele>800.0</ele><time>2026-04-05T09:47:58.471Z</time></trkpt><trkpt lat="41.9883133" lon="14.1326683"><ele>800.0</ele><time>2026-04-05T09:47:59.473Z</time></trkpt><trkpt lat="41.9883883" lon="14.1327367"><ele>800.0</ele><time>2026-04-05T09:48:00.472Z</time></trkpt><trkpt lat="41.9884567" lon="14.1328533"><ele>800.0</ele><time>2026-04-05T09:48:01.473Z</time></trkpt><trkpt lat="41.9885267" lon="14.1329867"><ele>801.4</ele><time>2026-04-05T09:48:02.472Z</time></trkpt><trkpt lat="41.988595" lon="14.1330917"><ele>802.8</ele><time>2026-04-05T09:48:03.473Z</time></trkpt><trkpt lat="41.98867" lon="14.1331367"><ele>804.2</ele><time>2026-04-05T09:48:04.469Z</time></trkpt><trkpt lat="41.988755" lon="14.1331483"><ele>805.6</ele><time>2026-04-05T09:48:05.469Z</time></trkpt><trkpt lat="41.9888417" lon="14.133115"><ele>807.0</ele><time>2026-04-05T09:48:06.47Z</time></trkpt><trkpt lat="41.9889433" lon="14.1330367"><ele>807.0</ele><time>2026-04-05T09:48:07.469Z</time></trkpt><trkpt lat="41.9890367" lon="14.133"><ele>807.0</ele><time>2026-04-05T09:48:08.47Z</time></trkpt><trkpt lat="41.9891183" lon="14.13301"><ele>807.0</ele><time>2026-04-05T09:48:09.472Z</time></trkpt><trkpt lat="41.98918" lon="14.1330817"><ele>807.0</ele><time>2026-04-05T09:48:10.473Z</time></trkpt><trkpt lat="41.9892333" lon="14.1331917"><ele>807.0</ele><time>2026-04-05T09:48:11.474Z</time></trkpt><trkpt lat="41.989275" lon="14.1333633"><ele>809.6666666666667</ele><time>2026-04-05T09:48:12.47Z</time></trkpt><trkpt lat="41.9893133" lon="14.1336067"><ele>812.3333333333334</ele><time>2026-04-05T09:48:13.471Z</time></trkpt><trkpt lat="41.989375" lon="14.1338433"><ele>815.0</ele><time>2026-04-05T09:48:14.471Z</time></trkpt><trkpt lat="41.98948" lon="14.1340767"><ele>815.0</ele><time>2026-04-05T09:48:15.47Z</time></trkpt><trkpt lat="41.9896417" lon="14.1342983"><ele>815.0</ele><time>2026-04-05T09:48:16.471Z</time></trkpt><trkpt lat="41.9898233" lon="14.1344933"><ele>815.0</ele><time>2026-04-05T09:48:17.473Z</time></trkpt><trkpt lat="41.9899767" lon="14.134675"><ele>815.0</ele><time>2026-04-05T09:48:18.471Z</time></trkpt><trkpt lat="41.9900933" lon="14.1348567"><ele>815.0</ele><time>2026-04-05T09:48:19.475Z</time></trkpt><trkpt lat="41.9901783" lon="14.1350067"><ele>813.75</ele><time>2026-04-05T09:48:20.473Z</time></trkpt><trkpt lat="41.9902567" lon="14.1351083"><ele>812.5</ele><time>2026-04-05T09:48:21.47Z</time></trkpt><trkpt lat="41.990355" lon="14.135155"><ele>811.25</ele><time>2026-04-05T09:48:22.469Z</time></trkpt><trkpt lat="41.9904867" lon="14.13515"><ele>810.0</ele><time>2026-04-05T09:48:23.471Z</time></trkpt><trkpt lat="41.9906633" lon="14.135105"><ele>810.0</ele><time>2026-04-05T09:48:24.469Z</time></trkpt><trkpt lat="41.99084" lon="14.1350533"><ele>810.0</ele><time>2026-04-05T09:48:25.469Z</time></trkpt><trkpt lat="41.9909967" lon="14.1350483"><ele>810.0</ele><time>2026-04-05T09:48:26.47Z</time></trkpt><trkpt lat="41.9911383" lon="14.1350767"><ele>811.0</ele><time>2026-04-05T09:48:27.47Z</time></trkpt><trkpt lat="41.9912683" lon="14.13509"><ele>812.0</ele><time>2026-04-05T09:48:28.469Z</time></trkpt><trkpt lat="41.9913917" lon="14.135055"><ele>813.0</ele><time>2026-04-05T09:48:29.469Z</time></trkpt><trkpt lat="41.9915017" lon="14.1350067"><ele>814.0</ele><time>2026-04-05T09:48:30.47Z</time></trkpt><trkpt lat="41.9915967" lon="14.1349867"><ele>823.25</ele><time>2026-04-05T09:48:31.469Z</time></trkpt><trkpt lat="41.9916933" lon="14.1350167"><ele>832.5</ele><time>2026-04-05T09:48:32.472Z</time></trkpt><trkpt lat="41.99179" lon="14.1351033"><ele>841.75</ele><time>2026-04-05T09:48:33.471Z</time></trkpt><trkpt lat="41.991885" lon="14.1352533"><ele>851.0</ele><time>2026-04-05T09:48:34.474Z</time></trkpt><trkpt lat="41.99199" lon="14.1354633"><ele>851.0</ele><time>2026-04-05T09:48:35.471Z</time></trkpt><trkpt lat="41.992125" lon="14.1356967"><ele>851.0</ele><time>2026-04-05T09:48:36.471Z</time></trkpt><trkpt lat="41.9923033" lon="14.13595"><ele>853.0</ele><time>2026-04-05T09:48:37.47Z</time></trkpt><trkpt lat="41.9925367" lon="14.1362033"><ele>855.0</ele><time>2026-04-05T09:48:38.473Z</time></trkpt><trkpt lat="41.9928033" lon="14.1364733"><ele>850.5</ele><time>2026-04-05T09:48:39.471Z</time></trkpt><trkpt lat="41.99309" lon="14.1367483"><ele>846.0</ele><time>2026-04-05T09:48:40.475Z</time></trkpt><trkpt lat="41.9934017" lon="14.13703"><ele>846.0</ele><time>2026-04-05T09:48:41.472Z</time></trkpt><trkpt lat="41.9937133" lon="14.137315"><ele>846.0</ele><time>2026-04-05T09:48:42.47Z</time></trkpt><trkpt lat="41.9940083" lon="14.1375783"><ele>838.5</ele><time>2026-04-05T09:48:43.472Z</time></trkpt><trkpt lat="41.9942967" lon="14.1378333"><ele>831.0</ele><time>2026-04-05T09:48:44.471Z</time></trkpt><trkpt lat="41.9946" lon="14.1380667"><ele>821.0</ele><time>2026-04-05T09:48:45.471Z</time></trkpt><trkpt lat="41.994895" lon="14.1382583"><ele>811.0</ele><time>2026-04-05T09:48:46.473Z</time></trkpt><trkpt lat="41.9951483" lon="14.13842"><ele>811.0</ele><time>2026-04-05T09:48:47.472Z</time></trkpt><trkpt lat="41.9953567" lon="14.1385567"><ele>811.0</ele><time>2026-04-05T09:48:48.472Z</time></trkpt><trkpt lat="41.99552" lon="14.1386583"><ele>811.0</ele><time>2026-04-05T09:48:49.471Z</time></trkpt><trkpt lat="41.9956567" lon="14.13873"><ele>811.0</ele><time>2026-04-05T09:48:50.471Z</time></trkpt><trkpt lat="41.995805" lon="14.13876"><ele>811.0</ele><time>2026-04-05T09:48:51.469Z</time></trkpt><trkpt lat="41.9959717" lon="14.13875"><ele>811.0</ele><time>2026-04-05T09:48:52.47Z</time></trkpt><trkpt lat="41.9961217" lon="14.1387217"><ele>815.6666666666666</ele><time>2026-04-05T09:48:53.471Z</time></trkpt><trkpt lat="41.9962733" lon="14.13873"><ele>820.3333333333333</ele><time>2026-04-05T09:48:54.47Z</time></trkpt><trkpt lat="41.9964333" lon="14.1387817"><ele>825.0</ele><time>2026-04-05T09:48:55.47Z</time></trkpt><trkpt lat="41.9966133" lon="14.1388967"><ele>822.0</ele><time>2026-04-05T09:48:56.472Z</time></trkpt><trkpt lat="41.9967867" lon="14.1390583"><ele>819.0</ele><time>2026-04-05T09:48:57.472Z</time></trkpt><trkpt lat="41.9969283" lon="14.1392517"><ele>816.0</ele><time>2026-04-05T09:48:58.471Z</time></trkpt><trkpt lat="41.99704" lon="14.1394517"><ele>816.0</ele><time>2026-04-05T09:48:59.471Z</time></trkpt><trkpt lat="41.9971433" lon="14.1396417"><ele>816.0</ele><time>2026-04-05T09:49:00.472Z</time></trkpt><trkpt lat="41.9972583" lon="14.1397983"><ele>816.0</ele><time>2026-04-05T09:49:01.469Z</time></trkpt><trkpt lat="41.9973967" lon="14.1399067"><ele>812.5</ele><time>2026-04-05T09:49:02.47Z</time></trkpt><trkpt lat="41.9975533" lon="14.139955"><ele>809.0</ele><time>2026-04-05T09:49:03.473Z</time></trkpt><trkpt lat="41.997705" lon="14.1399783"><ele>805.5</ele><time>2026-04-05T09:49:04.471Z</time></trkpt><trkpt lat="41.9978267" lon="14.140015"><ele>802.0</ele><time>2026-04-05T09:49:05.471Z</time></trkpt><trkpt lat="41.99793" lon="14.1401"><ele>802.0</ele><time>2026-04-05T09:49:06.47Z</time></trkpt><trkpt lat="41.9980283" lon="14.1402333"><ele>802.0</ele><time>2026-04-05T09:49:07.474Z</time></trkpt><trkpt lat="41.9981333" lon="14.1403783"><ele>802.0</ele><time>2026-04-05T09:49:08.47Z</time></trkpt><trkpt lat="41.9982733" lon="14.1405033"><ele>804.6666666666666</ele><time>2026-04-05T09:49:09.47Z</time></trkpt><trkpt lat="41.9984433" lon="14.140575"><ele>807.3333333333333</ele><time>2026-04-05T09:49:10.47Z</time></trkpt><trkpt lat="41.9986067" lon="14.1406283"><ele>810.0</ele><time>2026-04-05T09:49:11.471Z</time></trkpt><trkpt lat="41.998745" lon="14.14072"><ele>810.0</ele><time>2026-04-05T09:49:12.471Z</time></trkpt><trkpt lat="41.998865" lon="14.140865"><ele>810.0</ele><time>2026-04-05T09:49:13.472Z</time></trkpt><trkpt lat="41.9989583" lon="14.1410383"><ele>810.0</ele><time>2026-04-05T09:49:14.47Z</time></trkpt><trkpt lat="41.9990133" lon="14.1412283"><ele>810.0</ele><time>2026-04-05T09:49:15.47Z</time></trkpt><trkpt lat="41.9990333" lon="14.1414467"><ele>810.0</ele><time>2026-04-05T09:49:16.471Z</time></trkpt><trkpt lat="41.9990417" lon="14.1416683"><ele>810.0</ele><time>2026-04-05T09:49:17.472Z</time></trkpt><trkpt lat="41.9990517" lon="14.1418617"><ele>804.3333333333333</ele><time>2026-04-05T09:49:18.471Z</time></trkpt><trkpt lat="41.9990933" lon="14.1420367"><ele>798.6666666666666</ele><time>2026-04-05T09:49:19.47Z</time></trkpt><trkpt lat="41.9991767" lon="14.1422167"><ele>793.0</ele><time>2026-04-05T09:49:20.473Z</time></trkpt><trkpt lat="41.9993167" lon="14.14241"><ele>793.0</ele><time>2026-04-05T09:49:21.47Z</time></trkpt><trkpt lat="41.999495" lon="14.1426017"><ele>793.0</ele><time>2026-04-05T09:49:22.471Z</time></trkpt><trkpt lat="41.9997" lon="14.14278"><ele>793.0</ele><time>2026-04-05T09:49:23.471Z</time></trkpt><trkpt lat="41.9999333" lon="14.1429383"><ele>793.0</ele><time>2026-04-05T09:49:24.472Z</time></trkpt><trkpt lat="42.000165" lon="14.1430717"><ele>793.0</ele><time>2026-04-05T09:49:25.471Z</time></trkpt><trkpt lat="42.0003817" lon="14.1431817"><ele>793.0</ele><time>2026-04-05T09:49:26.471Z</time></trkpt><trkpt lat="42.000595" lon="14.1432683"><ele>785.6666666666666</ele><time>2026-04-05T09:49:27.47Z</time></trkpt><trkpt lat="42.0008017" lon="14.1433533"><ele>778.3333333333333</ele><time>2026-04-05T09:49:28.471Z</time></trkpt><trkpt lat="42.0010283" lon="14.1434167"><ele>771.0</ele><time>2026-04-05T09:49:29.471Z</time></trkpt><trkpt lat="42.00129" lon="14.143455"><ele>771.0</ele><time>2026-04-05T09:49:30.472Z</time></trkpt><trkpt lat="42.0015633" lon="14.1434517"><ele>771.0</ele><time>2026-04-05T09:49:31.471Z</time></trkpt><trkpt lat="42.001805" lon="14.1434367"><ele>767.0</ele><time>2026-04-05T09:49:32.473Z</time></trkpt><trkpt lat="42.0020017" lon="14.1434117"><ele>763.0</ele><time>2026-04-05T09:49:33.471Z</time></trkpt><trkpt lat="42.0021633" lon="14.1433933"><ele>759.0</ele><time>2026-04-05T09:49:34.473Z</time></trkpt><trkpt lat="42.0022917" lon="14.14339"><ele>759.0</ele><time>2026-04-05T09:49:35.471Z</time></trkpt><trkpt lat="42.00239" lon="14.1434283"><ele>759.0</ele><time>2026-04-05T09:49:36.472Z</time></trkpt><trkpt lat="42.0024567" lon="14.143505"><ele>759.0</ele><time>2026-04-05T09:49:37.469Z</time></trkpt><trkpt lat="42.0025017" lon="14.1436283"><ele>759.0</ele><time>2026-04-05T09:49:38.47Z</time></trkpt><trkpt lat="42.00251" lon="14.1438133"><ele>759.0</ele><time>2026-04-05T09:49:39.473Z</time></trkpt><trkpt lat="42.0024933" lon="14.14407"><ele>744.0</ele><time>2026-04-05T09:49:40.469Z</time></trkpt><trkpt lat="42.0024667" lon="14.1444"><ele>729.0</ele><time>2026-04-05T09:49:41.471Z</time></trkpt><trkpt lat="42.002445" lon="14.14479"><ele>718.5</ele><time>2026-04-05T09:49:42.471Z</time></trkpt><trkpt lat="42.0024333" lon="14.1451533"><ele>708.0</ele><time>2026-04-05T09:49:43.47Z</time></trkpt><trkpt lat="42.0024183" lon="14.1453983"><ele>708.0</ele><time>2026-04-05T09:49:44.472Z</time></trkpt><trkpt lat="42.00242" lon="14.145565"><ele>708.0</ele><time>2026-04-05T09:49:45.47Z</time></trkpt><trkpt lat="42.0024417" lon="14.1457017"><ele>708.0</ele><time>2026-04-05T09:49:46.469Z</time></trkpt><trkpt lat="42.0024933" lon="14.1458283"><ele>708.0</ele><time>2026-04-05T09:49:47.47Z</time></trkpt><trkpt lat="42.0025833" lon="14.145955"><ele>718.3333333333334</ele><time>2026-04-05T09:49:48.471Z</time></trkpt><trkpt lat="42.0027517" lon="14.1460833"><ele>728.6666666666667</ele><time>2026-04-05T09:49:49.47Z</time></trkpt><trkpt lat="42.0029817" lon="14.146195"><ele>739.0</ele><time>2026-04-05T09:49:50.484Z</time></trkpt><trkpt lat="42.00319" lon="14.1462983"><ele>752.0</ele><time>2026-04-05T09:49:51.472Z</time></trkpt><trkpt lat="42.0033933" lon="14.1463567"><ele>765.0</ele><time>2026-04-05T09:49:52.471Z</time></trkpt><trkpt lat="42.0036033" lon="14.14638"><ele>778.0</ele><time>2026-04-05T09:49:53.47Z</time></trkpt><trkpt lat="42.0038083" lon="14.1464133"><ele>778.0</ele><time>2026-04-05T09:49:54.475Z</time></trkpt><trkpt lat="42.0040267" lon="14.1464883"><ele>778.0</ele><time>2026-04-05T09:49:55.472Z</time></trkpt><trkpt lat="42.0042567" lon="14.1466233"><ele>763.5</ele><time>2026-04-05T09:49:56.471Z</time></trkpt><trkpt lat="42.0045067" lon="14.1468217"><ele>749.0</ele><time>2026-04-05T09:49:57.471Z</time></trkpt><trkpt lat="42.0047783" lon="14.147065"><ele>744.0</ele><time>2026-04-05T09:49:58.472Z</time></trkpt><trkpt lat="42.0050483" lon="14.1473183"><ele>739.0</ele><time>2026-04-05T09:49:59.475Z</time></trkpt><trkpt lat="42.0052933" lon="14.147555"><ele>739.0</ele><time>2026-04-05T09:50:00.471Z</time></trkpt><trkpt lat="42.0055083" lon="14.147785"><ele>739.0</ele><time>2026-04-05T09:50:01.47Z</time></trkpt><trkpt lat="42.00568" lon="14.14802"><ele>740.0</ele><time>2026-04-05T09:50:02.472Z</time></trkpt><trkpt lat="42.00582" lon="14.1482717"><ele>741.0</ele><time>2026-04-05T09:50:03.471Z</time></trkpt><trkpt lat="42.0059333" lon="14.1485117"><ele>742.0</ele><time>2026-04-05T09:50:04.47Z</time></trkpt><trkpt lat="42.0060167" lon="14.1487117"><ele>742.0</ele><time>2026-04-05T09:50:05.474Z</time></trkpt><trkpt lat="42.0060883" lon="14.1488867"><ele>742.0</ele><time>2026-04-05T09:50:06.472Z</time></trkpt><trkpt lat="42.0061817" lon="14.14905"><ele>742.0</ele><time>2026-04-05T09:50:07.471Z</time></trkpt><trkpt lat="42.006335" lon="14.1492183"><ele>747.0</ele><time>2026-04-05T09:50:08.471Z</time></trkpt><trkpt lat="42.0065417" lon="14.1493867"><ele>752.0</ele><time>2026-04-05T09:50:09.471Z</time></trkpt><trkpt lat="42.0067617" lon="14.1495533"><ele>752.0</ele><time>2026-04-05T09:50:10.471Z</time></trkpt><trkpt lat="42.0069733" lon="14.1496817"><ele>752.0</ele><time>2026-04-05T09:50:11.472Z</time></trkpt><trkpt lat="42.0071633" lon="14.14977"><ele>752.0</ele><time>2026-04-05T09:50:12.475Z</time></trkpt><trkpt lat="42.0073367" lon="14.1498667"><ele>745.5</ele><time>2026-04-05T09:50:13.471Z</time></trkpt><trkpt lat="42.0075133" lon="14.1500233"><ele>739.0</ele><time>2026-04-05T09:50:14.472Z</time></trkpt><trkpt lat="42.0077083" lon="14.1502417"><ele>739.0</ele><time>2026-04-05T09:50:15.474Z</time></trkpt><trkpt lat="42.0079283" lon="14.1504933"><ele>739.0</ele><time>2026-04-05T09:50:16.473Z</time></trkpt><trkpt lat="42.0081567" lon="14.1507483"><ele>737.0</ele><time>2026-04-05T09:50:17.473Z</time></trkpt><trkpt lat="42.0083867" lon="14.1509867"><ele>735.0</ele><time>2026-04-05T09:50:18.471Z</time></trkpt><trkpt lat="42.00861" lon="14.15119"><ele>735.0</ele><time>2026-04-05T09:50:19.474Z</time></trkpt><trkpt lat="42.0088033" lon="14.1513483"><ele>735.0</ele><time>2026-04-05T09:50:20.473Z</time></trkpt><trkpt lat="42.00896" lon="14.151465"><ele>735.0</ele><time>2026-04-05T09:50:21.472Z</time></trkpt><trkpt lat="42.0091067" lon="14.1515317"><ele>738.25</ele><time>2026-04-05T09:50:22.469Z</time></trkpt><trkpt lat="42.0092517" lon="14.1515383"><ele>741.5</ele><time>2026-04-05T09:50:23.471Z</time></trkpt><trkpt lat="42.0093883" lon="14.1515133"><ele>744.75</ele><time>2026-04-05T09:50:24.474Z</time></trkpt><trkpt lat="42.0095167" lon="14.1515133"><ele>748.0</ele><time>2026-04-05T09:50:25.473Z</time></trkpt><trkpt lat="42.009635" lon="14.1515683"><ele>744.3333333333334</ele><time>2026-04-05T09:50:26.473Z</time></trkpt><trkpt lat="42.0097517" lon="14.151695"><ele>740.6666666666666</ele><time>2026-04-05T09:50:27.473Z</time></trkpt><trkpt lat="42.0098817" lon="14.15188"><ele>737.0</ele><time>2026-04-05T09:50:28.473Z</time></trkpt><trkpt lat="42.01004" lon="14.152065"><ele>737.0</ele><time>2026-04-05T09:50:29.473Z</time></trkpt><trkpt lat="42.010235" lon="14.1522283"><ele>737.0</ele><time>2026-04-05T09:50:30.474Z</time></trkpt><trkpt lat="42.0104683" lon="14.1523667"><ele>733.5</ele><time>2026-04-05T09:50:31.472Z</time></trkpt><trkpt lat="42.0106967" lon="14.152495"><ele>730.0</ele><time>2026-04-05T09:50:32.473Z</time></trkpt><trkpt lat="42.010895" lon="14.152625"><ele>730.0</ele><time>2026-04-05T09:50:33.473Z</time></trkpt><trkpt lat="42.01107" lon="14.1527483"><ele>730.0</ele><time>2026-04-05T09:50:34.473Z</time></trkpt><trkpt lat="42.011225" lon="14.1529083"><ele>730.0</ele><time>2026-04-05T09:50:35.472Z</time></trkpt><trkpt lat="42.01135" lon="14.1531"><ele>720.0</ele><time>2026-04-05T09:50:36.474Z</time></trkpt><trkpt lat="42.01144" lon="14.153295"><ele>710.0</ele><time>2026-04-05T09:50:37.472Z</time></trkpt><trkpt lat="42.01149" lon="14.1535"><ele>700.0</ele><time>2026-04-05T09:50:38.47Z</time></trkpt><trkpt lat="42.01152" lon="14.153705"><ele>700.0</ele><time>2026-04-05T09:50:39.469Z</time></trkpt><trkpt lat="42.0115567" lon="14.153915"><ele>700.0</ele><time>2026-04-05T09:50:40.469Z</time></trkpt><trkpt lat="42.0116" lon="14.154115"><ele>700.0</ele><time>2026-04-05T09:50:41.472Z</time></trkpt><trkpt lat="42.0116733" lon="14.1543083"><ele>707.0</ele><time>2026-04-05T09:50:42.471Z</time></trkpt><trkpt lat="42.0117983" lon="14.15452"><ele>714.0</ele><time>2026-04-05T09:50:43.469Z</time></trkpt><trkpt lat="42.0119717" lon="14.154775"><ele>702.5</ele><time>2026-04-05T09:50:44.47Z</time></trkpt><trkpt lat="42.0121917" lon="14.1550317"><ele>691.0</ele><time>2026-04-05T09:50:45.471Z</time></trkpt><trkpt lat="42.0124517" lon="14.1552783"><ele>710.0</ele><time>2026-04-05T09:50:46.47Z</time></trkpt><trkpt lat="42.01271" lon="14.1555"><ele>729.0</ele><time>2026-04-05T09:50:47.471Z</time></trkpt><trkpt lat="42.0129383" lon="14.1556833"><ele>726.6666666666666</ele><time>2026-04-05T09:50:48.47Z</time></trkpt><trkpt lat="42.0131367" lon="14.1558183"><ele>724.3333333333333</ele><time>2026-04-05T09:50:49.471Z</time></trkpt><trkpt lat="42.0133167" lon="14.1559117"><ele>722.0</ele><time>2026-04-05T09:50:50.47Z</time></trkpt><trkpt lat="42.0134883" lon="14.1559617"><ele>722.0</ele><time>2026-04-05T09:50:51.471Z</time></trkpt><trkpt lat="42.0136383" lon="14.1559783"><ele>722.0</ele><time>2026-04-05T09:50:52.468Z</time></trkpt><trkpt lat="42.0137467" lon="14.1560117"><ele>722.0</ele><time>2026-04-05T09:50:53.47Z</time></trkpt><trkpt lat="42.0138317" lon="14.1560983"><ele>722.0</ele><time>2026-04-05T09:50:54.47Z</time></trkpt><trkpt lat="42.0139033" lon="14.1562483"><ele>722.0</ele><time>2026-04-05T09:50:55.47Z</time></trkpt><trkpt lat="42.0139517" lon="14.156425"><ele>722.0</ele><time>2026-04-05T09:50:56.47Z</time></trkpt><trkpt lat="42.01401" lon="14.1565783"><ele>722.0</ele><time>2026-04-05T09:50:57.469Z</time></trkpt><trkpt lat="42.014115" lon="14.1567217"><ele>722.0</ele><time>2026-04-05T09:50:58.47Z</time></trkpt><trkpt lat="42.0142867" lon="14.1568767"><ele>718.5</ele><time>2026-04-05T09:50:59.469Z</time></trkpt><trkpt lat="42.0144817" lon="14.15705"><ele>715.0</ele><time>2026-04-05T09:51:00.47Z</time></trkpt><trkpt lat="42.014675" lon="14.1572383"><ele>717.5</ele><time>2026-04-05T09:51:01.47Z</time></trkpt><trkpt lat="42.01486" lon="14.1574417"><ele>720.0</ele><time>2026-04-05T09:51:02.471Z</time></trkpt><trkpt lat="42.015025" lon="14.1576333"><ele>720.0</ele><time>2026-04-05T09:51:03.471Z</time></trkpt><trkpt lat="42.0151717" lon="14.157815"><ele>720.0</ele><time>2026-04-05T09:51:04.471Z</time></trkpt><trkpt lat="42.0152967" lon="14.1579883"><ele>720.0</ele><time>2026-04-05T09:51:05.47Z</time></trkpt><trkpt lat="42.0154133" lon="14.1581317"><ele>720.3333333333334</ele><time>2026-04-05T09:51:06.47Z</time></trkpt><trkpt lat="42.0155533" lon="14.1582367"><ele>720.6666666666667</ele><time>2026-04-05T09:51:07.468Z</time></trkpt><trkpt lat="42.015725" lon="14.158325"><ele>721.0</ele><time>2026-04-05T09:51:08.469Z</time></trkpt><trkpt lat="42.0159267" lon="14.1584233"><ele>721.0</ele><time>2026-04-05T09:51:09.469Z</time></trkpt><trkpt lat="42.016125" lon="14.1585267"><ele>721.0</ele><time>2026-04-05T09:51:10.469Z</time></trkpt><trkpt lat="42.016295" lon="14.158645"><ele>721.0</ele><time>2026-04-05T09:51:11.47Z</time></trkpt><trkpt lat="42.01643" lon="14.1587917"><ele>721.0</ele><time>2026-04-05T09:51:12.47Z</time></trkpt><trkpt lat="42.01653" lon="14.1589633"><ele>721.0</ele><time>2026-04-05T09:51:13.468Z</time></trkpt><trkpt lat="42.016595" lon="14.1591417"><ele>721.0</ele><time>2026-04-05T09:51:14.47Z</time></trkpt><trkpt lat="42.0166483" lon="14.1593167"><ele>719.5</ele><time>2026-04-05T09:51:15.469Z</time></trkpt><trkpt lat="42.0167117" lon="14.1594867"><ele>718.0</ele><time>2026-04-05T09:51:16.47Z</time></trkpt><trkpt lat="42.0167967" lon="14.1596333"><ele>716.5</ele><time>2026-04-05T09:51:17.469Z</time></trkpt><trkpt lat="42.0169033" lon="14.159725"><ele>715.0</ele><time>2026-04-05T09:51:18.469Z</time></trkpt><trkpt lat="42.0170267" lon="14.159755"><ele>715.0</ele><time>2026-04-05T09:51:19.469Z</time></trkpt><trkpt lat="42.0171517" lon="14.1597583"><ele>715.0</ele><time>2026-04-05T09:51:20.47Z</time></trkpt><trkpt lat="42.0172617" lon="14.1597867"><ele>715.0</ele><time>2026-04-05T09:51:21.472Z</time></trkpt><trkpt lat="42.01735" lon="14.15987"><ele>715.0</ele><time>2026-04-05T09:51:22.47Z</time></trkpt><trkpt lat="42.0174283" lon="14.1599933"><ele>716.0</ele><time>2026-04-05T09:51:23.473Z</time></trkpt><trkpt lat="42.0175067" lon="14.1601367"><ele>717.0</ele><time>2026-04-05T09:51:24.472Z</time></trkpt><trkpt lat="42.0175983" lon="14.16028"><ele>718.0</ele><time>2026-04-05T09:51:25.473Z</time></trkpt><trkpt lat="42.0177017" lon="14.1604117"><ele>719.0</ele><time>2026-04-05T09:51:26.472Z</time></trkpt><trkpt lat="42.0178083" lon="14.1605333"><ele>719.0</ele><time>2026-04-05T09:51:27.471Z</time></trkpt><trkpt lat="42.0179133" lon="14.16064"><ele>719.0</ele><time>2026-04-05T09:51:28.47Z</time></trkpt><trkpt lat="42.0180233" lon="14.1607167"><ele>719.0</ele><time>2026-04-05T09:51:29.47Z</time></trkpt><trkpt lat="42.0181383" lon="14.16076"><ele>719.0</ele><time>2026-04-05T09:51:30.469Z</time></trkpt><trkpt lat="42.0182733" lon="14.1607967"><ele>717.25</ele><time>2026-04-05T09:51:31.47Z</time></trkpt><trkpt lat="42.0184167" lon="14.16083"><ele>715.5</ele><time>2026-04-05T09:51:32.472Z</time></trkpt><trkpt lat="42.018535" lon="14.1608883"><ele>713.75</ele><time>2026-04-05T09:51:33.471Z</time></trkpt><trkpt lat="42.0186367" lon="14.1610017"><ele>712.0</ele><time>2026-04-05T09:51:34.469Z</time></trkpt><trkpt lat="42.018735" lon="14.1611683"><ele>712.0</ele><time>2026-04-05T09:51:35.469Z</time></trkpt><trkpt lat="42.0188483" lon="14.1613983"><ele>712.0</ele><time>2026-04-05T09:51:36.469Z</time></trkpt><trkpt lat="42.0189967" lon="14.1616383"><ele>712.0</ele><time>2026-04-05T09:51:37.469Z</time></trkpt><trkpt lat="42.0191883" lon="14.1618833"><ele>714.5</ele><time>2026-04-05T09:51:38.47Z</time></trkpt><trkpt lat="42.0194033" lon="14.1621233"><ele>717.0</ele><time>2026-04-05T09:51:39.471Z</time></trkpt><trkpt lat="42.0196083" lon="14.162355"><ele>703.0</ele><time>2026-04-05T09:51:40.469Z</time></trkpt><trkpt lat="42.0198017" lon="14.1625667"><ele>689.0</ele><time>2026-04-05T09:51:41.47Z</time></trkpt><trkpt lat="42.01998" lon="14.1627633"><ele>688.0</ele><time>2026-04-05T09:51:42.471Z</time></trkpt><trkpt lat="42.02015" lon="14.1629517"><ele>687.0</ele><time>2026-04-05T09:51:43.472Z</time></trkpt><trkpt lat="42.0203167" lon="14.1631217"><ele>686.0</ele><time>2026-04-05T09:51:44.47Z</time></trkpt><trkpt lat="42.0204883" lon="14.163255"><ele>686.0</ele><time>2026-04-05T09:51:45.471Z</time></trkpt><trkpt lat="42.0206817" lon="14.1633417"><ele>686.0</ele><time>2026-04-05T09:51:46.471Z</time></trkpt><trkpt lat="42.0209067" lon="14.16338"><ele>686.0</ele><time>2026-04-05T09:51:47.471Z</time></trkpt><trkpt lat="42.0211783" lon="14.16337"><ele>696.0</ele><time>2026-04-05T09:51:48.47Z</time></trkpt><trkpt lat="42.021495" lon="14.16332"><ele>706.0</ele><time>2026-04-05T09:51:49.476Z</time></trkpt><trkpt lat="42.021835" lon="14.1632667"><ele>706.0</ele><time>2026-04-05T09:51:50.472Z</time></trkpt><trkpt lat="42.0221867" lon="14.1632033"><ele>706.0</ele><time>2026-04-05T09:51:51.471Z</time></trkpt><trkpt lat="42.0225233" lon="14.1631383"><ele>735.5</ele><time>2026-04-05T09:51:52.47Z</time></trkpt><trkpt lat="42.0228183" lon="14.16308"><ele>765.0</ele><time>2026-04-05T09:51:53.472Z</time></trkpt><trkpt lat="42.0230767" lon="14.16303"><ele>765.0</ele><time>2026-04-05T09:51:54.476Z</time></trkpt><trkpt lat="42.0233033" lon="14.162985"><ele>765.0</ele><time>2026-04-05T09:51:55.472Z</time></trkpt><trkpt lat="42.0235083" lon="14.1629683"><ele>765.0</ele><time>2026-04-05T09:51:56.471Z</time></trkpt><trkpt lat="42.0236933" lon="14.163"><ele>758.0</ele><time>2026-04-05T09:51:57.469Z</time></trkpt><trkpt lat="42.023855" lon="14.163065"><ele>751.0</ele><time>2026-04-05T09:51:58.47Z</time></trkpt><trkpt lat="42.0239967" lon="14.1631817"><ele>744.0</ele><time>2026-04-05T09:51:59.471Z</time></trkpt><trkpt lat="42.0241117" lon="14.1633433"><ele>730.0</ele><time>2026-04-05T09:52:00.469Z</time></trkpt><trkpt lat="42.024205" lon="14.1635517"><ele>716.0</ele><time>2026-04-05T09:52:01.473Z</time></trkpt><trkpt lat="42.0242833" lon="14.163815"><ele>702.0</ele><time>2026-04-05T09:52:02.47Z</time></trkpt><trkpt lat="42.0243583" lon="14.1641117"><ele>701.5</ele><time>2026-04-05T09:52:03.47Z</time></trkpt><trkpt lat="42.0244267" lon="14.16441"><ele>701.0</ele><time>2026-04-05T09:52:04.472Z</time></trkpt><trkpt lat="42.0244967" lon="14.1647083"><ele>716.0</ele><time>2026-04-05T09:52:05.47Z</time></trkpt><trkpt lat="42.024565" lon="14.1650083"><ele>731.0</ele><time>2026-04-05T09:52:06.469Z</time></trkpt><trkpt lat="42.0246333" lon="14.1653067"><ele>731.0</ele><time>2026-04-05T09:52:07.471Z</time></trkpt><trkpt lat="42.0247" lon="14.165605"><ele>731.0</ele><time>2026-04-05T09:52:08.473Z</time></trkpt><trkpt lat="42.0247683" lon="14.16591"><ele>730.5</ele><time>2026-04-05T09:52:09.47Z</time></trkpt><trkpt lat="42.0248283" lon="14.1662217"><ele>730.0</ele><time>2026-04-05T09:52:10.471Z</time></trkpt><trkpt lat="42.02524" lon="14.1668267"><ele>718.5</ele><time>2026-04-05T09:52:12.469Z</time></trkpt><trkpt lat="42.0253433" lon="14.1672717"><ele>707.0</ele><time>2026-04-05T09:52:13.469Z</time></trkpt><trkpt lat="42.0254317" lon="14.1676917"><ele>707.0</ele><time>2026-04-05T09:52:14.469Z</time></trkpt><trkpt lat="42.0255817" lon="14.1680617"><ele>707.0</ele><time>2026-04-05T09:52:15.475Z</time></trkpt><trkpt lat="42.0257383" lon="14.1683617"><ele>703.6666666666666</ele><time>2026-04-05T09:52:16.47Z</time></trkpt><trkpt lat="42.0258683" lon="14.1686183"><ele>700.3333333333334</ele><time>2026-04-05T09:52:17.47Z</time></trkpt><trkpt lat="42.025965" lon="14.16886"><ele>697.0</ele><time>2026-04-05T09:52:18.471Z</time></trkpt><trkpt lat="42.026035" lon="14.16914"><ele>697.0</ele><time>2026-04-05T09:52:19.47Z</time></trkpt><trkpt lat="42.0261067" lon="14.1694417"><ele>697.0</ele><time>2026-04-05T09:52:20.473Z</time></trkpt><trkpt lat="42.0262017" lon="14.1697133"><ele>681.5</ele><time>2026-04-05T09:52:21.469Z</time></trkpt><trkpt lat="42.0263117" lon="14.1699717"><ele>666.0</ele><time>2026-04-05T09:52:22.471Z</time></trkpt><trkpt lat="42.02647" lon="14.170215"><ele>695.0</ele><time>2026-04-05T09:52:23.471Z</time></trkpt><trkpt lat="42.02666" lon="14.17043"><ele>724.0</ele><time>2026-04-05T09:52:24.472Z</time></trkpt><trkpt lat="42.02689" lon="14.1706"><ele>701.5</ele><time>2026-04-05T09:52:25.469Z</time></trkpt><trkpt lat="42.0271233" lon="14.170745"><ele>679.0</ele><time>2026-04-05T09:52:26.471Z</time></trkpt><trkpt lat="42.027335" lon="14.1708933"><ele>702.5</ele><time>2026-04-05T09:52:27.473Z</time></trkpt><trkpt lat="42.0275567" lon="14.1711"><ele>726.0</ele><time>2026-04-05T09:52:28.469Z</time></trkpt><trkpt lat="42.02778" lon="14.1713483"><ele>705.0</ele><time>2026-04-05T09:52:29.474Z</time></trkpt><trkpt lat="42.0279833" lon="14.171595"><ele>684.0</ele><time>2026-04-05T09:52:30.473Z</time></trkpt><trkpt lat="42.0281683" lon="14.17183"><ele>706.0</ele><time>2026-04-05T09:52:31.471Z</time></trkpt><trkpt lat="42.028355" lon="14.1720633"><ele>728.0</ele><time>2026-04-05T09:52:32.472Z</time></trkpt><trkpt lat="42.02854" lon="14.1722933"><ele>709.5</ele><time>2026-04-05T09:52:33.472Z</time></trkpt><trkpt lat="42.028715" lon="14.172515"><ele>691.0</ele><time>2026-04-05T09:52:34.469Z</time></trkpt><trkpt lat="42.0288767" lon="14.1727083"><ele>691.0</ele><time>2026-04-05T09:52:35.472Z</time></trkpt><trkpt lat="42.02902" lon="14.1728717"><ele>691.0</ele><time>2026-04-05T09:52:36.473Z</time></trkpt><trkpt lat="42.0291617" lon="14.1730017"><ele>691.0</ele><time>2026-04-05T09:52:37.471Z</time></trkpt><trkpt lat="42.0293267" lon="14.1730983"><ele>702.3333333333334</ele><time>2026-04-05T09:52:38.471Z</time></trkpt><trkpt lat="42.0295283" lon="14.17315"><ele>713.6666666666666</ele><time>2026-04-05T09:52:39.47Z</time></trkpt><trkpt lat="42.0297533" lon="14.1731283"><ele>725.0</ele><time>2026-04-05T09:52:40.473Z</time></trkpt><trkpt lat="42.0299483" lon="14.1730833"><ele>724.6666666666666</ele><time>2026-04-05T09:52:41.471Z</time></trkpt><trkpt lat="42.0301233" lon="14.1730317"><ele>724.3333333333334</ele><time>2026-04-05T09:52:42.472Z</time></trkpt><trkpt lat="42.0303033" lon="14.1730283"><ele>724.0</ele><time>2026-04-05T09:52:43.471Z</time></trkpt><trkpt lat="42.0304867" lon="14.1730867"><ele>714.0</ele><time>2026-04-05T09:52:44.471Z</time></trkpt><trkpt lat="42.0306883" lon="14.1732183"><ele>704.0</ele><time>2026-04-05T09:52:45.474Z</time></trkpt><trkpt lat="42.0309083" lon="14.173415"><ele>704.0</ele><time>2026-04-05T09:52:46.471Z</time></trkpt><trkpt lat="42.0311517" lon="14.1736683"><ele>704.0</ele><time>2026-04-05T09:52:47.473Z</time></trkpt><trkpt lat="42.031415" lon="14.1739533"><ele>705.0</ele><time>2026-04-05T09:52:48.472Z</time></trkpt><trkpt lat="42.0316983" lon="14.1742517"><ele>706.0</ele><time>2026-04-05T09:52:49.473Z</time></trkpt><trkpt lat="42.0319817" lon="14.17454"><ele>706.0</ele><time>2026-04-05T09:52:50.472Z</time></trkpt><trkpt lat="42.0322367" lon="14.174795"><ele>706.0</ele><time>2026-04-05T09:52:51.473Z</time></trkpt><trkpt lat="42.0324567" lon="14.1750317"><ele>708.0</ele><time>2026-04-05T09:52:52.471Z</time></trkpt><trkpt lat="42.03265" lon="14.17525"><ele>710.0</ele><time>2026-04-05T09:52:53.471Z</time></trkpt><trkpt lat="42.0328183" lon="14.1754817"><ele>697.5</ele><time>2026-04-05T09:52:54.469Z</time></trkpt><trkpt lat="42.03296" lon="14.17575"><ele>685.0</ele><time>2026-04-05T09:52:55.472Z</time></trkpt><trkpt lat="42.0330983" lon="14.1760283"><ele>685.0</ele><time>2026-04-05T09:52:56.47Z</time></trkpt><trkpt lat="42.0332683" lon="14.176305"><ele>685.0</ele><time>2026-04-05T09:52:57.474Z</time></trkpt><trkpt lat="42.0334833" lon="14.176565"><ele>689.5</ele><time>2026-04-05T09:52:58.47Z</time></trkpt><trkpt lat="42.0337167" lon="14.176815"><ele>694.0</ele><time>2026-04-05T09:52:59.471Z</time></trkpt><trkpt lat="42.033965" lon="14.177035"><ele>692.5</ele><time>2026-04-05T09:53:00.47Z</time></trkpt><trkpt lat="42.03419" lon="14.1772033"><ele>691.0</ele><time>2026-04-05T09:53:01.47Z</time></trkpt><trkpt lat="42.0343767" lon="14.177355"><ele>691.0</ele><time>2026-04-05T09:53:02.472Z</time></trkpt><trkpt lat="42.0345333" lon="14.177535"><ele>691.0</ele><time>2026-04-05T09:53:03.47Z</time></trkpt><trkpt lat="42.0346817" lon="14.1777317"><ele>691.0</ele><time>2026-04-05T09:53:04.474Z</time></trkpt><trkpt lat="42.0348583" lon="14.1779267"><ele>689.5</ele><time>2026-04-05T09:53:05.472Z</time></trkpt><trkpt lat="42.0350917" lon="14.17809"><ele>688.0</ele><time>2026-04-05T09:53:06.471Z</time></trkpt><trkpt lat="42.03537" lon="14.1782233"><ele>688.0</ele><time>2026-04-05T09:53:07.471Z</time></trkpt><trkpt lat="42.0356567" lon="14.1783333"><ele>688.0</ele><time>2026-04-05T09:53:08.472Z</time></trkpt><trkpt lat="42.0359317" lon="14.1784417"><ele>695.5</ele><time>2026-04-05T09:53:09.471Z</time></trkpt><trkpt lat="42.036185" lon="14.1785633"><ele>703.0</ele><time>2026-04-05T09:53:10.47Z</time></trkpt><trkpt lat="42.0363933" lon="14.1786933"><ele>703.0</ele><time>2026-04-05T09:53:11.473Z</time></trkpt><trkpt lat="42.0365533" lon="14.1788517"><ele>703.0</ele><time>2026-04-05T09:53:12.473Z</time></trkpt><trkpt lat="42.0366883" lon="14.1790567"><ele>703.0</ele><time>2026-04-05T09:53:13.469Z</time></trkpt><trkpt lat="42.036815" lon="14.1793283"><ele>698.5</ele><time>2026-04-05T09:53:14.473Z</time></trkpt><trkpt lat="42.036945" lon="14.1796567"><ele>694.0</ele><time>2026-04-05T09:53:15.473Z</time></trkpt><trkpt lat="42.03709" lon="14.180025"><ele>691.0</ele><time>2026-04-05T09:53:16.47Z</time></trkpt><trkpt lat="42.0372317" lon="14.1803883"><ele>688.0</ele><time>2026-04-05T09:53:17.475Z</time></trkpt><trkpt lat="42.0373533" lon="14.1807017"><ele>685.6666666666667</ele><time>2026-04-05T09:53:18.47Z</time></trkpt><trkpt lat="42.0374583" lon="14.1809583"><ele>683.3333333333334</ele><time>2026-04-05T09:53:19.472Z</time></trkpt><trkpt lat="42.0375483" lon="14.18118"><ele>681.0</ele><time>2026-04-05T09:53:20.472Z</time></trkpt><trkpt lat="42.0376233" lon="14.1813867"><ele>684.3333333333334</ele><time>2026-04-05T09:53:21.47Z</time></trkpt><trkpt lat="42.03768" lon="14.1815967"><ele>687.6666666666667</ele><time>2026-04-05T09:53:22.471Z</time></trkpt><trkpt lat="42.037705" lon="14.181825"><ele>691.0</ele><time>2026-04-05T09:53:23.469Z</time></trkpt><trkpt lat="42.037705" lon="14.182065"><ele>691.0</ele><time>2026-04-05T09:53:24.471Z</time></trkpt><trkpt lat="42.037695" lon="14.18229"><ele>691.0</ele><time>2026-04-05T09:53:25.473Z</time></trkpt><trkpt lat="42.03769" lon="14.18248"><ele>691.0</ele><time>2026-04-05T09:53:26.47Z</time></trkpt><trkpt lat="42.0377133" lon="14.1826283"><ele>691.0</ele><time>2026-04-05T09:53:27.469Z</time></trkpt><trkpt lat="42.0377733" lon="14.182745"><ele>689.4</ele><time>2026-04-05T09:53:28.471Z</time></trkpt><trkpt lat="42.03787" lon="14.1828317"><ele>687.8</ele><time>2026-04-05T09:53:29.471Z</time></trkpt><trkpt lat="42.03797" lon="14.1829033"><ele>686.1999999999999</ele><time>2026-04-05T09:53:30.472Z</time></trkpt><trkpt lat="42.0380583" lon="14.1829567"><ele>684.5999999999999</ele><time>2026-04-05T09:53:31.472Z</time></trkpt><trkpt lat="42.0381267" lon="14.1829933"><ele>683.0</ele><time>2026-04-05T09:53:32.473Z</time></trkpt><trkpt lat="42.0382117" lon="14.1830333"><ele>682.0</ele><time>2026-04-05T09:53:34.471Z</time></trkpt><trkpt lat="42.0383217" lon="14.1830533"><ele>681.0</ele><time>2026-04-05T09:54:48.471Z</time></trkpt><trkpt lat="42.0383983" lon="14.1830717"><ele>680.0</ele><time>2026-04-05T09:54:49.469Z</time></trkpt><trkpt lat="42.0384967" lon="14.1831067"><ele>679.0</ele><time>2026-04-05T09:54:50.474Z</time></trkpt><trkpt lat="42.0386017" lon="14.1831567"><ele>678.0</ele><time>2026-04-05T09:54:51.469Z</time></trkpt><trkpt lat="42.0387017" lon="14.1832067"><ele>678.0</ele><time>2026-04-05T09:54:52.47Z</time></trkpt><trkpt lat="42.0388067" lon="14.183265"><ele>678.0</ele><time>2026-04-05T09:54:53.469Z</time></trkpt><trkpt lat="42.038925" lon="14.1833383"><ele>678.0</ele><time>2026-04-05T09:54:54.469Z</time></trkpt><trkpt lat="42.039045" lon="14.1834083"><ele>678.0</ele><time>2026-04-05T09:54:55.476Z</time></trkpt><trkpt lat="42.0391567" lon="14.1834733"><ele>680.75</ele><time>2026-04-05T09:54:56.47Z</time></trkpt><trkpt lat="42.0392633" lon="14.1835533"><ele>683.5</ele><time>2026-04-05T09:54:57.469Z</time></trkpt><trkpt lat="42.0393683" lon="14.1836583"><ele>686.25</ele><time>2026-04-05T09:54:58.47Z</time></trkpt><trkpt lat="42.03947" lon="14.1837817"><ele>689.0</ele><time>2026-04-05T09:54:59.468Z</time></trkpt><trkpt lat="42.039565" lon="14.1839083"><ele>682.5</ele><time>2026-04-05T09:55:00.47Z</time></trkpt><trkpt lat="42.0396617" lon="14.1840283"><ele>676.0</ele><time>2026-04-05T09:55:01.472Z</time></trkpt><trkpt lat="42.0397433" lon="14.184165"><ele>669.5</ele><time>2026-04-05T09:55:02.472Z</time></trkpt><trkpt lat="42.0398233" lon="14.1842867"><ele>663.0</ele><time>2026-04-05T09:55:03.472Z</time></trkpt><trkpt lat="42.0399083" lon="14.1843917"><ele>666.5</ele><time>2026-04-05T09:55:04.473Z</time></trkpt><trkpt lat="42.0400083" lon="14.1844583"><ele>670.0</ele><time>2026-04-05T09:55:05.471Z</time></trkpt><trkpt lat="42.04012" lon="14.1845067"><ele>673.5</ele><time>2026-04-05T09:55:06.474Z</time></trkpt><trkpt lat="42.040235" lon="14.1845567"><ele>677.0</ele><time>2026-04-05T09:55:07.471Z</time></trkpt><trkpt lat="42.0403467" lon="14.1846167"><ele>677.0</ele><time>2026-04-05T09:55:08.472Z</time></trkpt><trkpt lat="42.0404467" lon="14.184705"><ele>677.0</ele><time>2026-04-05T09:55:09.475Z</time></trkpt><trkpt lat="42.0405383" lon="14.1848133"><ele>677.0</ele><time>2026-04-05T09:55:10.472Z</time></trkpt><trkpt lat="42.0406083" lon="14.1849483"><ele>677.0</ele><time>2026-04-05T09:55:11.469Z</time></trkpt><trkpt lat="42.0406667" lon="14.185105"><ele>676.0</ele><time>2026-04-05T09:55:12.476Z</time></trkpt><trkpt lat="42.0407233" lon="14.18526"><ele>675.0</ele><time>2026-04-05T09:55:13.469Z</time></trkpt><trkpt lat="42.04078" lon="14.1854067"><ele>674.0</ele><time>2026-04-05T09:55:14.47Z</time></trkpt><trkpt lat="42.0408367" lon="14.1855417"><ele>673.0</ele><time>2026-04-05T09:55:15.47Z</time></trkpt><trkpt lat="42.0408883" lon="14.1856767"><ele>671.5999999999999</ele><time>2026-04-05T09:55:16.468Z</time></trkpt><trkpt lat="42.0409317" lon="14.18578"><ele>670.1999999999999</ele><time>2026-04-05T09:55:17.469Z</time></trkpt><trkpt lat="42.0409783" lon="14.1858467"><ele>668.8</ele><time>2026-04-05T09:55:18.469Z</time></trkpt><trkpt lat="42.0410667" lon="14.1859267"><ele>667.4</ele><time>2026-04-05T09:55:20.468Z</time></trkpt><trkpt lat="42.0411917" lon="14.1859783"><ele>666.0</ele><time>2026-04-05T09:55:22.468Z</time></trkpt><trkpt lat="42.0412717" lon="14.1860233"><ele>666.0</ele><time>2026-04-05T09:55:23.468Z</time></trkpt><trkpt lat="42.0413533" lon="14.1860767"><ele>666.0</ele><time>2026-04-05T09:55:24.475Z</time></trkpt><trkpt lat="42.0414383" lon="14.1861317"><ele>666.0</ele><time>2026-04-05T09:55:25.471Z</time></trkpt><trkpt lat="42.04152" lon="14.1861867"><ele>666.0</ele><time>2026-04-05T09:55:26.472Z</time></trkpt><trkpt lat="42.0415933" lon="14.1862583"><ele>666.0</ele><time>2026-04-05T09:55:27.471Z</time></trkpt><trkpt lat="42.0416633" lon="14.186325"><ele>665.5999999999999</ele><time>2026-04-05T09:55:28.471Z</time></trkpt><trkpt lat="42.0417367" lon="14.18639"><ele>665.2</ele><time>2026-04-05T09:55:29.475Z</time></trkpt><trkpt lat="42.0417983" lon="14.1864733"><ele>664.8</ele><time>2026-04-05T09:55:30.474Z</time></trkpt><trkpt lat="42.0418567" lon="14.1865733"><ele>664.4000000000001</ele><time>2026-04-05T09:55:31.471Z</time></trkpt><trkpt lat="42.0419133" lon="14.186675"><ele>664.0</ele><time>2026-04-05T09:55:32.474Z</time></trkpt><trkpt lat="42.0419667" lon="14.18678"><ele>664.0</ele><time>2026-04-05T09:55:33.471Z</time></trkpt><trkpt lat="42.042015" lon="14.1868867"><ele>664.0</ele><time>2026-04-05T09:55:34.473Z</time></trkpt><trkpt lat="42.0420517" lon="14.1869967"><ele>664.0</ele><time>2026-04-05T09:55:35.469Z</time></trkpt><trkpt lat="42.0421067" lon="14.18709"><ele>664.0</ele><time>2026-04-05T09:55:36.471Z</time></trkpt><trkpt lat="42.042175" lon="14.1871583"><ele>664.0</ele><time>2026-04-05T09:55:37.468Z</time></trkpt><trkpt lat="42.0422483" lon="14.1872117"><ele>664.0</ele><time>2026-04-05T09:55:38.471Z</time></trkpt><trkpt lat="42.0423233" lon="14.1872617"><ele>664.0</ele><time>2026-04-05T09:55:39.475Z</time></trkpt><trkpt lat="42.0423983" lon="14.1873067"><ele>664.0</ele><time>2026-04-05T09:55:40.469Z</time></trkpt><trkpt lat="42.0424767" lon="14.187345"><ele>664.0</ele><time>2026-04-05T09:55:41.474Z</time></trkpt><trkpt lat="42.0425533" lon="14.18738"><ele>664.0</ele><time>2026-04-05T09:55:42.469Z</time></trkpt><trkpt lat="42.0426233" lon="14.1874183"><ele>664.0</ele><time>2026-04-05T09:55:43.469Z</time></trkpt><trkpt lat="42.04271" lon="14.1874433"><ele>664.0</ele><time>2026-04-05T09:55:44.47Z</time></trkpt><trkpt lat="42.0427983" lon="14.1874567"><ele>664.0</ele><time>2026-04-05T09:55:45.468Z</time></trkpt><trkpt lat="42.04289" lon="14.1874717"><ele>664.0</ele><time>2026-04-05T09:55:46.47Z</time></trkpt><trkpt lat="42.0429917" lon="14.1874967"><ele>664.0</ele><time>2026-04-05T09:55:47.468Z</time></trkpt><trkpt lat="42.0431017" lon="14.1875267"><ele>664.0</ele><time>2026-04-05T09:55:48.471Z</time></trkpt><trkpt lat="42.0432233" lon="14.1875417"><ele>664.0</ele><time>2026-04-05T09:55:49.469Z</time></trkpt><trkpt lat="42.0433533" lon="14.187575"><ele>664.0</ele><time>2026-04-05T09:55:50.473Z</time></trkpt><trkpt lat="42.04349" lon="14.1876133"><ele>664.0</ele><time>2026-04-05T09:55:51.47Z</time></trkpt><trkpt lat="42.0436233" lon="14.1876433"><ele>664.0</ele><time>2026-04-05T09:55:52.468Z</time></trkpt><trkpt lat="42.0437483" lon="14.1876733"><ele>664.0</ele><time>2026-04-05T09:55:53.47Z</time></trkpt><trkpt lat="42.04387" lon="14.187705"><ele>664.0</ele><time>2026-04-05T09:55:54.47Z</time></trkpt><trkpt lat="42.0439917" lon="14.1877367"><ele>664.0</ele><time>2026-04-05T09:55:55.47Z</time></trkpt><trkpt lat="42.0441133" lon="14.18776"><ele>664.0</ele><time>2026-04-05T09:55:56.47Z</time></trkpt><trkpt lat="42.04423" lon="14.1877867"><ele>664.0</ele><time>2026-04-05T09:55:57.469Z</time></trkpt><trkpt lat="42.04434" lon="14.1878217"><ele>664.0</ele><time>2026-04-05T09:55:58.471Z</time></trkpt><trkpt lat="42.04445" lon="14.18786"><ele>664.0</ele><time>2026-04-05T09:55:59.469Z</time></trkpt><trkpt lat="42.0445567" lon="14.1879117"><ele>664.0</ele><time>2026-04-05T09:56:00.473Z</time></trkpt><trkpt lat="42.04467" lon="14.1879667"><ele>664.0</ele><time>2026-04-05T09:56:01.471Z</time></trkpt><trkpt lat="42.0447933" lon="14.1880367"><ele>664.0</ele><time>2026-04-05T09:56:02.47Z</time></trkpt><trkpt lat="42.04492" lon="14.18811"><ele>664.0</ele><time>2026-04-05T09:56:03.469Z</time></trkpt><trkpt lat="42.0450433" lon="14.1882133"><ele>664.0</ele><time>2026-04-05T09:56:04.471Z</time></trkpt><trkpt lat="42.04516" lon="14.1883467"><ele>664.0</ele><time>2026-04-05T09:56:05.47Z</time></trkpt><trkpt lat="42.0452667" lon="14.188505"><ele>659.0</ele><time>2026-04-05T09:56:06.472Z</time></trkpt><trkpt lat="42.0453583" lon="14.18869"><ele>654.0</ele><time>2026-04-05T09:56:07.469Z</time></trkpt><trkpt lat="42.0454517" lon="14.1888833"><ele>649.0</ele><time>2026-04-05T09:56:08.469Z</time></trkpt><trkpt lat="42.045555" lon="14.189075"><ele>648.3333333333334</ele><time>2026-04-05T09:56:09.472Z</time></trkpt><trkpt lat="42.0456583" lon="14.1892667"><ele>647.6666666666666</ele><time>2026-04-05T09:56:10.471Z</time></trkpt><trkpt lat="42.0457617" lon="14.1894567"><ele>647.0</ele><time>2026-04-05T09:56:11.47Z</time></trkpt><trkpt lat="42.04586" lon="14.1896433"><ele>647.0</ele><time>2026-04-05T09:56:12.471Z</time></trkpt><trkpt lat="42.045955" lon="14.1898217"><ele>647.0</ele><time>2026-04-05T09:56:13.471Z</time></trkpt><trkpt lat="42.046045" lon="14.189995"><ele>647.0</ele><time>2026-04-05T09:56:14.472Z</time></trkpt><trkpt lat="42.0461217" lon="14.1901733"><ele>643.6666666666666</ele><time>2026-04-05T09:56:15.468Z</time></trkpt><trkpt lat="42.046195" lon="14.1903583"><ele>640.3333333333334</ele><time>2026-04-05T09:56:16.473Z</time></trkpt><trkpt lat="42.0462583" lon="14.1905667"><ele>637.0</ele><time>2026-04-05T09:56:17.47Z</time></trkpt><trkpt lat="42.046305" lon="14.19079"><ele>634.0</ele><time>2026-04-05T09:56:18.47Z</time></trkpt><trkpt lat="42.0463417" lon="14.1910017"><ele>631.0</ele><time>2026-04-05T09:56:19.469Z</time></trkpt><trkpt lat="42.0463817" lon="14.1912033"><ele>628.0</ele><time>2026-04-05T09:56:20.47Z</time></trkpt><trkpt lat="42.0464433" lon="14.191385"><ele>628.0</ele><time>2026-04-05T09:56:21.469Z</time></trkpt><trkpt lat="42.046525" lon="14.191535"><ele>628.0</ele><time>2026-04-05T09:56:22.469Z</time></trkpt><trkpt lat="42.0466283" lon="14.1916317"><ele>628.0</ele><time>2026-04-05T09:56:23.469Z</time></trkpt><trkpt lat="42.0467417" lon="14.1916817"><ele>628.0</ele><time>2026-04-05T09:56:24.471Z</time></trkpt><trkpt lat="42.0468617" lon="14.1916767"><ele>628.0</ele><time>2026-04-05T09:56:25.47Z</time></trkpt><trkpt lat="42.0469717" lon="14.191595"><ele>628.0</ele><time>2026-04-05T09:56:26.473Z</time></trkpt><trkpt lat="42.0470717" lon="14.1914433"><ele>628.0</ele><time>2026-04-05T09:56:27.469Z</time></trkpt><trkpt lat="42.0471933" lon="14.1912717"><ele>628.5</ele><time>2026-04-05T09:56:28.469Z</time></trkpt><trkpt lat="42.0473567" lon="14.191085"><ele>629.0</ele><time>2026-04-05T09:56:29.473Z</time></trkpt><trkpt lat="42.0475633" lon="14.1909067"><ele>629.0</ele><time>2026-04-05T09:56:30.472Z</time></trkpt><trkpt lat="42.0477783" lon="14.190775"><ele>629.0</ele><time>2026-04-05T09:56:31.472Z</time></trkpt><trkpt lat="42.0479767" lon="14.19069"><ele>629.0</ele><time>2026-04-05T09:56:32.473Z</time></trkpt><trkpt lat="42.0481783" lon="14.19066"><ele>625.5</ele><time>2026-04-05T09:56:33.471Z</time></trkpt><trkpt lat="42.0483967" lon="14.1906783"><ele>622.0</ele><time>2026-04-05T09:56:34.473Z</time></trkpt><trkpt lat="42.0486367" lon="14.1907233"><ele>622.0</ele><time>2026-04-05T09:56:35.473Z</time></trkpt><trkpt lat="42.0488917" lon="14.1907917"><ele>622.0</ele><time>2026-04-05T09:56:36.474Z</time></trkpt><trkpt lat="42.0491517" lon="14.19087"><ele>620.0</ele><time>2026-04-05T09:56:37.473Z</time></trkpt><trkpt lat="42.04939" lon="14.1909633"><ele>618.0</ele><time>2026-04-05T09:56:38.473Z</time></trkpt><trkpt lat="42.0496083" lon="14.1910417"><ele>618.0</ele><time>2026-04-05T09:56:39.472Z</time></trkpt><trkpt lat="42.049805" lon="14.19111"><ele>618.0</ele><time>2026-04-05T09:56:40.472Z</time></trkpt><trkpt lat="42.049995" lon="14.19116"><ele>618.0</ele><time>2026-04-05T09:56:41.473Z</time></trkpt><trkpt lat="42.050185" lon="14.1911617"><ele>619.0</ele><time>2026-04-05T09:56:42.475Z</time></trkpt><trkpt lat="42.0503733" lon="14.1911067"><ele>620.0</ele><time>2026-04-05T09:56:43.473Z</time></trkpt><trkpt lat="42.05054" lon="14.19103"><ele>621.0</ele><time>2026-04-05T09:56:44.473Z</time></trkpt><trkpt lat="42.0506817" lon="14.190985"><ele>620.8</ele><time>2026-04-05T09:56:45.47Z</time></trkpt><trkpt lat="42.0507933" lon="14.1910033"><ele>620.6</ele><time>2026-04-05T09:56:46.469Z</time></trkpt><trkpt lat="42.05088" lon="14.1910583"><ele>620.4</ele><time>2026-04-05T09:56:47.47Z</time></trkpt><trkpt lat="42.0509283" lon="14.1911817"><ele>620.2</ele><time>2026-04-05T09:56:48.47Z</time></trkpt><trkpt lat="42.0509583" lon="14.1913617"><ele>620.0</ele><time>2026-04-05T09:56:49.471Z</time></trkpt><trkpt lat="42.0509783" lon="14.1915467"><ele>618.0</ele><time>2026-04-05T09:56:50.472Z</time></trkpt><trkpt lat="42.0509917" lon="14.191695"><ele>616.0</ele><time>2026-04-05T09:56:51.472Z</time></trkpt><trkpt lat="42.0510283" lon="14.1918033"><ele>614.0</ele><time>2026-04-05T09:56:52.471Z</time></trkpt><trkpt lat="42.0510883" lon="14.1918883"><ele>612.0</ele><time>2026-04-05T09:56:53.47Z</time></trkpt><trkpt lat="42.0511533" lon="14.1919333"><ele>610.0</ele><time>2026-04-05T09:56:54.471Z</time></trkpt><trkpt lat="42.0512317" lon="14.1919"><ele>608.0</ele><time>2026-04-05T09:56:55.47Z</time></trkpt><trkpt lat="42.0513517" lon="14.1916567"><ele>609.3333333333333</ele><time>2026-04-05T09:56:56.472Z</time></trkpt><trkpt lat="42.0514733" lon="14.1914767"><ele>610.6666666666666</ele><time>2026-04-05T09:56:57.473Z</time></trkpt><trkpt lat="42.0516017" lon="14.1912933"><ele>612.0</ele><time>2026-04-05T09:56:58.469Z</time></trkpt><trkpt lat="42.0517233" lon="14.1911283"><ele>612.0</ele><time>2026-04-05T09:56:59.469Z</time></trkpt><trkpt lat="42.051855" lon="14.1909983"><ele>612.0</ele><time>2026-04-05T09:57:00.469Z</time></trkpt><trkpt lat="42.0520067" lon="14.1909033"><ele>612.0</ele><time>2026-04-05T09:57:01.469Z</time></trkpt><trkpt lat="42.05218" lon="14.1908367"><ele>612.0</ele><time>2026-04-05T09:57:02.473Z</time></trkpt><trkpt lat="42.0523483" lon="14.1907933"><ele>612.0</ele><time>2026-04-05T09:57:03.469Z</time></trkpt><trkpt lat="42.0524967" lon="14.1907833"><ele>612.0</ele><time>2026-04-05T09:57:04.471Z</time></trkpt><trkpt lat="42.05262" lon="14.1908"><ele>612.0</ele><time>2026-04-05T09:57:05.47Z</time></trkpt><trkpt lat="42.0527083" lon="14.1908383"><ele>608.5</ele><time>2026-04-05T09:57:06.469Z</time></trkpt><trkpt lat="42.05278" lon="14.19094"><ele>605.0</ele><time>2026-04-05T09:57:07.469Z</time></trkpt><trkpt lat="42.05285" lon="14.1910917"><ele>601.5</ele><time>2026-04-05T09:57:08.472Z</time></trkpt><trkpt lat="42.05295" lon="14.1912617"><ele>598.0</ele><time>2026-04-05T09:57:09.469Z</time></trkpt><trkpt lat="42.0530767" lon="14.1914233"><ele>596.6666666666667</ele><time>2026-04-05T09:57:10.47Z</time></trkpt><trkpt lat="42.0532167" lon="14.1915667"><ele>595.3333333333334</ele><time>2026-04-05T09:57:11.47Z</time></trkpt><trkpt lat="42.0533367" lon="14.191705"><ele>594.0</ele><time>2026-04-05T09:57:12.469Z</time></trkpt><trkpt lat="42.053425" lon="14.1918533"><ele>594.0</ele><time>2026-04-05T09:57:13.471Z</time></trkpt><trkpt lat="42.0534667" lon="14.1920367"><ele>594.0</ele><time>2026-04-05T09:57:14.469Z</time></trkpt><trkpt lat="42.0534667" lon="14.192255"><ele>594.0</ele><time>2026-04-05T09:57:15.47Z</time></trkpt><trkpt lat="42.0534317" lon="14.1925"><ele>589.5</ele><time>2026-04-05T09:57:16.47Z</time></trkpt><trkpt lat="42.0533617" lon="14.19277"><ele>585.0</ele><time>2026-04-05T09:57:17.47Z</time></trkpt><trkpt lat="42.053265" lon="14.1930817"><ele>572.5</ele><time>2026-04-05T09:57:18.471Z</time></trkpt><trkpt lat="42.0531817" lon="14.1934317"><ele>560.0</ele><time>2026-04-05T09:57:19.471Z</time></trkpt><trkpt lat="42.0531117" lon="14.193785"><ele>558.0</ele><time>2026-04-05T09:57:20.475Z</time></trkpt><trkpt lat="42.0530483" lon="14.1940867"><ele>556.0</ele><time>2026-04-05T09:57:21.472Z</time></trkpt><trkpt lat="42.0529867" lon="14.1943333"><ele>554.0</ele><time>2026-04-05T09:57:22.471Z</time></trkpt><trkpt lat="42.052935" lon="14.1945417"><ele>554.0</ele><time>2026-04-05T09:57:23.47Z</time></trkpt><trkpt lat="42.0529083" lon="14.19473"><ele>554.0</ele><time>2026-04-05T09:57:24.47Z</time></trkpt><trkpt lat="42.052925" lon="14.194905"><ele>554.0</ele><time>2026-04-05T09:57:25.469Z</time></trkpt><trkpt lat="42.0529817" lon="14.1950483"><ele>554.0</ele><time>2026-04-05T09:57:26.474Z</time></trkpt><trkpt lat="42.0530833" lon="14.1951517"><ele>552.0</ele><time>2026-04-05T09:57:27.471Z</time></trkpt><trkpt lat="42.0532383" lon="14.1952283"><ele>550.0</ele><time>2026-04-05T09:57:28.47Z</time></trkpt><trkpt lat="42.0534283" lon="14.1953117"><ele>548.0</ele><time>2026-04-05T09:57:29.471Z</time></trkpt><trkpt lat="42.05361" lon="14.1954267"><ele>549.0</ele><time>2026-04-05T09:57:30.472Z</time></trkpt><trkpt lat="42.05378" lon="14.1955567"><ele>550.0</ele><time>2026-04-05T09:57:31.476Z</time></trkpt><trkpt lat="42.053945" lon="14.195725"><ele>551.0</ele><time>2026-04-05T09:57:32.471Z</time></trkpt><trkpt lat="42.0541017" lon="14.195935"><ele>555.0</ele><time>2026-04-05T09:57:33.473Z</time></trkpt><trkpt lat="42.0542517" lon="14.1961717"><ele>559.0</ele><time>2026-04-05T09:57:34.47Z</time></trkpt><trkpt lat="42.0543833" lon="14.1964283"><ele>555.0</ele><time>2026-04-05T09:57:35.471Z</time></trkpt><trkpt lat="42.0544867" lon="14.196685"><ele>551.0</ele><time>2026-04-05T09:57:36.476Z</time></trkpt><trkpt lat="42.0545683" lon="14.1969483"><ele>547.0</ele><time>2026-04-05T09:57:37.471Z</time></trkpt><trkpt lat="42.0546233" lon="14.19724"><ele>543.5</ele><time>2026-04-05T09:57:38.47Z</time></trkpt><trkpt lat="42.0546583" lon="14.1975517"><ele>540.0</ele><time>2026-04-05T09:57:39.474Z</time></trkpt><trkpt lat="42.054685" lon="14.19786"><ele>540.0</ele><time>2026-04-05T09:57:40.471Z</time></trkpt><trkpt lat="42.054725" lon="14.19815"><ele>540.0</ele><time>2026-04-05T09:57:41.47Z</time></trkpt><trkpt lat="42.0547833" lon="14.1984183"><ele>540.0</ele><time>2026-04-05T09:57:42.471Z</time></trkpt><trkpt lat="42.0548633" lon="14.1986567"><ele>539.6666666666666</ele><time>2026-04-05T09:57:43.471Z</time></trkpt><trkpt lat="42.0549617" lon="14.1988633"><ele>539.3333333333333</ele><time>2026-04-05T09:57:44.471Z</time></trkpt><trkpt lat="42.0550833" lon="14.1990417"><ele>539.0</ele><time>2026-04-05T09:57:45.472Z</time></trkpt><trkpt lat="42.0552217" lon="14.199185"><ele>539.0</ele><time>2026-04-05T09:57:46.47Z</time></trkpt><trkpt lat="42.0553517" lon="14.1993017"><ele>539.0</ele><time>2026-04-05T09:57:47.47Z</time></trkpt><trkpt lat="42.0554517" lon="14.1994033"><ele>539.0</ele><time>2026-04-05T09:57:48.472Z</time></trkpt><trkpt lat="42.055515" lon="14.1994983"><ele>539.0</ele><time>2026-04-05T09:57:49.471Z</time></trkpt><trkpt lat="42.0555417" lon="14.19959"><ele>539.0</ele><time>2026-04-05T09:57:50.472Z</time></trkpt><trkpt lat="42.0555367" lon="14.19968"><ele>539.0</ele><time>2026-04-05T09:57:51.476Z</time></trkpt><trkpt lat="42.0555183" lon="14.1997617"><ele>539.0</ele><time>2026-04-05T09:57:52.47Z</time></trkpt><trkpt lat="42.0554017" lon="14.199745"><ele>539.0</ele><time>2026-04-05T09:57:53.472Z</time></trkpt><trkpt lat="42.055275" lon="14.1996983"><ele>539.0</ele><time>2026-04-05T09:57:54.47Z</time></trkpt><trkpt lat="42.05513" lon="14.199605"><ele>539.0</ele><time>2026-04-05T09:57:55.471Z</time></trkpt><trkpt lat="42.0549967" lon="14.1995217"><ele>539.0</ele><time>2026-04-05T09:57:56.47Z</time></trkpt><trkpt lat="42.0548767" lon="14.1994533"><ele>539.0</ele><time>2026-04-05T09:57:57.472Z</time></trkpt><trkpt lat="42.0547633" lon="14.1994217"><ele>539.0</ele><time>2026-04-05T09:57:58.471Z</time></trkpt><trkpt lat="42.0546683" lon="14.19944"><ele>535.4</ele><time>2026-04-05T09:57:59.469Z</time></trkpt><trkpt lat="42.0545817" lon="14.199505"><ele>531.8</ele><time>2026-04-05T09:58:00.472Z</time></trkpt><trkpt lat="42.05455" lon="14.1995967"><ele>528.2</ele><time>2026-04-05T09:58:01.469Z</time></trkpt><trkpt lat="42.0545733" lon="14.1997017"><ele>524.6</ele><time>2026-04-05T09:58:02.47Z</time></trkpt><trkpt lat="42.054615" lon="14.1998117"><ele>521.0</ele><time>2026-04-05T09:58:03.47Z</time></trkpt><trkpt lat="42.0547167" lon="14.1999083"><ele>519.3333333333333</ele><time>2026-04-05T09:58:04.471Z</time></trkpt><trkpt lat="42.0548483" lon="14.2000067"><ele>517.6666666666666</ele><time>2026-04-05T09:58:05.472Z</time></trkpt><trkpt lat="42.054985" lon="14.2001033"><ele>516.0</ele><time>2026-04-05T09:58:06.471Z</time></trkpt><trkpt lat="42.05512" lon="14.2001983"><ele>520.6666666666666</ele><time>2026-04-05T09:58:07.471Z</time></trkpt><trkpt lat="42.0552517" lon="14.2002933"><ele>525.3333333333333</ele><time>2026-04-05T09:58:08.471Z</time></trkpt><trkpt lat="42.0553833" lon="14.2003967"><ele>530.0</ele><time>2026-04-05T09:58:09.47Z</time></trkpt><trkpt lat="42.0555167" lon="14.2004983"><ele>530.0</ele><time>2026-04-05T09:58:10.47Z</time></trkpt><trkpt lat="42.055645" lon="14.2005967"><ele>530.0</ele><time>2026-04-05T09:58:11.469Z</time></trkpt><trkpt lat="42.0557683" lon="14.2006933"><ele>530.0</ele><time>2026-04-05T09:58:12.47Z</time></trkpt><trkpt lat="42.0558883" lon="14.2007883"><ele>530.0</ele><time>2026-04-05T09:58:13.47Z</time></trkpt><trkpt lat="42.0560033" lon="14.2008883"><ele>529.25</ele><time>2026-04-05T09:58:14.471Z</time></trkpt><trkpt lat="42.0561117" lon="14.201015"><ele>528.5</ele><time>2026-04-05T09:58:15.47Z</time></trkpt><trkpt lat="42.0562117" lon="14.2011633"><ele>527.75</ele><time>2026-04-05T09:58:16.47Z</time></trkpt><trkpt lat="42.056315" lon="14.2013117"><ele>527.0</ele><time>2026-04-05T09:58:17.471Z</time></trkpt><trkpt lat="42.0564233" lon="14.2014517"><ele>525.75</ele><time>2026-04-05T09:58:18.474Z</time></trkpt><trkpt lat="42.0565333" lon="14.2015883"><ele>524.5</ele><time>2026-04-05T09:58:19.47Z</time></trkpt><trkpt lat="42.056635" lon="14.20173"><ele>523.25</ele><time>2026-04-05T09:58:20.472Z</time></trkpt><trkpt lat="42.0567333" lon="14.2018783"><ele>522.0</ele><time>2026-04-05T09:58:21.472Z</time></trkpt><trkpt lat="42.05683" lon="14.20204"><ele>522.0</ele><time>2026-04-05T09:58:22.472Z</time></trkpt><trkpt lat="42.0569217" lon="14.20221"><ele>522.0</ele><time>2026-04-05T09:58:23.472Z</time></trkpt><trkpt lat="42.057005" lon="14.2023917"><ele>522.0</ele><time>2026-04-05T09:58:24.47Z</time></trkpt><trkpt lat="42.0570767" lon="14.2025867"><ele>519.0</ele><time>2026-04-05T09:58:25.471Z</time></trkpt><trkpt lat="42.05714" lon="14.2027917"><ele>516.0</ele><time>2026-04-05T09:58:26.474Z</time></trkpt><trkpt lat="42.057195" lon="14.2029983"><ele>513.0</ele><time>2026-04-05T09:58:27.47Z</time></trkpt><trkpt lat="42.0572483" lon="14.2031983"><ele>512.6666666666666</ele><time>2026-04-05T09:58:28.474Z</time></trkpt><trkpt lat="42.0573017" lon="14.2033933"><ele>512.3333333333333</ele><time>2026-04-05T09:58:29.469Z</time></trkpt><trkpt lat="42.0573667" lon="14.20359"><ele>512.0</ele><time>2026-04-05T09:58:30.469Z</time></trkpt><trkpt lat="42.057455" lon="14.2037717"><ele>512.0</ele><time>2026-04-05T09:58:31.471Z</time></trkpt><trkpt lat="42.05756" lon="14.2039433"><ele>512.0</ele><time>2026-04-05T09:58:32.471Z</time></trkpt><trkpt lat="42.05766" lon="14.204105"><ele>512.0</ele><time>2026-04-05T09:58:33.471Z</time></trkpt><trkpt lat="42.0577583" lon="14.20426"><ele>510.5</ele><time>2026-04-05T09:58:34.47Z</time></trkpt><trkpt lat="42.057855" lon="14.2044017"><ele>509.0</ele><time>2026-04-05T09:58:35.472Z</time></trkpt><trkpt lat="42.05796" lon="14.20453"><ele>507.5</ele><time>2026-04-05T09:58:36.473Z</time></trkpt><trkpt lat="42.058085" lon="14.2046367"><ele>506.0</ele><time>2026-04-05T09:58:37.469Z</time></trkpt><trkpt lat="42.05822" lon="14.2047167"><ele>505.25</ele><time>2026-04-05T09:58:38.471Z</time></trkpt><trkpt lat="42.0583433" lon="14.20479"><ele>504.5</ele><time>2026-04-05T09:58:39.47Z</time></trkpt><trkpt lat="42.0584483" lon="14.2048833"><ele>503.75</ele><time>2026-04-05T09:58:40.47Z</time></trkpt><trkpt lat="42.0585367" lon="14.20502"><ele>503.0</ele><time>2026-04-05T09:58:41.47Z</time></trkpt><trkpt lat="42.05861" lon="14.2051967"><ele>503.0</ele><time>2026-04-05T09:58:42.47Z</time></trkpt><trkpt lat="42.058675" lon="14.2054"><ele>503.0</ele><time>2026-04-05T09:58:43.47Z</time></trkpt><trkpt lat="42.058735" lon="14.20562"><ele>503.0</ele><time>2026-04-05T09:58:44.473Z</time></trkpt><trkpt lat="42.0588033" lon="14.205835"><ele>499.66666666666663</ele><time>2026-04-05T09:58:45.472Z</time></trkpt><trkpt lat="42.058885" lon="14.2060583"><ele>496.33333333333337</ele><time>2026-04-05T09:58:46.47Z</time></trkpt><trkpt lat="42.0589917" lon="14.2063033"><ele>493.0</ele><time>2026-04-05T09:58:47.471Z</time></trkpt><trkpt lat="42.0591067" lon="14.2066"><ele>496.0</ele><time>2026-04-05T09:58:48.472Z</time></trkpt><trkpt lat="42.0592033" lon="14.206925"><ele>499.0</ele><time>2026-04-05T09:58:49.472Z</time></trkpt><trkpt lat="42.0592833" lon="14.2072233"><ele>495.33333333333337</ele><time>2026-04-05T09:58:50.473Z</time></trkpt><trkpt lat="42.0593567" lon="14.20747"><ele>491.66666666666663</ele><time>2026-04-05T09:58:51.474Z</time></trkpt><trkpt lat="42.059415" lon="14.2076617"><ele>488.0</ele><time>2026-04-05T09:58:52.471Z</time></trkpt><trkpt lat="42.0594533" lon="14.2078117"><ele>487.99999999999994</ele><time>2026-04-05T09:58:53.475Z</time></trkpt><trkpt lat="42.0594717" lon="14.2079267"><ele>488.0</ele><time>2026-04-05T09:58:54.47Z</time></trkpt><trkpt lat="42.0594683" lon="14.208025"><ele>488.0</ele><time>2026-04-05T09:58:55.471Z</time></trkpt><trkpt lat="42.0594233" lon="14.208085"><ele>488.0</ele><time>2026-04-05T09:58:56.469Z</time></trkpt><trkpt lat="42.0593567" lon="14.2080833"><ele>487.99999999999994</ele><time>2026-04-05T09:58:57.47Z</time></trkpt><trkpt lat="42.0592833" lon="14.2080067"><ele>488.0</ele><time>2026-04-05T09:58:58.473Z</time></trkpt><trkpt lat="42.0592067" lon="14.2078583"><ele>488.0</ele><time>2026-04-05T09:58:59.471Z</time></trkpt><trkpt lat="42.0591233" lon="14.2076533"><ele>488.0</ele><time>2026-04-05T09:59:00.469Z</time></trkpt><trkpt lat="42.0590433" lon="14.2074233"><ele>488.0</ele><time>2026-04-05T09:59:01.472Z</time></trkpt><trkpt lat="42.0589667" lon="14.2072267"><ele>487.5</ele><time>2026-04-05T09:59:02.472Z</time></trkpt><trkpt lat="42.058885" lon="14.2070633"><ele>487.0</ele><time>2026-04-05T09:59:03.469Z</time></trkpt><trkpt lat="42.0587883" lon="14.2069283"><ele>486.5</ele><time>2026-04-05T09:59:04.472Z</time></trkpt><trkpt lat="42.0586733" lon="14.20682"><ele>486.0</ele><time>2026-04-05T09:59:05.469Z</time></trkpt><trkpt lat="42.0585383" lon="14.20674"><ele>486.0</ele><time>2026-04-05T09:59:06.469Z</time></trkpt><trkpt lat="42.0583883" lon="14.20669"><ele>486.0</ele><time>2026-04-05T09:59:07.469Z</time></trkpt><trkpt lat="42.05823" lon="14.2066667"><ele>486.0</ele><time>2026-04-05T09:59:08.471Z</time></trkpt><trkpt lat="42.058065" lon="14.2066767"><ele>483.0</ele><time>2026-04-05T09:59:09.471Z</time></trkpt><trkpt lat="42.0579017" lon="14.2067133"><ele>480.0</ele><time>2026-04-05T09:59:10.469Z</time></trkpt><trkpt lat="42.05773" lon="14.20676"><ele>477.0</ele><time>2026-04-05T09:59:11.471Z</time></trkpt><trkpt lat="42.0575583" lon="14.206795"><ele>475.5</ele><time>2026-04-05T09:59:12.47Z</time></trkpt><trkpt lat="42.0573967" lon="14.2068017"><ele>474.0</ele><time>2026-04-05T09:59:13.471Z</time></trkpt><trkpt lat="42.05725" lon="14.206795"><ele>472.5</ele><time>2026-04-05T09:59:14.472Z</time></trkpt><trkpt lat="42.05712" lon="14.2068017"><ele>471.0</ele><time>2026-04-05T09:59:15.47Z</time></trkpt><trkpt lat="42.057" lon="14.2068483"><ele>471.0</ele><time>2026-04-05T09:59:16.47Z</time></trkpt><trkpt lat="42.0568683" lon="14.2069483"><ele>471.0</ele><time>2026-04-05T09:59:17.474Z</time></trkpt><trkpt lat="42.056735" lon="14.2070883"><ele>471.0</ele><time>2026-04-05T09:59:18.473Z</time></trkpt><trkpt lat="42.0566283" lon="14.2072283"><ele>470.0</ele><time>2026-04-05T09:59:19.471Z</time></trkpt><trkpt lat="42.056565" lon="14.2073633"><ele>469.0</ele><time>2026-04-05T09:59:20.473Z</time></trkpt><trkpt lat="42.0565567" lon="14.2075183"><ele>468.0</ele><time>2026-04-05T09:59:21.471Z</time></trkpt><trkpt lat="42.0565933" lon="14.2076917"><ele>467.0</ele><time>2026-04-05T09:59:22.471Z</time></trkpt><trkpt lat="42.0566533" lon="14.2078333"><ele>467.0</ele><time>2026-04-05T09:59:23.472Z</time></trkpt><trkpt lat="42.0567383" lon="14.2079233"><ele>467.0</ele><time>2026-04-05T09:59:24.469Z</time></trkpt><trkpt lat="42.0568383" lon="14.207975"><ele>467.0</ele><time>2026-04-05T09:59:25.469Z</time></trkpt><trkpt lat="42.0569467" lon="14.2079817"><ele>467.0</ele><time>2026-04-05T09:59:26.471Z</time></trkpt><trkpt lat="42.0570567" lon="14.2078983"><ele>467.0</ele><time>2026-04-05T09:59:27.471Z</time></trkpt><trkpt lat="42.05717" lon="14.20775"><ele>467.0</ele><time>2026-04-05T09:59:28.472Z</time></trkpt><trkpt lat="42.0572833" lon="14.2076583"><ele>467.0</ele><time>2026-04-05T09:59:29.471Z</time></trkpt><trkpt lat="42.0574067" lon="14.2076267"><ele>467.0</ele><time>2026-04-05T09:59:30.471Z</time></trkpt><trkpt lat="42.0575233" lon="14.207655"><ele>466.3333333333333</ele><time>2026-04-05T09:59:31.471Z</time></trkpt><trkpt lat="42.0576317" lon="14.20776"><ele>465.66666666666663</ele><time>2026-04-05T09:59:32.473Z</time></trkpt><trkpt lat="42.0577367" lon="14.20796"><ele>465.0</ele><time>2026-04-05T09:59:33.471Z</time></trkpt><trkpt lat="42.0578117" lon="14.2082167"><ele>462.33333333333337</ele><time>2026-04-05T09:59:34.47Z</time></trkpt><trkpt lat="42.057855" lon="14.2084767"><ele>459.6666666666667</ele><time>2026-04-05T09:59:35.475Z</time></trkpt><trkpt lat="42.057865" lon="14.20872"><ele>457.0</ele><time>2026-04-05T09:59:36.471Z</time></trkpt><trkpt lat="42.0578267" lon="14.2089583"><ele>455.0</ele><time>2026-04-05T09:59:37.474Z</time></trkpt><trkpt lat="42.05775" lon="14.2091767"><ele>453.0</ele><time>2026-04-05T09:59:38.471Z</time></trkpt><trkpt lat="42.0576633" lon="14.20936"><ele>451.0</ele><time>2026-04-05T09:59:39.473Z</time></trkpt><trkpt lat="42.0576233" lon="14.2095283"><ele>451.0</ele><time>2026-04-05T09:59:40.47Z</time></trkpt><trkpt lat="42.0576267" lon="14.209705"><ele>451.0</ele><time>2026-04-05T09:59:41.473Z</time></trkpt><trkpt lat="42.057665" lon="14.2098717"><ele>451.0</ele><time>2026-04-05T09:59:42.473Z</time></trkpt><trkpt lat="42.05777" lon="14.2100283"><ele>451.0</ele><time>2026-04-05T09:59:43.473Z</time></trkpt><trkpt lat="42.0579033" lon="14.2101917"><ele>449.33333333333337</ele><time>2026-04-05T09:59:44.472Z</time></trkpt><trkpt lat="42.0579917" lon="14.2103967"><ele>447.66666666666663</ele><time>2026-04-05T09:59:45.475Z</time></trkpt><trkpt lat="42.0580633" lon="14.2106167"><ele>446.0</ele><time>2026-04-05T09:59:46.469Z</time></trkpt><trkpt lat="42.0581167" lon="14.2108433"><ele>447.66666666666663</ele><time>2026-04-05T09:59:47.472Z</time></trkpt><trkpt lat="42.0581967" lon="14.21105"><ele>449.33333333333337</ele><time>2026-04-05T09:59:48.469Z</time></trkpt><trkpt lat="42.058315" lon="14.211235"><ele>451.0</ele><time>2026-04-05T09:59:49.47Z</time></trkpt><trkpt lat="42.0584467" lon="14.21138"><ele>451.0</ele><time>2026-04-05T09:59:50.473Z</time></trkpt><trkpt lat="42.0585683" lon="14.2114833"><ele>451.0</ele><time>2026-04-05T09:59:51.47Z</time></trkpt><trkpt lat="42.0586567" lon="14.2115683"><ele>451.0</ele><time>2026-04-05T09:59:52.471Z</time></trkpt><trkpt lat="42.0587117" lon="14.2116517"><ele>451.0</ele><time>2026-04-05T09:59:53.471Z</time></trkpt><trkpt lat="42.058675" lon="14.2117833"><ele>451.0</ele><time>2026-04-05T09:59:55.47Z</time></trkpt><trkpt lat="42.0586017" lon="14.2117933"><ele>447.33333333333337</ele><time>2026-04-05T09:59:56.471Z</time></trkpt><trkpt lat="42.0584333" lon="14.21165"><ele>443.66666666666663</ele><time>2026-04-05T09:59:57.471Z</time></trkpt><trkpt lat="42.05826" lon="14.2114833"><ele>440.0</ele><time>2026-04-05T09:59:58.47Z</time></trkpt><trkpt lat="42.058075" lon="14.2113117"><ele>438.66666666666663</ele><time>2026-04-05T09:59:59.472Z</time></trkpt><trkpt lat="42.057905" lon="14.2111583"><ele>437.33333333333337</ele><time>2026-04-05T10:00:00.473Z</time></trkpt><trkpt lat="42.05777" lon="14.2110233"><ele>436.0</ele><time>2026-04-05T10:00:01.471Z</time></trkpt><trkpt lat="42.05766" lon="14.2108633"><ele>436.0</ele><time>2026-04-05T10:00:02.474Z</time></trkpt><trkpt lat="42.05757" lon="14.210685"><ele>436.0</ele><time>2026-04-05T10:00:03.471Z</time></trkpt><trkpt lat="42.0574733" lon="14.210535"><ele>436.0</ele><time>2026-04-05T10:00:04.47Z</time></trkpt><trkpt lat="42.057355" lon="14.21042"><ele>434.25</ele><time>2026-04-05T10:00:05.471Z</time></trkpt><trkpt lat="42.0572017" lon="14.2103467"><ele>432.5</ele><time>2026-04-05T10:00:06.471Z</time></trkpt><trkpt lat="42.0570533" lon="14.2103"><ele>430.75</ele><time>2026-04-05T10:00:07.473Z</time></trkpt><trkpt lat="42.0569317" lon="14.2102367"><ele>429.0</ele><time>2026-04-05T10:00:08.472Z</time></trkpt><trkpt lat="42.0568433" lon="14.2101383"><ele>429.0</ele><time>2026-04-05T10:00:09.471Z</time></trkpt><trkpt lat="42.056785" lon="14.2100067"><ele>429.0</ele><time>2026-04-05T10:00:10.471Z</time></trkpt><trkpt lat="42.05676" lon="14.209845"><ele>429.0</ele><time>2026-04-05T10:00:11.47Z</time></trkpt><trkpt lat="42.0567367" lon="14.2096983"><ele>429.0</ele><time>2026-04-05T10:00:12.472Z</time></trkpt><trkpt lat="42.0566933" lon="14.2095933"><ele>429.0</ele><time>2026-04-05T10:00:13.47Z</time></trkpt><trkpt lat="42.05663" lon="14.2095217"><ele>429.5</ele><time>2026-04-05T10:00:14.472Z</time></trkpt><trkpt lat="42.0565283" lon="14.2094933"><ele>430.0</ele><time>2026-04-05T10:00:15.473Z</time></trkpt><trkpt lat="42.0563933" lon="14.2094967"><ele>430.5</ele><time>2026-04-05T10:00:16.47Z</time></trkpt><trkpt lat="42.0562483" lon="14.2094867"><ele>431.0</ele><time>2026-04-05T10:00:17.47Z</time></trkpt><trkpt lat="42.0560833" lon="14.2094067"><ele>431.0</ele><time>2026-04-05T10:00:18.475Z</time></trkpt><trkpt lat="42.0559067" lon="14.2092783"><ele>431.0</ele><time>2026-04-05T10:00:19.47Z</time></trkpt><trkpt lat="42.0557267" lon="14.20915"><ele>431.0</ele><time>2026-04-05T10:00:20.471Z</time></trkpt><trkpt lat="42.0555533" lon="14.20904"><ele>427.3333333333333</ele><time>2026-04-05T10:00:21.471Z</time></trkpt><trkpt lat="42.0553917" lon="14.208895"><ele>423.66666666666663</ele><time>2026-04-05T10:00:22.47Z</time></trkpt><trkpt lat="42.0552467" lon="14.208725"><ele>420.0</ele><time>2026-04-05T10:00:23.473Z</time></trkpt><trkpt lat="42.0551367" lon="14.2085767"><ele>420.0</ele><time>2026-04-05T10:00:24.469Z</time></trkpt><trkpt lat="42.0550367" lon="14.2084867"><ele>420.0</ele><time>2026-04-05T10:00:25.473Z</time></trkpt><trkpt lat="42.05494" lon="14.20846"><ele>420.0</ele><time>2026-04-05T10:00:26.47Z</time></trkpt><trkpt lat="42.0548367" lon="14.2085017"><ele>420.0</ele><time>2026-04-05T10:00:27.47Z</time></trkpt><trkpt lat="42.0547367" lon="14.2085967"><ele>420.0</ele><time>2026-04-05T10:00:28.472Z</time></trkpt><trkpt lat="42.0546433" lon="14.2087533"><ele>415.75</ele><time>2026-04-05T10:00:29.473Z</time></trkpt><trkpt lat="42.0545883" lon="14.2089467"><ele>411.5</ele><time>2026-04-05T10:00:30.473Z</time></trkpt><trkpt lat="42.0545767" lon="14.2091433"><ele>407.25</ele><time>2026-04-05T10:00:31.473Z</time></trkpt><trkpt lat="42.0546067" lon="14.2093283"><ele>403.0</ele><time>2026-04-05T10:00:32.472Z</time></trkpt><trkpt lat="42.054675" lon="14.2094883"><ele>403.0</ele><time>2026-04-05T10:00:33.472Z</time></trkpt><trkpt lat="42.0547833" lon="14.2096033"><ele>403.0</ele><time>2026-04-05T10:00:34.472Z</time></trkpt><trkpt lat="42.0549233" lon="14.209675"><ele>403.0</ele><time>2026-04-05T10:00:35.474Z</time></trkpt><trkpt lat="42.0550867" lon="14.2097033"><ele>403.6666666666667</ele><time>2026-04-05T10:00:36.473Z</time></trkpt><trkpt lat="42.0552467" lon="14.2097217"><ele>404.33333333333337</ele><time>2026-04-05T10:00:37.471Z</time></trkpt><trkpt lat="42.0554033" lon="14.20977"><ele>405.0</ele><time>2026-04-05T10:00:38.473Z</time></trkpt><trkpt lat="42.0555633" lon="14.2098783"><ele>405.0</ele><time>2026-04-05T10:00:39.471Z</time></trkpt><trkpt lat="42.055715" lon="14.21002"><ele>405.0</ele><time>2026-04-05T10:00:40.474Z</time></trkpt><trkpt lat="42.055845" lon="14.2101867"><ele>405.0</ele><time>2026-04-05T10:00:41.471Z</time></trkpt><trkpt lat="42.0559533" lon="14.2103817"><ele>402.66666666666663</ele><time>2026-04-05T10:00:42.469Z</time></trkpt><trkpt lat="42.0560333" lon="14.2106233"><ele>400.3333333333333</ele><time>2026-04-05T10:00:43.471Z</time></trkpt><trkpt lat="42.0560867" lon="14.2108833"><ele>398.0</ele><time>2026-04-05T10:00:44.472Z</time></trkpt><trkpt lat="42.0561133" lon="14.2111483"><ele>398.0</ele><time>2026-04-05T10:00:45.472Z</time></trkpt><trkpt lat="42.0561083" lon="14.21141"><ele>398.0</ele><time>2026-04-05T10:00:46.472Z</time></trkpt><trkpt lat="42.0561017" lon="14.21164"><ele>398.0</ele><time>2026-04-05T10:00:47.472Z</time></trkpt><trkpt lat="42.0561283" lon="14.2118417"><ele>396.0</ele><time>2026-04-05T10:00:48.47Z</time></trkpt><trkpt lat="42.0561983" lon="14.2120233"><ele>394.0</ele><time>2026-04-05T10:00:49.473Z</time></trkpt><trkpt lat="42.0563133" lon="14.2121667"><ele>392.0</ele><time>2026-04-05T10:00:50.47Z</time></trkpt><trkpt lat="42.056465" lon="14.2122467"><ele>393.0</ele><time>2026-04-05T10:00:51.47Z</time></trkpt><trkpt lat="42.05662" lon="14.21229"><ele>394.0</ele><time>2026-04-05T10:00:52.471Z</time></trkpt><trkpt lat="42.056765" lon="14.212365"><ele>395.0</ele><time>2026-04-05T10:00:53.469Z</time></trkpt><trkpt lat="42.056905" lon="14.2124833"><ele>395.0</ele><time>2026-04-05T10:00:54.472Z</time></trkpt><trkpt lat="42.0570533" lon="14.2126883"><ele>395.0</ele><time>2026-04-05T10:00:55.47Z</time></trkpt><trkpt lat="42.0571917" lon="14.2129833"><ele>388.0</ele><time>2026-04-05T10:00:56.471Z</time></trkpt><trkpt lat="42.0573233" lon="14.2133117"><ele>381.0</ele><time>2026-04-05T10:00:57.472Z</time></trkpt><trkpt lat="42.0574417" lon="14.2136167"><ele>380.0</ele><time>2026-04-05T10:00:58.472Z</time></trkpt><trkpt lat="42.0575817" lon="14.2138967"><ele>379.0</ele><time>2026-04-05T10:00:59.471Z</time></trkpt><trkpt lat="42.0577683" lon="14.2141883"><ele>379.0</ele><time>2026-04-05T10:01:00.47Z</time></trkpt><trkpt lat="42.05797" lon="14.2144867"><ele>379.0</ele><time>2026-04-05T10:01:01.471Z</time></trkpt><trkpt lat="42.0581517" lon="14.2147567"><ele>378.5</ele><time>2026-04-05T10:01:02.472Z</time></trkpt><trkpt lat="42.058335" lon="14.214995"><ele>378.0</ele><time>2026-04-05T10:01:03.471Z</time></trkpt><trkpt lat="42.0585217" lon="14.215195"><ele>378.0</ele><time>2026-04-05T10:01:04.471Z</time></trkpt><trkpt lat="42.0586933" lon="14.2153417"><ele>378.0</ele><time>2026-04-05T10:01:05.471Z</time></trkpt><trkpt lat="42.0588633" lon="14.2154317"><ele>378.0</ele><time>2026-04-05T10:01:06.473Z</time></trkpt><trkpt lat="42.0590483" lon="14.2154783"><ele>379.3333333333333</ele><time>2026-04-05T10:01:07.472Z</time></trkpt><trkpt lat="42.0592417" lon="14.2154867"><ele>380.66666666666663</ele><time>2026-04-05T10:01:08.473Z</time></trkpt><trkpt lat="42.0594183" lon="14.21549"><ele>382.0</ele><time>2026-04-05T10:01:09.471Z</time></trkpt><trkpt lat="42.05958" lon="14.2155167"><ele>382.0</ele><time>2026-04-05T10:01:10.47Z</time></trkpt><trkpt lat="42.0597433" lon="14.2155817"><ele>382.0</ele><time>2026-04-05T10:01:11.469Z</time></trkpt><trkpt lat="42.0599083" lon="14.21568"><ele>382.0</ele><time>2026-04-05T10:01:12.469Z</time></trkpt><trkpt lat="42.060045" lon="14.2157867"><ele>378.75</ele><time>2026-04-05T10:01:13.468Z</time></trkpt><trkpt lat="42.0601467" lon="14.2158967"><ele>375.5</ele><time>2026-04-05T10:01:14.47Z</time></trkpt><trkpt lat="42.0602167" lon="14.2160317"><ele>372.25</ele><time>2026-04-05T10:01:15.47Z</time></trkpt><trkpt lat="42.0602717" lon="14.2162"><ele>369.0</ele><time>2026-04-05T10:01:16.468Z</time></trkpt><trkpt lat="42.0603" lon="14.2164167"><ele>365.3333333333333</ele><time>2026-04-05T10:01:17.471Z</time></trkpt><trkpt lat="42.06034" lon="14.2166483"><ele>361.66666666666663</ele><time>2026-04-05T10:01:18.471Z</time></trkpt><trkpt lat="42.0604217" lon="14.2168933"><ele>358.0</ele><time>2026-04-05T10:01:19.471Z</time></trkpt><trkpt lat="42.0605583" lon="14.2171633"><ele>358.5</ele><time>2026-04-05T10:01:20.472Z</time></trkpt><trkpt lat="42.0607367" lon="14.2174217"><ele>359.0</ele><time>2026-04-05T10:01:21.471Z</time></trkpt><trkpt lat="42.0609083" lon="14.2176367"><ele>359.0</ele><time>2026-04-05T10:01:22.469Z</time></trkpt><trkpt lat="42.06105" lon="14.2178517"><ele>359.0</ele><time>2026-04-05T10:01:23.471Z</time></trkpt><trkpt lat="42.0611767" lon="14.2181183"><ele>359.0</ele><time>2026-04-05T10:01:24.471Z</time></trkpt><trkpt lat="42.0612917" lon="14.218405"><ele>355.6666666666667</ele><time>2026-04-05T10:01:25.472Z</time></trkpt><trkpt lat="42.0613883" lon="14.2186567"><ele>352.3333333333333</ele><time>2026-04-05T10:01:26.472Z</time></trkpt><trkpt lat="42.06148" lon="14.218855"><ele>349.0</ele><time>2026-04-05T10:01:27.471Z</time></trkpt><trkpt lat="42.061595" lon="14.2190233"><ele>348.66666666666663</ele><time>2026-04-05T10:01:28.47Z</time></trkpt><trkpt lat="42.06174" lon="14.21915"><ele>348.3333333333333</ele><time>2026-04-05T10:01:29.472Z</time></trkpt><trkpt lat="42.0618917" lon="14.2192283"><ele>348.0</ele><time>2026-04-05T10:01:30.47Z</time></trkpt><trkpt lat="42.06206" lon="14.21922"><ele>348.0</ele><time>2026-04-05T10:01:31.471Z</time></trkpt><trkpt lat="42.0622233" lon="14.219145"><ele>348.0</ele><time>2026-04-05T10:01:32.472Z</time></trkpt><trkpt lat="42.06238" lon="14.2190967"><ele>348.0</ele><time>2026-04-05T10:01:33.471Z</time></trkpt><trkpt lat="42.06255" lon="14.21909"><ele>348.6666666666667</ele><time>2026-04-05T10:01:34.474Z</time></trkpt><trkpt lat="42.0627517" lon="14.2191383"><ele>349.33333333333337</ele><time>2026-04-05T10:01:35.471Z</time></trkpt><trkpt lat="42.0629483" lon="14.21922"><ele>350.0</ele><time>2026-04-05T10:01:36.471Z</time></trkpt><trkpt lat="42.0631267" lon="14.219315"><ele>350.0</ele><time>2026-04-05T10:01:37.471Z</time></trkpt><trkpt lat="42.0632783" lon="14.2194517"><ele>350.0</ele><time>2026-04-05T10:01:38.471Z</time></trkpt><trkpt lat="42.063405" lon="14.219645"><ele>350.0</ele><time>2026-04-05T10:01:39.472Z</time></trkpt><trkpt lat="42.063505" lon="14.21988"><ele>347.0</ele><time>2026-04-05T10:01:40.471Z</time></trkpt><trkpt lat="42.06357" lon="14.2201283"><ele>344.0</ele><time>2026-04-05T10:01:41.471Z</time></trkpt><trkpt lat="42.063605" lon="14.2203983"><ele>341.0</ele><time>2026-04-05T10:01:42.471Z</time></trkpt><trkpt lat="42.0636233" lon="14.2206533"><ele>340.0</ele><time>2026-04-05T10:01:43.472Z</time></trkpt><trkpt lat="42.063615" lon="14.22087"><ele>339.0</ele><time>2026-04-05T10:01:44.474Z</time></trkpt><trkpt lat="42.0635833" lon="14.2210867"><ele>338.0</ele><time>2026-04-05T10:01:45.47Z</time></trkpt><trkpt lat="42.0635267" lon="14.2212967"><ele>336.6666666666667</ele><time>2026-04-05T10:01:46.469Z</time></trkpt><trkpt lat="42.06346" lon="14.22149"><ele>335.3333333333333</ele><time>2026-04-05T10:01:47.469Z</time></trkpt><trkpt lat="42.0633817" lon="14.221655"><ele>334.0</ele><time>2026-04-05T10:01:48.47Z</time></trkpt><trkpt lat="42.063265" lon="14.221795"><ele>332.75</ele><time>2026-04-05T10:01:49.476Z</time></trkpt><trkpt lat="42.0631283" lon="14.2219117"><ele>331.5</ele><time>2026-04-05T10:01:50.47Z</time></trkpt><trkpt lat="42.062995" lon="14.2220067"><ele>330.25</ele><time>2026-04-05T10:01:51.468Z</time></trkpt><trkpt lat="42.0628967" lon="14.222125"><ele>329.0</ele><time>2026-04-05T10:01:52.468Z</time></trkpt><trkpt lat="42.0628183" lon="14.2222733"><ele>328.33333333333337</ele><time>2026-04-05T10:01:53.469Z</time></trkpt><trkpt lat="42.0627533" lon="14.2224867"><ele>327.6666666666667</ele><time>2026-04-05T10:01:54.471Z</time></trkpt><trkpt lat="42.0627017" lon="14.2227517"><ele>327.0</ele><time>2026-04-05T10:01:55.469Z</time></trkpt><trkpt lat="42.0626783" lon="14.2229967"><ele>325.6666666666667</ele><time>2026-04-05T10:01:56.47Z</time></trkpt><trkpt lat="42.062685" lon="14.223215"><ele>324.33333333333337</ele><time>2026-04-05T10:01:57.473Z</time></trkpt><trkpt lat="42.0627233" lon="14.2234117"><ele>323.0</ele><time>2026-04-05T10:01:58.47Z</time></trkpt><trkpt lat="42.062795" lon="14.2235983"><ele>323.0</ele><time>2026-04-05T10:01:59.47Z</time></trkpt><trkpt lat="42.0629217" lon="14.2237667"><ele>323.0</ele><time>2026-04-05T10:02:00.469Z</time></trkpt><trkpt lat="42.0630667" lon="14.2239117"><ele>323.0</ele><time>2026-04-05T10:02:01.47Z</time></trkpt><trkpt lat="42.0632183" lon="14.2240067"><ele>321.0</ele><time>2026-04-05T10:02:02.471Z</time></trkpt><trkpt lat="42.0633767" lon="14.22403"><ele>319.0</ele><time>2026-04-05T10:02:03.47Z</time></trkpt><trkpt lat="42.0635367" lon="14.2240217"><ele>317.0</ele><time>2026-04-05T10:02:04.471Z</time></trkpt><trkpt lat="42.0637" lon="14.2240217"><ele>317.0</ele><time>2026-04-05T10:02:05.469Z</time></trkpt><trkpt lat="42.0638583" lon="14.2240667"><ele>317.0</ele><time>2026-04-05T10:02:06.473Z</time></trkpt><trkpt lat="42.0639933" lon="14.2241483"><ele>317.0</ele><time>2026-04-05T10:02:07.47Z</time></trkpt><trkpt lat="42.0640883" lon="14.22426"><ele>317.0</ele><time>2026-04-05T10:02:08.47Z</time></trkpt><trkpt lat="42.0641467" lon="14.2244"><ele>317.25</ele><time>2026-04-05T10:02:09.47Z</time></trkpt><trkpt lat="42.06417" lon="14.2245767"><ele>317.5</ele><time>2026-04-05T10:02:10.47Z</time></trkpt><trkpt lat="42.0641933" lon="14.224745"><ele>317.75</ele><time>2026-04-05T10:02:11.471Z</time></trkpt><trkpt lat="42.0642483" lon="14.2248867"><ele>318.0</ele><time>2026-04-05T10:02:12.468Z</time></trkpt><trkpt lat="42.0643583" lon="14.2250083"><ele>316.3333333333333</ele><time>2026-04-05T10:02:13.472Z</time></trkpt><trkpt lat="42.0645083" lon="14.2251017"><ele>314.66666666666663</ele><time>2026-04-05T10:02:14.469Z</time></trkpt><trkpt lat="42.0646633" lon="14.2251567"><ele>313.0</ele><time>2026-04-05T10:02:15.469Z</time></trkpt><trkpt lat="42.064805" lon="14.2251717"><ele>312.3333333333333</ele><time>2026-04-05T10:02:16.469Z</time></trkpt><trkpt lat="42.0649467" lon="14.2251183"><ele>311.6666666666667</ele><time>2026-04-05T10:02:17.469Z</time></trkpt><trkpt lat="42.06511" lon="14.2249817"><ele>311.0</ele><time>2026-04-05T10:02:18.469Z</time></trkpt><trkpt lat="42.0652533" lon="14.2248433"><ele>311.0</ele><time>2026-04-05T10:02:19.474Z</time></trkpt><trkpt lat="42.06537" lon="14.224755"><ele>311.0</ele><time>2026-04-05T10:02:20.471Z</time></trkpt><trkpt lat="42.0654667" lon="14.2247233"><ele>311.0</ele><time>2026-04-05T10:02:21.471Z</time></trkpt><trkpt lat="42.065545" lon="14.224735"><ele>311.0</ele><time>2026-04-05T10:02:22.468Z</time></trkpt><trkpt lat="42.0655883" lon="14.2248117"><ele>311.0</ele><time>2026-04-05T10:02:23.47Z</time></trkpt><trkpt lat="42.0656083" lon="14.22493"><ele>311.0</ele><time>2026-04-05T10:02:24.469Z</time></trkpt><trkpt lat="42.065555" lon="14.2251167"><ele>311.0</ele><time>2026-04-05T10:02:25.469Z</time></trkpt><trkpt lat="42.0654717" lon="14.2253167"><ele>311.0</ele><time>2026-04-05T10:02:26.468Z</time></trkpt><trkpt lat="42.06537" lon="14.2255033"><ele>309.40000000000003</ele><time>2026-04-05T10:02:27.47Z</time></trkpt><trkpt lat="42.0652717" lon="14.22565"><ele>307.8</ele><time>2026-04-05T10:02:28.472Z</time></trkpt><trkpt lat="42.0651983" lon="14.2257717"><ele>306.20000000000005</ele><time>2026-04-05T10:02:29.471Z</time></trkpt><trkpt lat="42.0651683" lon="14.2258767"><ele>304.6</ele><time>2026-04-05T10:02:30.473Z</time></trkpt><trkpt lat="42.065165" lon="14.2259733"><ele>303.0</ele><time>2026-04-05T10:02:31.473Z</time></trkpt><trkpt lat="42.0652383" lon="14.226065"><ele>303.0</ele><time>2026-04-05T10:02:33.47Z</time></trkpt><trkpt lat="42.0653833" lon="14.22599"><ele>303.0</ele><time>2026-04-05T10:02:34.471Z</time></trkpt><trkpt lat="42.0654983" lon="14.22593"><ele>303.0</ele><time>2026-04-05T10:02:35.471Z</time></trkpt><trkpt lat="42.0655883" lon="14.225905"><ele>303.0</ele><time>2026-04-05T10:02:36.472Z</time></trkpt><trkpt lat="42.0656617" lon="14.2259667"><ele>303.0</ele><time>2026-04-05T10:02:37.472Z</time></trkpt><trkpt lat="42.0657533" lon="14.2260683"><ele>303.0</ele><time>2026-04-05T10:02:38.473Z</time></trkpt><trkpt lat="42.0658117" lon="14.2262483"><ele>303.0</ele><time>2026-04-05T10:02:39.472Z</time></trkpt><trkpt lat="42.0658567" lon="14.2264767"><ele>303.0</ele><time>2026-04-05T10:02:40.47Z</time></trkpt><trkpt lat="42.0658917" lon="14.226675"><ele>300.2</ele><time>2026-04-05T10:02:41.472Z</time></trkpt><trkpt lat="42.0659383" lon="14.226815"><ele>297.4</ele><time>2026-04-05T10:02:42.471Z</time></trkpt><trkpt lat="42.066005" lon="14.226885"><ele>294.59999999999997</ele><time>2026-04-05T10:02:43.469Z</time></trkpt><trkpt lat="42.06608" lon="14.226915"><ele>291.8</ele><time>2026-04-05T10:02:44.47Z</time></trkpt><trkpt lat="42.06616" lon="14.22691"><ele>289.0</ele><time>2026-04-05T10:02:45.47Z</time></trkpt><trkpt lat="42.0662517" lon="14.2267317"><ele>289.0</ele><time>2026-04-05T10:02:46.469Z</time></trkpt><trkpt lat="42.06633" lon="14.2265667"><ele>289.0</ele><time>2026-04-05T10:02:47.468Z</time></trkpt><trkpt lat="42.066405" lon="14.226425"><ele>289.0</ele><time>2026-04-05T10:02:48.468Z</time></trkpt><trkpt lat="42.06648" lon="14.2263433"><ele>289.0</ele><time>2026-04-05T10:02:49.473Z</time></trkpt><trkpt lat="42.0665717" lon="14.2263267"><ele>289.0</ele><time>2026-04-05T10:02:50.472Z</time></trkpt><trkpt lat="42.0666817" lon="14.226375"><ele>289.0</ele><time>2026-04-05T10:02:51.471Z</time></trkpt><trkpt lat="42.06681" lon="14.226475"><ele>289.0</ele><time>2026-04-05T10:02:52.468Z</time></trkpt><trkpt lat="42.0669617" lon="14.2266233"><ele>289.0</ele><time>2026-04-05T10:02:53.47Z</time></trkpt><trkpt lat="42.0671217" lon="14.226835"><ele>289.0</ele><time>2026-04-05T10:02:54.471Z</time></trkpt><trkpt lat="42.0672583" lon="14.2270517"><ele>289.0</ele><time>2026-04-05T10:02:55.472Z</time></trkpt><trkpt lat="42.067365" lon="14.2273"><ele>287.0</ele><time>2026-04-05T10:02:56.474Z</time></trkpt><trkpt lat="42.0674567" lon="14.2275817"><ele>285.0</ele><time>2026-04-05T10:02:57.469Z</time></trkpt><trkpt lat="42.0675283" lon="14.227855"><ele>283.0</ele><time>2026-04-05T10:02:58.47Z</time></trkpt><trkpt lat="42.0675783" lon="14.2280867"><ele>282.5</ele><time>2026-04-05T10:02:59.471Z</time></trkpt><trkpt lat="42.0676017" lon="14.2282933"><ele>282.0</ele><time>2026-04-05T10:03:00.47Z</time></trkpt><trkpt lat="42.067595" lon="14.2284767"><ele>281.5</ele><time>2026-04-05T10:03:01.472Z</time></trkpt><trkpt lat="42.06756" lon="14.2286433"><ele>281.0</ele><time>2026-04-05T10:03:02.471Z</time></trkpt><trkpt lat="42.0675183" lon="14.22881"><ele>281.0</ele><time>2026-04-05T10:03:03.474Z</time></trkpt><trkpt lat="42.0674967" lon="14.2290117"><ele>281.0</ele><time>2026-04-05T10:03:04.472Z</time></trkpt><trkpt lat="42.0675133" lon="14.2292667"><ele>281.0</ele><time>2026-04-05T10:03:05.47Z</time></trkpt><trkpt lat="42.0675383" lon="14.2295517"><ele>280.0</ele><time>2026-04-05T10:03:06.47Z</time></trkpt><trkpt lat="42.0676083" lon="14.2299167"><ele>279.0</ele><time>2026-04-05T10:03:07.47Z</time></trkpt><trkpt lat="42.06766" lon="14.230245"><ele>279.0</ele><time>2026-04-05T10:03:08.473Z</time></trkpt><trkpt lat="42.0677067" lon="14.230515"><ele>279.0</ele><time>2026-04-05T10:03:09.471Z</time></trkpt><trkpt lat="42.06778" lon="14.2307517"><ele>279.0</ele><time>2026-04-05T10:03:10.471Z</time></trkpt><trkpt lat="42.06787" lon="14.2309733"><ele>277.3333333333333</ele><time>2026-04-05T10:03:11.47Z</time></trkpt><trkpt lat="42.06795" lon="14.23118"><ele>275.66666666666663</ele><time>2026-04-05T10:03:12.469Z</time></trkpt><trkpt lat="42.0680083" lon="14.2314067"><ele>274.0</ele><time>2026-04-05T10:03:13.469Z</time></trkpt><trkpt lat="42.0680333" lon="14.2316783"><ele>273.0</ele><time>2026-04-05T10:03:14.471Z</time></trkpt><trkpt lat="42.0680483" lon="14.2319583"><ele>272.0</ele><time>2026-04-05T10:03:15.471Z</time></trkpt><trkpt lat="42.06808" lon="14.2322383"><ele>271.0</ele><time>2026-04-05T10:03:16.47Z</time></trkpt><trkpt lat="42.0681367" lon="14.23251"><ele>269.3333333333333</ele><time>2026-04-05T10:03:17.476Z</time></trkpt><trkpt lat="42.06822" lon="14.2327783"><ele>267.6666666666667</ele><time>2026-04-05T10:03:18.471Z</time></trkpt><trkpt lat="42.068325" lon="14.2330483"><ele>266.0</ele><time>2026-04-05T10:03:19.471Z</time></trkpt><trkpt lat="42.0684517" lon="14.2333133"><ele>271.5</ele><time>2026-04-05T10:03:20.473Z</time></trkpt><trkpt lat="42.0686017" lon="14.233585"><ele>277.0</ele><time>2026-04-05T10:03:21.471Z</time></trkpt><trkpt lat="42.0687933" lon="14.2338667"><ele>277.5</ele><time>2026-04-05T10:03:22.475Z</time></trkpt><trkpt lat="42.0690167" lon="14.23417"><ele>278.0</ele><time>2026-04-05T10:03:23.471Z</time></trkpt><trkpt lat="42.069265" lon="14.2344967"><ele>271.5</ele><time>2026-04-05T10:03:24.471Z</time></trkpt><trkpt lat="42.06951" lon="14.2348183"><ele>265.0</ele><time>2026-04-05T10:03:25.472Z</time></trkpt><trkpt lat="42.0697217" lon="14.2350983"><ele>265.0</ele><time>2026-04-05T10:03:26.472Z</time></trkpt><trkpt lat="42.0698967" lon="14.2353483"><ele>265.0</ele><time>2026-04-05T10:03:27.471Z</time></trkpt><trkpt lat="42.0700433" lon="14.2355983"><ele>265.5</ele><time>2026-04-05T10:03:28.473Z</time></trkpt><trkpt lat="42.070165" lon="14.235885"><ele>266.0</ele><time>2026-04-05T10:03:29.473Z</time></trkpt><trkpt lat="42.07028" lon="14.2362233"><ele>263.5</ele><time>2026-04-05T10:03:30.471Z</time></trkpt><trkpt lat="42.0703867" lon="14.236605"><ele>261.0</ele><time>2026-04-05T10:03:31.471Z</time></trkpt><trkpt lat="42.070485" lon="14.236985"><ele>260.5</ele><time>2026-04-05T10:03:32.472Z</time></trkpt><trkpt lat="42.0705683" lon="14.2373233"><ele>260.0</ele><time>2026-04-05T10:03:33.471Z</time></trkpt><trkpt lat="42.0706517" lon="14.2376133"><ele>260.0</ele><time>2026-04-05T10:03:34.469Z</time></trkpt><trkpt lat="42.0707633" lon="14.237885"><ele>260.0</ele><time>2026-04-05T10:03:35.473Z</time></trkpt><trkpt lat="42.070915" lon="14.23816"><ele>266.5</ele><time>2026-04-05T10:03:36.472Z</time></trkpt><trkpt lat="42.0710817" lon="14.23841"><ele>273.0</ele><time>2026-04-05T10:03:37.472Z</time></trkpt><trkpt lat="42.0712217" lon="14.23861"><ele>273.0</ele><time>2026-04-05T10:03:38.471Z</time></trkpt><trkpt lat="42.0713283" lon="14.23881"><ele>273.0</ele><time>2026-04-05T10:03:39.472Z</time></trkpt><trkpt lat="42.07141" lon="14.2390383"><ele>273.0</ele><time>2026-04-05T10:03:40.469Z</time></trkpt><trkpt lat="42.0714617" lon="14.23927"><ele>273.3333333333333</ele><time>2026-04-05T10:03:41.476Z</time></trkpt><trkpt lat="42.0714633" lon="14.2395033"><ele>273.66666666666663</ele><time>2026-04-05T10:03:42.469Z</time></trkpt><trkpt lat="42.0714367" lon="14.2397517"><ele>274.0</ele><time>2026-04-05T10:03:43.47Z</time></trkpt><trkpt lat="42.0714067" lon="14.239995"><ele>273.3333333333333</ele><time>2026-04-05T10:03:44.471Z</time></trkpt><trkpt lat="42.0713933" lon="14.2402283"><ele>272.6666666666667</ele><time>2026-04-05T10:03:45.473Z</time></trkpt><trkpt lat="42.0714183" lon="14.2404417"><ele>272.0</ele><time>2026-04-05T10:03:46.471Z</time></trkpt><trkpt lat="42.0714883" lon="14.2406683"><ele>270.5</ele><time>2026-04-05T10:03:47.468Z</time></trkpt><trkpt lat="42.0716033" lon="14.24092"><ele>269.0</ele><time>2026-04-05T10:03:48.47Z</time></trkpt><trkpt lat="42.0717483" lon="14.2411767"><ele>269.0</ele><time>2026-04-05T10:03:49.471Z</time></trkpt><trkpt lat="42.0719133" lon="14.241405"><ele>269.0</ele><time>2026-04-05T10:03:50.471Z</time></trkpt><trkpt lat="42.07206" lon="14.241605"><ele>269.0</ele><time>2026-04-05T10:03:51.472Z</time></trkpt><trkpt lat="42.07218" lon="14.2417983"><ele>268.33333333333337</ele><time>2026-04-05T10:03:52.471Z</time></trkpt><trkpt lat="42.07229" lon="14.241985"><ele>267.6666666666667</ele><time>2026-04-05T10:03:53.472Z</time></trkpt><trkpt lat="42.0724067" lon="14.2421417"><ele>267.0</ele><time>2026-04-05T10:03:54.471Z</time></trkpt><trkpt lat="42.0725483" lon="14.2422833"><ele>269.3333333333333</ele><time>2026-04-05T10:03:55.471Z</time></trkpt><trkpt lat="42.0727033" lon="14.2424233"><ele>271.66666666666663</ele><time>2026-04-05T10:03:56.471Z</time></trkpt><trkpt lat="42.072845" lon="14.2425933"><ele>274.0</ele><time>2026-04-05T10:03:57.472Z</time></trkpt><trkpt lat="42.072965" lon="14.2427933"><ele>274.0</ele><time>2026-04-05T10:03:58.472Z</time></trkpt><trkpt lat="42.07306" lon="14.2430017"><ele>274.0</ele><time>2026-04-05T10:03:59.471Z</time></trkpt><trkpt lat="42.0731433" lon="14.2431817"><ele>274.0</ele><time>2026-04-05T10:04:00.471Z</time></trkpt><trkpt lat="42.0732433" lon="14.2433217"><ele>271.0</ele><time>2026-04-05T10:04:01.472Z</time></trkpt><trkpt lat="42.0733783" lon="14.2434317"><ele>268.0</ele><time>2026-04-05T10:04:02.472Z</time></trkpt><trkpt lat="42.073585" lon="14.2435117"><ele>265.0</ele><time>2026-04-05T10:04:03.471Z</time></trkpt><trkpt lat="42.0738533" lon="14.2435717"><ele>264.5</ele><time>2026-04-05T10:04:04.472Z</time></trkpt><trkpt lat="42.0741617" lon="14.24365"><ele>264.0</ele><time>2026-04-05T10:04:05.472Z</time></trkpt><trkpt lat="42.0744733" lon="14.2437433"><ele>264.0</ele><time>2026-04-05T10:04:06.471Z</time></trkpt><trkpt lat="42.07476" lon="14.2438317"><ele>264.0</ele><time>2026-04-05T10:04:07.471Z</time></trkpt><trkpt lat="42.075" lon="14.2439283"><ele>266.0</ele><time>2026-04-05T10:04:08.472Z</time></trkpt><trkpt lat="42.0752" lon="14.2440383"><ele>268.0</ele><time>2026-04-05T10:04:09.471Z</time></trkpt><trkpt lat="42.0753717" lon="14.2441767"><ele>270.0</ele><time>2026-04-05T10:04:10.472Z</time></trkpt><trkpt lat="42.0755383" lon="14.2443467"><ele>270.0</ele><time>2026-04-05T10:04:11.471Z</time></trkpt><trkpt lat="42.0756983" lon="14.2445383"><ele>270.0</ele><time>2026-04-05T10:04:12.471Z</time></trkpt><trkpt lat="42.0758467" lon="14.2447267"><ele>270.0</ele><time>2026-04-05T10:04:13.473Z</time></trkpt><trkpt lat="42.0759717" lon="14.244915"><ele>270.0</ele><time>2026-04-05T10:04:14.472Z</time></trkpt><trkpt lat="42.07606" lon="14.2451033"><ele>270.0</ele><time>2026-04-05T10:04:15.469Z</time></trkpt><trkpt lat="42.0761283" lon="14.2452817"><ele>270.0</ele><time>2026-04-05T10:04:16.468Z</time></trkpt><trkpt lat="42.07617" lon="14.245435"><ele>270.0</ele><time>2026-04-05T10:04:17.472Z</time></trkpt><trkpt lat="42.0761967" lon="14.2455533"><ele>272.1666666666667</ele><time>2026-04-05T10:04:18.472Z</time></trkpt><trkpt lat="42.0762167" lon="14.2456383"><ele>274.3333333333333</ele><time>2026-04-05T10:04:19.472Z</time></trkpt><trkpt lat="42.0762417" lon="14.2457267"><ele>276.5</ele><time>2026-04-05T10:04:21.471Z</time></trkpt><trkpt lat="42.076265" lon="14.2458433"><ele>278.66666666666663</ele><time>2026-04-05T10:04:56.47Z</time></trkpt><trkpt lat="42.0763233" lon="14.2459367"><ele>280.8333333333333</ele><time>2026-04-05T10:04:57.471Z</time></trkpt><trkpt lat="42.0763933" lon="14.2460483"><ele>283.0</ele><time>2026-04-05T10:04:58.471Z</time></trkpt><trkpt lat="42.0764917" lon="14.2461867"><ele>276.66666666666663</ele><time>2026-04-05T10:04:59.472Z</time></trkpt><trkpt lat="42.0766267" lon="14.2463583"><ele>270.3333333333333</ele><time>2026-04-05T10:05:00.472Z</time></trkpt><trkpt lat="42.07679" lon="14.246585"><ele>264.0</ele><time>2026-04-05T10:05:01.471Z</time></trkpt><trkpt lat="42.07694" lon="14.24681"><ele>264.0</ele><time>2026-04-05T10:05:02.472Z</time></trkpt><trkpt lat="42.0770683" lon="14.24704"><ele>264.0</ele><time>2026-04-05T10:05:03.472Z</time></trkpt><trkpt lat="42.0771767" lon="14.2472533"><ele>264.0</ele><time>2026-04-05T10:05:04.47Z</time></trkpt><trkpt lat="42.077265" lon="14.2474567"><ele>264.6666666666667</ele><time>2026-04-05T10:05:05.471Z</time></trkpt><trkpt lat="42.077335" lon="14.2476633"><ele>265.33333333333337</ele><time>2026-04-05T10:05:06.47Z</time></trkpt><trkpt lat="42.07739" lon="14.24788"><ele>266.0</ele><time>2026-04-05T10:05:07.469Z</time></trkpt><trkpt lat="42.0774333" lon="14.2481133"><ele>267.0</ele><time>2026-04-05T10:05:08.47Z</time></trkpt><trkpt lat="42.0774783" lon="14.248345"><ele>268.0</ele><time>2026-04-05T10:05:09.47Z</time></trkpt><trkpt lat="42.0775333" lon="14.2485617"><ele>269.0</ele><time>2026-04-05T10:05:10.469Z</time></trkpt><trkpt lat="42.0776067" lon="14.2487683"><ele>273.33333333333337</ele><time>2026-04-05T10:05:11.472Z</time></trkpt><trkpt lat="42.077705" lon="14.2489617"><ele>277.6666666666667</ele><time>2026-04-05T10:05:12.47Z</time></trkpt><trkpt lat="42.0778183" lon="14.2491667"><ele>282.0</ele><time>2026-04-05T10:05:13.468Z</time></trkpt><trkpt lat="42.0779567" lon="14.24939"><ele>282.0</ele><time>2026-04-05T10:05:14.474Z</time></trkpt><trkpt lat="42.0781083" lon="14.249625"><ele>282.0</ele><time>2026-04-05T10:05:15.471Z</time></trkpt><trkpt lat="42.0782567" lon="14.249865"><ele>278.0</ele><time>2026-04-05T10:05:16.472Z</time></trkpt><trkpt lat="42.0784017" lon="14.25009"><ele>274.0</ele><time>2026-04-05T10:05:17.471Z</time></trkpt><trkpt lat="42.0785317" lon="14.25029"><ele>270.0</ele><time>2026-04-05T10:05:18.47Z</time></trkpt><trkpt lat="42.078655" lon="14.2504733"><ele>274.3333333333333</ele><time>2026-04-05T10:05:19.47Z</time></trkpt><trkpt lat="42.0787783" lon="14.2506283"><ele>278.66666666666663</ele><time>2026-04-05T10:05:20.471Z</time></trkpt><trkpt lat="42.0789167" lon="14.250755"><ele>283.0</ele><time>2026-04-05T10:05:21.471Z</time></trkpt><trkpt lat="42.079065" lon="14.2508583"><ele>278.66666666666663</ele><time>2026-04-05T10:05:22.47Z</time></trkpt><trkpt lat="42.07923" lon="14.2509333"><ele>274.3333333333333</ele><time>2026-04-05T10:05:23.474Z</time></trkpt><trkpt lat="42.079415" lon="14.2509917"><ele>270.0</ele><time>2026-04-05T10:05:24.47Z</time></trkpt><trkpt lat="42.0796283" lon="14.25105"><ele>270.0</ele><time>2026-04-05T10:05:25.47Z</time></trkpt><trkpt lat="42.0798783" lon="14.2511217"><ele>270.0</ele><time>2026-04-05T10:05:26.47Z</time></trkpt><trkpt lat="42.0801683" lon="14.2512117"><ele>268.5</ele><time>2026-04-05T10:05:27.47Z</time></trkpt><trkpt lat="42.08047" lon="14.2513"><ele>267.0</ele><time>2026-04-05T10:05:28.471Z</time></trkpt><trkpt lat="42.0807533" lon="14.2513717"><ele>262.5</ele><time>2026-04-05T10:05:29.472Z</time></trkpt><trkpt lat="42.081015" lon="14.251425"><ele>258.0</ele><time>2026-04-05T10:05:30.472Z</time></trkpt><trkpt lat="42.0812633" lon="14.251455"><ele>257.5</ele><time>2026-04-05T10:05:31.47Z</time></trkpt><trkpt lat="42.0815133" lon="14.2514583"><ele>257.0</ele><time>2026-04-05T10:05:32.471Z</time></trkpt><trkpt lat="42.0817583" lon="14.2514183"><ele>257.0</ele><time>2026-04-05T10:05:33.472Z</time></trkpt><trkpt lat="42.08199" lon="14.2513667"><ele>257.0</ele><time>2026-04-05T10:05:34.472Z</time></trkpt><trkpt lat="42.082205" lon="14.2513117"><ele>257.0</ele><time>2026-04-05T10:05:35.471Z</time></trkpt><trkpt lat="42.0823983" lon="14.2512267"><ele>257.0</ele><time>2026-04-05T10:05:36.471Z</time></trkpt><trkpt lat="42.0825833" lon="14.2511183"><ele>257.0</ele><time>2026-04-05T10:05:37.47Z</time></trkpt><trkpt lat="42.0827483" lon="14.2509767"><ele>260.0</ele><time>2026-04-05T10:05:38.471Z</time></trkpt><trkpt lat="42.0828967" lon="14.2508383"><ele>263.0</ele><time>2026-04-05T10:05:39.471Z</time></trkpt><trkpt lat="42.083055" lon="14.25072"><ele>266.0</ele><time>2026-04-05T10:05:40.469Z</time></trkpt><trkpt lat="42.083225" lon="14.25063"><ele>263.33333333333337</ele><time>2026-04-05T10:05:41.47Z</time></trkpt><trkpt lat="42.083385" lon="14.2505817"><ele>260.6666666666667</ele><time>2026-04-05T10:05:42.47Z</time></trkpt><trkpt lat="42.0835367" lon="14.2505833"><ele>258.0</ele><time>2026-04-05T10:05:43.472Z</time></trkpt><trkpt lat="42.0836883" lon="14.25063"><ele>261.0</ele><time>2026-04-05T10:05:44.469Z</time></trkpt><trkpt lat="42.0838417" lon="14.2507217"><ele>264.0</ele><time>2026-04-05T10:05:45.47Z</time></trkpt><trkpt lat="42.083985" lon="14.2508567"><ele>267.0</ele><time>2026-04-05T10:05:46.469Z</time></trkpt><trkpt lat="42.0841017" lon="14.2510217"><ele>267.0</ele><time>2026-04-05T10:05:47.469Z</time></trkpt><trkpt lat="42.0841833" lon="14.2512133"><ele>267.0</ele><time>2026-04-05T10:05:48.471Z</time></trkpt><trkpt lat="42.08424" lon="14.2514283"><ele>267.0</ele><time>2026-04-05T10:05:49.47Z</time></trkpt><trkpt lat="42.084265" lon="14.251675"><ele>268.0</ele><time>2026-04-05T10:05:50.47Z</time></trkpt><trkpt lat="42.0842567" lon="14.251945"><ele>269.0</ele><time>2026-04-05T10:05:51.47Z</time></trkpt><trkpt lat="42.08421" lon="14.25222"><ele>270.0</ele><time>2026-04-05T10:05:52.472Z</time></trkpt><trkpt lat="42.0841383" lon="14.2524917"><ele>281.5</ele><time>2026-04-05T10:05:53.47Z</time></trkpt><trkpt lat="42.08408" lon="14.2527767"><ele>293.0</ele><time>2026-04-05T10:05:54.47Z</time></trkpt><trkpt lat="42.0840533" lon="14.2531017"><ele>291.5</ele><time>2026-04-05T10:05:55.47Z</time></trkpt><trkpt lat="42.0840667" lon="14.2534667"><ele>290.0</ele><time>2026-04-05T10:05:56.471Z</time></trkpt><trkpt lat="42.0841017" lon="14.2538767"><ele>281.0</ele><time>2026-04-05T10:05:57.471Z</time></trkpt><trkpt lat="42.084135" lon="14.2542867"><ele>272.0</ele><time>2026-04-05T10:05:58.472Z</time></trkpt><trkpt lat="42.0841667" lon="14.254635"><ele>272.33333333333337</ele><time>2026-04-05T10:05:59.471Z</time></trkpt><trkpt lat="42.084205" lon="14.2549283"><ele>272.6666666666667</ele><time>2026-04-05T10:06:00.471Z</time></trkpt><trkpt lat="42.0842583" lon="14.2551883"><ele>273.0</ele><time>2026-04-05T10:06:01.475Z</time></trkpt><trkpt lat="42.08434" lon="14.2554267"><ele>272.6666666666667</ele><time>2026-04-05T10:06:02.471Z</time></trkpt><trkpt lat="42.0844717" lon="14.255635"><ele>272.33333333333337</ele><time>2026-04-05T10:06:03.471Z</time></trkpt><trkpt lat="42.0846483" lon="14.25582"><ele>272.0</ele><time>2026-04-05T10:06:04.473Z</time></trkpt><trkpt lat="42.0848683" lon="14.255985"><ele>266.5</ele><time>2026-04-05T10:06:05.472Z</time></trkpt><trkpt lat="42.085115" lon="14.25614"><ele>261.0</ele><time>2026-04-05T10:06:06.471Z</time></trkpt><trkpt lat="42.0853683" lon="14.2562617"><ele>261.0</ele><time>2026-04-05T10:06:07.47Z</time></trkpt><trkpt lat="42.0856017" lon="14.2563517"><ele>261.0</ele><time>2026-04-05T10:06:08.471Z</time></trkpt><trkpt lat="42.085805" lon="14.2564367"><ele>264.3333333333333</ele><time>2026-04-05T10:06:09.473Z</time></trkpt><trkpt lat="42.0859817" lon="14.2565483"><ele>267.66666666666663</ele><time>2026-04-05T10:06:10.472Z</time></trkpt><trkpt lat="42.0861367" lon="14.2566883"><ele>271.0</ele><time>2026-04-05T10:06:11.47Z</time></trkpt><trkpt lat="42.0862767" lon="14.256855"><ele>271.0</ele><time>2026-04-05T10:06:12.47Z</time></trkpt><trkpt lat="42.08641" lon="14.2570467"><ele>271.0</ele><time>2026-04-05T10:06:13.475Z</time></trkpt><trkpt lat="42.086555" lon="14.257225"><ele>271.0</ele><time>2026-04-05T10:06:14.474Z</time></trkpt><trkpt lat="42.0867183" lon="14.2573783"><ele>271.66666666666663</ele><time>2026-04-05T10:06:15.47Z</time></trkpt><trkpt lat="42.0868967" lon="14.2574917"><ele>272.3333333333333</ele><time>2026-04-05T10:06:16.472Z</time></trkpt><trkpt lat="42.0870767" lon="14.2575833"><ele>273.0</ele><time>2026-04-05T10:06:17.471Z</time></trkpt><trkpt lat="42.087235" lon="14.25768"><ele>273.0</ele><time>2026-04-05T10:06:18.469Z</time></trkpt><trkpt lat="42.0873733" lon="14.2578033"><ele>273.0</ele><time>2026-04-05T10:06:19.47Z</time></trkpt><trkpt lat="42.087495" lon="14.257965"><ele>273.0</ele><time>2026-04-05T10:06:20.472Z</time></trkpt><trkpt lat="42.0876067" lon="14.2581667"><ele>269.3333333333333</ele><time>2026-04-05T10:06:21.469Z</time></trkpt><trkpt lat="42.0877117" lon="14.2584117"><ele>265.66666666666663</ele><time>2026-04-05T10:06:22.472Z</time></trkpt><trkpt lat="42.0878167" lon="14.2586983"><ele>262.0</ele><time>2026-04-05T10:06:23.472Z</time></trkpt><trkpt lat="42.0879183" lon="14.259"><ele>260.0</ele><time>2026-04-05T10:06:24.472Z</time></trkpt><trkpt lat="42.0880117" lon="14.2592933"><ele>258.0</ele><time>2026-04-05T10:06:25.47Z</time></trkpt><trkpt lat="42.0881" lon="14.25957"><ele>258.0</ele><time>2026-04-05T10:06:26.47Z</time></trkpt><trkpt lat="42.0881817" lon="14.2598233"><ele>258.0</ele><time>2026-04-05T10:06:27.477Z</time></trkpt><trkpt lat="42.0882667" lon="14.2600517"><ele>258.0</ele><time>2026-04-05T10:06:28.47Z</time></trkpt><trkpt lat="42.08837" lon="14.2602583"><ele>258.0</ele><time>2026-04-05T10:06:29.471Z</time></trkpt><trkpt lat="42.0885017" lon="14.2604367"><ele>258.0</ele><time>2026-04-05T10:06:30.472Z</time></trkpt><trkpt lat="42.0886633" lon="14.2605817"><ele>258.0</ele><time>2026-04-05T10:06:31.472Z</time></trkpt><trkpt lat="42.088845" lon="14.260675"><ele>261.0</ele><time>2026-04-05T10:06:32.471Z</time></trkpt><trkpt lat="42.089035" lon="14.2607167"><ele>264.0</ele><time>2026-04-05T10:06:33.473Z</time></trkpt><trkpt lat="42.0892433" lon="14.2607083"><ele>267.0</ele><time>2026-04-05T10:06:34.471Z</time></trkpt><trkpt lat="42.08946" lon="14.2606417"><ele>262.5</ele><time>2026-04-05T10:06:35.47Z</time></trkpt><trkpt lat="42.0896867" lon="14.2605533"><ele>258.0</ele><time>2026-04-05T10:06:36.472Z</time></trkpt><trkpt lat="42.0899283" lon="14.2604917"><ele>256.5</ele><time>2026-04-05T10:06:37.47Z</time></trkpt><trkpt lat="42.090205" lon="14.2604717"><ele>255.0</ele><time>2026-04-05T10:06:38.471Z</time></trkpt><trkpt lat="42.090495" lon="14.2604933"><ele>255.5</ele><time>2026-04-05T10:06:39.47Z</time></trkpt><trkpt lat="42.0907683" lon="14.2605317"><ele>256.0</ele><time>2026-04-05T10:06:40.472Z</time></trkpt><trkpt lat="42.09101" lon="14.260555"><ele>256.0</ele><time>2026-04-05T10:06:41.47Z</time></trkpt><trkpt lat="42.0912267" lon="14.260535"><ele>256.0</ele><time>2026-04-05T10:06:42.474Z</time></trkpt><trkpt lat="42.0914167" lon="14.2604583"><ele>256.0</ele><time>2026-04-05T10:06:43.474Z</time></trkpt><trkpt lat="42.0915817" lon="14.2603383"><ele>259.3333333333333</ele><time>2026-04-05T10:06:44.47Z</time></trkpt><trkpt lat="42.0917367" lon="14.260195"><ele>262.6666666666667</ele><time>2026-04-05T10:06:45.47Z</time></trkpt><trkpt lat="42.0918767" lon="14.260035"><ele>266.0</ele><time>2026-04-05T10:06:46.47Z</time></trkpt><trkpt lat="42.092005" lon="14.25987"><ele>263.33333333333337</ele><time>2026-04-05T10:06:47.47Z</time></trkpt><trkpt lat="42.0921383" lon="14.25972"><ele>260.6666666666667</ele><time>2026-04-05T10:06:48.469Z</time></trkpt><trkpt lat="42.09228" lon="14.2596067"><ele>258.0</ele><time>2026-04-05T10:06:49.471Z</time></trkpt><trkpt lat="42.092425" lon="14.2595367"><ele>258.0</ele><time>2026-04-05T10:06:50.47Z</time></trkpt><trkpt lat="42.092585" lon="14.2595"><ele>258.0</ele><time>2026-04-05T10:06:51.471Z</time></trkpt><trkpt lat="42.092755" lon="14.2594983"><ele>258.0</ele><time>2026-04-05T10:06:52.47Z</time></trkpt><trkpt lat="42.09294" lon="14.259545"><ele>258.0</ele><time>2026-04-05T10:06:53.471Z</time></trkpt><trkpt lat="42.0931317" lon="14.2596033"><ele>258.0</ele><time>2026-04-05T10:06:54.469Z</time></trkpt><trkpt lat="42.0933267" lon="14.259665"><ele>258.0</ele><time>2026-04-05T10:06:55.472Z</time></trkpt><trkpt lat="42.0935217" lon="14.2597267"><ele>243.0</ele><time>2026-04-05T10:06:56.469Z</time></trkpt><trkpt lat="42.094995" lon="14.2603033"><ele>243.0</ele><time>2026-04-05T10:07:03.471Z</time></trkpt><trkpt lat="42.0951217" lon="14.2604567"><ele>243.0</ele><time>2026-04-05T10:07:04.471Z</time></trkpt><trkpt lat="42.0952117" lon="14.2605583"><ele>243.0</ele><time>2026-04-05T10:07:05.471Z</time></trkpt><trkpt lat="42.095275" lon="14.2606433"><ele>243.0</ele><time>2026-04-05T10:07:06.469Z</time></trkpt><trkpt lat="42.0953283" lon="14.2607233"><ele>244.16666666666666</ele><time>2026-04-05T10:07:07.47Z</time></trkpt><trkpt lat="42.0953617" lon="14.2607967"><ele>245.33333333333331</ele><time>2026-04-05T10:07:08.471Z</time></trkpt><trkpt lat="42.0954133" lon="14.2608483"><ele>246.5</ele><time>2026-04-05T10:07:10.468Z</time></trkpt><trkpt lat="42.0955017" lon="14.2608733"><ele>247.66666666666666</ele><time>2026-04-05T10:07:30.471Z</time></trkpt><trkpt lat="42.0956033" lon="14.26093"><ele>248.83333333333331</ele><time>2026-04-05T10:07:31.475Z</time></trkpt><trkpt lat="42.0957067" lon="14.2609833"><ele>250.0</ele><time>2026-04-05T10:07:32.47Z</time></trkpt><trkpt lat="42.095815" lon="14.2610183"><ele>250.0</ele><time>2026-04-05T10:07:33.469Z</time></trkpt><trkpt lat="42.0959283" lon="14.26101"><ele>250.0</ele><time>2026-04-05T10:07:34.473Z</time></trkpt><trkpt lat="42.0960483" lon="14.260965"><ele>250.0</ele><time>2026-04-05T10:07:35.47Z</time></trkpt><trkpt lat="42.09616" lon="14.2609217"><ele>250.0</ele><time>2026-04-05T10:07:36.469Z</time></trkpt><trkpt lat="42.096265" lon="14.2608967"><ele>250.0</ele><time>2026-04-05T10:07:37.47Z</time></trkpt><trkpt lat="42.0963767" lon="14.2609233"><ele>250.0</ele><time>2026-04-05T10:07:38.471Z</time></trkpt><trkpt lat="42.0965033" lon="14.2609683"><ele>250.0</ele><time>2026-04-05T10:07:39.468Z</time></trkpt><trkpt lat="42.096655" lon="14.2610817"><ele>250.0</ele><time>2026-04-05T10:07:40.47Z</time></trkpt><trkpt lat="42.0968383" lon="14.2612767"><ele>254.33333333333331</ele><time>2026-04-05T10:07:41.47Z</time></trkpt><trkpt lat="42.0970017" lon="14.2614683"><ele>258.6666666666667</ele><time>2026-04-05T10:07:42.473Z</time></trkpt><trkpt lat="42.09713" lon="14.26163"><ele>263.0</ele><time>2026-04-05T10:07:43.47Z</time></trkpt><trkpt lat="42.097215" lon="14.2617933"><ele>263.0</ele><time>2026-04-05T10:07:44.47Z</time></trkpt><trkpt lat="42.0972633" lon="14.26196"><ele>263.0</ele><time>2026-04-05T10:07:45.47Z</time></trkpt><trkpt lat="42.0972983" lon="14.2621133"><ele>263.0</ele><time>2026-04-05T10:07:46.469Z</time></trkpt><trkpt lat="42.097345" lon="14.2622317"><ele>263.0</ele><time>2026-04-05T10:07:47.469Z</time></trkpt><trkpt lat="42.09741" lon="14.262315"><ele>263.0</ele><time>2026-04-05T10:07:48.471Z</time></trkpt><trkpt lat="42.0974933" lon="14.26237"><ele>261.5</ele><time>2026-04-05T10:07:49.47Z</time></trkpt><trkpt lat="42.0976117" lon="14.2623917"><ele>260.0</ele><time>2026-04-05T10:07:50.472Z</time></trkpt><trkpt lat="42.09772" lon="14.2624383"><ele>258.5</ele><time>2026-04-05T10:07:51.469Z</time></trkpt><trkpt lat="42.0978233" lon="14.262525"><ele>257.0</ele><time>2026-04-05T10:07:52.47Z</time></trkpt><trkpt lat="42.0979233" lon="14.2626617"><ele>257.0</ele><time>2026-04-05T10:07:53.47Z</time></trkpt><trkpt lat="42.09801" lon="14.2628217"><ele>257.0</ele><time>2026-04-05T10:07:54.47Z</time></trkpt><trkpt lat="42.0980867" lon="14.2629617"><ele>257.0</ele><time>2026-04-05T10:07:55.47Z</time></trkpt><trkpt lat="42.0981833" lon="14.263055"><ele>257.0</ele><time>2026-04-05T10:07:56.47Z</time></trkpt><trkpt lat="42.0982983" lon="14.2631017"><ele>257.0</ele><time>2026-04-05T10:07:57.471Z</time></trkpt><trkpt lat="42.0984233" lon="14.2631083"><ele>257.0</ele><time>2026-04-05T10:07:58.469Z</time></trkpt><trkpt lat="42.098535" lon="14.2630783"><ele>257.0</ele><time>2026-04-05T10:07:59.47Z</time></trkpt><trkpt lat="42.0986217" lon="14.2630217"><ele>257.0</ele><time>2026-04-05T10:08:00.47Z</time></trkpt><trkpt lat="42.0986817" lon="14.2629183"><ele>257.0</ele><time>2026-04-05T10:08:01.469Z</time></trkpt><trkpt lat="42.0987367" lon="14.2627383"><ele>257.0</ele><time>2026-04-05T10:08:02.47Z</time></trkpt><trkpt lat="42.098795" lon="14.26249"><ele>257.0</ele><time>2026-04-05T10:08:03.47Z</time></trkpt><trkpt lat="42.0988633" lon="14.262195"><ele>257.0</ele><time>2026-04-05T10:08:04.471Z</time></trkpt><trkpt lat="42.098935" lon="14.2619"><ele>256.33333333333337</ele><time>2026-04-05T10:08:05.471Z</time></trkpt><trkpt lat="42.0990183" lon="14.261615"><ele>255.66666666666669</ele><time>2026-04-05T10:08:06.472Z</time></trkpt><trkpt lat="42.0991033" lon="14.2613383"><ele>255.0</ele><time>2026-04-05T10:08:07.472Z</time></trkpt><trkpt lat="42.0991817" lon="14.2610817"><ele>261.0</ele><time>2026-04-05T10:08:08.472Z</time></trkpt><trkpt lat="42.09924" lon="14.2608483"><ele>267.0</ele><time>2026-04-05T10:08:09.471Z</time></trkpt><trkpt lat="42.099285" lon="14.26062"><ele>273.0</ele><time>2026-04-05T10:08:10.471Z</time></trkpt><trkpt lat="42.0993467" lon="14.2603717"><ele>273.0</ele><time>2026-04-05T10:08:11.469Z</time></trkpt><trkpt lat="42.099425" lon="14.2601017"><ele>273.0</ele><time>2026-04-05T10:08:12.47Z</time></trkpt><trkpt lat="42.0995083" lon="14.2598483"><ele>273.0</ele><time>2026-04-05T10:08:13.471Z</time></trkpt><trkpt lat="42.0995817" lon="14.25964"><ele>271.5</ele><time>2026-04-05T10:08:14.47Z</time></trkpt><trkpt lat="42.0996467" lon="14.2594833"><ele>270.0</ele><time>2026-04-05T10:08:15.469Z</time></trkpt><trkpt lat="42.0997083" lon="14.2593883"><ele>268.5</ele><time>2026-04-05T10:08:16.469Z</time></trkpt><trkpt lat="42.099765" lon="14.25933"><ele>267.0</ele><time>2026-04-05T10:08:17.468Z</time></trkpt><trkpt lat="42.09983" lon="14.2593233"><ele>265.5</ele><time>2026-04-05T10:08:18.468Z</time></trkpt><trkpt lat="42.09989" lon="14.25935"><ele>264.0</ele><time>2026-04-05T10:08:19.471Z</time></trkpt><trkpt lat="42.0999567" lon="14.25946"><ele>264.0</ele><time>2026-04-05T10:08:21.469Z</time></trkpt><trkpt lat="42.0999367" lon="14.2595467"><ele>264.0</ele><time>2026-04-05T10:08:22.469Z</time></trkpt><trkpt lat="42.0998917" lon="14.259655"><ele>264.0</ele><time>2026-04-05T10:08:23.47Z</time></trkpt><trkpt lat="42.0998167" lon="14.2597833"><ele>264.0</ele><time>2026-04-05T10:08:24.471Z</time></trkpt><trkpt lat="42.0997133" lon="14.2599417"><ele>264.0</ele><time>2026-04-05T10:08:25.473Z</time></trkpt><trkpt lat="42.0996233" lon="14.2601083"><ele>266.25</ele><time>2026-04-05T10:08:26.472Z</time></trkpt><trkpt lat="42.099555" lon="14.2602683"><ele>268.5</ele><time>2026-04-05T10:08:27.469Z</time></trkpt><trkpt lat="42.0995133" lon="14.2604233"><ele>270.75</ele><time>2026-04-05T10:08:28.472Z</time></trkpt><trkpt lat="42.099505" lon="14.2605983"><ele>273.0</ele><time>2026-04-05T10:08:29.469Z</time></trkpt><trkpt lat="42.0995283" lon="14.2608333"><ele>275.0</ele><time>2026-04-05T10:08:30.469Z</time></trkpt><trkpt lat="42.0995567" lon="14.2611217"><ele>277.0</ele><time>2026-04-05T10:08:31.471Z</time></trkpt><trkpt lat="42.0995717" lon="14.2613967"><ele>279.0</ele><time>2026-04-05T10:08:32.47Z</time></trkpt><trkpt lat="42.0995633" lon="14.261615"><ele>280.25</ele><time>2026-04-05T10:08:33.471Z</time></trkpt><trkpt lat="42.0995067" lon="14.2618017"><ele>281.5</ele><time>2026-04-05T10:08:34.471Z</time></trkpt><trkpt lat="42.0994283" lon="14.2619783"><ele>282.75</ele><time>2026-04-05T10:08:35.47Z</time></trkpt><trkpt lat="42.099375" lon="14.262155"><ele>284.0</ele><time>2026-04-05T10:08:36.47Z</time></trkpt><trkpt lat="42.0993633" lon="14.2623533"><ele>285.0</ele><time>2026-04-05T10:08:37.468Z</time></trkpt><trkpt lat="42.0994033" lon="14.262575"><ele>286.0</ele><time>2026-04-05T10:08:38.473Z</time></trkpt><trkpt lat="42.0994783" lon="14.262785"><ele>287.0</ele><time>2026-04-05T10:08:39.469Z</time></trkpt><trkpt lat="42.099555" lon="14.2629383"><ele>287.0</ele><time>2026-04-05T10:08:40.47Z</time></trkpt><trkpt lat="42.0996317" lon="14.263025"><ele>287.0</ele><time>2026-04-05T10:08:41.469Z</time></trkpt><trkpt lat="42.0997" lon="14.2630167"><ele>287.0</ele><time>2026-04-05T10:08:42.469Z</time></trkpt><trkpt lat="42.099715" lon="14.2628483"><ele>287.0</ele><time>2026-04-05T10:08:44.47Z</time></trkpt><trkpt lat="42.09966" lon="14.262715"><ele>287.0</ele><time>2026-04-05T10:08:45.47Z</time></trkpt><trkpt lat="42.0995917" lon="14.2625833"><ele>287.0</ele><time>2026-04-05T10:08:46.47Z</time></trkpt><trkpt lat="42.0995383" lon="14.262445"><ele>287.0</ele><time>2026-04-05T10:08:47.471Z</time></trkpt><trkpt lat="42.099515" lon="14.2623117"><ele>287.0</ele><time>2026-04-05T10:08:48.47Z</time></trkpt><trkpt lat="42.09954" lon="14.2621783"><ele>287.0</ele><time>2026-04-05T10:08:49.469Z</time></trkpt><trkpt lat="42.09962" lon="14.262035"><ele>286.0</ele><time>2026-04-05T10:08:50.47Z</time></trkpt><trkpt lat="42.0997183" lon="14.26188"><ele>285.0</ele><time>2026-04-05T10:08:51.474Z</time></trkpt><trkpt lat="42.0997917" lon="14.2617067"><ele>284.0</ele><time>2026-04-05T10:08:52.469Z</time></trkpt><trkpt lat="42.0998233" lon="14.2614983"><ele>282.33333333333337</ele><time>2026-04-05T10:08:53.47Z</time></trkpt><trkpt lat="42.0998367" lon="14.2612783"><ele>280.6666666666667</ele><time>2026-04-05T10:08:54.469Z</time></trkpt><trkpt lat="42.0998567" lon="14.2610667"><ele>279.0</ele><time>2026-04-05T10:08:55.47Z</time></trkpt><trkpt lat="42.09989" lon="14.26088"><ele>284.4</ele><time>2026-04-05T10:08:56.47Z</time></trkpt><trkpt lat="42.0999317" lon="14.2607317"><ele>289.79999999999995</ele><time>2026-04-05T10:08:57.473Z</time></trkpt><trkpt lat="42.1000067" lon="14.2606533"><ele>295.20000000000005</ele><time>2026-04-05T10:08:58.47Z</time></trkpt><trkpt lat="42.100105" lon="14.26063"><ele>300.6</ele><time>2026-04-05T10:08:59.471Z</time></trkpt><trkpt lat="42.1001983" lon="14.2606533"><ele>306.0</ele><time>2026-04-05T10:09:00.471Z</time></trkpt><trkpt lat="42.1002617" lon="14.2607333"><ele>306.0</ele><time>2026-04-05T10:09:01.47Z</time></trkpt><trkpt lat="42.1002983" lon="14.260855"><ele>306.0</ele><time>2026-04-05T10:09:02.472Z</time></trkpt><trkpt lat="42.100305" lon="14.260995"><ele>306.0</ele><time>2026-04-05T10:09:03.47Z</time></trkpt><trkpt lat="42.1002683" lon="14.2611317"><ele>306.0</ele><time>2026-04-05T10:09:04.471Z</time></trkpt><trkpt lat="42.1001883" lon="14.2612533"><ele>306.0</ele><time>2026-04-05T10:09:05.47Z</time></trkpt><trkpt lat="42.10009" lon="14.2613783"><ele>307.6666666666667</ele><time>2026-04-05T10:09:06.469Z</time></trkpt><trkpt lat="42.0999983" lon="14.261535"><ele>309.33333333333337</ele><time>2026-04-05T10:09:07.47Z</time></trkpt><trkpt lat="42.0999317" lon="14.26173"><ele>311.0</ele><time>2026-04-05T10:09:08.471Z</time></trkpt><trkpt lat="42.0998933" lon="14.261925"><ele>311.0</ele><time>2026-04-05T10:09:09.471Z</time></trkpt><trkpt lat="42.0999067" lon="14.2620917"><ele>311.0</ele><time>2026-04-05T10:09:10.472Z</time></trkpt><trkpt lat="42.0999567" lon="14.2622183"><ele>311.0</ele><time>2026-04-05T10:09:11.47Z</time></trkpt><trkpt lat="42.1000533" lon="14.2623"><ele>311.0</ele><time>2026-04-05T10:09:12.468Z</time></trkpt><trkpt lat="42.10019" lon="14.26233"><ele>311.0</ele><time>2026-04-05T10:09:13.468Z</time></trkpt><trkpt lat="42.1003433" lon="14.2623067"><ele>311.0</ele><time>2026-04-05T10:09:14.471Z</time></trkpt><trkpt lat="42.10048" lon="14.2622383"><ele>311.0</ele><time>2026-04-05T10:09:15.472Z</time></trkpt><trkpt lat="42.1005883" lon="14.2621283"><ele>311.0</ele><time>2026-04-05T10:09:16.47Z</time></trkpt><trkpt lat="42.100645" lon="14.2619367"><ele>311.0</ele><time>2026-04-05T10:09:17.472Z</time></trkpt><trkpt lat="42.1006917" lon="14.2617533"><ele>311.0</ele><time>2026-04-05T10:09:18.469Z</time></trkpt><trkpt lat="42.1007517" lon="14.2616133"><ele>311.0</ele><time>2026-04-05T10:09:19.469Z</time></trkpt><trkpt lat="42.1008283" lon="14.2615383"><ele>311.0</ele><time>2026-04-05T10:09:20.471Z</time></trkpt><trkpt lat="42.1009183" lon="14.2615367"><ele>311.0</ele><time>2026-04-05T10:09:21.469Z</time></trkpt><trkpt lat="42.1010117" lon="14.2615983"><ele>314.33333333333337</ele><time>2026-04-05T10:09:22.471Z</time></trkpt><trkpt lat="42.101125" lon="14.2617533"><ele>317.6666666666667</ele><time>2026-04-05T10:09:23.47Z</time></trkpt><trkpt lat="42.1012717" lon="14.2619933"><ele>321.0</ele><time>2026-04-05T10:09:24.469Z</time></trkpt><trkpt lat="42.10144" lon="14.26228"><ele>328.0</ele><time>2026-04-05T10:09:25.47Z</time></trkpt><trkpt lat="42.1016517" lon="14.262595"><ele>335.0</ele><time>2026-04-05T10:09:26.472Z</time></trkpt><trkpt lat="42.1018783" lon="14.2628933"><ele>329.5</ele><time>2026-04-05T10:09:27.475Z</time></trkpt><trkpt lat="42.1020733" lon="14.2631767"><ele>324.0</ele><time>2026-04-05T10:09:28.471Z</time></trkpt><trkpt lat="42.102235" lon="14.2634433"><ele>324.0</ele><time>2026-04-05T10:09:29.473Z</time></trkpt><trkpt lat="42.1023583" lon="14.263655"><ele>324.0</ele><time>2026-04-05T10:09:30.47Z</time></trkpt><trkpt lat="42.1024383" lon="14.2638333"><ele>324.0</ele><time>2026-04-05T10:09:31.471Z</time></trkpt><trkpt lat="42.1024817" lon="14.2640083"><ele>328.3333333333333</ele><time>2026-04-05T10:09:32.472Z</time></trkpt><trkpt lat="42.1025183" lon="14.2642017"><ele>332.66666666666663</ele><time>2026-04-05T10:09:33.469Z</time></trkpt><trkpt lat="42.1025833" lon="14.2644083"><ele>337.0</ele><time>2026-04-05T10:09:34.471Z</time></trkpt><trkpt lat="42.102695" lon="14.2646283"><ele>333.5</ele><time>2026-04-05T10:09:35.47Z</time></trkpt><trkpt lat="42.102855" lon="14.2648567"><ele>330.0</ele><time>2026-04-05T10:09:36.47Z</time></trkpt><trkpt lat="42.1030183" lon="14.2650767"><ele>330.0</ele><time>2026-04-05T10:09:37.472Z</time></trkpt><trkpt lat="42.1031433" lon="14.2652933"><ele>330.0</ele><time>2026-04-05T10:09:38.472Z</time></trkpt><trkpt lat="42.1032367" lon="14.26551"><ele>330.0</ele><time>2026-04-05T10:09:39.472Z</time></trkpt><trkpt lat="42.103325" lon="14.2657183"><ele>334.0</ele><time>2026-04-05T10:09:40.47Z</time></trkpt><trkpt lat="42.10344" lon="14.2659117"><ele>338.0</ele><time>2026-04-05T10:09:41.47Z</time></trkpt><trkpt lat="42.1036" lon="14.26608"><ele>342.0</ele><time>2026-04-05T10:09:42.473Z</time></trkpt><trkpt lat="42.1037833" lon="14.2662267"><ele>342.0</ele><time>2026-04-05T10:09:43.47Z</time></trkpt><trkpt lat="42.1039733" lon="14.2663983"><ele>342.0</ele><time>2026-04-05T10:09:44.473Z</time></trkpt><trkpt lat="42.1041717" lon="14.2666333"><ele>349.0</ele><time>2026-04-05T10:09:45.471Z</time></trkpt><trkpt lat="42.104375" lon="14.266925"><ele>356.0</ele><time>2026-04-05T10:09:46.471Z</time></trkpt><trkpt lat="42.1045867" lon="14.2672483"><ele>362.5</ele><time>2026-04-05T10:09:47.471Z</time></trkpt><trkpt lat="42.1048083" lon="14.2675983"><ele>369.0</ele><time>2026-04-05T10:09:48.473Z</time></trkpt><trkpt lat="42.1050417" lon="14.2679617"><ele>361.0</ele><time>2026-04-05T10:09:49.472Z</time></trkpt><trkpt lat="42.105265" lon="14.2683017"><ele>353.0</ele><time>2026-04-05T10:09:50.476Z</time></trkpt><trkpt lat="42.105455" lon="14.268605"><ele>353.0</ele><time>2026-04-05T10:09:51.471Z</time></trkpt><trkpt lat="42.1056133" lon="14.2689033"><ele>353.0</ele><time>2026-04-05T10:09:52.471Z</time></trkpt><trkpt lat="42.1057483" lon="14.2692083"><ele>359.0</ele><time>2026-04-05T10:09:53.47Z</time></trkpt><trkpt lat="42.1058783" lon="14.26952"><ele>365.0</ele><time>2026-04-05T10:09:54.471Z</time></trkpt><trkpt lat="42.1060183" lon="14.269835"><ele>365.0</ele><time>2026-04-05T10:09:55.471Z</time></trkpt><trkpt lat="42.1061783" lon="14.27015"><ele>365.0</ele><time>2026-04-05T10:09:56.471Z</time></trkpt><trkpt lat="42.1063433" lon="14.2704533"><ele>360.0</ele><time>2026-04-05T10:09:57.474Z</time></trkpt><trkpt lat="42.1064867" lon="14.2707417"><ele>355.0</ele><time>2026-04-05T10:09:58.472Z</time></trkpt><trkpt lat="42.1066067" lon="14.27102"><ele>360.66666666666663</ele><time>2026-04-05T10:09:59.47Z</time></trkpt><trkpt lat="42.1067033" lon="14.27129"><ele>366.3333333333333</ele><time>2026-04-05T10:10:00.473Z</time></trkpt><trkpt lat="42.1067783" lon="14.2715467"><ele>372.0</ele><time>2026-04-05T10:10:01.472Z</time></trkpt><trkpt lat="42.10684" lon="14.2717917"><ele>372.0</ele><time>2026-04-05T10:10:02.47Z</time></trkpt><trkpt lat="42.1069133" lon="14.2720317"><ele>372.0</ele><time>2026-04-05T10:10:03.471Z</time></trkpt><trkpt lat="42.1070183" lon="14.2722783"><ele>372.0</ele><time>2026-04-05T10:10:04.471Z</time></trkpt><trkpt lat="42.1071317" lon="14.2725233"><ele>370.3333333333333</ele><time>2026-04-05T10:10:05.471Z</time></trkpt><trkpt lat="42.1072383" lon="14.272745"><ele>368.66666666666663</ele><time>2026-04-05T10:10:06.472Z</time></trkpt><trkpt lat="42.1073167" lon="14.2729733"><ele>367.0</ele><time>2026-04-05T10:10:07.473Z</time></trkpt><trkpt lat="42.1073583" lon="14.2732417"><ele>363.5</ele><time>2026-04-05T10:10:08.471Z</time></trkpt><trkpt lat="42.1073733" lon="14.2735517"><ele>360.0</ele><time>2026-04-05T10:10:09.47Z</time></trkpt><trkpt lat="42.1073767" lon="14.2738483"><ele>359.3333333333333</ele><time>2026-04-05T10:10:10.47Z</time></trkpt><trkpt lat="42.10738" lon="14.27409"><ele>358.66666666666663</ele><time>2026-04-05T10:10:11.475Z</time></trkpt><trkpt lat="42.1074033" lon="14.2742833"><ele>358.0</ele><time>2026-04-05T10:10:12.469Z</time></trkpt><trkpt lat="42.1074567" lon="14.27447"><ele>362.0</ele><time>2026-04-05T10:10:13.473Z</time></trkpt><trkpt lat="42.107565" lon="14.2746633"><ele>366.0</ele><time>2026-04-05T10:10:14.47Z</time></trkpt><trkpt lat="42.1076817" lon="14.274865"><ele>370.0</ele><time>2026-04-05T10:10:15.473Z</time></trkpt><trkpt lat="42.1077833" lon="14.27507"><ele>370.0</ele><time>2026-04-05T10:10:16.471Z</time></trkpt><trkpt lat="42.1078517" lon="14.275295"><ele>370.0</ele><time>2026-04-05T10:10:17.469Z</time></trkpt><trkpt lat="42.1078917" lon="14.2755483"><ele>370.0</ele><time>2026-04-05T10:10:18.472Z</time></trkpt><trkpt lat="42.10791" lon="14.2758483"><ele>368.0</ele><time>2026-04-05T10:10:19.472Z</time></trkpt><trkpt lat="42.10793" lon="14.2761883"><ele>366.0</ele><time>2026-04-05T10:10:20.473Z</time></trkpt><trkpt lat="42.1079767" lon="14.2765433"><ele>365.5</ele><time>2026-04-05T10:10:21.471Z</time></trkpt><trkpt lat="42.1080567" lon="14.2769117"><ele>365.0</ele><time>2026-04-05T10:10:22.471Z</time></trkpt><trkpt lat="42.10815" lon="14.2772717"><ele>362.0</ele><time>2026-04-05T10:10:23.472Z</time></trkpt><trkpt lat="42.1082283" lon="14.277605"><ele>359.0</ele><time>2026-04-05T10:10:24.47Z</time></trkpt><trkpt lat="42.1082867" lon="14.2779117"><ele>364.33333333333337</ele><time>2026-04-05T10:10:25.471Z</time></trkpt><trkpt lat="42.10832" lon="14.278205"><ele>369.6666666666667</ele><time>2026-04-05T10:10:26.474Z</time></trkpt><trkpt lat="42.1083267" lon="14.2784983"><ele>375.0</ele><time>2026-04-05T10:10:27.471Z</time></trkpt><trkpt lat="42.10831" lon="14.2788"><ele>375.3333333333333</ele><time>2026-04-05T10:10:28.47Z</time></trkpt><trkpt lat="42.1082867" lon="14.2790917"><ele>375.66666666666663</ele><time>2026-04-05T10:10:29.471Z</time></trkpt><trkpt lat="42.1082883" lon="14.2793667"><ele>376.0</ele><time>2026-04-05T10:10:30.473Z</time></trkpt><trkpt lat="42.1083217" lon="14.279635"><ele>375.3333333333333</ele><time>2026-04-05T10:10:31.471Z</time></trkpt><trkpt lat="42.1083817" lon="14.2799033"><ele>374.6666666666667</ele><time>2026-04-05T10:10:32.476Z</time></trkpt><trkpt lat="42.10845" lon="14.280155"><ele>374.0</ele><time>2026-04-05T10:10:33.471Z</time></trkpt><trkpt lat="42.108505" lon="14.28037"><ele>374.0</ele><time>2026-04-05T10:10:34.471Z</time></trkpt><trkpt lat="42.108545" lon="14.2805483"><ele>374.0</ele><time>2026-04-05T10:10:35.471Z</time></trkpt><trkpt lat="42.10855" lon="14.2807033"><ele>374.0</ele><time>2026-04-05T10:10:36.469Z</time></trkpt><trkpt lat="42.1085167" lon="14.2808367"><ele>374.0</ele><time>2026-04-05T10:10:37.472Z</time></trkpt><trkpt lat="42.1084483" lon="14.2809633"><ele>374.5</ele><time>2026-04-05T10:10:38.471Z</time></trkpt><trkpt lat="42.1083533" lon="14.2810917"><ele>375.0</ele><time>2026-04-05T10:10:39.473Z</time></trkpt><trkpt lat="42.1082533" lon="14.281235"><ele>375.5</ele><time>2026-04-05T10:10:40.472Z</time></trkpt><trkpt lat="42.1081717" lon="14.2814133"><ele>376.0</ele><time>2026-04-05T10:10:41.469Z</time></trkpt><trkpt lat="42.1081167" lon="14.2816117"><ele>371.66666666666663</ele><time>2026-04-05T10:10:42.47Z</time></trkpt><trkpt lat="42.10809" lon="14.281815"><ele>367.3333333333333</ele><time>2026-04-05T10:10:43.471Z</time></trkpt><trkpt lat="42.1081" lon="14.28203"><ele>363.0</ele><time>2026-04-05T10:10:44.47Z</time></trkpt><trkpt lat="42.108145" lon="14.2822533"><ele>362.3333333333333</ele><time>2026-04-05T10:10:45.471Z</time></trkpt><trkpt lat="42.1082067" lon="14.28249"><ele>361.66666666666663</ele><time>2026-04-05T10:10:46.47Z</time></trkpt><trkpt lat="42.1082733" lon="14.282735"><ele>361.0</ele><time>2026-04-05T10:10:47.473Z</time></trkpt><trkpt lat="42.108345" lon="14.2829933"><ele>368.0</ele><time>2026-04-05T10:10:48.472Z</time></trkpt><trkpt lat="42.1084183" lon="14.2832567"><ele>375.0</ele><time>2026-04-05T10:10:49.47Z</time></trkpt><trkpt lat="42.1084983" lon="14.2835083"><ele>382.0</ele><time>2026-04-05T10:10:50.471Z</time></trkpt><trkpt lat="42.108585" lon="14.2837283"><ele>382.0</ele><time>2026-04-05T10:10:51.472Z</time></trkpt><trkpt lat="42.10866" lon="14.2839217"><ele>382.0</ele><time>2026-04-05T10:10:52.477Z</time></trkpt><trkpt lat="42.1087117" lon="14.28411"><ele>382.0</ele><time>2026-04-05T10:10:53.473Z</time></trkpt><trkpt lat="42.10874" lon="14.2843017"><ele>380.75</ele><time>2026-04-05T10:10:54.472Z</time></trkpt><trkpt lat="42.10874" lon="14.2844983"><ele>379.5</ele><time>2026-04-05T10:10:55.469Z</time></trkpt><trkpt lat="42.1087317" lon="14.2846917"><ele>378.25</ele><time>2026-04-05T10:10:56.47Z</time></trkpt><trkpt lat="42.10874" lon="14.28487"><ele>377.0</ele><time>2026-04-05T10:10:57.472Z</time></trkpt><trkpt lat="42.1087667" lon="14.2850317"><ele>376.75</ele><time>2026-04-05T10:10:58.471Z</time></trkpt><trkpt lat="42.10881" lon="14.2851767"><ele>376.5</ele><time>2026-04-05T10:10:59.472Z</time></trkpt><trkpt lat="42.108865" lon="14.285315"><ele>376.25</ele><time>2026-04-05T10:11:00.469Z</time></trkpt><trkpt lat="42.1089267" lon="14.285445"><ele>376.0</ele><time>2026-04-05T10:11:01.47Z</time></trkpt><trkpt lat="42.108985" lon="14.2855667"><ele>377.0</ele><time>2026-04-05T10:11:02.471Z</time></trkpt><trkpt lat="42.1090383" lon="14.2856817"><ele>378.0</ele><time>2026-04-05T10:11:03.469Z</time></trkpt><trkpt lat="42.1090867" lon="14.28579"><ele>379.0</ele><time>2026-04-05T10:11:04.477Z</time></trkpt><trkpt lat="42.109135" lon="14.2858983"><ele>380.0</ele><time>2026-04-05T10:11:05.47Z</time></trkpt><trkpt lat="42.1091883" lon="14.2860183"><ele>381.0</ele><time>2026-04-05T10:11:06.47Z</time></trkpt><trkpt lat="42.1092567" lon="14.286165"><ele>381.3333333333333</ele><time>2026-04-05T10:11:07.47Z</time></trkpt><trkpt lat="42.1093367" lon="14.2863367"><ele>381.66666666666663</ele><time>2026-04-05T10:11:08.471Z</time></trkpt><trkpt lat="42.1094233" lon="14.2865317"><ele>382.0</ele><time>2026-04-05T10:11:09.473Z</time></trkpt><trkpt lat="42.10952" lon="14.2867333"><ele>382.0</ele><time>2026-04-05T10:11:10.472Z</time></trkpt><trkpt lat="42.1096233" lon="14.2869567"><ele>382.0</ele><time>2026-04-05T10:11:11.471Z</time></trkpt><trkpt lat="42.109745" lon="14.2872067"><ele>382.0</ele><time>2026-04-05T10:11:12.47Z</time></trkpt><trkpt lat="42.109885" lon="14.2874783"><ele>381.5</ele><time>2026-04-05T10:11:13.471Z</time></trkpt><trkpt lat="42.1100317" lon="14.2877633"><ele>381.0</ele><time>2026-04-05T10:11:14.474Z</time></trkpt><trkpt lat="42.1101767" lon="14.2880467"><ele>377.0</ele><time>2026-04-05T10:11:15.472Z</time></trkpt><trkpt lat="42.11031" lon="14.2883217"><ele>373.0</ele><time>2026-04-05T10:11:16.472Z</time></trkpt><trkpt lat="42.11043" lon="14.28859"><ele>373.0</ele><time>2026-04-05T10:11:17.471Z</time></trkpt><trkpt lat="42.11054" lon="14.2888467"><ele>373.0</ele><time>2026-04-05T10:11:18.472Z</time></trkpt><trkpt lat="42.1106433" lon="14.2891017"><ele>373.0</ele><time>2026-04-05T10:11:19.472Z</time></trkpt><trkpt lat="42.1107383" lon="14.289345"><ele>374.66666666666663</ele><time>2026-04-05T10:11:20.472Z</time></trkpt><trkpt lat="42.1108283" lon="14.2895767"><ele>376.3333333333333</ele><time>2026-04-05T10:11:21.47Z</time></trkpt><trkpt lat="42.1109133" lon="14.2898"><ele>378.0</ele><time>2026-04-05T10:11:22.472Z</time></trkpt><trkpt lat="42.1109967" lon="14.2900133"><ele>373.6666666666667</ele><time>2026-04-05T10:11:23.471Z</time></trkpt><trkpt lat="42.11108" lon="14.290215"><ele>369.33333333333337</ele><time>2026-04-05T10:11:24.47Z</time></trkpt><trkpt lat="42.1111733" lon="14.2903967"><ele>365.0</ele><time>2026-04-05T10:11:25.471Z</time></trkpt><trkpt lat="42.1112783" lon="14.29055"><ele>364.25</ele><time>2026-04-05T10:11:26.47Z</time></trkpt><trkpt lat="42.1113867" lon="14.2906817"><ele>363.5</ele><time>2026-04-05T10:11:27.469Z</time></trkpt><trkpt lat="42.1114817" lon="14.2907983"><ele>362.75</ele><time>2026-04-05T10:11:28.472Z</time></trkpt><trkpt lat="42.1115617" lon="14.2908933"><ele>362.0</ele><time>2026-04-05T10:11:29.47Z</time></trkpt><trkpt lat="42.1116283" lon="14.29098"><ele>362.0</ele><time>2026-04-05T10:11:30.471Z</time></trkpt><trkpt lat="42.1116967" lon="14.29105"><ele>362.0</ele><time>2026-04-05T10:11:31.469Z</time></trkpt><trkpt lat="42.111775" lon="14.2910933"><ele>362.0</ele><time>2026-04-05T10:11:32.47Z</time></trkpt><trkpt lat="42.1118533" lon="14.2911033"><ele>362.0</ele><time>2026-04-05T10:11:33.471Z</time></trkpt><trkpt lat="42.1119417" lon="14.29109"><ele>362.0</ele><time>2026-04-05T10:11:34.47Z</time></trkpt><trkpt lat="42.1120233" lon="14.29105"><ele>362.0</ele><time>2026-04-05T10:11:35.469Z</time></trkpt><trkpt lat="42.11211" lon="14.2909883"><ele>362.0</ele><time>2026-04-05T10:11:36.469Z</time></trkpt><trkpt lat="42.112195" lon="14.2909083"><ele>362.0</ele><time>2026-04-05T10:11:37.469Z</time></trkpt><trkpt lat="42.1122817" lon="14.2908333"><ele>362.0</ele><time>2026-04-05T10:11:38.47Z</time></trkpt><trkpt lat="42.1123667" lon="14.29077"><ele>362.0</ele><time>2026-04-05T10:11:39.471Z</time></trkpt><trkpt lat="42.1124517" lon="14.2907067"><ele>362.0</ele><time>2026-04-05T10:11:40.469Z</time></trkpt><trkpt lat="42.1125383" lon="14.2906367"><ele>364.8</ele><time>2026-04-05T10:11:41.469Z</time></trkpt><trkpt lat="42.1126317" lon="14.2905667"><ele>367.6</ele><time>2026-04-05T10:11:42.472Z</time></trkpt><trkpt lat="42.1127317" lon="14.2905017"><ele>370.40000000000003</ele><time>2026-04-05T10:11:43.472Z</time></trkpt><trkpt lat="42.1128417" lon="14.2904633"><ele>373.20000000000005</ele><time>2026-04-05T10:11:44.47Z</time></trkpt><trkpt lat="42.11295" lon="14.2904283"><ele>376.0</ele><time>2026-04-05T10:11:45.471Z</time></trkpt><trkpt lat="42.1130617" lon="14.29041"><ele>376.0</ele><time>2026-04-05T10:11:46.47Z</time></trkpt><trkpt lat="42.11317" lon="14.290395"><ele>376.0</ele><time>2026-04-05T10:11:47.47Z</time></trkpt><trkpt lat="42.11327" lon="14.29038"><ele>376.0</ele><time>2026-04-05T10:11:48.47Z</time></trkpt><trkpt lat="42.1133633" lon="14.2903583"><ele>376.0</ele><time>2026-04-05T10:11:49.472Z</time></trkpt><trkpt lat="42.1134533" lon="14.2903367"><ele>376.0</ele><time>2026-04-05T10:11:50.47Z</time></trkpt><trkpt lat="42.113545" lon="14.29032"><ele>373.57142857142856</ele><time>2026-04-05T10:11:51.473Z</time></trkpt><trkpt lat="42.1136283" lon="14.29031"><ele>371.1428571428571</ele><time>2026-04-05T10:11:52.469Z</time></trkpt><trkpt lat="42.1137017" lon="14.2903"><ele>368.7142857142857</ele><time>2026-04-05T10:11:53.468Z</time></trkpt><trkpt lat="42.1137767" lon="14.2902983"><ele>366.2857142857143</ele><time>2026-04-05T10:11:54.469Z</time></trkpt><trkpt lat="42.11385" lon="14.290295"><ele>363.8571428571429</ele><time>2026-04-05T10:11:55.47Z</time></trkpt><trkpt lat="42.1139183" lon="14.2902917"><ele>361.42857142857144</ele><time>2026-04-05T10:11:56.471Z</time></trkpt><trkpt lat="42.1139817" lon="14.2902867"><ele>359.0</ele><time>2026-04-05T10:11:57.47Z</time></trkpt><trkpt lat="42.1141017" lon="14.2902567"><ele>357.1666666666667</ele><time>2026-04-05T10:11:59.477Z</time></trkpt><trkpt lat="42.114175" lon="14.2902417"><ele>355.33333333333337</ele><time>2026-04-05T10:12:00.471Z</time></trkpt><trkpt lat="42.1142567" lon="14.2902267"><ele>353.5</ele><time>2026-04-05T10:12:01.47Z</time></trkpt><trkpt lat="42.11435" lon="14.2902333"><ele>351.6666666666667</ele><time>2026-04-05T10:12:02.47Z</time></trkpt><trkpt lat="42.11444" lon="14.2902267"><ele>349.8333333333333</ele><time>2026-04-05T10:12:03.475Z</time></trkpt><trkpt lat="42.1145233" lon="14.2902233"><ele>348.0</ele><time>2026-04-05T10:12:04.471Z</time></trkpt><trkpt lat="42.1145983" lon="14.2902267"><ele>348.0</ele><time>2026-04-05T10:12:05.47Z</time></trkpt><trkpt lat="42.1146767" lon="14.29024"><ele>348.0</ele><time>2026-04-05T10:12:06.473Z</time></trkpt><trkpt lat="42.1147517" lon="14.29026"><ele>348.0</ele><time>2026-04-05T10:12:07.472Z</time></trkpt><trkpt lat="42.1148233" lon="14.2902783"><ele>348.0</ele><time>2026-04-05T10:12:08.472Z</time></trkpt><trkpt lat="42.114895" lon="14.2902967"><ele>348.0</ele><time>2026-04-05T10:12:09.47Z</time></trkpt><trkpt lat="42.11497" lon="14.29033"><ele>348.0</ele><time>2026-04-05T10:12:10.471Z</time></trkpt><trkpt lat="42.1150467" lon="14.2903617"><ele>347.1428571428571</ele><time>2026-04-05T10:12:11.473Z</time></trkpt><trkpt lat="42.11512" lon="14.2904033"><ele>346.2857142857143</ele><time>2026-04-05T10:12:12.47Z</time></trkpt><trkpt lat="42.1151917" lon="14.2904333"><ele>345.42857142857144</ele><time>2026-04-05T10:12:13.47Z</time></trkpt><trkpt lat="42.11526" lon="14.290465"><ele>344.57142857142856</ele><time>2026-04-05T10:12:14.473Z</time></trkpt><trkpt lat="42.1153283" lon="14.2904917"><ele>343.7142857142857</ele><time>2026-04-05T10:12:15.471Z</time></trkpt><trkpt lat="42.1154" lon="14.29052"><ele>342.85714285714283</ele><time>2026-04-05T10:12:16.471Z</time></trkpt><trkpt lat="42.1154667" lon="14.2905517"><ele>342.0</ele><time>2026-04-05T10:12:17.471Z</time></trkpt><trkpt lat="42.11554" lon="14.2905833"><ele>340.6666666666667</ele><time>2026-04-05T10:12:18.472Z</time></trkpt><trkpt lat="42.11561" lon="14.29062"><ele>339.3333333333333</ele><time>2026-04-05T10:12:19.47Z</time></trkpt><trkpt lat="42.115685" lon="14.2906383"><ele>338.0</ele><time>2026-04-05T10:12:20.472Z</time></trkpt><trkpt lat="42.1157617" lon="14.2906467"><ele>336.66666666666663</ele><time>2026-04-05T10:12:21.471Z</time></trkpt><trkpt lat="42.1158267" lon="14.2906483"><ele>335.3333333333333</ele><time>2026-04-05T10:12:22.472Z</time></trkpt><trkpt lat="42.11591" lon="14.2906067"><ele>334.0</ele><time>2026-04-05T10:12:24.469Z</time></trkpt><trkpt lat="42.1159733" lon="14.2905367"><ele>334.0</ele><time>2026-04-05T10:12:26.471Z</time></trkpt><trkpt lat="42.11603" lon="14.2904717"><ele>334.0</ele><time>2026-04-05T10:12:28.47Z</time></trkpt><trkpt lat="42.1160983" lon="14.29048"><ele>334.0</ele><time>2026-04-05T10:12:30.469Z</time></trkpt><trkpt lat="42.1161483" lon="14.2905617"><ele>334.0</ele><time>2026-04-05T10:12:32.469Z</time></trkpt><trkpt lat="42.1162" lon="14.2906383"><ele>334.0</ele><time>2026-04-05T10:12:34.474Z</time></trkpt><trkpt lat="42.1162583" lon="14.2907133"><ele>334.0</ele><time>2026-04-05T10:12:36.469Z</time></trkpt><trkpt lat="42.1163567" lon="14.2907283"><ele>333.4</ele><time>2026-04-05T10:12:38.47Z</time></trkpt><trkpt lat="42.1164233" lon="14.2906933"><ele>332.79999999999995</ele><time>2026-04-05T10:12:39.47Z</time></trkpt><trkpt lat="42.1165283" lon="14.29075"><ele>332.20000000000005</ele><time>2026-04-05T10:12:41.473Z</time></trkpt><trkpt lat="42.11665" lon="14.2907617"><ele>331.6</ele><time>2026-04-05T10:12:43.468Z</time></trkpt><trkpt lat="42.116725" lon="14.2907583"><ele>331.0</ele><time>2026-04-05T10:12:44.47Z</time></trkpt><trkpt lat="42.1168017" lon="14.2907517"><ele>330.4</ele><time>2026-04-05T10:12:45.472Z</time></trkpt><trkpt lat="42.116885" lon="14.2907383"><ele>329.8</ele><time>2026-04-05T10:12:46.468Z</time></trkpt><trkpt lat="42.1169717" lon="14.2907133"><ele>329.2</ele><time>2026-04-05T10:12:47.472Z</time></trkpt><trkpt lat="42.117065" lon="14.2906883"><ele>328.59999999999997</ele><time>2026-04-05T10:12:48.47Z</time></trkpt><trkpt lat="42.11716" lon="14.2906717"><ele>328.0</ele><time>2026-04-05T10:12:49.471Z</time></trkpt><trkpt lat="42.11725" lon="14.2906433"><ele>328.0</ele><time>2026-04-05T10:12:50.469Z</time></trkpt><trkpt lat="42.1173467" lon="14.2906383"><ele>328.0</ele><time>2026-04-05T10:12:51.47Z</time></trkpt><trkpt lat="42.1174433" lon="14.29063"><ele>328.0</ele><time>2026-04-05T10:12:52.469Z</time></trkpt><trkpt lat="42.1175417" lon="14.290625"><ele>328.0</ele><time>2026-04-05T10:12:53.47Z</time></trkpt><trkpt lat="42.1176383" lon="14.2906217"><ele>328.0</ele><time>2026-04-05T10:12:54.47Z</time></trkpt><trkpt lat="42.1177283" lon="14.29061"><ele>324.59999999999997</ele><time>2026-04-05T10:12:55.471Z</time></trkpt><trkpt lat="42.1178133" lon="14.2905883"><ele>321.2</ele><time>2026-04-05T10:12:56.469Z</time></trkpt><trkpt lat="42.1178983" lon="14.2905533"><ele>317.8</ele><time>2026-04-05T10:12:57.471Z</time></trkpt><trkpt lat="42.1179817" lon="14.2905017"><ele>314.4</ele><time>2026-04-05T10:12:58.47Z</time></trkpt><trkpt lat="42.1180633" lon="14.2904383"><ele>311.0</ele><time>2026-04-05T10:12:59.469Z</time></trkpt><trkpt lat="42.118145" lon="14.29036"><ele>311.0</ele><time>2026-04-05T10:13:00.47Z</time></trkpt><trkpt lat="42.1182233" lon="14.2902783"><ele>311.0</ele><time>2026-04-05T10:13:01.471Z</time></trkpt><trkpt lat="42.1183" lon="14.29021"><ele>311.0</ele><time>2026-04-05T10:13:02.469Z</time></trkpt><trkpt lat="42.118375" lon="14.2901467"><ele>311.0</ele><time>2026-04-05T10:13:03.468Z</time></trkpt><trkpt lat="42.1184483" lon="14.290095"><ele>311.0</ele><time>2026-04-05T10:13:04.47Z</time></trkpt><trkpt lat="42.1185217" lon="14.2900417"><ele>311.0</ele><time>2026-04-05T10:13:05.468Z</time></trkpt><trkpt lat="42.1186" lon="14.28999"><ele>312.0</ele><time>2026-04-05T10:13:06.47Z</time></trkpt><trkpt lat="42.1186867" lon="14.2899617"><ele>313.0</ele><time>2026-04-05T10:13:07.469Z</time></trkpt><trkpt lat="42.1187717" lon="14.2899617"><ele>314.0</ele><time>2026-04-05T10:13:08.473Z</time></trkpt><trkpt lat="42.1188567" lon="14.2900033"><ele>315.0</ele><time>2026-04-05T10:13:09.469Z</time></trkpt><trkpt lat="42.11893" lon="14.2900767"><ele>316.0</ele><time>2026-04-05T10:13:10.468Z</time></trkpt><trkpt lat="42.118995" lon="14.29016"><ele>317.0</ele><time>2026-04-05T10:13:11.471Z</time></trkpt><trkpt lat="42.1190583" lon="14.290245"><ele>315.2</ele><time>2026-04-05T10:13:12.469Z</time></trkpt><trkpt lat="42.11914" lon="14.2903067"><ele>313.4</ele><time>2026-04-05T10:13:13.472Z</time></trkpt><trkpt lat="42.11924" lon="14.2903767"><ele>311.6</ele><time>2026-04-05T10:13:14.47Z</time></trkpt><trkpt lat="42.119345" lon="14.29043"><ele>309.8</ele><time>2026-04-05T10:13:15.469Z</time></trkpt><trkpt lat="42.1194583" lon="14.2904883"><ele>308.0</ele><time>2026-04-05T10:13:16.47Z</time></trkpt><trkpt lat="42.1195717" lon="14.2905517"><ele>307.0</ele><time>2026-04-05T10:13:17.471Z</time></trkpt><trkpt lat="42.1196783" lon="14.2906117"><ele>306.0</ele><time>2026-04-05T10:13:18.472Z</time></trkpt><trkpt lat="42.11978" lon="14.2906717"><ele>305.0</ele><time>2026-04-05T10:13:19.47Z</time></trkpt><trkpt lat="42.1198783" lon="14.29075"><ele>304.0</ele><time>2026-04-05T10:13:20.474Z</time></trkpt><trkpt lat="42.1199683" lon="14.29085"><ele>304.0</ele><time>2026-04-05T10:13:21.47Z</time></trkpt><trkpt lat="42.12005" lon="14.290975"><ele>304.0</ele><time>2026-04-05T10:13:22.472Z</time></trkpt><trkpt lat="42.120115" lon="14.29111"><ele>304.0</ele><time>2026-04-05T10:13:23.471Z</time></trkpt><trkpt lat="42.1201617" lon="14.291255"><ele>304.0</ele><time>2026-04-05T10:13:24.468Z</time></trkpt><trkpt lat="42.1201867" lon="14.2914233"><ele>306.59999999999997</ele><time>2026-04-05T10:13:25.472Z</time></trkpt><trkpt lat="42.1202033" lon="14.2915883"><ele>309.2</ele><time>2026-04-05T10:13:26.47Z</time></trkpt><trkpt lat="42.120205" lon="14.29174"><ele>311.79999999999995</ele><time>2026-04-05T10:13:27.469Z</time></trkpt><trkpt lat="42.120195" lon="14.2918783"><ele>314.4</ele><time>2026-04-05T10:13:28.468Z</time></trkpt><trkpt lat="42.120155" lon="14.29201"><ele>317.0</ele><time>2026-04-05T10:13:29.472Z</time></trkpt><trkpt lat="42.120095" lon="14.2921317"><ele>317.0</ele><time>2026-04-05T10:13:30.469Z</time></trkpt><trkpt lat="42.120025" lon="14.2922417"><ele>317.0</ele><time>2026-04-05T10:13:31.471Z</time></trkpt><trkpt lat="42.1199517" lon="14.29236"><ele>317.0</ele><time>2026-04-05T10:13:32.47Z</time></trkpt><trkpt lat="42.1199183" lon="14.292505"><ele>317.0</ele><time>2026-04-05T10:13:33.47Z</time></trkpt><trkpt lat="42.119905" lon="14.2926717"><ele>315.75</ele><time>2026-04-05T10:13:34.47Z</time></trkpt><trkpt lat="42.1199067" lon="14.2928367"><ele>314.5</ele><time>2026-04-05T10:13:35.47Z</time></trkpt><trkpt lat="42.1199167" lon="14.2929967"><ele>313.25</ele><time>2026-04-05T10:13:36.47Z</time></trkpt><trkpt lat="42.1199183" lon="14.2931433"><ele>312.0</ele><time>2026-04-05T10:13:37.47Z</time></trkpt><trkpt lat="42.119915" lon="14.2932867"><ele>314.75</ele><time>2026-04-05T10:13:38.47Z</time></trkpt><trkpt lat="42.1198983" lon="14.2934267"><ele>317.5</ele><time>2026-04-05T10:13:39.469Z</time></trkpt><trkpt lat="42.119855" lon="14.2935733"><ele>320.25</ele><time>2026-04-05T10:13:40.47Z</time></trkpt><trkpt lat="42.119775" lon="14.29373"><ele>323.0</ele><time>2026-04-05T10:13:41.471Z</time></trkpt><trkpt lat="42.1196717" lon="14.2939283"><ele>323.0</ele><time>2026-04-05T10:13:42.472Z</time></trkpt><trkpt lat="42.11957" lon="14.2941433"><ele>323.0</ele><time>2026-04-05T10:13:43.47Z</time></trkpt><trkpt lat="42.1194817" lon="14.294345"><ele>323.0</ele><time>2026-04-05T10:13:44.47Z</time></trkpt><trkpt lat="42.1194067" lon="14.294525"><ele>323.0</ele><time>2026-04-05T10:13:45.471Z</time></trkpt><trkpt lat="42.1193317" lon="14.294695"><ele>323.0</ele><time>2026-04-05T10:13:46.471Z</time></trkpt><trkpt lat="42.11926" lon="14.2948433"><ele>323.0</ele><time>2026-04-05T10:13:47.469Z</time></trkpt><trkpt lat="42.1191833" lon="14.2949783"><ele>323.0</ele><time>2026-04-05T10:13:48.471Z</time></trkpt><trkpt lat="42.1190717" lon="14.2950967"><ele>319.25</ele><time>2026-04-05T10:13:49.469Z</time></trkpt><trkpt lat="42.1189533" lon="14.295195"><ele>315.5</ele><time>2026-04-05T10:13:50.47Z</time></trkpt><trkpt lat="42.1188333" lon="14.29529"><ele>311.75</ele><time>2026-04-05T10:13:51.47Z</time></trkpt><trkpt lat="42.1187183" lon="14.2953867"><ele>308.0</ele><time>2026-04-05T10:13:52.474Z</time></trkpt><trkpt lat="42.118615" lon="14.2954783"><ele>308.0</ele><time>2026-04-05T10:13:53.469Z</time></trkpt><trkpt lat="42.1185267" lon="14.2955667"><ele>308.0</ele><time>2026-04-05T10:13:54.469Z</time></trkpt><trkpt lat="42.118445" lon="14.2956517"><ele>308.0</ele><time>2026-04-05T10:13:55.468Z</time></trkpt><trkpt lat="42.1183683" lon="14.2957183"><ele>308.0</ele><time>2026-04-05T10:13:56.472Z</time></trkpt><trkpt lat="42.1182817" lon="14.295735"><ele>308.0</ele><time>2026-04-05T10:13:57.468Z</time></trkpt><trkpt lat="42.1181883" lon="14.29572"><ele>304.1666666666667</ele><time>2026-04-05T10:13:58.472Z</time></trkpt><trkpt lat="42.1180967" lon="14.2956867"><ele>300.33333333333337</ele><time>2026-04-05T10:13:59.47Z</time></trkpt><trkpt lat="42.1180167" lon="14.2956417"><ele>296.5</ele><time>2026-04-05T10:14:00.468Z</time></trkpt><trkpt lat="42.117945" lon="14.295605"><ele>292.6666666666667</ele><time>2026-04-05T10:14:01.476Z</time></trkpt><trkpt lat="42.1178817" lon="14.295615"><ele>288.8333333333333</ele><time>2026-04-05T10:14:02.469Z</time></trkpt><trkpt lat="42.11779" lon="14.2956683"><ele>285.0</ele><time>2026-04-05T10:14:04.47Z</time></trkpt><trkpt lat="42.117725" lon="14.29574"><ele>285.0</ele><time>2026-04-05T10:14:06.469Z</time></trkpt><trkpt lat="42.1176667" lon="14.2958283"><ele>285.0</ele><time>2026-04-05T10:14:08.47Z</time></trkpt><trkpt lat="42.117655" lon="14.2959217"><ele>285.0</ele><time>2026-04-05T10:14:10.47Z</time></trkpt><trkpt lat="42.117695" lon="14.2960383"><ele>285.0</ele><time>2026-04-05T10:14:12.468Z</time></trkpt><trkpt lat="42.1177267" lon="14.2961167"><ele>285.0</ele><time>2026-04-05T10:14:13.47Z</time></trkpt><trkpt lat="42.1177683" lon="14.2961867"><ele>285.0</ele><time>2026-04-05T10:14:14.47Z</time></trkpt><trkpt lat="42.117825" lon="14.296235"><ele>285.0</ele><time>2026-04-05T10:14:15.471Z</time></trkpt><trkpt lat="42.1179333" lon="14.29626"><ele>285.0</ele><time>2026-04-05T10:14:17.47Z</time></trkpt><trkpt lat="42.11805" lon="14.2962067"><ele>285.0</ele><time>2026-04-05T10:14:19.469Z</time></trkpt><trkpt lat="42.118105" lon="14.296155"><ele>285.0</ele><time>2026-04-05T10:14:20.471Z</time></trkpt><trkpt lat="42.1182233" lon="14.296075"><ele>285.0</ele><time>2026-04-05T10:14:21.469Z</time></trkpt><trkpt lat="42.1183867" lon="14.2959867"><ele>286.5</ele><time>2026-04-05T10:14:22.47Z</time></trkpt><trkpt lat="42.11862" lon="14.295865"><ele>288.0</ele><time>2026-04-05T10:14:23.47Z</time></trkpt><trkpt lat="42.118885" lon="14.2957217"><ele>291.0</ele><time>2026-04-05T10:14:24.473Z</time></trkpt><trkpt lat="42.1191317" lon="14.295585"><ele>294.0</ele><time>2026-04-05T10:14:25.471Z</time></trkpt><trkpt lat="42.1193433" lon="14.29546"><ele>294.0</ele><time>2026-04-05T10:14:26.473Z</time></trkpt><trkpt lat="42.1195133" lon="14.2953433"><ele>294.0</ele><time>2026-04-05T10:14:27.472Z</time></trkpt><trkpt lat="42.1196383" lon="14.2952317"><ele>294.0</ele><time>2026-04-05T10:14:28.468Z</time></trkpt><trkpt lat="42.119715" lon="14.2951017"><ele>294.0</ele><time>2026-04-05T10:14:29.472Z</time></trkpt><trkpt lat="42.1197583" lon="14.2949283"><ele>294.0</ele><time>2026-04-05T10:14:30.469Z</time></trkpt><trkpt lat="42.1198083" lon="14.294755"><ele>294.0</ele><time>2026-04-05T10:14:31.471Z</time></trkpt><trkpt lat="42.1198733" lon="14.2946183"><ele>294.0</ele><time>2026-04-05T10:14:32.47Z</time></trkpt><trkpt lat="42.1199633" lon="14.29451"><ele>295.0</ele><time>2026-04-05T10:14:33.472Z</time></trkpt><trkpt lat="42.1200733" lon="14.2944217"><ele>296.0</ele><time>2026-04-05T10:14:34.469Z</time></trkpt><trkpt lat="42.1201833" lon="14.2943"><ele>297.0</ele><time>2026-04-05T10:14:35.469Z</time></trkpt><trkpt lat="42.1202733" lon="14.2941183"><ele>298.0</ele><time>2026-04-05T10:14:36.469Z</time></trkpt><trkpt lat="42.1203467" lon="14.2938967"><ele>298.0</ele><time>2026-04-05T10:14:37.468Z</time></trkpt><trkpt lat="42.1203933" lon="14.2936617"><ele>298.0</ele><time>2026-04-05T10:14:38.473Z</time></trkpt><trkpt lat="42.1204333" lon="14.2934317"><ele>298.0</ele><time>2026-04-05T10:14:39.468Z</time></trkpt><trkpt lat="42.1204767" lon="14.2932217"><ele>301.5</ele><time>2026-04-05T10:14:40.471Z</time></trkpt><trkpt lat="42.120535" lon="14.2930367"><ele>305.0</ele><time>2026-04-05T10:14:41.469Z</time></trkpt><trkpt lat="42.1206" lon="14.2928783"><ele>308.5</ele><time>2026-04-05T10:14:42.469Z</time></trkpt><trkpt lat="42.1206633" lon="14.2927517"><ele>312.0</ele><time>2026-04-05T10:14:43.47Z</time></trkpt><trkpt lat="42.1207417" lon="14.2926417"><ele>304.2</ele><time>2026-04-05T10:14:44.47Z</time></trkpt><trkpt lat="42.120825" lon="14.2925483"><ele>296.4</ele><time>2026-04-05T10:14:45.469Z</time></trkpt><trkpt lat="42.12091" lon="14.2924617"><ele>288.6</ele><time>2026-04-05T10:14:46.471Z</time></trkpt><trkpt lat="42.1209933" lon="14.292375"><ele>280.8</ele><time>2026-04-05T10:14:47.472Z</time></trkpt><trkpt lat="42.121065" lon="14.292275"><ele>273.0</ele><time>2026-04-05T10:14:48.469Z</time></trkpt><trkpt lat="42.1211133" lon="14.2921583"><ele>273.0</ele><time>2026-04-05T10:14:49.468Z</time></trkpt><trkpt lat="42.1211433" lon="14.2920083"><ele>273.0</ele><time>2026-04-05T10:14:50.472Z</time></trkpt><trkpt lat="42.1211333" lon="14.2917833"><ele>273.0</ele><time>2026-04-05T10:14:51.47Z</time></trkpt><trkpt lat="42.12112" lon="14.29151"><ele>268.3333333333333</ele><time>2026-04-05T10:14:52.472Z</time></trkpt><trkpt lat="42.1210867" lon="14.291255"><ele>263.66666666666663</ele><time>2026-04-05T10:14:53.47Z</time></trkpt><trkpt lat="42.12104" lon="14.29103"><ele>259.0</ele><time>2026-04-05T10:14:54.47Z</time></trkpt><trkpt lat="42.1209667" lon="14.29083"><ele>259.0</ele><time>2026-04-05T10:14:55.47Z</time></trkpt><trkpt lat="42.1208717" lon="14.2906367"><ele>259.0</ele><time>2026-04-05T10:14:56.469Z</time></trkpt><trkpt lat="42.1207633" lon="14.2904617"><ele>259.0</ele><time>2026-04-05T10:14:57.473Z</time></trkpt><trkpt lat="42.1206633" lon="14.2902967"><ele>258.25</ele><time>2026-04-05T10:14:58.469Z</time></trkpt><trkpt lat="42.1205817" lon="14.2901283"><ele>257.5</ele><time>2026-04-05T10:14:59.469Z</time></trkpt><trkpt lat="42.1205283" lon="14.2899533"><ele>256.75</ele><time>2026-04-05T10:15:00.47Z</time></trkpt><trkpt lat="42.1205033" lon="14.2897817"><ele>256.0</ele><time>2026-04-05T10:15:01.471Z</time></trkpt><trkpt lat="42.1205117" lon="14.2896"><ele>256.0</ele><time>2026-04-05T10:15:02.469Z</time></trkpt><trkpt lat="42.1205467" lon="14.2894067"><ele>256.0</ele><time>2026-04-05T10:15:03.469Z</time></trkpt><trkpt lat="42.12059" lon="14.2892167"><ele>256.0</ele><time>2026-04-05T10:15:04.469Z</time></trkpt><trkpt lat="42.12062" lon="14.2890433"><ele>256.0</ele><time>2026-04-05T10:15:05.47Z</time></trkpt><trkpt lat="42.1206067" lon="14.28888"><ele>251.33333333333331</ele><time>2026-04-05T10:15:06.471Z</time></trkpt><trkpt lat="42.1205483" lon="14.288705"><ele>246.66666666666669</ele><time>2026-04-05T10:15:07.469Z</time></trkpt><trkpt lat="42.1204283" lon="14.2885217"><ele>242.0</ele><time>2026-04-05T10:15:08.471Z</time></trkpt><trkpt lat="42.1202767" lon="14.2883333"><ele>242.0</ele><time>2026-04-05T10:15:09.473Z</time></trkpt><trkpt lat="42.1201283" lon="14.288175"><ele>242.0</ele><time>2026-04-05T10:15:10.472Z</time></trkpt><trkpt lat="42.1200067" lon="14.28804"><ele>242.0</ele><time>2026-04-05T10:15:11.469Z</time></trkpt><trkpt lat="42.1199183" lon="14.2879083"><ele>248.0</ele><time>2026-04-05T10:15:12.47Z</time></trkpt><trkpt lat="42.1198583" lon="14.2877517"><ele>254.0</ele><time>2026-04-05T10:15:13.471Z</time></trkpt><trkpt lat="42.1198033" lon="14.2875417"><ele>260.0</ele><time>2026-04-05T10:15:14.469Z</time></trkpt><trkpt lat="42.1197517" lon="14.287305"><ele>252.25</ele><time>2026-04-05T10:15:15.47Z</time></trkpt><trkpt lat="42.1197067" lon="14.2871"><ele>244.5</ele><time>2026-04-05T10:15:16.473Z</time></trkpt><trkpt lat="42.1196567" lon="14.2869483"><ele>236.75</ele><time>2026-04-05T10:15:17.47Z</time></trkpt><trkpt lat="42.119595" lon="14.2868483"><ele>229.0</ele><time>2026-04-05T10:15:18.471Z</time></trkpt><trkpt lat="42.1195183" lon="14.286785"><ele>228.99999999999997</ele><time>2026-04-05T10:15:19.472Z</time></trkpt><trkpt lat="42.1194317" lon="14.28675"><ele>229.0</ele><time>2026-04-05T10:15:20.472Z</time></trkpt><trkpt lat="42.1193683" lon="14.2867283"><ele>229.0</ele><time>2026-04-05T10:15:21.473Z</time></trkpt><trkpt lat="42.1193383" lon="14.286645"><ele>229.0</ele><time>2026-04-05T10:15:23.472Z</time></trkpt><trkpt lat="42.119405" lon="14.2866"><ele>228.99999999999997</ele><time>2026-04-05T10:15:24.471Z</time></trkpt><trkpt lat="42.119505" lon="14.2865917"><ele>229.0</ele><time>2026-04-05T10:15:25.47Z</time></trkpt><trkpt lat="42.119605" lon="14.2866167"><ele>229.0</ele><time>2026-04-05T10:15:26.472Z</time></trkpt><trkpt lat="42.1196967" lon="14.28668"><ele>229.0</ele><time>2026-04-05T10:15:27.471Z</time></trkpt><trkpt lat="42.1197817" lon="14.2867967"><ele>229.0</ele><time>2026-04-05T10:15:28.47Z</time></trkpt><trkpt lat="42.11987" lon="14.28697"><ele>229.0</ele><time>2026-04-05T10:15:29.47Z</time></trkpt><trkpt lat="42.11997" lon="14.28713"><ele>229.0</ele><time>2026-04-05T10:15:30.468Z</time></trkpt><trkpt lat="42.120095" lon="14.2872433"><ele>229.0</ele><time>2026-04-05T10:15:31.471Z</time></trkpt><trkpt lat="42.1202633" lon="14.2873167"><ele>229.0</ele><time>2026-04-05T10:15:32.472Z</time></trkpt><trkpt lat="42.1204533" lon="14.287365"><ele>229.0</ele><time>2026-04-05T10:15:33.471Z</time></trkpt><trkpt lat="42.12062" lon="14.28739"><ele>229.0</ele><time>2026-04-05T10:15:34.473Z</time></trkpt><trkpt lat="42.120755" lon="14.287395"><ele>229.0</ele><time>2026-04-05T10:15:35.469Z</time></trkpt><trkpt lat="42.12087" lon="14.287355"><ele>229.0</ele><time>2026-04-05T10:15:36.469Z</time></trkpt><trkpt lat="42.1209467" lon="14.2872633"><ele>224.6</ele><time>2026-04-05T10:15:37.47Z</time></trkpt><trkpt lat="42.1210083" lon="14.2871417"><ele>220.2</ele><time>2026-04-05T10:15:38.469Z</time></trkpt><trkpt lat="42.1210683" lon="14.287005"><ele>215.79999999999998</ele><time>2026-04-05T10:15:39.469Z</time></trkpt><trkpt lat="42.121125" lon="14.28687"><ele>211.39999999999998</ele><time>2026-04-05T10:15:40.47Z</time></trkpt><trkpt lat="42.1211833" lon="14.2867567"><ele>207.0</ele><time>2026-04-05T10:15:41.472Z</time></trkpt><trkpt lat="42.12125" lon="14.286685"><ele>207.0</ele><time>2026-04-05T10:15:42.47Z</time></trkpt><trkpt lat="42.121325" lon="14.2866483"><ele>207.0</ele><time>2026-04-05T10:15:43.469Z</time></trkpt><trkpt lat="42.12141" lon="14.286685"><ele>207.0</ele><time>2026-04-05T10:15:44.469Z</time></trkpt><trkpt lat="42.1215017" lon="14.2867917"><ele>207.0</ele><time>2026-04-05T10:15:45.472Z</time></trkpt><trkpt lat="42.121575" lon="14.28694"><ele>207.0</ele><time>2026-04-05T10:15:46.471Z</time></trkpt><trkpt lat="42.1216267" lon="14.28714"><ele>206.33333333333331</ele><time>2026-04-05T10:15:47.474Z</time></trkpt><trkpt lat="42.1216683" lon="14.2873983"><ele>205.66666666666666</ele><time>2026-04-05T10:15:48.47Z</time></trkpt><trkpt lat="42.1216983" lon="14.2877217"><ele>205.0</ele><time>2026-04-05T10:15:49.47Z</time></trkpt><trkpt lat="42.1217233" lon="14.2880967"><ele>205.0</ele><time>2026-04-05T10:15:50.471Z</time></trkpt><trkpt lat="42.1217483" lon="14.288515"><ele>205.0</ele><time>2026-04-05T10:15:51.472Z</time></trkpt><trkpt lat="42.1217717" lon="14.2889283"><ele>205.0</ele><time>2026-04-05T10:15:52.471Z</time></trkpt><trkpt lat="42.1217917" lon="14.2892967"><ele>205.0</ele><time>2026-04-05T10:15:53.471Z</time></trkpt><trkpt lat="42.1218117" lon="14.2896167"><ele>204.33333333333331</ele><time>2026-04-05T10:15:54.475Z</time></trkpt><trkpt lat="42.1218183" lon="14.2899033"><ele>203.66666666666669</ele><time>2026-04-05T10:15:55.47Z</time></trkpt><trkpt lat="42.121815" lon="14.2901467"><ele>203.0</ele><time>2026-04-05T10:15:56.471Z</time></trkpt><trkpt lat="42.121825" lon="14.2903733"><ele>203.0</ele><time>2026-04-05T10:15:57.47Z</time></trkpt><trkpt lat="42.1218367" lon="14.2905783"><ele>203.0</ele><time>2026-04-05T10:15:58.472Z</time></trkpt><trkpt lat="42.1218633" lon="14.29077"><ele>203.0</ele><time>2026-04-05T10:15:59.47Z</time></trkpt><trkpt lat="42.12191" lon="14.2909383"><ele>203.0</ele><time>2026-04-05T10:16:00.471Z</time></trkpt><trkpt lat="42.12198" lon="14.2910667"><ele>204.25</ele><time>2026-04-05T10:16:01.47Z</time></trkpt><trkpt lat="42.12207" lon="14.29115"><ele>205.5</ele><time>2026-04-05T10:16:02.472Z</time></trkpt><trkpt lat="42.1221733" lon="14.2911883"><ele>206.75</ele><time>2026-04-05T10:16:03.469Z</time></trkpt><trkpt lat="42.1222883" lon="14.2912133"><ele>208.0</ele><time>2026-04-05T10:16:04.468Z</time></trkpt><trkpt lat="42.122405" lon="14.2912467"><ele>201.33333333333331</ele><time>2026-04-05T10:16:05.475Z</time></trkpt><trkpt lat="42.122535" lon="14.2913267"><ele>194.66666666666666</ele><time>2026-04-05T10:16:06.469Z</time></trkpt><trkpt lat="42.122695" lon="14.2914783"><ele>188.0</ele><time>2026-04-05T10:16:07.47Z</time></trkpt><trkpt lat="42.1228633" lon="14.2916667"><ele>188.0</ele><time>2026-04-05T10:16:08.471Z</time></trkpt><trkpt lat="42.1230183" lon="14.291845"><ele>188.0</ele><time>2026-04-05T10:16:09.472Z</time></trkpt><trkpt lat="42.1231533" lon="14.292"><ele>188.0</ele><time>2026-04-05T10:16:10.471Z</time></trkpt><trkpt lat="42.1232617" lon="14.2921783"><ele>185.66666666666666</ele><time>2026-04-05T10:16:11.472Z</time></trkpt><trkpt lat="42.1233567" lon="14.2924083"><ele>183.33333333333334</ele><time>2026-04-05T10:16:12.469Z</time></trkpt><trkpt lat="42.1234383" lon="14.2926967"><ele>181.0</ele><time>2026-04-05T10:16:13.47Z</time></trkpt><trkpt lat="42.123505" lon="14.2929783"><ele>181.66666666666669</ele><time>2026-04-05T10:16:14.47Z</time></trkpt><trkpt lat="42.12355" lon="14.29324"><ele>182.33333333333334</ele><time>2026-04-05T10:16:15.47Z</time></trkpt><trkpt lat="42.123565" lon="14.29354"><ele>183.0</ele><time>2026-04-05T10:16:16.471Z</time></trkpt><trkpt lat="42.1235633" lon="14.2938917"><ele>181.0</ele><time>2026-04-05T10:16:17.472Z</time></trkpt><trkpt lat="42.123565" lon="14.29429"><ele>179.0</ele><time>2026-04-05T10:16:18.47Z</time></trkpt><trkpt lat="42.1235867" lon="14.2947283"><ele>177.0</ele><time>2026-04-05T10:16:19.47Z</time></trkpt><trkpt lat="42.12363" lon="14.2951833"><ele>175.0</ele><time>2026-04-05T10:16:20.471Z</time></trkpt><trkpt lat="42.1236767" lon="14.2956033"><ele>174.5</ele><time>2026-04-05T10:16:21.471Z</time></trkpt><trkpt lat="42.1237233" lon="14.2959517"><ele>174.0</ele><time>2026-04-05T10:16:22.47Z</time></trkpt><trkpt lat="42.1237633" lon="14.2962317"><ele>173.66666666666666</ele><time>2026-04-05T10:16:23.472Z</time></trkpt><trkpt lat="42.1237933" lon="14.2964617"><ele>173.33333333333331</ele><time>2026-04-05T10:16:24.473Z</time></trkpt><trkpt lat="42.1238067" lon="14.29666"><ele>173.0</ele><time>2026-04-05T10:16:25.47Z</time></trkpt><trkpt lat="42.1237883" lon="14.2968633"><ele>173.0</ele><time>2026-04-05T10:16:26.472Z</time></trkpt><trkpt lat="42.1237317" lon="14.2971083"><ele>173.0</ele><time>2026-04-05T10:16:27.471Z</time></trkpt><trkpt lat="42.1236367" lon="14.297385"><ele>173.0</ele><time>2026-04-05T10:16:28.471Z</time></trkpt><trkpt lat="42.123545" lon="14.297655"><ele>171.66666666666666</ele><time>2026-04-05T10:16:29.47Z</time></trkpt><trkpt lat="42.123485" lon="14.2979067"><ele>170.33333333333334</ele><time>2026-04-05T10:16:30.47Z</time></trkpt><trkpt lat="42.1234567" lon="14.2981433"><ele>169.0</ele><time>2026-04-05T10:16:31.472Z</time></trkpt><trkpt lat="42.1234417" lon="14.298385"><ele>167.66666666666669</ele><time>2026-04-05T10:16:32.473Z</time></trkpt><trkpt lat="42.12343" lon="14.2986333"><ele>166.33333333333334</ele><time>2026-04-05T10:16:33.473Z</time></trkpt><trkpt lat="42.12341" lon="14.2988917"><ele>165.0</ele><time>2026-04-05T10:16:34.47Z</time></trkpt><trkpt lat="42.1233767" lon="14.29916"><ele>163.66666666666666</ele><time>2026-04-05T10:16:35.472Z</time></trkpt><trkpt lat="42.123335" lon="14.2994217"><ele>162.33333333333331</ele><time>2026-04-05T10:16:36.475Z</time></trkpt><trkpt lat="42.1232867" lon="14.2996683"><ele>161.0</ele><time>2026-04-05T10:16:37.473Z</time></trkpt><trkpt lat="42.1232317" lon="14.2999"><ele>159.33333333333331</ele><time>2026-04-05T10:16:38.472Z</time></trkpt><trkpt lat="42.123155" lon="14.3001267"><ele>157.66666666666666</ele><time>2026-04-05T10:16:39.47Z</time></trkpt><trkpt lat="42.1230533" lon="14.300365"><ele>156.0</ele><time>2026-04-05T10:16:40.474Z</time></trkpt><trkpt lat="42.1229283" lon="14.300615"><ele>156.0</ele><time>2026-04-05T10:16:41.471Z</time></trkpt><trkpt lat="42.1227933" lon="14.30087"><ele>156.0</ele><time>2026-04-05T10:16:42.473Z</time></trkpt><trkpt lat="42.1226583" lon="14.3011133"><ele>156.0</ele><time>2026-04-05T10:16:43.473Z</time></trkpt><trkpt lat="42.1225283" lon="14.30134"><ele>156.0</ele><time>2026-04-05T10:16:44.473Z</time></trkpt><trkpt lat="42.122395" lon="14.3015483"><ele>156.0</ele><time>2026-04-05T10:16:45.474Z</time></trkpt><trkpt lat="42.1222667" lon="14.30174"><ele>155.66666666666666</ele><time>2026-04-05T10:16:46.472Z</time></trkpt><trkpt lat="42.12214" lon="14.30192"><ele>155.33333333333331</ele><time>2026-04-05T10:16:47.471Z</time></trkpt><trkpt lat="42.1220233" lon="14.30209"><ele>155.0</ele><time>2026-04-05T10:16:48.472Z</time></trkpt><trkpt lat="42.121915" lon="14.30225"><ele>154.5</ele><time>2026-04-05T10:16:49.474Z</time></trkpt><trkpt lat="42.1218083" lon="14.3023983"><ele>154.0</ele><time>2026-04-05T10:16:50.474Z</time></trkpt><trkpt lat="42.1217083" lon="14.3025383"><ele>153.5</ele><time>2026-04-05T10:16:51.472Z</time></trkpt><trkpt lat="42.1216167" lon="14.302665"><ele>153.0</ele><time>2026-04-05T10:16:52.47Z</time></trkpt><trkpt lat="42.121535" lon="14.302775"><ele>154.20000000000002</ele><time>2026-04-05T10:16:53.472Z</time></trkpt><trkpt lat="42.1214683" lon="14.3028583"><ele>155.4</ele><time>2026-04-05T10:16:54.472Z</time></trkpt><trkpt lat="42.1214017" lon="14.30292"><ele>156.60000000000002</ele><time>2026-04-05T10:16:55.475Z</time></trkpt><trkpt lat="42.1213233" lon="14.3029967"><ele>157.8</ele><time>2026-04-05T10:16:57.473Z</time></trkpt><trkpt lat="42.1212233" lon="14.3030317"><ele>159.0</ele><time>2026-04-05T10:19:41.469Z</time></trkpt><trkpt lat="42.1212367" lon="14.3031767"><ele>159.0</ele><time>2026-04-05T10:23:14.469Z</time></trkpt><trkpt lat="42.1211983" lon="14.3032517"><ele>159.0</ele><time>2026-04-05T10:23:15.469Z</time></trkpt><trkpt lat="42.1211367" lon="14.3033667"><ele>159.0</ele><time>2026-04-05T10:23:16.471Z</time></trkpt><trkpt lat="42.1210517" lon="14.3035167"><ele>159.0</ele><time>2026-04-05T10:23:17.474Z</time></trkpt><trkpt lat="42.120955" lon="14.3036783"><ele>159.0</ele><time>2026-04-05T10:23:18.472Z</time></trkpt><trkpt lat="42.12086" lon="14.3038483"><ele>159.0</ele><time>2026-04-05T10:23:19.472Z</time></trkpt><trkpt lat="42.1207633" lon="14.3040167"><ele>159.0</ele><time>2026-04-05T10:23:20.471Z</time></trkpt><trkpt lat="42.120675" lon="14.3041683"><ele>160.2</ele><time>2026-04-05T10:23:21.473Z</time></trkpt><trkpt lat="42.1205967" lon="14.3043017"><ele>161.4</ele><time>2026-04-05T10:23:22.474Z</time></trkpt><trkpt lat="42.1205317" lon="14.304415"><ele>162.6</ele><time>2026-04-05T10:23:23.472Z</time></trkpt><trkpt lat="42.1204733" lon="14.3045083"><ele>163.8</ele><time>2026-04-05T10:23:24.469Z</time></trkpt><trkpt lat="42.120425" lon="14.3045867"><ele>165.0</ele><time>2026-04-05T10:23:25.469Z</time></trkpt><trkpt lat="42.1203683" lon="14.3046683"><ele>163.75</ele><time>2026-04-05T10:23:26.47Z</time></trkpt><trkpt lat="42.120295" lon="14.3047833"><ele>162.5</ele><time>2026-04-05T10:23:27.469Z</time></trkpt><trkpt lat="42.1202133" lon="14.304925"><ele>161.25</ele><time>2026-04-05T10:23:28.469Z</time></trkpt><trkpt lat="42.1201217" lon="14.3050783"><ele>160.0</ele><time>2026-04-05T10:23:29.469Z</time></trkpt><trkpt lat="42.1200183" lon="14.3052217"><ele>160.0</ele><time>2026-04-05T10:23:30.47Z</time></trkpt><trkpt lat="42.1199333" lon="14.3053567"><ele>160.0</ele><time>2026-04-05T10:23:31.472Z</time></trkpt><trkpt lat="42.1198833" lon="14.30549"><ele>160.0</ele><time>2026-04-05T10:23:32.471Z</time></trkpt><trkpt lat="42.1198717" lon="14.30563"><ele>160.0</ele><time>2026-04-05T10:23:33.471Z</time></trkpt><trkpt lat="42.1199" lon="14.3057783"><ele>160.5</ele><time>2026-04-05T10:23:34.47Z</time></trkpt><trkpt lat="42.1199567" lon="14.30593"><ele>161.0</ele><time>2026-04-05T10:23:35.469Z</time></trkpt><trkpt lat="42.1200483" lon="14.30609"><ele>161.5</ele><time>2026-04-05T10:23:36.47Z</time></trkpt><trkpt lat="42.1201433" lon="14.3062567"><ele>162.0</ele><time>2026-04-05T10:23:37.471Z</time></trkpt><trkpt lat="42.120225" lon="14.3064233"><ele>162.75</ele><time>2026-04-05T10:23:38.469Z</time></trkpt><trkpt lat="42.120285" lon="14.3065833"><ele>163.5</ele><time>2026-04-05T10:23:39.469Z</time></trkpt><trkpt lat="42.1203167" lon="14.30675"><ele>164.25</ele><time>2026-04-05T10:23:40.471Z</time></trkpt><trkpt lat="42.120325" lon="14.30693"><ele>165.0</ele><time>2026-04-05T10:23:41.469Z</time></trkpt><trkpt lat="42.1203" lon="14.30713"><ele>163.66666666666666</ele><time>2026-04-05T10:23:42.47Z</time></trkpt><trkpt lat="42.1202533" lon="14.307355"><ele>162.33333333333331</ele><time>2026-04-05T10:23:43.47Z</time></trkpt><trkpt lat="42.120195" lon="14.3076283"><ele>161.0</ele><time>2026-04-05T10:23:44.47Z</time></trkpt><trkpt lat="42.120115" lon="14.3079367"><ele>158.5</ele><time>2026-04-05T10:23:45.472Z</time></trkpt><trkpt lat="42.12003" lon="14.3082433"><ele>156.0</ele><time>2026-04-05T10:23:46.471Z</time></trkpt><trkpt lat="42.1199633" lon="14.3085367"><ele>156.0</ele><time>2026-04-05T10:23:47.47Z</time></trkpt><trkpt lat="42.1199067" lon="14.3088167"><ele>156.0</ele><time>2026-04-05T10:23:48.47Z</time></trkpt><trkpt lat="42.1198267" lon="14.3091067"><ele>156.0</ele><time>2026-04-05T10:23:49.471Z</time></trkpt><trkpt lat="42.11972" lon="14.309415"><ele>156.0</ele><time>2026-04-05T10:23:50.472Z</time></trkpt><trkpt lat="42.119575" lon="14.3097567"><ele>156.0</ele><time>2026-04-05T10:23:51.471Z</time></trkpt><trkpt lat="42.1194117" lon="14.3101133"><ele>156.0</ele><time>2026-04-05T10:23:52.471Z</time></trkpt><trkpt lat="42.119245" lon="14.3104517"><ele>156.0</ele><time>2026-04-05T10:23:53.471Z</time></trkpt><trkpt lat="42.1190833" lon="14.3107633"><ele>158.0</ele><time>2026-04-05T10:23:54.471Z</time></trkpt><trkpt lat="42.1189367" lon="14.3110567"><ele>160.0</ele><time>2026-04-05T10:23:55.471Z</time></trkpt><trkpt lat="42.1187983" lon="14.311325"><ele>160.33333333333334</ele><time>2026-04-05T10:23:56.471Z</time></trkpt><trkpt lat="42.118675" lon="14.3115667"><ele>160.66666666666666</ele><time>2026-04-05T10:23:57.472Z</time></trkpt><trkpt lat="42.1185683" lon="14.311775"><ele>161.0</ele><time>2026-04-05T10:23:58.471Z</time></trkpt><trkpt lat="42.1184817" lon="14.3119733"><ele>161.0</ele><time>2026-04-05T10:23:59.471Z</time></trkpt><trkpt lat="42.1184167" lon="14.31218"><ele>161.0</ele><time>2026-04-05T10:24:00.47Z</time></trkpt><trkpt lat="42.1183833" lon="14.3124283"><ele>161.0</ele><time>2026-04-05T10:24:01.472Z</time></trkpt><trkpt lat="42.118365" lon="14.3127183"><ele>161.0</ele><time>2026-04-05T10:24:02.473Z</time></trkpt><trkpt lat="42.1183567" lon="14.3130317"><ele>161.0</ele><time>2026-04-05T10:24:03.471Z</time></trkpt><trkpt lat="42.11834" lon="14.3133567"><ele>158.0</ele><time>2026-04-05T10:24:04.47Z</time></trkpt><trkpt lat="42.118325" lon="14.3136933"><ele>155.0</ele><time>2026-04-05T10:24:05.472Z</time></trkpt><trkpt lat="42.11831" lon="14.3140333"><ele>152.5</ele><time>2026-04-05T10:24:06.473Z</time></trkpt><trkpt lat="42.1182917" lon="14.31438"><ele>150.0</ele><time>2026-04-05T10:24:07.472Z</time></trkpt><trkpt lat="42.11827" lon="14.3147317"><ele>149.0</ele><time>2026-04-05T10:24:08.472Z</time></trkpt><trkpt lat="42.118255" lon="14.31508"><ele>148.0</ele><time>2026-04-05T10:24:09.474Z</time></trkpt><trkpt lat="42.1182417" lon="14.3154183"><ele>150.5</ele><time>2026-04-05T10:24:10.471Z</time></trkpt><trkpt lat="42.118225" lon="14.3157417"><ele>153.0</ele><time>2026-04-05T10:24:11.47Z</time></trkpt><trkpt lat="42.1182083" lon="14.3160483"><ele>153.0</ele><time>2026-04-05T10:24:12.471Z</time></trkpt><trkpt lat="42.1181917" lon="14.316345"><ele>153.0</ele><time>2026-04-05T10:24:13.47Z</time></trkpt><trkpt lat="42.1181767" lon="14.316635"><ele>153.0</ele><time>2026-04-05T10:24:14.473Z</time></trkpt><trkpt lat="42.11816" lon="14.31693"><ele>152.0</ele><time>2026-04-05T10:24:15.471Z</time></trkpt><trkpt lat="42.1181417" lon="14.3172267"><ele>151.0</ele><time>2026-04-05T10:24:16.471Z</time></trkpt><trkpt lat="42.1181233" lon="14.3175267"><ele>150.0</ele><time>2026-04-05T10:24:17.472Z</time></trkpt><trkpt lat="42.1181117" lon="14.3178283"><ele>148.0</ele><time>2026-04-05T10:24:18.472Z</time></trkpt><trkpt lat="42.1180967" lon="14.31813"><ele>146.0</ele><time>2026-04-05T10:24:19.472Z</time></trkpt><trkpt lat="42.1180783" lon="14.3184333"><ele>146.0</ele><time>2026-04-05T10:24:20.472Z</time></trkpt><trkpt lat="42.1180617" lon="14.318735"><ele>146.0</ele><time>2026-04-05T10:24:21.473Z</time></trkpt><trkpt lat="42.1180433" lon="14.319035"><ele>146.0</ele><time>2026-04-05T10:24:22.473Z</time></trkpt><trkpt lat="42.1180233" lon="14.3193367"><ele>146.0</ele><time>2026-04-05T10:24:23.47Z</time></trkpt><trkpt lat="42.1180017" lon="14.31964"><ele>146.0</ele><time>2026-04-05T10:24:24.475Z</time></trkpt><trkpt lat="42.1179817" lon="14.3199417"><ele>144.66666666666666</ele><time>2026-04-05T10:24:25.473Z</time></trkpt><trkpt lat="42.1179617" lon="14.3202417"><ele>143.33333333333334</ele><time>2026-04-05T10:24:26.474Z</time></trkpt><trkpt lat="42.1179433" lon="14.3205383"><ele>142.0</ele><time>2026-04-05T10:24:27.474Z</time></trkpt><trkpt lat="42.1179267" lon="14.3208367"><ele>140.33333333333334</ele><time>2026-04-05T10:24:28.472Z</time></trkpt><trkpt lat="42.1179067" lon="14.321135"><ele>138.66666666666666</ele><time>2026-04-05T10:24:29.471Z</time></trkpt><trkpt lat="42.1178867" lon="14.3214267"><ele>137.0</ele><time>2026-04-05T10:24:30.471Z</time></trkpt><trkpt lat="42.1178683" lon="14.3217067"><ele>136.0</ele><time>2026-04-05T10:24:31.472Z</time></trkpt><trkpt lat="42.1178483" lon="14.32198"><ele>135.0</ele><time>2026-04-05T10:24:32.477Z</time></trkpt><trkpt lat="42.11783" lon="14.3222567"><ele>134.0</ele><time>2026-04-05T10:24:33.47Z</time></trkpt><trkpt lat="42.1178133" lon="14.3225483"><ele>134.0</ele><time>2026-04-05T10:24:34.471Z</time></trkpt><trkpt lat="42.1177983" lon="14.3228533"><ele>134.0</ele><time>2026-04-05T10:24:35.47Z</time></trkpt><trkpt lat="42.1177817" lon="14.3231767"><ele>133.5</ele><time>2026-04-05T10:24:36.473Z</time></trkpt><trkpt lat="42.1177567" lon="14.32351"><ele>133.0</ele><time>2026-04-05T10:24:37.472Z</time></trkpt><trkpt lat="42.11773" lon="14.3238417"><ele>133.0</ele><time>2026-04-05T10:24:38.472Z</time></trkpt><trkpt lat="42.1177033" lon="14.3241633"><ele>133.0</ele><time>2026-04-05T10:24:39.47Z</time></trkpt><trkpt lat="42.1176767" lon="14.32447"><ele>131.5</ele><time>2026-04-05T10:24:40.472Z</time></trkpt><trkpt lat="42.1176433" lon="14.3247733"><ele>130.0</ele><time>2026-04-05T10:24:41.47Z</time></trkpt><trkpt lat="42.1176" lon="14.325075"><ele>130.0</ele><time>2026-04-05T10:24:42.47Z</time></trkpt><trkpt lat="42.1175417" lon="14.325375"><ele>130.0</ele><time>2026-04-05T10:24:43.471Z</time></trkpt><trkpt lat="42.117475" lon="14.3256717"><ele>129.5</ele><time>2026-04-05T10:24:44.472Z</time></trkpt><trkpt lat="42.1174017" lon="14.3259667"><ele>129.0</ele><time>2026-04-05T10:24:45.472Z</time></trkpt><trkpt lat="42.1173267" lon="14.3262617"><ele>129.5</ele><time>2026-04-05T10:24:46.472Z</time></trkpt><trkpt lat="42.11725" lon="14.3265567"><ele>130.0</ele><time>2026-04-05T10:24:47.47Z</time></trkpt><trkpt lat="42.1171767" lon="14.3268567"><ele>130.0</ele><time>2026-04-05T10:24:48.478Z</time></trkpt><trkpt lat="42.1171017" lon="14.32716"><ele>130.0</ele><time>2026-04-05T10:24:49.472Z</time></trkpt><trkpt lat="42.1170283" lon="14.327465"><ele>130.5</ele><time>2026-04-05T10:24:50.471Z</time></trkpt><trkpt lat="42.1169567" lon="14.3277633"><ele>131.0</ele><time>2026-04-05T10:24:51.471Z</time></trkpt><trkpt lat="42.1168867" lon="14.3280467"><ele>130.66666666666666</ele><time>2026-04-05T10:24:52.471Z</time></trkpt><trkpt lat="42.1168217" lon="14.32831"><ele>130.33333333333334</ele><time>2026-04-05T10:24:53.473Z</time></trkpt><trkpt lat="42.1167567" lon="14.328555"><ele>130.0</ele><time>2026-04-05T10:24:54.47Z</time></trkpt><trkpt lat="42.116695" lon="14.3287817"><ele>129.0</ele><time>2026-04-05T10:24:55.474Z</time></trkpt><trkpt lat="42.1166383" lon="14.3289967"><ele>128.0</ele><time>2026-04-05T10:24:56.472Z</time></trkpt><trkpt lat="42.116585" lon="14.3292"><ele>127.0</ele><time>2026-04-05T10:24:57.47Z</time></trkpt><trkpt lat="42.116535" lon="14.3294"><ele>131.33333333333334</ele><time>2026-04-05T10:24:58.47Z</time></trkpt><trkpt lat="42.1164817" lon="14.3296167"><ele>135.66666666666666</ele><time>2026-04-05T10:24:59.472Z</time></trkpt><trkpt lat="42.11642" lon="14.3298633"><ele>140.0</ele><time>2026-04-05T10:25:00.472Z</time></trkpt><trkpt lat="42.1163467" lon="14.3301367"><ele>140.0</ele><time>2026-04-05T10:25:01.472Z</time></trkpt><trkpt lat="42.1162667" lon="14.330425"><ele>140.0</ele><time>2026-04-05T10:25:02.473Z</time></trkpt><trkpt lat="42.116185" lon="14.3307233"><ele>139.0</ele><time>2026-04-05T10:25:03.474Z</time></trkpt><trkpt lat="42.116105" lon="14.3310317"><ele>138.0</ele><time>2026-04-05T10:25:04.473Z</time></trkpt><trkpt lat="42.1160217" lon="14.33135"><ele>134.5</ele><time>2026-04-05T10:25:05.471Z</time></trkpt><trkpt lat="42.115935" lon="14.331675"><ele>131.0</ele><time>2026-04-05T10:25:06.475Z</time></trkpt><trkpt lat="42.1158433" lon="14.33201"><ele>129.0</ele><time>2026-04-05T10:25:07.47Z</time></trkpt><trkpt lat="42.1157467" lon="14.3323583"><ele>127.0</ele><time>2026-04-05T10:25:08.471Z</time></trkpt><trkpt lat="42.1156467" lon="14.3327083"><ele>131.0</ele><time>2026-04-05T10:25:09.471Z</time></trkpt><trkpt lat="42.1155417" lon="14.3330667"><ele>135.0</ele><time>2026-04-05T10:25:10.472Z</time></trkpt><trkpt lat="42.1154367" lon="14.3334283"><ele>135.0</ele><time>2026-04-05T10:25:11.47Z</time></trkpt><trkpt lat="42.1153317" lon="14.333775"><ele>135.0</ele><time>2026-04-05T10:25:12.472Z</time></trkpt><trkpt lat="42.1152383" lon="14.334095"><ele>134.5</ele><time>2026-04-05T10:25:13.47Z</time></trkpt><trkpt lat="42.1151467" lon="14.3343867"><ele>134.0</ele><time>2026-04-05T10:25:14.472Z</time></trkpt><trkpt lat="42.1150533" lon="14.3346517"><ele>133.0</ele><time>2026-04-05T10:25:15.471Z</time></trkpt><trkpt lat="42.114935" lon="14.334875"><ele>132.0</ele><time>2026-04-05T10:25:16.472Z</time></trkpt><trkpt lat="42.114785" lon="14.3350533"><ele>131.0</ele><time>2026-04-05T10:25:17.471Z</time></trkpt><trkpt lat="42.1146083" lon="14.335205"><ele>131.0</ele><time>2026-04-05T10:25:18.47Z</time></trkpt><trkpt lat="42.11441" lon="14.3353517"><ele>131.0</ele><time>2026-04-05T10:25:19.474Z</time></trkpt><trkpt lat="42.1142" lon="14.3355033"><ele>130.0</ele><time>2026-04-05T10:25:20.47Z</time></trkpt><trkpt lat="42.1139867" lon="14.335655"><ele>129.0</ele><time>2026-04-05T10:25:21.475Z</time></trkpt><trkpt lat="42.1137883" lon="14.3357967"><ele>129.0</ele><time>2026-04-05T10:25:22.471Z</time></trkpt><trkpt lat="42.1136117" lon="14.3359283"><ele>129.0</ele><time>2026-04-05T10:25:23.476Z</time></trkpt><trkpt lat="42.11346" lon="14.3360367"><ele>129.0</ele><time>2026-04-05T10:25:24.471Z</time></trkpt><trkpt lat="42.1133317" lon="14.3361317"><ele>130.5</ele><time>2026-04-05T10:25:25.47Z</time></trkpt><trkpt lat="42.113235" lon="14.3362617"><ele>132.0</ele><time>2026-04-05T10:25:26.472Z</time></trkpt><trkpt lat="42.113175" lon="14.33642"><ele>133.5</ele><time>2026-04-05T10:25:27.47Z</time></trkpt><trkpt lat="42.1131567" lon="14.33659"><ele>135.0</ele><time>2026-04-05T10:25:28.471Z</time></trkpt><trkpt lat="42.1131667" lon="14.3367783"><ele>135.33333333333334</ele><time>2026-04-05T10:25:29.47Z</time></trkpt><trkpt lat="42.1132067" lon="14.336975"><ele>135.66666666666669</ele><time>2026-04-05T10:25:30.469Z</time></trkpt><trkpt lat="42.1132667" lon="14.3371767"><ele>136.0</ele><time>2026-04-05T10:25:31.471Z</time></trkpt><trkpt lat="42.113335" lon="14.33739"><ele>134.33333333333334</ele><time>2026-04-05T10:25:32.47Z</time></trkpt><trkpt lat="42.11341" lon="14.337615"><ele>132.66666666666666</ele><time>2026-04-05T10:25:33.473Z</time></trkpt><trkpt lat="42.1134833" lon="14.337845"><ele>131.0</ele><time>2026-04-05T10:25:34.47Z</time></trkpt><trkpt lat="42.1135567" lon="14.3380767"><ele>131.0</ele><time>2026-04-05T10:25:35.471Z</time></trkpt><trkpt lat="42.1136217" lon="14.338315"><ele>131.0</ele><time>2026-04-05T10:25:36.471Z</time></trkpt><trkpt lat="42.11369" lon="14.3385483"><ele>131.0</ele><time>2026-04-05T10:25:37.472Z</time></trkpt><trkpt lat="42.1137633" lon="14.338775"><ele>131.66666666666666</ele><time>2026-04-05T10:25:38.471Z</time></trkpt><trkpt lat="42.1138617" lon="14.3389783"><ele>132.33333333333334</ele><time>2026-04-05T10:25:39.47Z</time></trkpt><trkpt lat="42.1139867" lon="14.339155"><ele>133.0</ele><time>2026-04-05T10:25:40.472Z</time></trkpt><trkpt lat="42.114115" lon="14.33932"><ele>132.66666666666669</ele><time>2026-04-05T10:25:41.472Z</time></trkpt><trkpt lat="42.1142383" lon="14.339475"><ele>132.33333333333334</ele><time>2026-04-05T10:25:42.471Z</time></trkpt><trkpt lat="42.11435" lon="14.3396217"><ele>132.0</ele><time>2026-04-05T10:25:43.47Z</time></trkpt><trkpt lat="42.1144533" lon="14.339765"><ele>132.0</ele><time>2026-04-05T10:25:44.471Z</time></trkpt><trkpt lat="42.1145433" lon="14.3399033"><ele>132.0</ele><time>2026-04-05T10:25:45.469Z</time></trkpt><trkpt lat="42.1146267" lon="14.3400467"><ele>132.0</ele><time>2026-04-05T10:25:46.47Z</time></trkpt><trkpt lat="42.1146983" lon="14.3401967"><ele>132.0</ele><time>2026-04-05T10:25:47.471Z</time></trkpt><trkpt lat="42.1147517" lon="14.3403533"><ele>132.0</ele><time>2026-04-05T10:25:48.469Z</time></trkpt><trkpt lat="42.114785" lon="14.3405233"><ele>132.0</ele><time>2026-04-05T10:25:49.469Z</time></trkpt><trkpt lat="42.1147933" lon="14.34071"><ele>132.0</ele><time>2026-04-05T10:25:50.47Z</time></trkpt><trkpt lat="42.114785" lon="14.340915"><ele>132.0</ele><time>2026-04-05T10:25:51.469Z</time></trkpt><trkpt lat="42.11477" lon="14.34113"><ele>131.66666666666666</ele><time>2026-04-05T10:25:52.472Z</time></trkpt><trkpt lat="42.1147517" lon="14.341355"><ele>131.33333333333331</ele><time>2026-04-05T10:25:53.471Z</time></trkpt><trkpt lat="42.1147317" lon="14.341585"><ele>131.0</ele><time>2026-04-05T10:25:54.471Z</time></trkpt><trkpt lat="42.114705" lon="14.3418267"><ele>130.66666666666666</ele><time>2026-04-05T10:25:55.471Z</time></trkpt><trkpt lat="42.1146767" lon="14.3420633"><ele>130.33333333333334</ele><time>2026-04-05T10:25:56.475Z</time></trkpt><trkpt lat="42.1146467" lon="14.3422883"><ele>130.0</ele><time>2026-04-05T10:25:57.471Z</time></trkpt><trkpt lat="42.1146217" lon="14.3425133"><ele>130.0</ele><time>2026-04-05T10:25:58.47Z</time></trkpt><trkpt lat="42.1145983" lon="14.342735"><ele>130.0</ele><time>2026-04-05T10:25:59.47Z</time></trkpt><trkpt lat="42.1145717" lon="14.3429517"><ele>130.0</ele><time>2026-04-05T10:26:00.469Z</time></trkpt><trkpt lat="42.114545" lon="14.3431567"><ele>129.5</ele><time>2026-04-05T10:26:01.473Z</time></trkpt><trkpt lat="42.11452" lon="14.3433483"><ele>129.0</ele><time>2026-04-05T10:26:02.471Z</time></trkpt><trkpt lat="42.1145" lon="14.34353"><ele>128.5</ele><time>2026-04-05T10:26:03.469Z</time></trkpt><trkpt lat="42.114475" lon="14.3437033"><ele>128.0</ele><time>2026-04-05T10:26:04.472Z</time></trkpt><trkpt lat="42.11445" lon="14.3438767"><ele>128.0</ele><time>2026-04-05T10:26:05.47Z</time></trkpt><trkpt lat="42.1144217" lon="14.34405"><ele>128.0</ele><time>2026-04-05T10:26:06.47Z</time></trkpt><trkpt lat="42.1143933" lon="14.3442167"><ele>128.0</ele><time>2026-04-05T10:26:07.469Z</time></trkpt><trkpt lat="42.1143717" lon="14.3443767"><ele>128.0</ele><time>2026-04-05T10:26:08.471Z</time></trkpt><trkpt lat="42.1143483" lon="14.3445367"><ele>128.0</ele><time>2026-04-05T10:26:09.469Z</time></trkpt><trkpt lat="42.1143233" lon="14.344705"><ele>128.0</ele><time>2026-04-05T10:26:10.47Z</time></trkpt><trkpt lat="42.1143067" lon="14.344885"><ele>128.0</ele><time>2026-04-05T10:26:11.47Z</time></trkpt><trkpt lat="42.114285" lon="14.3450633"><ele>128.0</ele><time>2026-04-05T10:26:12.469Z</time></trkpt><trkpt lat="42.114265" lon="14.3452367"><ele>127.5</ele><time>2026-04-05T10:26:13.469Z</time></trkpt><trkpt lat="42.114245" lon="14.34541"><ele>127.0</ele><time>2026-04-05T10:26:14.472Z</time></trkpt><trkpt lat="42.114225" lon="14.3455783"><ele>126.5</ele><time>2026-04-05T10:26:15.47Z</time></trkpt><trkpt lat="42.1142067" lon="14.345745"><ele>126.0</ele><time>2026-04-05T10:26:16.473Z</time></trkpt><trkpt lat="42.1141883" lon="14.3459083"><ele>126.0</ele><time>2026-04-05T10:26:17.471Z</time></trkpt><trkpt lat="42.1141683" lon="14.3460733"><ele>126.0</ele><time>2026-04-05T10:26:18.469Z</time></trkpt><trkpt lat="42.1141483" lon="14.34625"><ele>126.0</ele><time>2026-04-05T10:26:19.47Z</time></trkpt><trkpt lat="42.11412" lon="14.3464333"><ele>126.0</ele><time>2026-04-05T10:26:20.47Z</time></trkpt><trkpt lat="42.1140917" lon="14.3466183"><ele>126.0</ele><time>2026-04-05T10:26:21.47Z</time></trkpt><trkpt lat="42.1140617" lon="14.3468033"><ele>126.0</ele><time>2026-04-05T10:26:22.471Z</time></trkpt><trkpt lat="42.1140317" lon="14.3469967"><ele>126.0</ele><time>2026-04-05T10:26:23.471Z</time></trkpt><trkpt lat="42.1139983" lon="14.347195"><ele>126.0</ele><time>2026-04-05T10:26:24.469Z</time></trkpt><trkpt lat="42.1139667" lon="14.3473883"><ele>126.0</ele><time>2026-04-05T10:26:25.473Z</time></trkpt><trkpt lat="42.113935" lon="14.3475767"><ele>126.0</ele><time>2026-04-05T10:26:26.473Z</time></trkpt><trkpt lat="42.1139083" lon="14.347765"><ele>126.0</ele><time>2026-04-05T10:26:27.469Z</time></trkpt><trkpt lat="42.1138833" lon="14.3479517"><ele>126.0</ele><time>2026-04-05T10:26:28.471Z</time></trkpt><trkpt lat="42.11386" lon="14.3481417"><ele>125.25</ele><time>2026-04-05T10:26:29.47Z</time></trkpt><trkpt lat="42.113835" lon="14.3483267"><ele>124.5</ele><time>2026-04-05T10:26:30.473Z</time></trkpt><trkpt lat="42.11381" lon="14.3485083"><ele>123.75</ele><time>2026-04-05T10:26:31.471Z</time></trkpt><trkpt lat="42.113785" lon="14.3486917"><ele>123.0</ele><time>2026-04-05T10:26:32.471Z</time></trkpt><trkpt lat="42.11376" lon="14.3488767"><ele>122.75</ele><time>2026-04-05T10:26:33.47Z</time></trkpt><trkpt lat="42.1137317" lon="14.3490567"><ele>122.5</ele><time>2026-04-05T10:26:34.47Z</time></trkpt><trkpt lat="42.1137117" lon="14.3492317"><ele>122.25</ele><time>2026-04-05T10:26:35.471Z</time></trkpt><trkpt lat="42.1137033" lon="14.3494017"><ele>122.0</ele><time>2026-04-05T10:26:36.47Z</time></trkpt><trkpt lat="42.1137067" lon="14.3495683"><ele>121.75</ele><time>2026-04-05T10:26:37.471Z</time></trkpt><trkpt lat="42.11373" lon="14.3497333"><ele>121.5</ele><time>2026-04-05T10:26:38.469Z</time></trkpt><trkpt lat="42.1137617" lon="14.3499017"><ele>121.25</ele><time>2026-04-05T10:26:39.469Z</time></trkpt><trkpt lat="42.113795" lon="14.3500667"><ele>121.0</ele><time>2026-04-05T10:26:40.47Z</time></trkpt><trkpt lat="42.1138283" lon="14.3502267"><ele>121.0</ele><time>2026-04-05T10:26:41.47Z</time></trkpt><trkpt lat="42.1138617" lon="14.35038"><ele>121.0</ele><time>2026-04-05T10:26:42.469Z</time></trkpt><trkpt lat="42.113895" lon="14.3505333"><ele>121.0</ele><time>2026-04-05T10:26:43.47Z</time></trkpt><trkpt lat="42.1139283" lon="14.3506917"><ele>121.0</ele><time>2026-04-05T10:26:44.474Z</time></trkpt><trkpt lat="42.1139583" lon="14.3508533"><ele>120.25</ele><time>2026-04-05T10:26:45.472Z</time></trkpt><trkpt lat="42.11399" lon="14.3510183"><ele>119.5</ele><time>2026-04-05T10:26:46.469Z</time></trkpt><trkpt lat="42.11402" lon="14.351185"><ele>118.75</ele><time>2026-04-05T10:26:47.472Z</time></trkpt><trkpt lat="42.1140517" lon="14.3513583"><ele>118.0</ele><time>2026-04-05T10:26:48.469Z</time></trkpt><trkpt lat="42.1140867" lon="14.3515367"><ele>117.0</ele><time>2026-04-05T10:26:49.471Z</time></trkpt><trkpt lat="42.11412" lon="14.3517117"><ele>116.0</ele><time>2026-04-05T10:26:50.469Z</time></trkpt><trkpt lat="42.114145" lon="14.3518833"><ele>115.0</ele><time>2026-04-05T10:26:51.469Z</time></trkpt><trkpt lat="42.1141633" lon="14.35205"><ele>114.0</ele><time>2026-04-05T10:26:52.47Z</time></trkpt><trkpt lat="42.114165" lon="14.3522117"><ele>113.5</ele><time>2026-04-05T10:26:53.47Z</time></trkpt><trkpt lat="42.1141683" lon="14.3523667"><ele>113.0</ele><time>2026-04-05T10:26:54.469Z</time></trkpt><trkpt lat="42.11417" lon="14.3525233"><ele>112.5</ele><time>2026-04-05T10:26:55.47Z</time></trkpt><trkpt lat="42.1141717" lon="14.3526867"><ele>112.0</ele><time>2026-04-05T10:26:56.471Z</time></trkpt><trkpt lat="42.1141717" lon="14.3528617"><ele>112.0</ele><time>2026-04-05T10:26:57.469Z</time></trkpt><trkpt lat="42.1141767" lon="14.353055"><ele>112.0</ele><time>2026-04-05T10:26:58.469Z</time></trkpt><trkpt lat="42.11418" lon="14.3532683"><ele>112.0</ele><time>2026-04-05T10:26:59.469Z</time></trkpt><trkpt lat="42.1141733" lon="14.3534867"><ele>112.0</ele><time>2026-04-05T10:27:00.468Z</time></trkpt><trkpt lat="42.114165" lon="14.3536917"><ele>112.0</ele><time>2026-04-05T10:27:01.47Z</time></trkpt><trkpt lat="42.1141583" lon="14.3538733"><ele>112.0</ele><time>2026-04-05T10:27:02.468Z</time></trkpt><trkpt lat="42.1141533" lon="14.3540333"><ele>112.0</ele><time>2026-04-05T10:27:03.47Z</time></trkpt><trkpt lat="42.1141467" lon="14.3541833"><ele>111.75</ele><time>2026-04-05T10:27:04.469Z</time></trkpt><trkpt lat="42.1141433" lon="14.35433"><ele>111.5</ele><time>2026-04-05T10:27:05.47Z</time></trkpt><trkpt lat="42.114145" lon="14.3544867"><ele>111.25</ele><time>2026-04-05T10:27:06.469Z</time></trkpt><trkpt lat="42.1141467" lon="14.3546633"><ele>111.0</ele><time>2026-04-05T10:27:07.469Z</time></trkpt><trkpt lat="42.1141517" lon="14.354865"><ele>111.0</ele><time>2026-04-05T10:27:08.473Z</time></trkpt><trkpt lat="42.1141617" lon="14.35506"><ele>111.0</ele><time>2026-04-05T10:27:09.468Z</time></trkpt><trkpt lat="42.1141567" lon="14.3552217"><ele>111.0</ele><time>2026-04-05T10:27:10.469Z</time></trkpt><trkpt lat="42.1141517" lon="14.3553633"><ele>111.0</ele><time>2026-04-05T10:27:11.469Z</time></trkpt><trkpt lat="42.11415" lon="14.3555"><ele>110.5</ele><time>2026-04-05T10:27:12.47Z</time></trkpt><trkpt lat="42.1141567" lon="14.3556567"><ele>110.0</ele><time>2026-04-05T10:27:13.469Z</time></trkpt><trkpt lat="42.114155" lon="14.3558583"><ele>109.5</ele><time>2026-04-05T10:27:14.47Z</time></trkpt><trkpt lat="42.1141617" lon="14.3560683"><ele>109.0</ele><time>2026-04-05T10:27:15.468Z</time></trkpt><trkpt lat="42.1141767" lon="14.3562617"><ele>109.0</ele><time>2026-04-05T10:27:16.47Z</time></trkpt><trkpt lat="42.1142033" lon="14.3564433"><ele>109.0</ele><time>2026-04-05T10:27:17.469Z</time></trkpt><trkpt lat="42.114235" lon="14.3566117"><ele>109.0</ele><time>2026-04-05T10:27:18.471Z</time></trkpt><trkpt lat="42.11427" lon="14.356775"><ele>109.0</ele><time>2026-04-05T10:27:19.474Z</time></trkpt><trkpt lat="42.114315" lon="14.3569317"><ele>109.0</ele><time>2026-04-05T10:27:20.475Z</time></trkpt><trkpt lat="42.11436" lon="14.35709"><ele>109.0</ele><time>2026-04-05T10:27:21.471Z</time></trkpt><trkpt lat="42.1144067" lon="14.3572333"><ele>109.0</ele><time>2026-04-05T10:27:22.474Z</time></trkpt><trkpt lat="42.1144517" lon="14.357365"><ele>109.0</ele><time>2026-04-05T10:27:23.471Z</time></trkpt><trkpt lat="42.1144967" lon="14.3574883"><ele>109.0</ele><time>2026-04-05T10:27:24.472Z</time></trkpt><trkpt lat="42.11454" lon="14.3576033"><ele>109.0</ele><time>2026-04-05T10:27:25.471Z</time></trkpt><trkpt lat="42.1145867" lon="14.3577117"><ele>109.0</ele><time>2026-04-05T10:27:26.472Z</time></trkpt><trkpt lat="42.1146333" lon="14.3578217"><ele>109.0</ele><time>2026-04-05T10:27:27.47Z</time></trkpt><trkpt lat="42.11468" lon="14.3579317"><ele>109.0</ele><time>2026-04-05T10:27:28.472Z</time></trkpt><trkpt lat="42.1147317" lon="14.358035"><ele>109.16666666666667</ele><time>2026-04-05T10:27:29.469Z</time></trkpt><trkpt lat="42.1147833" lon="14.3581317"><ele>109.33333333333334</ele><time>2026-04-05T10:27:30.468Z</time></trkpt><trkpt lat="42.1148333" lon="14.3582183"><ele>109.5</ele><time>2026-04-05T10:27:31.471Z</time></trkpt><trkpt lat="42.1148833" lon="14.3582933"><ele>109.66666666666666</ele><time>2026-04-05T10:27:32.469Z</time></trkpt><trkpt lat="42.1149317" lon="14.3583617"><ele>109.83333333333333</ele><time>2026-04-05T10:27:33.468Z</time></trkpt><trkpt lat="42.1149767" lon="14.3584217"><ele>110.0</ele><time>2026-04-05T10:27:34.469Z</time></trkpt><trkpt lat="42.1150467" lon="14.358555"><ele>109.6</ele><time>2026-04-05T10:27:36.47Z</time></trkpt><trkpt lat="42.1150517" lon="14.358725"><ele>109.2</ele><time>2026-04-05T10:27:38.469Z</time></trkpt><trkpt lat="42.11502" lon="14.3588217"><ele>108.80000000000001</ele><time>2026-04-05T10:27:39.468Z</time></trkpt><trkpt lat="42.1149667" lon="14.3589217"><ele>108.4</ele><time>2026-04-05T10:27:40.472Z</time></trkpt><trkpt lat="42.1149" lon="14.3590267"><ele>108.0</ele><time>2026-04-05T10:27:41.469Z</time></trkpt><trkpt lat="42.114825" lon="14.3591267"><ele>108.0</ele><time>2026-04-05T10:27:42.468Z</time></trkpt><trkpt lat="42.1147517" lon="14.3592367"><ele>108.00000000000001</ele><time>2026-04-05T10:27:43.471Z</time></trkpt><trkpt lat="42.114685" lon="14.3593533"><ele>108.00000000000001</ele><time>2026-04-05T10:27:44.468Z</time></trkpt><trkpt lat="42.11461" lon="14.359465"><ele>108.0</ele><time>2026-04-05T10:27:45.472Z</time></trkpt><trkpt lat="42.1145367" lon="14.35958"><ele>108.0</ele><time>2026-04-05T10:27:46.47Z</time></trkpt><trkpt lat="42.114465" lon="14.3597017"><ele>108.25</ele><time>2026-04-05T10:27:47.47Z</time></trkpt><trkpt lat="42.1143917" lon="14.3598283"><ele>108.5</ele><time>2026-04-05T10:27:48.472Z</time></trkpt><trkpt lat="42.1143117" lon="14.3599517"><ele>108.75</ele><time>2026-04-05T10:27:49.471Z</time></trkpt><trkpt lat="42.114225" lon="14.3600683"><ele>109.0</ele><time>2026-04-05T10:27:50.473Z</time></trkpt><trkpt lat="42.1141233" lon="14.3601717"><ele>109.25</ele><time>2026-04-05T10:27:51.471Z</time></trkpt><trkpt lat="42.11402" lon="14.36027"><ele>109.5</ele><time>2026-04-05T10:27:52.471Z</time></trkpt><trkpt lat="42.1139117" lon="14.3603683"><ele>109.75</ele><time>2026-04-05T10:27:53.472Z</time></trkpt><trkpt lat="42.113795" lon="14.3604633"><ele>110.0</ele><time>2026-04-05T10:27:54.471Z</time></trkpt><trkpt lat="42.113675" lon="14.3605583"><ele>110.5</ele><time>2026-04-05T10:27:55.471Z</time></trkpt><trkpt lat="42.113555" lon="14.36065"><ele>111.0</ele><time>2026-04-05T10:27:56.471Z</time></trkpt><trkpt lat="42.1134417" lon="14.3607467"><ele>111.5</ele><time>2026-04-05T10:27:57.475Z</time></trkpt><trkpt lat="42.1133267" lon="14.3608383"><ele>112.0</ele><time>2026-04-05T10:27:58.469Z</time></trkpt><trkpt lat="42.113215" lon="14.3609367"><ele>112.0</ele><time>2026-04-05T10:27:59.473Z</time></trkpt><trkpt lat="42.11309" lon="14.3610417"><ele>112.0</ele><time>2026-04-05T10:28:00.471Z</time></trkpt><trkpt lat="42.1129483" lon="14.361155"><ele>112.0</ele><time>2026-04-05T10:28:01.469Z</time></trkpt><trkpt lat="42.1128" lon="14.3612667"><ele>112.66666666666667</ele><time>2026-04-05T10:28:02.469Z</time></trkpt><trkpt lat="42.1126517" lon="14.361385"><ele>113.33333333333334</ele><time>2026-04-05T10:28:03.468Z</time></trkpt><trkpt lat="42.1125017" lon="14.3615017"><ele>114.0</ele><time>2026-04-05T10:28:04.47Z</time></trkpt><trkpt lat="42.1123333" lon="14.36163"><ele>114.0</ele><time>2026-04-05T10:28:05.47Z</time></trkpt><trkpt lat="42.1121567" lon="14.3617883"><ele>114.0</ele><time>2026-04-05T10:28:06.47Z</time></trkpt><trkpt lat="42.11197" lon="14.3619333"><ele>114.0</ele><time>2026-04-05T10:28:07.471Z</time></trkpt><trkpt lat="42.1117933" lon="14.3620567"><ele>114.0</ele><time>2026-04-05T10:28:08.471Z</time></trkpt><trkpt lat="42.11164" lon="14.3621683"><ele>114.0</ele><time>2026-04-05T10:28:09.473Z</time></trkpt><trkpt lat="42.1115017" lon="14.3622767"><ele>114.0</ele><time>2026-04-05T10:28:10.468Z</time></trkpt><trkpt lat="42.1113583" lon="14.3623583"><ele>111.75</ele><time>2026-04-05T10:28:11.469Z</time></trkpt><trkpt lat="42.1112167" lon="14.362405"><ele>109.5</ele><time>2026-04-05T10:28:12.469Z</time></trkpt><trkpt lat="42.1110717" lon="14.3624333"><ele>107.25</ele><time>2026-04-05T10:28:13.469Z</time></trkpt><trkpt lat="42.110925" lon="14.3624483"><ele>105.0</ele><time>2026-04-05T10:28:14.47Z</time></trkpt><trkpt lat="42.11078" lon="14.3624533"><ele>106.0</ele><time>2026-04-05T10:28:15.47Z</time></trkpt><trkpt lat="42.1106417" lon="14.3624533"><ele>107.0</ele><time>2026-04-05T10:28:16.468Z</time></trkpt><trkpt lat="42.1105117" lon="14.36245"><ele>108.0</ele><time>2026-04-05T10:28:17.468Z</time></trkpt><trkpt lat="42.1103883" lon="14.3624483"><ele>109.0</ele><time>2026-04-05T10:28:18.471Z</time></trkpt><trkpt lat="42.1102733" lon="14.3624383"><ele>109.0</ele><time>2026-04-05T10:28:19.472Z</time></trkpt><trkpt lat="42.1101633" lon="14.3624283"><ele>109.0</ele><time>2026-04-05T10:28:20.474Z</time></trkpt><trkpt lat="42.1100533" lon="14.3624267"><ele>109.0</ele><time>2026-04-05T10:28:21.471Z</time></trkpt><trkpt lat="42.10995" lon="14.3624317"><ele>109.0</ele><time>2026-04-05T10:28:22.469Z</time></trkpt><trkpt lat="42.1098517" lon="14.3624483"><ele>109.0</ele><time>2026-04-05T10:28:23.471Z</time></trkpt><trkpt lat="42.10976" lon="14.3624917"><ele>108.6</ele><time>2026-04-05T10:28:24.471Z</time></trkpt><trkpt lat="42.1096733" lon="14.3625617"><ele>108.2</ele><time>2026-04-05T10:28:25.471Z</time></trkpt><trkpt lat="42.1096033" lon="14.36266"><ele>107.79999999999998</ele><time>2026-04-05T10:28:26.471Z</time></trkpt><trkpt lat="42.1095467" lon="14.362775"><ele>107.39999999999999</ele><time>2026-04-05T10:28:27.471Z</time></trkpt><trkpt lat="42.10949" lon="14.3628983"><ele>107.0</ele><time>2026-04-05T10:28:28.469Z</time></trkpt><trkpt lat="42.1094333" lon="14.3630383"><ele>106.33333333333333</ele><time>2026-04-05T10:28:29.469Z</time></trkpt><trkpt lat="42.1093583" lon="14.3632133"><ele>105.66666666666666</ele><time>2026-04-05T10:28:30.469Z</time></trkpt><trkpt lat="42.1092733" lon="14.363445"><ele>105.0</ele><time>2026-04-05T10:28:31.47Z</time></trkpt><trkpt lat="42.1091617" lon="14.36373"><ele>103.0</ele><time>2026-04-05T10:28:32.47Z</time></trkpt><trkpt lat="42.1090333" lon="14.3640483"><ele>101.0</ele><time>2026-04-05T10:28:33.472Z</time></trkpt><trkpt lat="42.1089033" lon="14.3643717"><ele>101.0</ele><time>2026-04-05T10:28:34.469Z</time></trkpt><trkpt lat="42.1087767" lon="14.3646883"><ele>101.0</ele><time>2026-04-05T10:28:35.472Z</time></trkpt><trkpt lat="42.1086533" lon="14.365"><ele>101.0</ele><time>2026-04-05T10:28:36.47Z</time></trkpt><trkpt lat="42.108545" lon="14.36528"><ele>101.0</ele><time>2026-04-05T10:28:37.47Z</time></trkpt><trkpt lat="42.1084517" lon="14.3655033"><ele>101.0</ele><time>2026-04-05T10:28:38.477Z</time></trkpt><trkpt lat="42.1083717" lon="14.365695"><ele>101.25</ele><time>2026-04-05T10:28:39.471Z</time></trkpt><trkpt lat="42.1082983" lon="14.3658617"><ele>101.5</ele><time>2026-04-05T10:28:40.471Z</time></trkpt><trkpt lat="42.10823" lon="14.3660167"><ele>101.75</ele><time>2026-04-05T10:28:41.47Z</time></trkpt><trkpt lat="42.1081667" lon="14.36617"><ele>102.0</ele><time>2026-04-05T10:28:42.468Z</time></trkpt><trkpt lat="42.1080967" lon="14.3663433"><ele>102.0</ele><time>2026-04-05T10:28:43.47Z</time></trkpt><trkpt lat="42.10802" lon="14.3665583"><ele>102.0</ele><time>2026-04-05T10:28:44.469Z</time></trkpt><trkpt lat="42.10792" lon="14.3667967"><ele>102.0</ele><time>2026-04-05T10:28:45.471Z</time></trkpt><trkpt lat="42.10781" lon="14.3670417"><ele>102.66666666666666</ele><time>2026-04-05T10:28:46.47Z</time></trkpt><trkpt lat="42.1077083" lon="14.3672783"><ele>103.33333333333333</ele><time>2026-04-05T10:28:47.471Z</time></trkpt><trkpt lat="42.1076183" lon="14.36749"><ele>104.0</ele><time>2026-04-05T10:28:48.471Z</time></trkpt><trkpt lat="42.1075367" lon="14.367685"><ele>104.0</ele><time>2026-04-05T10:28:49.472Z</time></trkpt><trkpt lat="42.107455" lon="14.3678683"><ele>104.0</ele><time>2026-04-05T10:28:50.471Z</time></trkpt><trkpt lat="42.107375" lon="14.36805"><ele>104.0</ele><time>2026-04-05T10:28:51.471Z</time></trkpt><trkpt lat="42.1073" lon="14.36823"><ele>104.5</ele><time>2026-04-05T10:28:52.469Z</time></trkpt><trkpt lat="42.10723" lon="14.3683983"><ele>105.0</ele><time>2026-04-05T10:28:53.471Z</time></trkpt><trkpt lat="42.107165" lon="14.3685567"><ele>105.5</ele><time>2026-04-05T10:28:54.472Z</time></trkpt><trkpt lat="42.1071017" lon="14.3687083"><ele>106.0</ele><time>2026-04-05T10:28:55.471Z</time></trkpt><trkpt lat="42.1070383" lon="14.3688617"><ele>106.4</ele><time>2026-04-05T10:28:56.473Z</time></trkpt><trkpt lat="42.1069867" lon="14.3690017"><ele>106.8</ele><time>2026-04-05T10:28:57.472Z</time></trkpt><trkpt lat="42.1069333" lon="14.369125"><ele>107.20000000000002</ele><time>2026-04-05T10:28:58.471Z</time></trkpt><trkpt lat="42.10687" lon="14.3692367"><ele>107.60000000000001</ele><time>2026-04-05T10:28:59.469Z</time></trkpt><trkpt lat="42.1067933" lon="14.3693283"><ele>108.0</ele><time>2026-04-05T10:29:00.468Z</time></trkpt><trkpt lat="42.106705" lon="14.3693783"><ele>108.0</ele><time>2026-04-05T10:29:01.469Z</time></trkpt><trkpt lat="42.1066083" lon="14.3693717"><ele>108.00000000000001</ele><time>2026-04-05T10:29:02.471Z</time></trkpt><trkpt lat="42.106515" lon="14.3693217"><ele>108.00000000000001</ele><time>2026-04-05T10:29:03.468Z</time></trkpt><trkpt lat="42.10644" lon="14.369225"><ele>108.0</ele><time>2026-04-05T10:29:04.47Z</time></trkpt><trkpt lat="42.1063883" lon="14.36911"><ele>108.0</ele><time>2026-04-05T10:29:05.469Z</time></trkpt><trkpt lat="42.1063683" lon="14.3689867"><ele>107.60000000000001</ele><time>2026-04-05T10:29:06.471Z</time></trkpt><trkpt lat="42.1063967" lon="14.3688683"><ele>107.20000000000002</ele><time>2026-04-05T10:29:07.469Z</time></trkpt><trkpt lat="42.1064383" lon="14.3687633"><ele>106.8</ele><time>2026-04-05T10:29:08.469Z</time></trkpt><trkpt lat="42.1065017" lon="14.36868"><ele>106.4</ele><time>2026-04-05T10:29:09.468Z</time></trkpt><trkpt lat="42.106595" lon="14.3686433"><ele>106.0</ele><time>2026-04-05T10:29:10.468Z</time></trkpt><trkpt lat="42.1067033" lon="14.3686683"><ele>106.0</ele><time>2026-04-05T10:29:11.469Z</time></trkpt><trkpt lat="42.1068133" lon="14.3687333"><ele>106.0</ele><time>2026-04-05T10:29:12.468Z</time></trkpt><trkpt lat="42.10693" lon="14.368805"><ele>106.0</ele><time>2026-04-05T10:29:13.468Z</time></trkpt><trkpt lat="42.1070733" lon="14.3688833"><ele>106.0</ele><time>2026-04-05T10:29:14.472Z</time></trkpt><trkpt lat="42.1072567" lon="14.3689733"><ele>105.0</ele><time>2026-04-05T10:29:15.47Z</time></trkpt><trkpt lat="42.107465" lon="14.3690733"><ele>104.0</ele><time>2026-04-05T10:29:16.471Z</time></trkpt><trkpt lat="42.1076867" lon="14.3691733"><ele>104.0</ele><time>2026-04-05T10:29:17.47Z</time></trkpt><trkpt lat="42.1079067" lon="14.3693"><ele>104.0</ele><time>2026-04-05T10:29:18.472Z</time></trkpt><trkpt lat="42.108135" lon="14.3694367"><ele>104.0</ele><time>2026-04-05T10:29:19.472Z</time></trkpt><trkpt lat="42.1083733" lon="14.3695783"><ele>104.0</ele><time>2026-04-05T10:29:20.471Z</time></trkpt><trkpt lat="42.1086217" lon="14.3697283"><ele>104.0</ele><time>2026-04-05T10:29:21.471Z</time></trkpt><trkpt lat="42.1088767" lon="14.3698867"><ele>104.0</ele><time>2026-04-05T10:29:22.469Z</time></trkpt><trkpt lat="42.1091383" lon="14.37006"><ele>102.5</ele><time>2026-04-05T10:29:23.471Z</time></trkpt><trkpt lat="42.1094117" lon="14.3702417"><ele>101.0</ele><time>2026-04-05T10:29:24.472Z</time></trkpt><trkpt lat="42.10969" lon="14.370445"><ele>100.0</ele><time>2026-04-05T10:29:25.471Z</time></trkpt><trkpt lat="42.1099733" lon="14.3706583"><ele>99.0</ele><time>2026-04-05T10:29:26.47Z</time></trkpt><trkpt lat="42.11026" lon="14.37089"><ele>99.0</ele><time>2026-04-05T10:29:27.47Z</time></trkpt><trkpt lat="42.110555" lon="14.3711317"><ele>99.0</ele><time>2026-04-05T10:29:28.471Z</time></trkpt><trkpt lat="42.11085" lon="14.3713933"><ele>99.5</ele><time>2026-04-05T10:29:29.47Z</time></trkpt><trkpt lat="42.11115" lon="14.3716633"><ele>100.0</ele><time>2026-04-05T10:29:30.471Z</time></trkpt><trkpt lat="42.1114517" lon="14.3719483"><ele>99.5</ele><time>2026-04-05T10:29:31.472Z</time></trkpt><trkpt lat="42.1117467" lon="14.37225"><ele>99.0</ele><time>2026-04-05T10:29:32.47Z</time></trkpt><trkpt lat="42.1120333" lon="14.37257"><ele>99.0</ele><time>2026-04-05T10:29:33.471Z</time></trkpt><trkpt lat="42.1123183" lon="14.3729033"><ele>99.0</ele><time>2026-04-05T10:29:34.47Z</time></trkpt><trkpt lat="42.11261" lon="14.3732467"><ele>98.0</ele><time>2026-04-05T10:29:35.472Z</time></trkpt><trkpt lat="42.112905" lon="14.3736133"><ele>97.0</ele><time>2026-04-05T10:29:36.471Z</time></trkpt><trkpt lat="42.1131983" lon="14.3739917"><ele>96.0</ele><time>2026-04-05T10:29:37.474Z</time></trkpt><trkpt lat="42.1134817" lon="14.3743867"><ele>95.0</ele><time>2026-04-05T10:29:38.47Z</time></trkpt><trkpt lat="42.1137583" lon="14.37478"><ele>95.0</ele><time>2026-04-05T10:29:39.47Z</time></trkpt><trkpt lat="42.114015" lon="14.375185"><ele>95.0</ele><time>2026-04-05T10:29:40.471Z</time></trkpt><trkpt lat="42.1142633" lon="14.37559"><ele>94.0</ele><time>2026-04-05T10:29:41.471Z</time></trkpt><trkpt lat="42.1145033" lon="14.3760033"><ele>93.0</ele><time>2026-04-05T10:29:42.47Z</time></trkpt><trkpt lat="42.11474" lon="14.3764333"><ele>92.5</ele><time>2026-04-05T10:29:43.471Z</time></trkpt><trkpt lat="42.1149833" lon="14.376875"><ele>92.0</ele><time>2026-04-05T10:29:44.471Z</time></trkpt><trkpt lat="42.1152283" lon="14.3773317"><ele>93.0</ele><time>2026-04-05T10:29:45.471Z</time></trkpt><trkpt lat="42.115485" lon="14.3777983"><ele>94.0</ele><time>2026-04-05T10:29:46.47Z</time></trkpt><trkpt lat="42.1157417" lon="14.3782783"><ele>94.0</ele><time>2026-04-05T10:29:47.47Z</time></trkpt><trkpt lat="42.11601" lon="14.37876"><ele>94.0</ele><time>2026-04-05T10:29:48.472Z</time></trkpt><trkpt lat="42.1162767" lon="14.3792533"><ele>90.0</ele><time>2026-04-05T10:29:49.471Z</time></trkpt><trkpt lat="42.1165467" lon="14.3797533"><ele>91.0</ele><time>2026-04-05T10:29:50.47Z</time></trkpt><trkpt lat="42.1168183" lon="14.3802567"><ele>90.5</ele><time>2026-04-05T10:29:51.474Z</time></trkpt><trkpt lat="42.1170833" lon="14.3807433"><ele>90.0</ele><time>2026-04-05T10:29:52.47Z</time></trkpt><trkpt lat="42.117325" lon="14.3812017"><ele>89.5</ele><time>2026-04-05T10:29:53.472Z</time></trkpt><trkpt lat="42.117555" lon="14.3816183"><ele>89.0</ele><time>2026-04-05T10:29:54.47Z</time></trkpt><trkpt lat="42.1177667" lon="14.3820167"><ele>89.5</ele><time>2026-04-05T10:29:55.471Z</time></trkpt><trkpt lat="42.1179667" lon="14.3824017"><ele>90.0</ele><time>2026-04-05T10:29:56.471Z</time></trkpt><trkpt lat="42.1181633" lon="14.3827633"><ele>90.0</ele><time>2026-04-05T10:29:57.471Z</time></trkpt><trkpt lat="42.1183583" lon="14.3831167"><ele>90.0</ele><time>2026-04-05T10:29:58.472Z</time></trkpt><trkpt lat="42.1185567" lon="14.3834683"><ele>90.0</ele><time>2026-04-05T10:29:59.471Z</time></trkpt><trkpt lat="42.118755" lon="14.3838267"><ele>90.0</ele><time>2026-04-05T10:30:00.471Z</time></trkpt><trkpt lat="42.1189467" lon="14.3841967"><ele>89.5</ele><time>2026-04-05T10:30:01.472Z</time></trkpt><trkpt lat="42.11914" lon="14.38457"><ele>89.0</ele><time>2026-04-05T10:30:02.47Z</time></trkpt><trkpt lat="42.1193367" lon="14.38494"><ele>89.0</ele><time>2026-04-05T10:30:03.472Z</time></trkpt><trkpt lat="42.1195333" lon="14.3853033"><ele>89.0</ele><time>2026-04-05T10:30:04.471Z</time></trkpt><trkpt lat="42.1197283" lon="14.3856617"><ele>89.0</ele><time>2026-04-05T10:30:05.473Z</time></trkpt><trkpt lat="42.1199217" lon="14.3860133"><ele>89.0</ele><time>2026-04-05T10:30:06.471Z</time></trkpt><trkpt lat="42.1201117" lon="14.3863567"><ele>90.0</ele><time>2026-04-05T10:30:07.47Z</time></trkpt><trkpt lat="42.120295" lon="14.3866917"><ele>91.0</ele><time>2026-04-05T10:30:08.471Z</time></trkpt><trkpt lat="42.120475" lon="14.3870233"><ele>91.0</ele><time>2026-04-05T10:30:09.471Z</time></trkpt><trkpt lat="42.12065" lon="14.3873517"><ele>91.0</ele><time>2026-04-05T10:30:10.472Z</time></trkpt><trkpt lat="42.12082" lon="14.387675"><ele>90.5</ele><time>2026-04-05T10:30:11.472Z</time></trkpt><trkpt lat="42.1209917" lon="14.3879933"><ele>90.0</ele><time>2026-04-05T10:30:12.471Z</time></trkpt><trkpt lat="42.1211583" lon="14.388305"><ele>91.0</ele><time>2026-04-05T10:30:13.47Z</time></trkpt><trkpt lat="42.12132" lon="14.3886033"><ele>92.0</ele><time>2026-04-05T10:30:14.472Z</time></trkpt><trkpt lat="42.1214717" lon="14.3888867"><ele>93.5</ele><time>2026-04-05T10:30:15.47Z</time></trkpt><trkpt lat="42.121615" lon="14.3891567"><ele>95.0</ele><time>2026-04-05T10:30:16.471Z</time></trkpt><trkpt lat="42.1217517" lon="14.38941"><ele>95.0</ele><time>2026-04-05T10:30:17.47Z</time></trkpt><trkpt lat="42.1218883" lon="14.3896517"><ele>95.0</ele><time>2026-04-05T10:30:18.472Z</time></trkpt><trkpt lat="42.12203" lon="14.389895"><ele>94.5</ele><time>2026-04-05T10:30:19.47Z</time></trkpt><trkpt lat="42.1221733" lon="14.3901617"><ele>94.0</ele><time>2026-04-05T10:30:20.472Z</time></trkpt><trkpt lat="42.1223367" lon="14.3904433"><ele>94.0</ele><time>2026-04-05T10:30:21.475Z</time></trkpt><trkpt lat="42.12251" lon="14.3907533"><ele>94.0</ele><time>2026-04-05T10:30:22.471Z</time></trkpt><trkpt lat="42.1226917" lon="14.391085"><ele>93.0</ele><time>2026-04-05T10:30:23.472Z</time></trkpt><trkpt lat="42.1228783" lon="14.3914283"><ele>92.0</ele><time>2026-04-05T10:30:24.47Z</time></trkpt><trkpt lat="42.1230567" lon="14.3917617"><ele>92.0</ele><time>2026-04-05T10:30:25.471Z</time></trkpt><trkpt lat="42.12322" lon="14.3920783"><ele>92.0</ele><time>2026-04-05T10:30:26.471Z</time></trkpt><trkpt lat="42.12338" lon="14.3923733"><ele>90.5</ele><time>2026-04-05T10:30:27.47Z</time></trkpt><trkpt lat="42.1235267" lon="14.3926467"><ele>89.0</ele><time>2026-04-05T10:30:28.477Z</time></trkpt><trkpt lat="42.1236667" lon="14.3929133"><ele>88.0</ele><time>2026-04-05T10:30:29.471Z</time></trkpt><trkpt lat="42.1238117" lon="14.3931783"><ele>87.0</ele><time>2026-04-05T10:30:30.471Z</time></trkpt><trkpt lat="42.12396" lon="14.3934567"><ele>86.5</ele><time>2026-04-05T10:30:31.47Z</time></trkpt><trkpt lat="42.1241217" lon="14.3937467"><ele>86.0</ele><time>2026-04-05T10:30:32.473Z</time></trkpt><trkpt lat="42.1243033" lon="14.394055"><ele>86.0</ele><time>2026-04-05T10:30:33.471Z</time></trkpt><trkpt lat="42.124495" lon="14.3943883"><ele>86.0</ele><time>2026-04-05T10:30:34.47Z</time></trkpt><trkpt lat="42.1246917" lon="14.3947467"><ele>86.0</ele><time>2026-04-05T10:30:35.471Z</time></trkpt><trkpt lat="42.1248817" lon="14.3951433"><ele>86.0</ele><time>2026-04-05T10:30:36.472Z</time></trkpt><trkpt lat="42.12509" lon="14.3955517"><ele>85.0</ele><time>2026-04-05T10:30:37.472Z</time></trkpt><trkpt lat="42.1253183" lon="14.395965"><ele>84.0</ele><time>2026-04-05T10:30:38.472Z</time></trkpt><trkpt lat="42.1255533" lon="14.3963917"><ele>83.5</ele><time>2026-04-05T10:30:39.473Z</time></trkpt><trkpt lat="42.1257883" lon="14.396825"><ele>83.0</ele><time>2026-04-05T10:30:40.471Z</time></trkpt><trkpt lat="42.12602" lon="14.3972583"><ele>83.0</ele><time>2026-04-05T10:30:41.471Z</time></trkpt><trkpt lat="42.1262533" lon="14.3976817"><ele>83.0</ele><time>2026-04-05T10:30:42.471Z</time></trkpt><trkpt lat="42.1264817" lon="14.3981033"><ele>82.5</ele><time>2026-04-05T10:30:43.473Z</time></trkpt><trkpt lat="42.1267067" lon="14.3985233"><ele>82.0</ele><time>2026-04-05T10:30:44.472Z</time></trkpt><trkpt lat="42.1269267" lon="14.3989383"><ele>82.0</ele><time>2026-04-05T10:30:45.47Z</time></trkpt><trkpt lat="42.1271467" lon="14.3993467"><ele>82.0</ele><time>2026-04-05T10:30:46.471Z</time></trkpt><trkpt lat="42.1273617" lon="14.39975"><ele>81.5</ele><time>2026-04-05T10:30:47.472Z</time></trkpt><trkpt lat="42.1275767" lon="14.4001483"><ele>81.0</ele><time>2026-04-05T10:30:48.474Z</time></trkpt><trkpt lat="42.12779" lon="14.400545"><ele>80.0</ele><time>2026-04-05T10:30:49.47Z</time></trkpt><trkpt lat="42.1280017" lon="14.4009367"><ele>79.0</ele><time>2026-04-05T10:30:50.47Z</time></trkpt><trkpt lat="42.1282133" lon="14.401325"><ele>78.5</ele><time>2026-04-05T10:30:51.472Z</time></trkpt><trkpt lat="42.1284317" lon="14.4017083"><ele>78.0</ele><time>2026-04-05T10:30:52.472Z</time></trkpt><trkpt lat="42.1286567" lon="14.4020867"><ele>78.0</ele><time>2026-04-05T10:30:53.471Z</time></trkpt><trkpt lat="42.1288783" lon="14.4024833"><ele>78.0</ele><time>2026-04-05T10:30:54.471Z</time></trkpt><trkpt lat="42.1291067" lon="14.4028917"><ele>78.0</ele><time>2026-04-05T10:30:55.471Z</time></trkpt><trkpt lat="42.1293367" lon="14.4033083"><ele>78.0</ele><time>2026-04-05T10:30:56.473Z</time></trkpt><trkpt lat="42.1295717" lon="14.4037333"><ele>78.0</ele><time>2026-04-05T10:30:57.47Z</time></trkpt><trkpt lat="42.1298033" lon="14.404165"><ele>78.0</ele><time>2026-04-05T10:30:58.47Z</time></trkpt><trkpt lat="42.1300317" lon="14.4046"><ele>76.5</ele><time>2026-04-05T10:30:59.47Z</time></trkpt><trkpt lat="42.13027" lon="14.40503"><ele>75.0</ele><time>2026-04-05T10:31:00.475Z</time></trkpt><trkpt lat="42.1305033" lon="14.4054683"><ele>75.0</ele><time>2026-04-05T10:31:01.472Z</time></trkpt><trkpt lat="42.130735" lon="14.40591"><ele>75.0</ele><time>2026-04-05T10:31:02.471Z</time></trkpt><trkpt lat="42.1309633" lon="14.40635"><ele>75.0</ele><time>2026-04-05T10:31:03.473Z</time></trkpt><trkpt lat="42.1311933" lon="14.406785"><ele>75.0</ele><time>2026-04-05T10:31:04.471Z</time></trkpt><trkpt lat="42.1314217" lon="14.40721"><ele>75.0</ele><time>2026-04-05T10:31:05.473Z</time></trkpt><trkpt lat="42.1316433" lon="14.4076317"><ele>75.0</ele><time>2026-04-05T10:31:06.472Z</time></trkpt><trkpt lat="42.1318617" lon="14.40804"><ele>76.5</ele><time>2026-04-05T10:31:07.471Z</time></trkpt><trkpt lat="42.132075" lon="14.4084267"><ele>78.0</ele><time>2026-04-05T10:31:08.471Z</time></trkpt><trkpt lat="42.1322733" lon="14.4087883"><ele>79.0</ele><time>2026-04-05T10:31:09.47Z</time></trkpt><trkpt lat="42.1324617" lon="14.4091283"><ele>80.0</ele><time>2026-04-05T10:31:10.471Z</time></trkpt><trkpt lat="42.1326383" lon="14.4094417"><ele>78.5</ele><time>2026-04-05T10:31:11.47Z</time></trkpt><trkpt lat="42.1328017" lon="14.4097367"><ele>77.0</ele><time>2026-04-05T10:31:12.47Z</time></trkpt><trkpt lat="42.1329717" lon="14.4100267"><ele>77.0</ele><time>2026-04-05T10:31:13.471Z</time></trkpt><trkpt lat="42.1331333" lon="14.4103433"><ele>77.0</ele><time>2026-04-05T10:31:14.471Z</time></trkpt><trkpt lat="42.1332983" lon="14.4106767"><ele>75.5</ele><time>2026-04-05T10:31:15.47Z</time></trkpt><trkpt lat="42.133475" lon="14.4110117"><ele>74.0</ele><time>2026-04-05T10:31:16.471Z</time></trkpt><trkpt lat="42.1336617" lon="14.4113483"><ele>74.0</ele><time>2026-04-05T10:31:17.471Z</time></trkpt><trkpt lat="42.1338483" lon="14.4116917"><ele>74.0</ele><time>2026-04-05T10:31:18.472Z</time></trkpt><trkpt lat="42.13404" lon="14.4120283"><ele>73.0</ele><time>2026-04-05T10:31:19.471Z</time></trkpt><trkpt lat="42.1342233" lon="14.4123667"><ele>72.0</ele><time>2026-04-05T10:31:20.471Z</time></trkpt><trkpt lat="42.1344117" lon="14.4127033"><ele>73.0</ele><time>2026-04-05T10:31:21.473Z</time></trkpt><trkpt lat="42.134595" lon="14.4130417"><ele>74.0</ele><time>2026-04-05T10:31:22.47Z</time></trkpt><trkpt lat="42.134775" lon="14.4133783"><ele>73.0</ele><time>2026-04-05T10:31:23.474Z</time></trkpt><trkpt lat="42.1349533" lon="14.4137"><ele>72.0</ele><time>2026-04-05T10:31:24.472Z</time></trkpt><trkpt lat="42.135115" lon="14.4139983"><ele>72.0</ele><time>2026-04-05T10:31:25.471Z</time></trkpt><trkpt lat="42.1352583" lon="14.4142683"><ele>72.0</ele><time>2026-04-05T10:31:26.474Z</time></trkpt><trkpt lat="42.1353883" lon="14.41452"><ele>71.66666666666667</ele><time>2026-04-05T10:31:27.472Z</time></trkpt><trkpt lat="42.1355167" lon="14.4147483"><ele>71.33333333333334</ele><time>2026-04-05T10:31:28.471Z</time></trkpt><trkpt lat="42.1356367" lon="14.414975"><ele>71.0</ele><time>2026-04-05T10:31:29.472Z</time></trkpt><trkpt lat="42.13576" lon="14.4152117"><ele>70.5</ele><time>2026-04-05T10:31:30.47Z</time></trkpt><trkpt lat="42.1359" lon="14.4154667"><ele>70.0</ele><time>2026-04-05T10:31:31.47Z</time></trkpt><trkpt lat="42.136045" lon="14.4157467"><ele>69.5</ele><time>2026-04-05T10:31:32.472Z</time></trkpt><trkpt lat="42.1362" lon="14.4160383"><ele>69.0</ele><time>2026-04-05T10:31:33.471Z</time></trkpt><trkpt lat="42.1363633" lon="14.4163433"><ele>68.5</ele><time>2026-04-05T10:31:34.471Z</time></trkpt><trkpt lat="42.13653" lon="14.4166517"><ele>68.0</ele><time>2026-04-05T10:31:35.471Z</time></trkpt><trkpt lat="42.1367017" lon="14.4169617"><ele>67.5</ele><time>2026-04-05T10:31:36.471Z</time></trkpt><trkpt lat="42.136875" lon="14.41727"><ele>67.0</ele><time>2026-04-05T10:31:37.473Z</time></trkpt><trkpt lat="42.1370467" lon="14.4175767"><ele>67.0</ele><time>2026-04-05T10:31:38.47Z</time></trkpt><trkpt lat="42.1372167" lon="14.417885"><ele>67.0</ele><time>2026-04-05T10:31:39.472Z</time></trkpt><trkpt lat="42.13738" lon="14.4181917"><ele>67.5</ele><time>2026-04-05T10:31:40.472Z</time></trkpt><trkpt lat="42.137545" lon="14.4184867"><ele>68.0</ele><time>2026-04-05T10:31:41.471Z</time></trkpt><trkpt lat="42.1376967" lon="14.4187717"><ele>68.0</ele><time>2026-04-05T10:31:42.471Z</time></trkpt><trkpt lat="42.1378417" lon="14.4190417"><ele>68.0</ele><time>2026-04-05T10:31:43.472Z</time></trkpt><trkpt lat="42.1379817" lon="14.4193"><ele>68.0</ele><time>2026-04-05T10:31:44.473Z</time></trkpt><trkpt lat="42.1381183" lon="14.419555"><ele>68.0</ele><time>2026-04-05T10:31:45.471Z</time></trkpt><trkpt lat="42.138255" lon="14.4198067"><ele>68.5</ele><time>2026-04-05T10:31:46.47Z</time></trkpt><trkpt lat="42.138395" lon="14.4200583"><ele>69.0</ele><time>2026-04-05T10:31:47.471Z</time></trkpt><trkpt lat="42.1385517" lon="14.420315"><ele>67.5</ele><time>2026-04-05T10:31:48.471Z</time></trkpt><trkpt lat="42.138715" lon="14.4205867"><ele>66.0</ele><time>2026-04-05T10:31:49.471Z</time></trkpt><trkpt lat="42.13888" lon="14.4208783"><ele>66.0</ele><time>2026-04-05T10:31:50.472Z</time></trkpt><trkpt lat="42.1390533" lon="14.4211717"><ele>66.0</ele><time>2026-04-05T10:31:51.471Z</time></trkpt><trkpt lat="42.1392283" lon="14.4214683"><ele>65.5</ele><time>2026-04-05T10:31:52.471Z</time></trkpt><trkpt lat="42.13941" lon="14.421765"><ele>65.0</ele><time>2026-04-05T10:31:53.472Z</time></trkpt><trkpt lat="42.1396" lon="14.42206"><ele>65.0</ele><time>2026-04-05T10:31:54.472Z</time></trkpt><trkpt lat="42.139795" lon="14.4223517"><ele>65.0</ele><time>2026-04-05T10:31:55.47Z</time></trkpt><trkpt lat="42.1399933" lon="14.4226433"><ele>65.5</ele><time>2026-04-05T10:31:56.47Z</time></trkpt><trkpt lat="42.1402" lon="14.4229317"><ele>66.0</ele><time>2026-04-05T10:31:57.471Z</time></trkpt><trkpt lat="42.1404017" lon="14.4232233"><ele>66.5</ele><time>2026-04-05T10:31:58.471Z</time></trkpt><trkpt lat="42.14061" lon="14.4235083"><ele>67.0</ele><time>2026-04-05T10:31:59.47Z</time></trkpt><trkpt lat="42.1408183" lon="14.42379"><ele>68.0</ele><time>2026-04-05T10:32:00.471Z</time></trkpt><trkpt lat="42.1410283" lon="14.424065"><ele>69.0</ele><time>2026-04-05T10:32:01.471Z</time></trkpt><trkpt lat="42.1412383" lon="14.4243383"><ele>69.0</ele><time>2026-04-05T10:32:02.474Z</time></trkpt><trkpt lat="42.1414517" lon="14.4246033"><ele>69.0</ele><time>2026-04-05T10:32:03.472Z</time></trkpt><trkpt lat="42.141665" lon="14.4248633"><ele>68.0</ele><time>2026-04-05T10:32:04.471Z</time></trkpt><trkpt lat="42.1418817" lon="14.42512"><ele>67.0</ele><time>2026-04-05T10:32:05.472Z</time></trkpt><trkpt lat="42.1421017" lon="14.425375"><ele>67.0</ele><time>2026-04-05T10:32:06.473Z</time></trkpt><trkpt lat="42.142325" lon="14.4256233"><ele>67.0</ele><time>2026-04-05T10:32:07.471Z</time></trkpt><trkpt lat="42.1425517" lon="14.42587"><ele>67.0</ele><time>2026-04-05T10:32:08.473Z</time></trkpt><trkpt lat="42.14278" lon="14.4261183"><ele>67.0</ele><time>2026-04-05T10:32:09.471Z</time></trkpt><trkpt lat="42.1430183" lon="14.4263583"><ele>66.5</ele><time>2026-04-05T10:32:10.47Z</time></trkpt><trkpt lat="42.1432567" lon="14.4265967"><ele>66.0</ele><time>2026-04-05T10:32:11.471Z</time></trkpt><trkpt lat="42.1434967" lon="14.4268333"><ele>66.0</ele><time>2026-04-05T10:32:12.472Z</time></trkpt><trkpt lat="42.14374" lon="14.4270667"><ele>66.0</ele><time>2026-04-05T10:32:13.47Z</time></trkpt><trkpt lat="42.1439883" lon="14.4272983"><ele>64.0</ele><time>2026-04-05T10:32:14.474Z</time></trkpt><trkpt lat="42.1442417" lon="14.4275283"><ele>62.0</ele><time>2026-04-05T10:32:15.473Z</time></trkpt><trkpt lat="42.14449" lon="14.4277683"><ele>62.0</ele><time>2026-04-05T10:32:16.47Z</time></trkpt><trkpt lat="42.14474" lon="14.4280067"><ele>62.0</ele><time>2026-04-05T10:32:17.471Z</time></trkpt><trkpt lat="42.144995" lon="14.4282467"><ele>61.5</ele><time>2026-04-05T10:32:18.471Z</time></trkpt><trkpt lat="42.1452467" lon="14.4284933"><ele>61.0</ele><time>2026-04-05T10:32:19.47Z</time></trkpt><trkpt lat="42.1455033" lon="14.4287317"><ele>60.5</ele><time>2026-04-05T10:32:20.474Z</time></trkpt><trkpt lat="42.1457567" lon="14.4289767"><ele>60.0</ele><time>2026-04-05T10:32:21.473Z</time></trkpt><trkpt lat="42.146015" lon="14.4292167"><ele>60.0</ele><time>2026-04-05T10:32:22.471Z</time></trkpt><trkpt lat="42.1462733" lon="14.429455"><ele>60.0</ele><time>2026-04-05T10:32:23.472Z</time></trkpt><trkpt lat="42.1465267" lon="14.429695"><ele>59.0</ele><time>2026-04-05T10:32:24.472Z</time></trkpt><trkpt lat="42.1467817" lon="14.4299333"><ele>58.0</ele><time>2026-04-05T10:32:25.471Z</time></trkpt><trkpt lat="42.147035" lon="14.4301733"><ele>58.0</ele><time>2026-04-05T10:32:26.471Z</time></trkpt><trkpt lat="42.1472867" lon="14.430415"><ele>58.0</ele><time>2026-04-05T10:32:27.471Z</time></trkpt><trkpt lat="42.14754" lon="14.4306583"><ele>58.5</ele><time>2026-04-05T10:32:28.472Z</time></trkpt><trkpt lat="42.1478" lon="14.4309"><ele>59.0</ele><time>2026-04-05T10:32:29.471Z</time></trkpt><trkpt lat="42.14806" lon="14.4311467"><ele>58.0</ele><time>2026-04-05T10:32:30.471Z</time></trkpt><trkpt lat="42.1483233" lon="14.4313867"><ele>57.0</ele><time>2026-04-05T10:32:31.474Z</time></trkpt><trkpt lat="42.1485767" lon="14.431635"><ele>57.0</ele><time>2026-04-05T10:32:32.472Z</time></trkpt><trkpt lat="42.1488267" lon="14.4318717"><ele>57.0</ele><time>2026-04-05T10:32:33.472Z</time></trkpt><trkpt lat="42.1490733" lon="14.432105"><ele>56.5</ele><time>2026-04-05T10:32:34.47Z</time></trkpt><trkpt lat="42.14932" lon="14.432335"><ele>56.0</ele><time>2026-04-05T10:32:35.47Z</time></trkpt><trkpt lat="42.1495633" lon="14.4325683"><ele>56.0</ele><time>2026-04-05T10:32:36.471Z</time></trkpt><trkpt lat="42.1498083" lon="14.4328033"><ele>56.0</ele><time>2026-04-05T10:32:37.472Z</time></trkpt><trkpt lat="42.150055" lon="14.4330417"><ele>55.5</ele><time>2026-04-05T10:32:38.472Z</time></trkpt><trkpt lat="42.150305" lon="14.43328"><ele>55.0</ele><time>2026-04-05T10:32:39.471Z</time></trkpt><trkpt lat="42.1505583" lon="14.4335183"><ele>55.0</ele><time>2026-04-05T10:32:40.471Z</time></trkpt><trkpt lat="42.15081" lon="14.4337583"><ele>55.0</ele><time>2026-04-05T10:32:41.476Z</time></trkpt><trkpt lat="42.1510583" lon="14.4340033"><ele>55.0</ele><time>2026-04-05T10:32:42.47Z</time></trkpt><trkpt lat="42.1513083" lon="14.4342417"><ele>55.0</ele><time>2026-04-05T10:32:43.473Z</time></trkpt><trkpt lat="42.1515567" lon="14.4344833"><ele>55.5</ele><time>2026-04-05T10:32:44.471Z</time></trkpt><trkpt lat="42.1518067" lon="14.43472"><ele>56.0</ele><time>2026-04-05T10:32:45.472Z</time></trkpt><trkpt lat="42.15206" lon="14.434955"><ele>56.0</ele><time>2026-04-05T10:32:46.474Z</time></trkpt><trkpt lat="42.15232" lon="14.43519"><ele>56.0</ele><time>2026-04-05T10:32:47.47Z</time></trkpt><trkpt lat="42.1525817" lon="14.4354333"><ele>55.5</ele><time>2026-04-05T10:32:48.471Z</time></trkpt><trkpt lat="42.1528417" lon="14.435685"><ele>55.0</ele><time>2026-04-05T10:32:49.471Z</time></trkpt><trkpt lat="42.1531017" lon="14.435935"><ele>54.5</ele><time>2026-04-05T10:32:50.471Z</time></trkpt><trkpt lat="42.1533633" lon="14.43618"><ele>54.0</ele><time>2026-04-05T10:32:51.473Z</time></trkpt><trkpt lat="42.1536217" lon="14.4364233"><ele>55.0</ele><time>2026-04-05T10:32:52.47Z</time></trkpt><trkpt lat="42.153875" lon="14.436655"><ele>56.0</ele><time>2026-04-05T10:32:53.474Z</time></trkpt><trkpt lat="42.154115" lon="14.4368867"><ele>56.0</ele><time>2026-04-05T10:32:54.471Z</time></trkpt><trkpt lat="42.15436" lon="14.4371033"><ele>56.0</ele><time>2026-04-05T10:32:55.471Z</time></trkpt><trkpt lat="42.154605" lon="14.43732"><ele>56.0</ele><time>2026-04-05T10:32:56.472Z</time></trkpt><trkpt lat="42.15485" lon="14.4375383"><ele>56.0</ele><time>2026-04-05T10:32:57.471Z</time></trkpt><trkpt lat="42.15509" lon="14.4377733"><ele>54.0</ele><time>2026-04-05T10:32:58.47Z</time></trkpt><trkpt lat="42.1553367" lon="14.438005"><ele>52.0</ele><time>2026-04-05T10:32:59.473Z</time></trkpt><trkpt lat="42.15558" lon="14.43825"><ele>52.5</ele><time>2026-04-05T10:33:00.476Z</time></trkpt><trkpt lat="42.1558267" lon="14.4385"><ele>53.0</ele><time>2026-04-05T10:33:01.471Z</time></trkpt><trkpt lat="42.1560817" lon="14.438745"><ele>52.5</ele><time>2026-04-05T10:33:02.47Z</time></trkpt><trkpt lat="42.1563417" lon="14.4389917"><ele>52.0</ele><time>2026-04-05T10:33:03.471Z</time></trkpt><trkpt lat="42.1565967" lon="14.4392333"><ele>52.0</ele><time>2026-04-05T10:33:04.47Z</time></trkpt><trkpt lat="42.1568383" lon="14.4394567"><ele>52.0</ele><time>2026-04-05T10:33:05.47Z</time></trkpt><trkpt lat="42.15707" lon="14.439675"><ele>52.0</ele><time>2026-04-05T10:33:06.474Z</time></trkpt><trkpt lat="42.1573067" lon="14.4398833"><ele>52.0</ele><time>2026-04-05T10:33:07.471Z</time></trkpt><trkpt lat="42.1575467" lon="14.4401017"><ele>52.5</ele><time>2026-04-05T10:33:08.472Z</time></trkpt><trkpt lat="42.157785" lon="14.44033"><ele>53.0</ele><time>2026-04-05T10:33:09.47Z</time></trkpt><trkpt lat="42.1580317" lon="14.4405583"><ele>52.5</ele><time>2026-04-05T10:33:10.473Z</time></trkpt><trkpt lat="42.1582767" lon="14.4407983"><ele>52.0</ele><time>2026-04-05T10:33:11.471Z</time></trkpt><trkpt lat="42.1585267" lon="14.44104"><ele>52.0</ele><time>2026-04-05T10:33:12.471Z</time></trkpt><trkpt lat="42.1587817" lon="14.441295"><ele>52.0</ele><time>2026-04-05T10:33:13.473Z</time></trkpt><trkpt lat="42.1590433" lon="14.4415633"><ele>51.0</ele><time>2026-04-05T10:33:14.471Z</time></trkpt><trkpt lat="42.159315" lon="14.4418333"><ele>50.0</ele><time>2026-04-05T10:33:15.47Z</time></trkpt><trkpt lat="42.1595867" lon="14.4420917"><ele>50.0</ele><time>2026-04-05T10:33:16.47Z</time></trkpt><trkpt lat="42.1598417" lon="14.4423383"><ele>50.0</ele><time>2026-04-05T10:33:17.471Z</time></trkpt><trkpt lat="42.16008" lon="14.44257"><ele>50.0</ele><time>2026-04-05T10:33:18.473Z</time></trkpt><trkpt lat="42.1603017" lon="14.44278"><ele>50.0</ele><time>2026-04-05T10:33:19.473Z</time></trkpt><trkpt lat="42.1605033" lon="14.442965"><ele>51.0</ele><time>2026-04-05T10:33:20.472Z</time></trkpt><trkpt lat="42.1606767" lon="14.4431267"><ele>52.0</ele><time>2026-04-05T10:33:21.471Z</time></trkpt><trkpt lat="42.1608233" lon="14.4432733"><ele>53.0</ele><time>2026-04-05T10:33:22.471Z</time></trkpt><trkpt lat="42.16096" lon="14.443405"><ele>53.66666666666667</ele><time>2026-04-05T10:33:23.469Z</time></trkpt><trkpt lat="42.1611067" lon="14.4435283"><ele>54.33333333333333</ele><time>2026-04-05T10:33:24.47Z</time></trkpt><trkpt lat="42.1612817" lon="14.443665"><ele>55.0</ele><time>2026-04-05T10:33:25.474Z</time></trkpt><trkpt lat="42.1614817" lon="14.4438383"><ele>52.5</ele><time>2026-04-05T10:33:26.473Z</time></trkpt><trkpt lat="42.1616967" lon="14.4440583"><ele>50.0</ele><time>2026-04-05T10:33:27.471Z</time></trkpt><trkpt lat="42.1619383" lon="14.444305"><ele>50.0</ele><time>2026-04-05T10:33:28.471Z</time></trkpt><trkpt lat="42.1621983" lon="14.44457"><ele>50.0</ele><time>2026-04-05T10:33:29.472Z</time></trkpt><trkpt lat="42.1624883" lon="14.444835"><ele>50.5</ele><time>2026-04-05T10:33:30.471Z</time></trkpt><trkpt lat="42.1627917" lon="14.445125"><ele>51.0</ele><time>2026-04-05T10:33:31.471Z</time></trkpt><trkpt lat="42.16311" lon="14.4454233"><ele>50.0</ele><time>2026-04-05T10:33:32.472Z</time></trkpt><trkpt lat="42.1634383" lon="14.4457333"><ele>49.0</ele><time>2026-04-05T10:33:33.472Z</time></trkpt><trkpt lat="42.1637733" lon="14.446055"><ele>49.0</ele><time>2026-04-05T10:33:34.48Z</time></trkpt><trkpt lat="42.1641167" lon="14.4463867"><ele>49.0</ele><time>2026-04-05T10:33:35.472Z</time></trkpt><trkpt lat="42.1644683" lon="14.4467167"><ele>49.0</ele><time>2026-04-05T10:33:36.472Z</time></trkpt><trkpt lat="42.1648267" lon="14.44705"><ele>49.0</ele><time>2026-04-05T10:33:37.473Z</time></trkpt><trkpt lat="42.1651867" lon="14.4473967"><ele>49.0</ele><time>2026-04-05T10:33:38.472Z</time></trkpt><trkpt lat="42.1655483" lon="14.447745"><ele>49.0</ele><time>2026-04-05T10:33:39.473Z</time></trkpt><trkpt lat="42.1659167" lon="14.4480883"><ele>49.0</ele><time>2026-04-05T10:33:40.47Z</time></trkpt><trkpt lat="42.16628" lon="14.4484383"><ele>49.0</ele><time>2026-04-05T10:33:41.473Z</time></trkpt><trkpt lat="42.1666433" lon="14.448785"><ele>49.0</ele><time>2026-04-05T10:33:42.471Z</time></trkpt><trkpt lat="42.1670067" lon="14.449125"><ele>49.0</ele><time>2026-04-05T10:33:43.473Z</time></trkpt><trkpt lat="42.1673683" lon="14.44946"><ele>48.5</ele><time>2026-04-05T10:33:44.472Z</time></trkpt><trkpt lat="42.1677233" lon="14.4498033"><ele>48.0</ele><time>2026-04-05T10:33:45.471Z</time></trkpt><trkpt lat="42.1680767" lon="14.4501433"><ele>48.0</ele><time>2026-04-05T10:33:46.472Z</time></trkpt><trkpt lat="42.1684333" lon="14.4504783"><ele>48.0</ele><time>2026-04-05T10:33:47.472Z</time></trkpt><trkpt lat="42.1687833" lon="14.4508217"><ele>50.0</ele><time>2026-04-05T10:33:48.473Z</time></trkpt><trkpt lat="42.1691317" lon="14.4511533"><ele>52.0</ele><time>2026-04-05T10:33:49.472Z</time></trkpt><trkpt lat="42.1694683" lon="14.4514667"><ele>52.0</ele><time>2026-04-05T10:33:50.472Z</time></trkpt><trkpt lat="42.1697833" lon="14.4517633"><ele>52.0</ele><time>2026-04-05T10:33:51.471Z</time></trkpt><trkpt lat="42.1700817" lon="14.45204"><ele>51.5</ele><time>2026-04-05T10:33:52.472Z</time></trkpt><trkpt lat="42.170365" lon="14.4523033"><ele>51.0</ele><time>2026-04-05T10:33:53.472Z</time></trkpt><trkpt lat="42.1706517" lon="14.4525633"><ele>53.0</ele><time>2026-04-05T10:33:54.473Z</time></trkpt><trkpt lat="42.170945" lon="14.452835"><ele>55.0</ele><time>2026-04-05T10:33:55.473Z</time></trkpt><trkpt lat="42.1712467" lon="14.4531133"><ele>55.0</ele><time>2026-04-05T10:33:56.473Z</time></trkpt><trkpt lat="42.1715467" lon="14.4534117"><ele>55.0</ele><time>2026-04-05T10:33:57.471Z</time></trkpt><trkpt lat="42.171855" lon="14.45372"><ele>54.5</ele><time>2026-04-05T10:33:58.47Z</time></trkpt><trkpt lat="42.1721817" lon="14.454015"><ele>54.0</ele><time>2026-04-05T10:33:59.472Z</time></trkpt><trkpt lat="42.1725217" lon="14.4543183"><ele>52.0</ele><time>2026-04-05T10:34:00.474Z</time></trkpt><trkpt lat="42.172855" lon="14.4546417"><ele>50.0</ele><time>2026-04-05T10:34:01.474Z</time></trkpt><trkpt lat="42.173185" lon="14.4549633"><ele>50.5</ele><time>2026-04-05T10:34:02.472Z</time></trkpt><trkpt lat="42.1735" lon="14.4552717"><ele>51.0</ele><time>2026-04-05T10:34:03.471Z</time></trkpt><trkpt lat="42.1738033" lon="14.4555667"><ele>52.0</ele><time>2026-04-05T10:34:04.471Z</time></trkpt><trkpt lat="42.17411" lon="14.4558633"><ele>53.0</ele><time>2026-04-05T10:34:05.472Z</time></trkpt><trkpt lat="42.17442" lon="14.456165"><ele>52.0</ele><time>2026-04-05T10:34:06.472Z</time></trkpt><trkpt lat="42.1747317" lon="14.45647"><ele>51.0</ele><time>2026-04-05T10:34:07.472Z</time></trkpt><trkpt lat="42.1750467" lon="14.4567767"><ele>50.5</ele><time>2026-04-05T10:34:08.473Z</time></trkpt><trkpt lat="42.1753633" lon="14.4570833"><ele>50.0</ele><time>2026-04-05T10:34:09.472Z</time></trkpt><trkpt lat="42.1756833" lon="14.457385"><ele>49.5</ele><time>2026-04-05T10:34:10.471Z</time></trkpt><trkpt lat="42.1760017" lon="14.4576833"><ele>49.0</ele><time>2026-04-05T10:34:11.473Z</time></trkpt><trkpt lat="42.1763133" lon="14.4579833"><ele>47.0</ele><time>2026-04-05T10:34:12.472Z</time></trkpt><trkpt lat="42.1766217" lon="14.45828"><ele>45.0</ele><time>2026-04-05T10:34:13.473Z</time></trkpt><trkpt lat="42.1769283" lon="14.4585717"><ele>45.0</ele><time>2026-04-05T10:34:14.472Z</time></trkpt><trkpt lat="42.1772333" lon="14.45886"><ele>45.0</ele><time>2026-04-05T10:34:15.472Z</time></trkpt><trkpt lat="42.1775367" lon="14.4591467"><ele>45.0</ele><time>2026-04-05T10:34:16.47Z</time></trkpt><trkpt lat="42.1778367" lon="14.459435"><ele>45.0</ele><time>2026-04-05T10:34:17.472Z</time></trkpt><trkpt lat="42.178135" lon="14.45972"><ele>44.0</ele><time>2026-04-05T10:34:18.472Z</time></trkpt><trkpt lat="42.17843" lon="14.4600017"><ele>43.0</ele><time>2026-04-05T10:34:19.474Z</time></trkpt><trkpt lat="42.1787233" lon="14.46028"><ele>43.0</ele><time>2026-04-05T10:34:20.472Z</time></trkpt><trkpt lat="42.1790117" lon="14.4605617"><ele>43.0</ele><time>2026-04-05T10:34:21.472Z</time></trkpt><trkpt lat="42.1793017" lon="14.4608333"><ele>43.0</ele><time>2026-04-05T10:34:22.47Z</time></trkpt><trkpt lat="42.1795867" lon="14.4611117"><ele>43.0</ele><time>2026-04-05T10:34:23.473Z</time></trkpt><trkpt lat="42.1798733" lon="14.46138"><ele>42.5</ele><time>2026-04-05T10:34:24.478Z</time></trkpt><trkpt lat="42.18016" lon="14.4616467"><ele>42.0</ele><time>2026-04-05T10:34:25.473Z</time></trkpt><trkpt lat="42.1804417" lon="14.4619183"><ele>41.5</ele><time>2026-04-05T10:34:26.472Z</time></trkpt><trkpt lat="42.180725" lon="14.46219"><ele>41.0</ele><time>2026-04-05T10:34:27.473Z</time></trkpt><trkpt lat="42.18101" lon="14.4624533"><ele>41.0</ele><time>2026-04-05T10:34:28.471Z</time></trkpt><trkpt lat="42.1812967" lon="14.4627167"><ele>41.0</ele><time>2026-04-05T10:34:29.471Z</time></trkpt><trkpt lat="42.1815783" lon="14.4629883"><ele>40.0</ele><time>2026-04-05T10:34:30.473Z</time></trkpt><trkpt lat="42.1818617" lon="14.463255"><ele>39.0</ele><time>2026-04-05T10:34:31.474Z</time></trkpt><trkpt lat="42.1821467" lon="14.4635183"><ele>40.0</ele><time>2026-04-05T10:34:32.472Z</time></trkpt><trkpt lat="42.1824267" lon="14.4637917"><ele>41.0</ele><time>2026-04-05T10:34:33.472Z</time></trkpt><trkpt lat="42.182705" lon="14.4640633"><ele>41.0</ele><time>2026-04-05T10:34:34.472Z</time></trkpt><trkpt lat="42.1829833" lon="14.4643317"><ele>41.0</ele><time>2026-04-05T10:34:35.472Z</time></trkpt><trkpt lat="42.183265" lon="14.4645933"><ele>41.0</ele><time>2026-04-05T10:34:36.473Z</time></trkpt><trkpt lat="42.1835417" lon="14.4648583"><ele>41.0</ele><time>2026-04-05T10:34:37.473Z</time></trkpt><trkpt lat="42.1838167" lon="14.4651267"><ele>40.5</ele><time>2026-04-05T10:34:38.477Z</time></trkpt><trkpt lat="42.1840933" lon="14.4653933"><ele>40.0</ele><time>2026-04-05T10:34:39.473Z</time></trkpt><trkpt lat="42.1843717" lon="14.4656583"><ele>40.0</ele><time>2026-04-05T10:34:40.471Z</time></trkpt><trkpt lat="42.1846533" lon="14.46592"><ele>40.0</ele><time>2026-04-05T10:34:41.473Z</time></trkpt><trkpt lat="42.184935" lon="14.4661883"><ele>39.5</ele><time>2026-04-05T10:34:42.472Z</time></trkpt><trkpt lat="42.1852167" lon="14.4664533"><ele>39.0</ele><time>2026-04-05T10:34:43.474Z</time></trkpt><trkpt lat="42.1855" lon="14.46672"><ele>39.5</ele><time>2026-04-05T10:34:44.473Z</time></trkpt><trkpt lat="42.1857783" lon="14.4669933"><ele>40.0</ele><time>2026-04-05T10:34:45.472Z</time></trkpt><trkpt lat="42.1860617" lon="14.4672617"><ele>39.0</ele><time>2026-04-05T10:34:46.472Z</time></trkpt><trkpt lat="42.1863517" lon="14.46753"><ele>38.0</ele><time>2026-04-05T10:34:47.472Z</time></trkpt><trkpt lat="42.186645" lon="14.4678083"><ele>38.0</ele><time>2026-04-05T10:34:48.472Z</time></trkpt><trkpt lat="42.1869467" lon="14.4680917"><ele>38.0</ele><time>2026-04-05T10:34:49.472Z</time></trkpt><trkpt lat="42.1872567" lon="14.4683883"><ele>37.5</ele><time>2026-04-05T10:34:50.475Z</time></trkpt><trkpt lat="42.18758" lon="14.468685"><ele>37.0</ele><time>2026-04-05T10:34:51.473Z</time></trkpt><trkpt lat="42.1879033" lon="14.4689967"><ele>35.0</ele><time>2026-04-05T10:34:52.471Z</time></trkpt><trkpt lat="42.1882333" lon="14.46932"><ele>33.0</ele><time>2026-04-05T10:34:53.474Z</time></trkpt><trkpt lat="42.1885733" lon="14.4696417"><ele>33.0</ele><time>2026-04-05T10:34:54.472Z</time></trkpt><trkpt lat="42.1889183" lon="14.4699683"><ele>33.0</ele><time>2026-04-05T10:34:55.473Z</time></trkpt><trkpt lat="42.1892717" lon="14.4703"><ele>33.0</ele><time>2026-04-05T10:34:56.473Z</time></trkpt><trkpt lat="42.1896333" lon="14.470635"><ele>33.0</ele><time>2026-04-05T10:34:57.472Z</time></trkpt><trkpt lat="42.1900017" lon="14.4709717"><ele>32.0</ele><time>2026-04-05T10:34:58.47Z</time></trkpt><trkpt lat="42.19037" lon="14.4713183"><ele>31.0</ele><time>2026-04-05T10:34:59.472Z</time></trkpt><trkpt lat="42.1907467" lon="14.4716633"><ele>31.0</ele><time>2026-04-05T10:35:00.475Z</time></trkpt><trkpt lat="42.1911217" lon="14.47202"><ele>32.0</ele><time>2026-04-05T10:35:01.472Z</time></trkpt><trkpt lat="42.1914967" lon="14.472385"><ele>33.0</ele><time>2026-04-05T10:35:02.473Z</time></trkpt><trkpt lat="42.1918733" lon="14.4727517"><ele>32.0</ele><time>2026-04-05T10:35:03.472Z</time></trkpt><trkpt lat="42.1922467" lon="14.4731217"><ele>32.0</ele><time>2026-04-05T10:35:04.471Z</time></trkpt><trkpt lat="42.1926117" lon="14.4734583"><ele>32.0</ele><time>2026-04-05T10:35:05.473Z</time></trkpt><trkpt lat="42.192945" lon="14.473785"><ele>32.0</ele><time>2026-04-05T10:35:06.473Z</time></trkpt><trkpt lat="42.19327" lon="14.4741"><ele>32.0</ele><time>2026-04-05T10:35:07.472Z</time></trkpt><trkpt lat="42.1935967" lon="14.4744167"><ele>32.0</ele><time>2026-04-05T10:35:08.472Z</time></trkpt><trkpt lat="42.193925" lon="14.4747417"><ele>32.0</ele><time>2026-04-05T10:35:09.473Z</time></trkpt><trkpt lat="42.1942567" lon="14.475065"><ele>32.5</ele><time>2026-04-05T10:35:10.473Z</time></trkpt><trkpt lat="42.1945917" lon="14.4753817"><ele>33.0</ele><time>2026-04-05T10:35:11.473Z</time></trkpt><trkpt lat="42.1949283" lon="14.4757017"><ele>32.0</ele><time>2026-04-05T10:35:12.475Z</time></trkpt><trkpt lat="42.195265" lon="14.4760283"><ele>31.0</ele><time>2026-04-05T10:35:13.473Z</time></trkpt><trkpt lat="42.1956083" lon="14.476345"><ele>31.5</ele><time>2026-04-05T10:35:14.473Z</time></trkpt><trkpt lat="42.1959467" lon="14.476665"><ele>32.0</ele><time>2026-04-05T10:35:15.473Z</time></trkpt><trkpt lat="42.1962833" lon="14.476985"><ele>32.0</ele><time>2026-04-05T10:35:16.469Z</time></trkpt><trkpt lat="42.1966133" lon="14.4773033"><ele>32.0</ele><time>2026-04-05T10:35:17.471Z</time></trkpt><trkpt lat="42.1969333" lon="14.4776067"><ele>32.0</ele><time>2026-04-05T10:35:18.472Z</time></trkpt><trkpt lat="42.1972417" lon="14.4779033"><ele>32.0</ele><time>2026-04-05T10:35:19.474Z</time></trkpt><trkpt lat="42.19754" lon="14.4781867"><ele>31.0</ele><time>2026-04-05T10:35:20.473Z</time></trkpt><trkpt lat="42.1978267" lon="14.4784667"><ele>30.0</ele><time>2026-04-05T10:35:21.47Z</time></trkpt><trkpt lat="42.1981067" lon="14.47874"><ele>30.5</ele><time>2026-04-05T10:35:22.47Z</time></trkpt><trkpt lat="42.1983817" lon="14.4790033"><ele>31.0</ele><time>2026-04-05T10:35:23.47Z</time></trkpt><trkpt lat="42.1986483" lon="14.47926"><ele>31.0</ele><time>2026-04-05T10:35:24.471Z</time></trkpt><trkpt lat="42.19891" lon="14.4795133"><ele>31.0</ele><time>2026-04-05T10:35:25.475Z</time></trkpt><trkpt lat="42.199165" lon="14.47976"><ele>31.0</ele><time>2026-04-05T10:35:26.47Z</time></trkpt><trkpt lat="42.19942" lon="14.4800033"><ele>31.0</ele><time>2026-04-05T10:35:27.473Z</time></trkpt><trkpt lat="42.1996767" lon="14.4802433"><ele>29.5</ele><time>2026-04-05T10:35:28.469Z</time></trkpt><trkpt lat="42.1999333" lon="14.4804867"><ele>28.0</ele><time>2026-04-05T10:35:29.473Z</time></trkpt><trkpt lat="42.2001933" lon="14.4807267"><ele>28.0</ele><time>2026-04-05T10:35:30.473Z</time></trkpt><trkpt lat="42.2004567" lon="14.4809683"><ele>28.0</ele><time>2026-04-05T10:35:31.472Z</time></trkpt><trkpt lat="42.20072" lon="14.4812183"><ele>27.5</ele><time>2026-04-05T10:35:32.475Z</time></trkpt><trkpt lat="42.2009867" lon="14.4814633"><ele>27.0</ele><time>2026-04-05T10:35:33.47Z</time></trkpt><trkpt lat="42.2012567" lon="14.481715"><ele>26.5</ele><time>2026-04-05T10:35:34.47Z</time></trkpt><trkpt lat="42.2015233" lon="14.4819733"><ele>26.0</ele><time>2026-04-05T10:35:35.471Z</time></trkpt><trkpt lat="42.2017933" lon="14.4822233"><ele>27.0</ele><time>2026-04-05T10:35:36.473Z</time></trkpt><trkpt lat="42.2020517" lon="14.48247"><ele>28.0</ele><time>2026-04-05T10:35:37.47Z</time></trkpt><trkpt lat="42.2022983" lon="14.4827033"><ele>28.5</ele><time>2026-04-05T10:35:38.472Z</time></trkpt><trkpt lat="42.2025317" lon="14.48293"><ele>29.0</ele><time>2026-04-05T10:35:39.47Z</time></trkpt><trkpt lat="42.2027533" lon="14.4831367"><ele>28.0</ele><time>2026-04-05T10:35:40.471Z</time></trkpt><trkpt lat="42.2029617" lon="14.48333"><ele>27.0</ele><time>2026-04-05T10:35:41.855Z</time></trkpt><trkpt lat="42.203335" lon="14.4836833"><ele>26.333333333333336</ele><time>2026-04-05T10:35:43.47Z</time></trkpt><trkpt lat="42.203505" lon="14.4838467"><ele>25.666666666666668</ele><time>2026-04-05T10:35:44.473Z</time></trkpt><trkpt lat="42.2036717" lon="14.4840083"><ele>25.0</ele><time>2026-04-05T10:35:45.473Z</time></trkpt><trkpt lat="42.2038417" lon="14.484165"><ele>24.666666666666668</ele><time>2026-04-05T10:35:46.47Z</time></trkpt><trkpt lat="42.2040117" lon="14.4843267"><ele>24.333333333333336</ele><time>2026-04-05T10:35:47.469Z</time></trkpt><trkpt lat="42.2041867" lon="14.48449"><ele>24.0</ele><time>2026-04-05T10:35:48.47Z</time></trkpt><trkpt lat="42.2043633" lon="14.4846567"><ele>24.0</ele><time>2026-04-05T10:35:49.47Z</time></trkpt><trkpt lat="42.20454" lon="14.4848267"><ele>24.0</ele><time>2026-04-05T10:35:50.473Z</time></trkpt><trkpt lat="42.2047217" lon="14.484995"><ele>24.0</ele><time>2026-04-05T10:35:51.472Z</time></trkpt><trkpt lat="42.204905" lon="14.485165"><ele>24.666666666666664</ele><time>2026-04-05T10:35:52.471Z</time></trkpt><trkpt lat="42.2050883" lon="14.485335"><ele>25.333333333333332</ele><time>2026-04-05T10:35:53.473Z</time></trkpt><trkpt lat="42.2052667" lon="14.48551"><ele>26.0</ele><time>2026-04-05T10:35:54.47Z</time></trkpt><trkpt lat="42.2054417" lon="14.4856767"><ele>26.0</ele><time>2026-04-05T10:35:55.47Z</time></trkpt><trkpt lat="42.205615" lon="14.4858433"><ele>26.0</ele><time>2026-04-05T10:35:56.473Z</time></trkpt><trkpt lat="42.2057933" lon="14.4860117"><ele>26.0</ele><time>2026-04-05T10:35:57.469Z</time></trkpt><trkpt lat="42.2059883" lon="14.4861917"><ele>24.5</ele><time>2026-04-05T10:35:58.471Z</time></trkpt><trkpt lat="42.2062017" lon="14.4863917"><ele>23.0</ele><time>2026-04-05T10:35:59.47Z</time></trkpt><trkpt lat="42.2064417" lon="14.4866067"><ele>23.5</ele><time>2026-04-05T10:36:00.473Z</time></trkpt><trkpt lat="42.2066983" lon="14.48685"><ele>24.0</ele><time>2026-04-05T10:36:01.473Z</time></trkpt><trkpt lat="42.2069733" lon="14.4871167"><ele>24.0</ele><time>2026-04-05T10:36:02.473Z</time></trkpt><trkpt lat="42.2072667" lon="14.4874"><ele>24.0</ele><time>2026-04-05T10:36:03.473Z</time></trkpt><trkpt lat="42.2075767" lon="14.4876917"><ele>24.0</ele><time>2026-04-05T10:36:04.47Z</time></trkpt><trkpt lat="42.2078967" lon="14.488"><ele>24.0</ele><time>2026-04-05T10:36:05.473Z</time></trkpt><trkpt lat="42.2082133" lon="14.4883367"><ele>24.0</ele><time>2026-04-05T10:36:06.47Z</time></trkpt><trkpt lat="42.2085483" lon="14.48867"><ele>24.0</ele><time>2026-04-05T10:36:07.47Z</time></trkpt><trkpt lat="42.208895" lon="14.4889967"><ele>23.5</ele><time>2026-04-05T10:36:08.471Z</time></trkpt><trkpt lat="42.2092383" lon="14.4893267"><ele>23.0</ele><time>2026-04-05T10:36:09.469Z</time></trkpt><trkpt lat="42.2095767" lon="14.489645"><ele>23.0</ele><time>2026-04-05T10:36:10.47Z</time></trkpt><trkpt lat="42.209905" lon="14.4899667"><ele>23.0</ele><time>2026-04-05T10:36:11.471Z</time></trkpt><trkpt lat="42.2102267" lon="14.4902817"><ele>23.0</ele><time>2026-04-05T10:36:12.471Z</time></trkpt><trkpt lat="42.2105383" lon="14.490595"><ele>23.0</ele><time>2026-04-05T10:36:13.475Z</time></trkpt><trkpt lat="42.2108433" lon="14.4909"><ele>23.0</ele><time>2026-04-05T10:36:14.471Z</time></trkpt><trkpt lat="42.21114" lon="14.4912017"><ele>23.0</ele><time>2026-04-05T10:36:15.469Z</time></trkpt><trkpt lat="42.2114267" lon="14.4915033"><ele>23.0</ele><time>2026-04-05T10:36:16.469Z</time></trkpt><trkpt lat="42.2117083" lon="14.4917967"><ele>23.0</ele><time>2026-04-05T10:36:17.471Z</time></trkpt><trkpt lat="42.2119817" lon="14.4920767"><ele>23.5</ele><time>2026-04-05T10:36:18.472Z</time></trkpt><trkpt lat="42.2122317" lon="14.4923433"><ele>24.0</ele><time>2026-04-05T10:36:19.471Z</time></trkpt><trkpt lat="42.212465" lon="14.4925933"><ele>24.5</ele><time>2026-04-05T10:36:20.47Z</time></trkpt><trkpt lat="42.2126867" lon="14.4928283"><ele>25.0</ele><time>2026-04-05T10:36:21.47Z</time></trkpt><trkpt lat="42.212895" lon="14.49305"><ele>25.0</ele><time>2026-04-05T10:36:22.471Z</time></trkpt><trkpt lat="42.2130917" lon="14.4932583"><ele>25.0</ele><time>2026-04-05T10:36:23.47Z</time></trkpt><trkpt lat="42.21328" lon="14.4934583"><ele>25.0</ele><time>2026-04-05T10:36:24.473Z</time></trkpt><trkpt lat="42.2134683" lon="14.493655"><ele>25.0</ele><time>2026-04-05T10:36:25.47Z</time></trkpt><trkpt lat="42.21366" lon="14.4938483"><ele>25.0</ele><time>2026-04-05T10:36:26.472Z</time></trkpt><trkpt lat="42.2138517" lon="14.4940467"><ele>25.0</ele><time>2026-04-05T10:36:27.472Z</time></trkpt><trkpt lat="42.214045" lon="14.49425"><ele>24.5</ele><time>2026-04-05T10:36:28.47Z</time></trkpt><trkpt lat="42.2142417" lon="14.494455"><ele>24.0</ele><time>2026-04-05T10:36:29.472Z</time></trkpt><trkpt lat="42.214435" lon="14.49467"><ele>23.5</ele><time>2026-04-05T10:36:30.473Z</time></trkpt><trkpt lat="42.2146333" lon="14.4948833"><ele>23.0</ele><time>2026-04-05T10:36:31.473Z</time></trkpt><trkpt lat="42.2148317" lon="14.495105"><ele>22.0</ele><time>2026-04-05T10:36:32.472Z</time></trkpt><trkpt lat="42.215035" lon="14.4953283"><ele>21.0</ele><time>2026-04-05T10:36:33.47Z</time></trkpt><trkpt lat="42.2152433" lon="14.4955517"><ele>21.5</ele><time>2026-04-05T10:36:34.47Z</time></trkpt><trkpt lat="42.2154533" lon="14.4957767"><ele>22.0</ele><time>2026-04-05T10:36:35.47Z</time></trkpt><trkpt lat="42.21567" lon="14.4959983"><ele>22.0</ele><time>2026-04-05T10:36:36.47Z</time></trkpt><trkpt lat="42.21589" lon="14.4962167"><ele>22.0</ele><time>2026-04-05T10:36:37.471Z</time></trkpt><trkpt lat="42.2161067" lon="14.4964433"><ele>21.0</ele><time>2026-04-05T10:36:38.473Z</time></trkpt><trkpt lat="42.21633" lon="14.4966767"><ele>20.0</ele><time>2026-04-05T10:36:39.47Z</time></trkpt><trkpt lat="42.216565" lon="14.496915"><ele>18.0</ele><time>2026-04-05T10:36:40.474Z</time></trkpt><trkpt lat="42.2168083" lon="14.4971617"><ele>16.0</ele><time>2026-04-05T10:36:41.474Z</time></trkpt><trkpt lat="42.217055" lon="14.4974217"><ele>16.0</ele><time>2026-04-05T10:36:42.473Z</time></trkpt><trkpt lat="42.2173033" lon="14.4976933"><ele>16.0</ele><time>2026-04-05T10:36:43.472Z</time></trkpt><trkpt lat="42.2175567" lon="14.4979633"><ele>16.5</ele><time>2026-04-05T10:36:44.473Z</time></trkpt><trkpt lat="42.2178117" lon="14.4982333"><ele>17.0</ele><time>2026-04-05T10:36:45.47Z</time></trkpt><trkpt lat="42.2180683" lon="14.4984983"><ele>16.5</ele><time>2026-04-05T10:36:46.472Z</time></trkpt><trkpt lat="42.2183267" lon="14.4987633"><ele>16.0</ele><time>2026-04-05T10:36:47.47Z</time></trkpt><trkpt lat="42.21859" lon="14.4990283"><ele>16.0</ele><time>2026-04-05T10:36:48.474Z</time></trkpt><trkpt lat="42.218855" lon="14.4992967"><ele>16.0</ele><time>2026-04-05T10:36:49.472Z</time></trkpt><trkpt lat="42.2191233" lon="14.4995717"><ele>16.0</ele><time>2026-04-05T10:36:50.471Z</time></trkpt><trkpt lat="42.2193917" lon="14.4998483"><ele>16.0</ele><time>2026-04-05T10:36:51.473Z</time></trkpt><trkpt lat="42.2196583" lon="14.5001367"><ele>15.5</ele><time>2026-04-05T10:36:52.469Z</time></trkpt><trkpt lat="42.219925" lon="14.5004267"><ele>15.0</ele><time>2026-04-05T10:36:53.475Z</time></trkpt><trkpt lat="42.220195" lon="14.5007183"><ele>15.0</ele><time>2026-04-05T10:36:54.47Z</time></trkpt><trkpt lat="42.2204633" lon="14.5010133"><ele>15.0</ele><time>2026-04-05T10:36:55.47Z</time></trkpt><trkpt lat="42.2207333" lon="14.5012883"><ele>14.0</ele><time>2026-04-05T10:36:56.472Z</time></trkpt><trkpt lat="42.220995" lon="14.5015483"><ele>13.0</ele><time>2026-04-05T10:36:57.47Z</time></trkpt><trkpt lat="42.2212467" lon="14.5018017"><ele>13.5</ele><time>2026-04-05T10:36:58.47Z</time></trkpt><trkpt lat="42.2214933" lon="14.5020533"><ele>14.0</ele><time>2026-04-05T10:36:59.473Z</time></trkpt><trkpt lat="42.22174" lon="14.5023033"><ele>14.5</ele><time>2026-04-05T10:37:00.471Z</time></trkpt><trkpt lat="42.2219883" lon="14.50255"><ele>15.0</ele><time>2026-04-05T10:37:01.47Z</time></trkpt><trkpt lat="42.2222383" lon="14.5028017"><ele>16.0</ele><time>2026-04-05T10:37:02.471Z</time></trkpt><trkpt lat="42.2224883" lon="14.5030633"><ele>17.0</ele><time>2026-04-05T10:37:03.474Z</time></trkpt><trkpt lat="42.222745" lon="14.5033317"><ele>17.0</ele><time>2026-04-05T10:37:04.472Z</time></trkpt><trkpt lat="42.223" lon="14.5036083"><ele>17.0</ele><time>2026-04-05T10:37:05.472Z</time></trkpt><trkpt lat="42.2232583" lon="14.5038883"><ele>17.5</ele><time>2026-04-05T10:37:06.472Z</time></trkpt><trkpt lat="42.2235217" lon="14.50417"><ele>18.0</ele><time>2026-04-05T10:37:07.471Z</time></trkpt><trkpt lat="42.22379" lon="14.504445"><ele>16.5</ele><time>2026-04-05T10:37:08.472Z</time></trkpt><trkpt lat="42.22406" lon="14.5047233"><ele>15.0</ele><time>2026-04-05T10:37:09.47Z</time></trkpt><trkpt lat="42.2243317" lon="14.505"><ele>15.0</ele><time>2026-04-05T10:37:10.474Z</time></trkpt><trkpt lat="42.224605" lon="14.5052783"><ele>15.0</ele><time>2026-04-05T10:37:11.472Z</time></trkpt><trkpt lat="42.22488" lon="14.5055583"><ele>14.0</ele><time>2026-04-05T10:37:12.47Z</time></trkpt><trkpt lat="42.2251567" lon="14.5058367"><ele>13.0</ele><time>2026-04-05T10:37:13.471Z</time></trkpt><trkpt lat="42.2254317" lon="14.5061167"><ele>12.5</ele><time>2026-04-05T10:37:14.471Z</time></trkpt><trkpt lat="42.2257067" lon="14.5063967"><ele>12.0</ele><time>2026-04-05T10:37:15.473Z</time></trkpt><trkpt lat="42.2259833" lon="14.506675"><ele>12.0</ele><time>2026-04-05T10:37:16.472Z</time></trkpt><trkpt lat="42.2262583" lon="14.506955"><ele>12.0</ele><time>2026-04-05T10:37:17.47Z</time></trkpt><trkpt lat="42.22653" lon="14.5072417"><ele>12.0</ele><time>2026-04-05T10:37:18.473Z</time></trkpt><trkpt lat="42.2267983" lon="14.50753"><ele>12.0</ele><time>2026-04-05T10:37:19.472Z</time></trkpt><trkpt lat="42.2270717" lon="14.5078133"><ele>10.5</ele><time>2026-04-05T10:37:20.47Z</time></trkpt><trkpt lat="42.227345" lon="14.508095"><ele>9.0</ele><time>2026-04-05T10:37:21.471Z</time></trkpt><trkpt lat="42.22762" lon="14.508375"><ele>9.0</ele><time>2026-04-05T10:37:22.473Z</time></trkpt><trkpt lat="42.22789" lon="14.50866"><ele>9.0</ele><time>2026-04-05T10:37:23.473Z</time></trkpt><trkpt lat="42.22816" lon="14.5089433"><ele>9.0</ele><time>2026-04-05T10:37:24.474Z</time></trkpt><trkpt lat="42.228425" lon="14.5092333"><ele>9.0</ele><time>2026-04-05T10:37:25.472Z</time></trkpt><trkpt lat="42.2286967" lon="14.5095133"><ele>9.5</ele><time>2026-04-05T10:37:26.473Z</time></trkpt><trkpt lat="42.2289683" lon="14.5097933"><ele>10.0</ele><time>2026-04-05T10:37:27.47Z</time></trkpt><trkpt lat="42.2292417" lon="14.5100683"><ele>10.0</ele><time>2026-04-05T10:37:28.471Z</time></trkpt><trkpt lat="42.2295117" lon="14.5103467"><ele>10.0</ele><time>2026-04-05T10:37:29.471Z</time></trkpt><trkpt lat="42.22978" lon="14.510625"><ele>9.0</ele><time>2026-04-05T10:37:30.47Z</time></trkpt><trkpt lat="42.23005" lon="14.5109"><ele>8.0</ele><time>2026-04-05T10:37:31.474Z</time></trkpt><trkpt lat="42.23032" lon="14.5111783"><ele>8.5</ele><time>2026-04-05T10:37:32.472Z</time></trkpt><trkpt lat="42.2305883" lon="14.5114567"><ele>9.0</ele><time>2026-04-05T10:37:33.47Z</time></trkpt><trkpt lat="42.2308583" lon="14.511735"><ele>9.0</ele><time>2026-04-05T10:37:34.47Z</time></trkpt><trkpt lat="42.2311283" lon="14.5120133"><ele>9.0</ele><time>2026-04-05T10:37:35.47Z</time></trkpt><trkpt lat="42.2313983" lon="14.51229"><ele>9.0</ele><time>2026-04-05T10:37:36.473Z</time></trkpt><trkpt lat="42.2316717" lon="14.512565"><ele>9.0</ele><time>2026-04-05T10:37:37.47Z</time></trkpt><trkpt lat="42.2319417" lon="14.5128433"><ele>8.0</ele><time>2026-04-05T10:37:38.47Z</time></trkpt><trkpt lat="42.232215" lon="14.51312"><ele>7.0</ele><time>2026-04-05T10:37:39.473Z</time></trkpt><trkpt lat="42.2324917" lon="14.5133917"><ele>7.0</ele><time>2026-04-05T10:37:40.473Z</time></trkpt><trkpt lat="42.2327733" lon="14.51365"><ele>7.0</ele><time>2026-04-05T10:37:41.474Z</time></trkpt><trkpt lat="42.2330617" lon="14.5138967"><ele>7.0</ele><time>2026-04-05T10:37:42.471Z</time></trkpt><trkpt lat="42.2333583" lon="14.5141333"><ele>7.0</ele><time>2026-04-05T10:37:43.471Z</time></trkpt><trkpt lat="42.233665" lon="14.5143633"><ele>7.5</ele><time>2026-04-05T10:37:44.471Z</time></trkpt><trkpt lat="42.233975" lon="14.5146033"><ele>8.0</ele><time>2026-04-05T10:37:45.471Z</time></trkpt><trkpt lat="42.2342833" lon="14.5148583"><ele>8.0</ele><time>2026-04-05T10:37:46.47Z</time></trkpt><trkpt lat="42.2346017" lon="14.5150967"><ele>8.0</ele><time>2026-04-05T10:37:47.471Z</time></trkpt><trkpt lat="42.2349333" lon="14.5153117"><ele>7.0</ele><time>2026-04-05T10:37:48.471Z</time></trkpt><trkpt lat="42.2352717" lon="14.51551"><ele>6.0</ele><time>2026-04-05T10:37:49.473Z</time></trkpt><trkpt lat="42.2356017" lon="14.51572"><ele>7.5</ele><time>2026-04-05T10:37:50.47Z</time></trkpt><trkpt lat="42.2359217" lon="14.5159383"><ele>9.0</ele><time>2026-04-05T10:37:51.47Z</time></trkpt><trkpt lat="42.2362383" lon="14.516155"><ele>8.0</ele><time>2026-04-05T10:37:52.47Z</time></trkpt><trkpt lat="42.2365483" lon="14.5163733"><ele>7.0</ele><time>2026-04-05T10:37:53.471Z</time></trkpt><trkpt lat="42.23686" lon="14.516585"><ele>7.0</ele><time>2026-04-05T10:37:54.47Z</time></trkpt><trkpt lat="42.237175" lon="14.516785"><ele>7.0</ele><time>2026-04-05T10:37:55.472Z</time></trkpt><trkpt lat="42.2374783" lon="14.5169917"><ele>7.0</ele><time>2026-04-05T10:37:56.471Z</time></trkpt><trkpt lat="42.2377633" lon="14.5171917"><ele>7.0</ele><time>2026-04-05T10:37:57.472Z</time></trkpt><trkpt lat="42.2380367" lon="14.5173733"><ele>7.0</ele><time>2026-04-05T10:37:58.47Z</time></trkpt><trkpt lat="42.2382933" lon="14.5175433"><ele>7.0</ele><time>2026-04-05T10:37:59.47Z</time></trkpt><trkpt lat="42.2385367" lon="14.517705"><ele>7.0</ele><time>2026-04-05T10:38:00.474Z</time></trkpt><trkpt lat="42.238765" lon="14.5178583"><ele>7.0</ele><time>2026-04-05T10:38:01.471Z</time></trkpt><trkpt lat="42.2389767" lon="14.5180017"><ele>7.333333333333334</ele><time>2026-04-05T10:38:02.472Z</time></trkpt><trkpt lat="42.2391767" lon="14.5181383"><ele>7.666666666666666</ele><time>2026-04-05T10:38:03.47Z</time></trkpt><trkpt lat="42.239365" lon="14.518265"><ele>8.0</ele><time>2026-04-05T10:38:04.471Z</time></trkpt><trkpt lat="42.2395467" lon="14.518385"><ele>8.0</ele><time>2026-04-05T10:38:05.47Z</time></trkpt><trkpt lat="42.2397317" lon="14.5184967"><ele>8.0</ele><time>2026-04-05T10:38:06.47Z</time></trkpt><trkpt lat="42.2399283" lon="14.5186133"><ele>8.0</ele><time>2026-04-05T10:38:07.47Z</time></trkpt><trkpt lat="42.2401383" lon="14.51875"><ele>7.0</ele><time>2026-04-05T10:38:08.472Z</time></trkpt><trkpt lat="42.240365" lon="14.5189033"><ele>6.0</ele><time>2026-04-05T10:38:09.473Z</time></trkpt><trkpt lat="42.2406067" lon="14.5190767"><ele>7.0</ele><time>2026-04-05T10:38:10.47Z</time></trkpt><trkpt lat="42.2408533" lon="14.5192583"><ele>8.0</ele><time>2026-04-05T10:38:11.47Z</time></trkpt><trkpt lat="42.24109" lon="14.519435"><ele>7.5</ele><time>2026-04-05T10:38:12.47Z</time></trkpt><trkpt lat="42.2413017" lon="14.5195983"><ele>7.0</ele><time>2026-04-05T10:38:13.47Z</time></trkpt><trkpt lat="42.2414967" lon="14.5197517"><ele>7.0</ele><time>2026-04-05T10:38:14.474Z</time></trkpt><trkpt lat="42.24167" lon="14.519915"><ele>7.0</ele><time>2026-04-05T10:38:15.47Z</time></trkpt><trkpt lat="42.241815" lon="14.520095"><ele>7.0</ele><time>2026-04-05T10:38:16.471Z</time></trkpt><trkpt lat="42.2419433" lon="14.5202933"><ele>6.0</ele><time>2026-04-05T10:38:17.471Z</time></trkpt><trkpt lat="42.2420533" lon="14.5205117"><ele>5.0</ele><time>2026-04-05T10:38:18.471Z</time></trkpt><trkpt lat="42.242145" lon="14.5207433"><ele>4.0</ele><time>2026-04-05T10:38:19.471Z</time></trkpt><trkpt lat="42.2422167" lon="14.5209833"><ele>4.0</ele><time>2026-04-05T10:38:20.473Z</time></trkpt><trkpt lat="42.2422667" lon="14.5212317"><ele>4.0</ele><time>2026-04-05T10:38:21.471Z</time></trkpt><trkpt lat="42.2422917" lon="14.5214783"><ele>4.0</ele><time>2026-04-05T10:38:22.47Z</time></trkpt><trkpt lat="42.242295" lon="14.5217167"><ele>3.6666666666666665</ele><time>2026-04-05T10:38:23.47Z</time></trkpt><trkpt lat="42.24228" lon="14.5219433"><ele>3.333333333333333</ele><time>2026-04-05T10:38:24.471Z</time></trkpt><trkpt lat="42.2422533" lon="14.5221617"><ele>3.0</ele><time>2026-04-05T10:38:25.471Z</time></trkpt><trkpt lat="42.2422183" lon="14.52238"><ele>2.6666666666666665</ele><time>2026-04-05T10:38:26.47Z</time></trkpt><trkpt lat="42.2421833" lon="14.5225967"><ele>2.333333333333333</ele><time>2026-04-05T10:38:27.469Z</time></trkpt><trkpt lat="42.2421483" lon="14.522805"><ele>2.0</ele><time>2026-04-05T10:38:28.47Z</time></trkpt><trkpt lat="42.2421167" lon="14.52301"><ele>2.0</ele><time>2026-04-05T10:38:29.469Z</time></trkpt><trkpt lat="42.2420633" lon="14.5232133"><ele>2.0</ele><time>2026-04-05T10:38:30.469Z</time></trkpt><trkpt lat="42.2420033" lon="14.5234267"><ele>2.0</ele><time>2026-04-05T10:38:31.469Z</time></trkpt><trkpt lat="42.2419383" lon="14.52365"><ele>2.333333333333333</ele><time>2026-04-05T10:38:32.474Z</time></trkpt><trkpt lat="42.2418633" lon="14.5238783"><ele>2.6666666666666665</ele><time>2026-04-05T10:38:33.473Z</time></trkpt><trkpt lat="42.2417867" lon="14.5241133"><ele>3.0</ele><time>2026-04-05T10:38:34.473Z</time></trkpt><trkpt lat="42.241705" lon="14.524355"><ele>2.3333333333333335</ele><time>2026-04-05T10:38:35.471Z</time></trkpt><trkpt lat="42.2416167" lon="14.5246"><ele>1.6666666666666665</ele><time>2026-04-05T10:38:36.47Z</time></trkpt><trkpt lat="42.241515" lon="14.5248433"><ele>1.0</ele><time>2026-04-05T10:38:37.471Z</time></trkpt><trkpt lat="42.2414" lon="14.52509"><ele>1.0</ele><time>2026-04-05T10:38:38.471Z</time></trkpt><trkpt lat="42.2412817" lon="14.5253433"><ele>1.0</ele><time>2026-04-05T10:38:39.472Z</time></trkpt><trkpt lat="42.2411633" lon="14.525605"><ele>1.0</ele><time>2026-04-05T10:38:40.47Z</time></trkpt><trkpt lat="42.24104" lon="14.52587"><ele>1.0</ele><time>2026-04-05T10:38:41.471Z</time></trkpt><trkpt lat="42.24092" lon="14.52614"><ele>1.0</ele><time>2026-04-05T10:38:42.47Z</time></trkpt><trkpt lat="42.2408017" lon="14.5264067"><ele>1.0</ele><time>2026-04-05T10:38:43.471Z</time></trkpt><trkpt lat="42.2406817" lon="14.5266717"><ele>1.0</ele><time>2026-04-05T10:38:44.471Z</time></trkpt><trkpt lat="42.2405617" lon="14.5269433"><ele>0.5</ele><time>2026-04-05T10:38:45.471Z</time></trkpt><trkpt lat="42.2404367" lon="14.5272217"><ele>0.0</ele><time>2026-04-05T10:38:46.473Z</time></trkpt><trkpt lat="42.24031" lon="14.527505"><ele>0.0</ele><time>2026-04-05T10:38:47.471Z</time></trkpt><trkpt lat="42.2401783" lon="14.527795"><ele>0.0</ele><time>2026-04-05T10:38:48.471Z</time></trkpt><trkpt lat="42.2400417" lon="14.5280883"><ele>0.0</ele><time>2026-04-05T10:38:49.472Z</time></trkpt><trkpt lat="42.2399083" lon="14.528385"><ele>0.0</ele><time>2026-04-05T10:38:50.471Z</time></trkpt><trkpt lat="42.2397717" lon="14.5286833"><ele>0.5</ele><time>2026-04-05T10:38:51.48Z</time></trkpt><trkpt lat="42.2396333" lon="14.5289833"><ele>1.0</ele><time>2026-04-05T10:38:52.47Z</time></trkpt><trkpt lat="42.23949" lon="14.52929"><ele>1.0</ele><time>2026-04-05T10:38:53.47Z</time></trkpt><trkpt lat="42.2393433" lon="14.5296033"><ele>1.0</ele><time>2026-04-05T10:38:54.471Z</time></trkpt><trkpt lat="42.2391983" lon="14.5299283"><ele>1.0</ele><time>2026-04-05T10:38:55.472Z</time></trkpt><trkpt lat="42.239045" lon="14.5302617"><ele>1.0</ele><time>2026-04-05T10:38:56.474Z</time></trkpt><trkpt lat="42.2388867" lon="14.5306067"><ele>0.5</ele><time>2026-04-05T10:38:57.47Z</time></trkpt><trkpt lat="42.2387217" lon="14.5309617"><ele>0.0</ele><time>2026-04-05T10:38:58.471Z</time></trkpt><trkpt lat="42.23856" lon="14.53133"><ele>1.0</ele><time>2026-04-05T10:38:59.471Z</time></trkpt><trkpt lat="42.238395" lon="14.5317017"><ele>2.0</ele><time>2026-04-05T10:39:00.472Z</time></trkpt><trkpt lat="42.23823" lon="14.5320767"><ele>3.5</ele><time>2026-04-05T10:39:01.471Z</time></trkpt><trkpt lat="42.2380633" lon="14.5324483"><ele>5.0</ele><time>2026-04-05T10:39:02.473Z</time></trkpt><trkpt lat="42.2378967" lon="14.53282"><ele>4.0</ele><time>2026-04-05T10:39:03.471Z</time></trkpt><trkpt lat="42.2377333" lon="14.5331783"><ele>3.0</ele><time>2026-04-05T10:39:04.471Z</time></trkpt><trkpt lat="42.2375817" lon="14.533515"><ele>3.0</ele><time>2026-04-05T10:39:05.475Z</time></trkpt><trkpt lat="42.2374417" lon="14.53383"><ele>3.0</ele><time>2026-04-05T10:39:06.471Z</time></trkpt><trkpt lat="42.2373067" lon="14.5341317"><ele>3.0</ele><time>2026-04-05T10:39:07.471Z</time></trkpt><trkpt lat="42.2371733" lon="14.5344283"><ele>3.0</ele><time>2026-04-05T10:39:08.47Z</time></trkpt><trkpt lat="42.237035" lon="14.534725"><ele>2.5</ele><time>2026-04-05T10:39:09.471Z</time></trkpt><trkpt lat="42.2369" lon="14.5350283"><ele>2.0</ele><time>2026-04-05T10:39:10.473Z</time></trkpt><trkpt lat="42.2367583" lon="14.5353333"><ele>2.5</ele><time>2026-04-05T10:39:11.47Z</time></trkpt><trkpt lat="42.2366233" lon="14.5356483"><ele>3.0</ele><time>2026-04-05T10:39:12.476Z</time></trkpt><trkpt lat="42.2364767" lon="14.5359617"><ele>4.0</ele><time>2026-04-05T10:39:13.471Z</time></trkpt><trkpt lat="42.236325" lon="14.53627"><ele>5.0</ele><time>2026-04-05T10:39:14.471Z</time></trkpt><trkpt lat="42.2361783" lon="14.5365833"><ele>5.0</ele><time>2026-04-05T10:39:15.471Z</time></trkpt><trkpt lat="42.236035" lon="14.5369"><ele>5.0</ele><time>2026-04-05T10:39:16.471Z</time></trkpt><trkpt lat="42.2359" lon="14.53722"><ele>5.0</ele><time>2026-04-05T10:39:17.472Z</time></trkpt><trkpt lat="42.2357683" lon="14.5375417"><ele>5.0</ele><time>2026-04-05T10:39:18.47Z</time></trkpt><trkpt lat="42.235635" lon="14.5378467"><ele>5.5</ele><time>2026-04-05T10:39:19.474Z</time></trkpt><trkpt lat="42.2355083" lon="14.5381333"><ele>6.0</ele><time>2026-04-05T10:39:20.471Z</time></trkpt><trkpt lat="42.235385" lon="14.5384117"><ele>6.0</ele><time>2026-04-05T10:39:21.472Z</time></trkpt><trkpt lat="42.2352617" lon="14.5386967"><ele>6.0</ele><time>2026-04-05T10:39:22.475Z</time></trkpt><trkpt lat="42.2351367" lon="14.538985"><ele>6.5</ele><time>2026-04-05T10:39:23.47Z</time></trkpt><trkpt lat="42.2350083" lon="14.5392767"><ele>7.0</ele><time>2026-04-05T10:39:24.478Z</time></trkpt><trkpt lat="42.2348833" lon="14.5395733"><ele>7.5</ele><time>2026-04-05T10:39:25.472Z</time></trkpt><trkpt lat="42.2347567" lon="14.5398617"><ele>8.0</ele><time>2026-04-05T10:39:26.472Z</time></trkpt><trkpt lat="42.2346367" lon="14.5401417"><ele>6.666666666666666</ele><time>2026-04-05T10:39:27.471Z</time></trkpt><trkpt lat="42.2345233" lon="14.5404083"><ele>5.333333333333333</ele><time>2026-04-05T10:39:28.472Z</time></trkpt><trkpt lat="42.234415" lon="14.54066"><ele>4.0</ele><time>2026-04-05T10:39:29.473Z</time></trkpt><trkpt lat="42.2343133" lon="14.5409"><ele>4.0</ele><time>2026-04-05T10:39:30.471Z</time></trkpt><trkpt lat="42.2342183" lon="14.5411267"><ele>4.0</ele><time>2026-04-05T10:39:31.472Z</time></trkpt><trkpt lat="42.2341217" lon="14.541345"><ele>4.0</ele><time>2026-04-05T10:39:32.471Z</time></trkpt><trkpt lat="42.2340283" lon="14.54156"><ele>10.0</ele><time>2026-04-05T10:39:33.473Z</time></trkpt><trkpt lat="42.233935" lon="14.5417717"><ele>16.0</ele><time>2026-04-05T10:39:34.471Z</time></trkpt><trkpt lat="42.2338483" lon="14.541985"><ele>22.0</ele><time>2026-04-05T10:39:35.471Z</time></trkpt><trkpt lat="42.2337617" lon="14.5421967"><ele>22.0</ele><time>2026-04-05T10:39:36.471Z</time></trkpt><trkpt lat="42.233675" lon="14.5423983"><ele>22.0</ele><time>2026-04-05T10:39:37.469Z</time></trkpt><trkpt lat="42.2335933" lon="14.5425933"><ele>22.0</ele><time>2026-04-05T10:39:38.47Z</time></trkpt><trkpt lat="42.23351" lon="14.5427883"><ele>18.333333333333332</ele><time>2026-04-05T10:39:39.471Z</time></trkpt><trkpt lat="42.2334217" lon="14.542985"><ele>14.666666666666666</ele><time>2026-04-05T10:39:40.47Z</time></trkpt><trkpt lat="42.23333" lon="14.543185"><ele>11.0</ele><time>2026-04-05T10:39:41.471Z</time></trkpt><trkpt lat="42.2332267" lon="14.5433783"><ele>12.0</ele><time>2026-04-05T10:39:42.47Z</time></trkpt><trkpt lat="42.2331167" lon="14.543575"><ele>13.0</ele><time>2026-04-05T10:39:43.47Z</time></trkpt><trkpt lat="42.2329967" lon="14.5437717"><ele>14.0</ele><time>2026-04-05T10:39:44.475Z</time></trkpt><trkpt lat="42.232865" lon="14.5439667"><ele>14.0</ele><time>2026-04-05T10:39:45.472Z</time></trkpt><trkpt lat="42.2327217" lon="14.5441617"><ele>14.0</ele><time>2026-04-05T10:39:46.469Z</time></trkpt><trkpt lat="42.2325633" lon="14.5443667"><ele>14.0</ele><time>2026-04-05T10:39:47.472Z</time></trkpt><trkpt lat="42.23239" lon="14.5445733"><ele>17.5</ele><time>2026-04-05T10:39:48.472Z</time></trkpt><trkpt lat="42.23221" lon="14.544785"><ele>21.0</ele><time>2026-04-05T10:39:49.472Z</time></trkpt><trkpt lat="42.23204" lon="14.545005"><ele>21.0</ele><time>2026-04-05T10:39:50.473Z</time></trkpt><trkpt lat="42.2318833" lon="14.545225"><ele>21.0</ele><time>2026-04-05T10:39:51.473Z</time></trkpt><trkpt lat="42.2317317" lon="14.5454317"><ele>21.0</ele><time>2026-04-05T10:39:52.47Z</time></trkpt><trkpt lat="42.231585" lon="14.545635"><ele>19.0</ele><time>2026-04-05T10:39:53.472Z</time></trkpt><trkpt lat="42.2314367" lon="14.5458383"><ele>17.0</ele><time>2026-04-05T10:39:54.474Z</time></trkpt><trkpt lat="42.2312783" lon="14.54604"><ele>15.0</ele><time>2026-04-05T10:39:55.471Z</time></trkpt><trkpt lat="42.231115" lon="14.5462517"><ele>15.0</ele><time>2026-04-05T10:39:56.477Z</time></trkpt><trkpt lat="42.2309517" lon="14.54648"><ele>15.0</ele><time>2026-04-05T10:39:57.471Z</time></trkpt><trkpt lat="42.2308083" lon="14.54675"><ele>10.0</ele><time>2026-04-05T10:39:58.472Z</time></trkpt><trkpt lat="42.2306767" lon="14.5470633"><ele>5.0</ele><time>2026-04-05T10:39:59.471Z</time></trkpt><trkpt lat="42.2305383" lon="14.5474033"><ele>9.0</ele><time>2026-04-05T10:40:00.473Z</time></trkpt><trkpt lat="42.2303867" lon="14.547765"><ele>13.0</ele><time>2026-04-05T10:40:01.473Z</time></trkpt><trkpt lat="42.2302183" lon="14.5481417"><ele>13.0</ele><time>2026-04-05T10:40:02.473Z</time></trkpt><trkpt lat="42.2300367" lon="14.5485233"><ele>13.0</ele><time>2026-04-05T10:40:03.473Z</time></trkpt><trkpt lat="42.22986" lon="14.5488933"><ele>11.5</ele><time>2026-04-05T10:40:04.47Z</time></trkpt><trkpt lat="42.2296917" lon="14.54924"><ele>10.0</ele><time>2026-04-05T10:40:05.476Z</time></trkpt><trkpt lat="42.229535" lon="14.5495633"><ele>10.0</ele><time>2026-04-05T10:40:06.473Z</time></trkpt><trkpt lat="42.2293867" lon="14.549875"><ele>10.0</ele><time>2026-04-05T10:40:07.47Z</time></trkpt><trkpt lat="42.2292367" lon="14.5501767"><ele>7.5</ele><time>2026-04-05T10:40:08.47Z</time></trkpt><trkpt lat="42.2290967" lon="14.5504733"><ele>5.0</ele><time>2026-04-05T10:40:09.47Z</time></trkpt><trkpt lat="42.2289617" lon="14.5507583"><ele>7.5</ele><time>2026-04-05T10:40:10.472Z</time></trkpt><trkpt lat="42.2288333" lon="14.551045"><ele>10.0</ele><time>2026-04-05T10:40:11.47Z</time></trkpt><trkpt lat="42.2286917" lon="14.5513333"><ele>10.0</ele><time>2026-04-05T10:40:12.474Z</time></trkpt><trkpt lat="42.22852" lon="14.551615"><ele>10.0</ele><time>2026-04-05T10:40:13.472Z</time></trkpt><trkpt lat="42.22832" lon="14.551885"><ele>17.0</ele><time>2026-04-05T10:40:14.471Z</time></trkpt><trkpt lat="42.228125" lon="14.55218"><ele>24.0</ele><time>2026-04-05T10:40:15.472Z</time></trkpt><trkpt lat="42.2279667" lon="14.55252"><ele>24.0</ele><time>2026-04-05T10:40:16.47Z</time></trkpt><trkpt lat="42.227805" lon="14.5528533"><ele>24.0</ele><time>2026-04-05T10:40:17.47Z</time></trkpt><trkpt lat="42.2276433" lon="14.5531817"><ele>18.0</ele><time>2026-04-05T10:40:18.47Z</time></trkpt><trkpt lat="42.227485" lon="14.5535067"><ele>12.0</ele><time>2026-04-05T10:40:19.473Z</time></trkpt><trkpt lat="42.22733" lon="14.5538283"><ele>18.5</ele><time>2026-04-05T10:40:20.47Z</time></trkpt><trkpt lat="42.2271767" lon="14.5541467"><ele>25.0</ele><time>2026-04-05T10:40:21.47Z</time></trkpt><trkpt lat="42.22703" lon="14.55446"><ele>19.0</ele><time>2026-04-05T10:40:22.471Z</time></trkpt><trkpt lat="42.2268833" lon="14.55477"><ele>13.0</ele><time>2026-04-05T10:40:23.47Z</time></trkpt><trkpt lat="42.22673" lon="14.5550767"><ele>9.5</ele><time>2026-04-05T10:40:24.472Z</time></trkpt><trkpt lat="42.226585" lon="14.5553883"><ele>6.0</ele><time>2026-04-05T10:40:25.471Z</time></trkpt><trkpt lat="42.2264433" lon="14.555705"><ele>11.0</ele><time>2026-04-05T10:40:26.47Z</time></trkpt><trkpt lat="42.226315" lon="14.55603"><ele>16.0</ele><time>2026-04-05T10:40:27.47Z</time></trkpt><trkpt lat="42.2261833" lon="14.556355"><ele>16.0</ele><time>2026-04-05T10:40:28.47Z</time></trkpt><trkpt lat="42.2260483" lon="14.5566767"><ele>16.0</ele><time>2026-04-05T10:40:29.479Z</time></trkpt><trkpt lat="42.2259167" lon="14.5569967"><ele>12.5</ele><time>2026-04-05T10:40:30.476Z</time></trkpt><trkpt lat="42.2257833" lon="14.5573167"><ele>9.0</ele><time>2026-04-05T10:40:31.475Z</time></trkpt><trkpt lat="42.22565" lon="14.55764"><ele>11.0</ele><time>2026-04-05T10:40:32.475Z</time></trkpt><trkpt lat="42.2255233" lon="14.557965"><ele>13.0</ele><time>2026-04-05T10:40:33.47Z</time></trkpt><trkpt lat="42.22539" lon="14.5582883"><ele>13.0</ele><time>2026-04-05T10:40:34.471Z</time></trkpt><trkpt lat="42.2252583" lon="14.5586133"><ele>13.0</ele><time>2026-04-05T10:40:35.47Z</time></trkpt><trkpt lat="42.22513" lon="14.5589367"><ele>11.0</ele><time>2026-04-05T10:40:36.472Z</time></trkpt><trkpt lat="42.2250067" lon="14.55926"><ele>9.0</ele><time>2026-04-05T10:40:37.471Z</time></trkpt><trkpt lat="42.2248867" lon="14.5595683"><ele>13.0</ele><time>2026-04-05T10:40:38.47Z</time></trkpt><trkpt lat="42.2247733" lon="14.55985"><ele>17.0</ele><time>2026-04-05T10:40:39.47Z</time></trkpt><trkpt lat="42.2246617" lon="14.5601117"><ele>16.333333333333336</ele><time>2026-04-05T10:40:40.473Z</time></trkpt><trkpt lat="42.224545" lon="14.5603667"><ele>15.666666666666668</ele><time>2026-04-05T10:40:41.473Z</time></trkpt><trkpt lat="42.2244317" lon="14.5606167"><ele>15.0</ele><time>2026-04-05T10:40:42.473Z</time></trkpt><trkpt lat="42.2243183" lon="14.56086"><ele>15.0</ele><time>2026-04-05T10:40:43.47Z</time></trkpt><trkpt lat="42.2242167" lon="14.5610967"><ele>15.0</ele><time>2026-04-05T10:40:44.472Z</time></trkpt><trkpt lat="42.22412" lon="14.5613183"><ele>15.0</ele><time>2026-04-05T10:40:45.471Z</time></trkpt><trkpt lat="42.2240283" lon="14.5615267"><ele>15.666666666666668</ele><time>2026-04-05T10:40:46.47Z</time></trkpt><trkpt lat="42.22394" lon="14.5617233"><ele>16.333333333333336</ele><time>2026-04-05T10:40:47.471Z</time></trkpt><trkpt lat="42.2238533" lon="14.5619117"><ele>17.0</ele><time>2026-04-05T10:40:48.47Z</time></trkpt><trkpt lat="42.2237733" lon="14.5621"><ele>17.0</ele><time>2026-04-05T10:40:49.471Z</time></trkpt><trkpt lat="42.22369" lon="14.5622933"><ele>17.0</ele><time>2026-04-05T10:40:50.471Z</time></trkpt><trkpt lat="42.2236067" lon="14.5624883"><ele>17.0</ele><time>2026-04-05T10:40:51.47Z</time></trkpt><trkpt lat="42.2235183" lon="14.5626783"><ele>14.333333333333334</ele><time>2026-04-05T10:40:52.472Z</time></trkpt><trkpt lat="42.223435" lon="14.5628683"><ele>11.666666666666668</ele><time>2026-04-05T10:40:53.471Z</time></trkpt><trkpt lat="42.2233483" lon="14.5630567"><ele>9.0</ele><time>2026-04-05T10:40:54.471Z</time></trkpt><trkpt lat="42.2232617" lon="14.5632617"><ele>9.0</ele><time>2026-04-05T10:40:55.472Z</time></trkpt><trkpt lat="42.223165" lon="14.5634983"><ele>9.0</ele><time>2026-04-05T10:40:56.472Z</time></trkpt><trkpt lat="42.223055" lon="14.56377"><ele>9.0</ele><time>2026-04-05T10:40:57.472Z</time></trkpt><trkpt lat="42.2229233" lon="14.56408"><ele>11.5</ele><time>2026-04-05T10:40:58.471Z</time></trkpt><trkpt lat="42.22277" lon="14.5644267"><ele>14.0</ele><time>2026-04-05T10:40:59.473Z</time></trkpt><trkpt lat="42.2226" lon="14.5648017"><ele>14.0</ele><time>2026-04-05T10:41:00.471Z</time></trkpt><trkpt lat="42.2224133" lon="14.5652017"><ele>14.0</ele><time>2026-04-05T10:41:01.471Z</time></trkpt><trkpt lat="42.2222233" lon="14.56563"><ele>11.0</ele><time>2026-04-05T10:41:02.471Z</time></trkpt><trkpt lat="42.2220217" lon="14.566075"><ele>8.0</ele><time>2026-04-05T10:41:03.47Z</time></trkpt><trkpt lat="42.2218167" lon="14.56654"><ele>8.0</ele><time>2026-04-05T10:41:04.471Z</time></trkpt><trkpt lat="42.22161" lon="14.5670017"><ele>8.0</ele><time>2026-04-05T10:41:05.473Z</time></trkpt><trkpt lat="42.2214167" lon="14.5674367"><ele>10.5</ele><time>2026-04-05T10:41:06.471Z</time></trkpt><trkpt lat="42.22124" lon="14.5678467"><ele>13.0</ele><time>2026-04-05T10:41:07.471Z</time></trkpt><trkpt lat="42.22107" lon="14.5682217"><ele>13.0</ele><time>2026-04-05T10:41:08.471Z</time></trkpt><trkpt lat="42.2209117" lon="14.568575"><ele>13.0</ele><time>2026-04-05T10:41:09.47Z</time></trkpt><trkpt lat="42.220765" lon="14.5689117"><ele>18.5</ele><time>2026-04-05T10:41:10.47Z</time></trkpt><trkpt lat="42.2206283" lon="14.5692267"><ele>24.0</ele><time>2026-04-05T10:41:11.471Z</time></trkpt><trkpt lat="42.22049" lon="14.569525"><ele>21.0</ele><time>2026-04-05T10:41:12.471Z</time></trkpt><trkpt lat="42.2203517" lon="14.5698233"><ele>18.0</ele><time>2026-04-05T10:41:13.472Z</time></trkpt><trkpt lat="42.2201883" lon="14.5701167"><ele>20.0</ele><time>2026-04-05T10:41:14.471Z</time></trkpt><trkpt lat="42.2199917" lon="14.5703983"><ele>22.0</ele><time>2026-04-05T10:41:15.47Z</time></trkpt><trkpt lat="42.2197833" lon="14.5706867"><ele>22.0</ele><time>2026-04-05T10:41:16.471Z</time></trkpt><trkpt lat="42.2195733" lon="14.57098"><ele>22.0</ele><time>2026-04-05T10:41:17.471Z</time></trkpt><trkpt lat="42.2193783" lon="14.571265"><ele>19.5</ele><time>2026-04-05T10:41:18.472Z</time></trkpt><trkpt lat="42.2191867" lon="14.5715417"><ele>17.0</ele><time>2026-04-05T10:41:19.474Z</time></trkpt><trkpt lat="42.218995" lon="14.571815"><ele>18.5</ele><time>2026-04-05T10:41:20.471Z</time></trkpt><trkpt lat="42.2188133" lon="14.5721283"><ele>20.0</ele><time>2026-04-05T10:41:21.47Z</time></trkpt><trkpt lat="42.2186567" lon="14.5724867"><ele>19.5</ele><time>2026-04-05T10:41:22.47Z</time></trkpt><trkpt lat="42.2185233" lon="14.5728717"><ele>19.0</ele><time>2026-04-05T10:41:23.47Z</time></trkpt><trkpt lat="42.218375" lon="14.573235"><ele>19.0</ele><time>2026-04-05T10:41:24.47Z</time></trkpt><trkpt lat="42.2182383" lon="14.5735767"><ele>19.0</ele><time>2026-04-05T10:41:25.475Z</time></trkpt><trkpt lat="42.2181117" lon="14.57389"><ele>23.0</ele><time>2026-04-05T10:41:26.472Z</time></trkpt><trkpt lat="42.2179783" lon="14.574185"><ele>27.0</ele><time>2026-04-05T10:41:27.472Z</time></trkpt><trkpt lat="42.2177967" lon="14.5744517"><ele>24.0</ele><time>2026-04-05T10:41:28.47Z</time></trkpt><trkpt lat="42.21759" lon="14.5746817"><ele>21.0</ele><time>2026-04-05T10:41:29.47Z</time></trkpt><trkpt lat="42.2174017" lon="14.5748717"><ele>24.0</ele><time>2026-04-05T10:41:30.472Z</time></trkpt><trkpt lat="42.21724" lon="14.5750467"><ele>27.0</ele><time>2026-04-05T10:41:31.47Z</time></trkpt><trkpt lat="42.2171133" lon="14.5752417"><ele>30.0</ele><time>2026-04-05T10:41:32.476Z</time></trkpt><trkpt lat="42.2170233" lon="14.5754717"><ele>30.0</ele><time>2026-04-05T10:41:33.47Z</time></trkpt><trkpt lat="42.21697" lon="14.5757383"><ele>30.0</ele><time>2026-04-05T10:41:34.472Z</time></trkpt><trkpt lat="42.2169467" lon="14.576035"><ele>30.0</ele><time>2026-04-05T10:41:35.471Z</time></trkpt><trkpt lat="42.2169317" lon="14.5763433"><ele>30.0</ele><time>2026-04-05T10:41:36.473Z</time></trkpt><trkpt lat="42.216905" lon="14.5766367"><ele>30.0</ele><time>2026-04-05T10:41:37.472Z</time></trkpt><trkpt lat="42.2168533" lon="14.5769167"><ele>30.0</ele><time>2026-04-05T10:41:38.47Z</time></trkpt><trkpt lat="42.21676" lon="14.5771933"><ele>30.0</ele><time>2026-04-05T10:41:39.473Z</time></trkpt><trkpt lat="42.21663" lon="14.577485"><ele>30.0</ele><time>2026-04-05T10:41:40.47Z</time></trkpt><trkpt lat="42.2164717" lon="14.5778"><ele>26.0</ele><time>2026-04-05T10:41:41.471Z</time></trkpt><trkpt lat="42.2162983" lon="14.5781433"><ele>22.0</ele><time>2026-04-05T10:41:42.472Z</time></trkpt><trkpt lat="42.216115" lon="14.5785117"><ele>21.0</ele><time>2026-04-05T10:41:43.47Z</time></trkpt><trkpt lat="42.2159217" lon="14.578895"><ele>20.0</ele><time>2026-04-05T10:41:44.472Z</time></trkpt><trkpt lat="42.2157417" lon="14.5792717"><ele>21.5</ele><time>2026-04-05T10:41:45.47Z</time></trkpt><trkpt lat="42.215575" lon="14.5796133"><ele>23.0</ele><time>2026-04-05T10:41:46.47Z</time></trkpt><trkpt lat="42.2154183" lon="14.57993"><ele>23.0</ele><time>2026-04-05T10:41:47.474Z</time></trkpt><trkpt lat="42.2152633" lon="14.5802317"><ele>23.0</ele><time>2026-04-05T10:41:48.471Z</time></trkpt><trkpt lat="42.21511" lon="14.5805333"><ele>21.0</ele><time>2026-04-05T10:41:49.47Z</time></trkpt><trkpt lat="42.2149567" lon="14.5808417"><ele>19.0</ele><time>2026-04-05T10:41:50.473Z</time></trkpt><trkpt lat="42.2148033" lon="14.581145"><ele>22.0</ele><time>2026-04-05T10:41:51.471Z</time></trkpt><trkpt lat="42.2146533" lon="14.58143"><ele>25.0</ele><time>2026-04-05T10:41:52.47Z</time></trkpt><trkpt lat="42.2145167" lon="14.5816933"><ele>25.0</ele><time>2026-04-05T10:41:53.471Z</time></trkpt><trkpt lat="42.2143917" lon="14.5819417"><ele>25.0</ele><time>2026-04-05T10:41:54.471Z</time></trkpt><trkpt lat="42.214275" lon="14.58218"><ele>25.0</ele><time>2026-04-05T10:41:55.471Z</time></trkpt><trkpt lat="42.2141633" lon="14.5824167"><ele>25.0</ele><time>2026-04-05T10:41:56.472Z</time></trkpt><trkpt lat="42.21405" lon="14.5826333"><ele>25.0</ele><time>2026-04-05T10:41:57.47Z</time></trkpt><trkpt lat="42.2139417" lon="14.58283"><ele>25.0</ele><time>2026-04-05T10:41:58.476Z</time></trkpt><trkpt lat="42.213835" lon="14.5830167"><ele>25.0</ele><time>2026-04-05T10:41:59.469Z</time></trkpt><trkpt lat="42.2137367" lon="14.5832433"><ele>25.0</ele><time>2026-04-05T10:42:00.472Z</time></trkpt><trkpt lat="42.2136283" lon="14.5834883"><ele>25.0</ele><time>2026-04-05T10:42:01.471Z</time></trkpt><trkpt lat="42.2135217" lon="14.5837133"><ele>24.0</ele><time>2026-04-05T10:42:02.473Z</time></trkpt><trkpt lat="42.21343" lon="14.5839333"><ele>23.0</ele><time>2026-04-05T10:42:03.471Z</time></trkpt><trkpt lat="42.2133467" lon="14.5841633"><ele>22.0</ele><time>2026-04-05T10:42:04.47Z</time></trkpt><trkpt lat="42.21326" lon="14.5844283"><ele>22.0</ele><time>2026-04-05T10:42:05.472Z</time></trkpt><trkpt lat="42.2131567" lon="14.5847117"><ele>22.0</ele><time>2026-04-05T10:42:06.472Z</time></trkpt><trkpt lat="42.213045" lon="14.58498"><ele>22.0</ele><time>2026-04-05T10:42:07.472Z</time></trkpt><trkpt lat="42.2129383" lon="14.5852317"><ele>22.0</ele><time>2026-04-05T10:42:08.471Z</time></trkpt><trkpt lat="42.2128383" lon="14.5854817"><ele>22.0</ele><time>2026-04-05T10:42:09.472Z</time></trkpt><trkpt lat="42.2127183" lon="14.5857433"><ele>19.0</ele><time>2026-04-05T10:42:10.472Z</time></trkpt><trkpt lat="42.2125717" lon="14.5860317"><ele>16.0</ele><time>2026-04-05T10:42:11.472Z</time></trkpt><trkpt lat="42.21238" lon="14.5863333"><ele>18.0</ele><time>2026-04-05T10:42:12.474Z</time></trkpt><trkpt lat="42.21217" lon="14.586665"><ele>20.0</ele><time>2026-04-05T10:42:13.471Z</time></trkpt><trkpt lat="42.2119817" lon="14.5870517"><ele>20.0</ele><time>2026-04-05T10:42:14.472Z</time></trkpt><trkpt lat="42.2118133" lon="14.5874767"><ele>20.0</ele><time>2026-04-05T10:42:15.473Z</time></trkpt><trkpt lat="42.2116517" lon="14.5878933"><ele>26.5</ele><time>2026-04-05T10:42:16.471Z</time></trkpt><trkpt lat="42.21149" lon="14.5882833"><ele>33.0</ele><time>2026-04-05T10:42:17.471Z</time></trkpt><trkpt lat="42.2113267" lon="14.5886683"><ele>28.5</ele><time>2026-04-05T10:42:18.475Z</time></trkpt><trkpt lat="42.211135" lon="14.5890417"><ele>24.0</ele><time>2026-04-05T10:42:19.472Z</time></trkpt><trkpt lat="42.2109133" lon="14.5894067"><ele>27.5</ele><time>2026-04-05T10:42:20.472Z</time></trkpt><trkpt lat="42.2107" lon="14.589795"><ele>31.0</ele><time>2026-04-05T10:42:21.472Z</time></trkpt><trkpt lat="42.2104867" lon="14.5901983"><ele>27.0</ele><time>2026-04-05T10:42:22.473Z</time></trkpt><trkpt lat="42.2102683" lon="14.5906117"><ele>23.0</ele><time>2026-04-05T10:42:23.471Z</time></trkpt><trkpt lat="42.2100567" lon="14.5910133"><ele>19.0</ele><time>2026-04-05T10:42:24.474Z</time></trkpt><trkpt lat="42.20986" lon="14.5913883"><ele>15.0</ele><time>2026-04-05T10:42:25.473Z</time></trkpt><trkpt lat="42.2096833" lon="14.591735"><ele>19.5</ele><time>2026-04-05T10:42:26.473Z</time></trkpt><trkpt lat="42.209515" lon="14.592055"><ele>24.0</ele><time>2026-04-05T10:42:27.471Z</time></trkpt><trkpt lat="42.2093483" lon="14.5923467"><ele>24.0</ele><time>2026-04-05T10:42:28.472Z</time></trkpt><trkpt lat="42.209175" lon="14.5926117"><ele>24.0</ele><time>2026-04-05T10:42:29.471Z</time></trkpt><trkpt lat="42.208985" lon="14.59286"><ele>21.5</ele><time>2026-04-05T10:42:30.472Z</time></trkpt><trkpt lat="42.208775" lon="14.5931"><ele>19.0</ele><time>2026-04-05T10:42:31.471Z</time></trkpt><trkpt lat="42.208555" lon="14.593335"><ele>19.0</ele><time>2026-04-05T10:42:32.471Z</time></trkpt><trkpt lat="42.2083367" lon="14.5935633"><ele>19.0</ele><time>2026-04-05T10:42:33.471Z</time></trkpt><trkpt lat="42.2081283" lon="14.59379"><ele>20.0</ele><time>2026-04-05T10:42:34.473Z</time></trkpt><trkpt lat="42.20792" lon="14.594015"><ele>21.0</ele><time>2026-04-05T10:42:35.475Z</time></trkpt><trkpt lat="42.2077083" lon="14.59424"><ele>21.0</ele><time>2026-04-05T10:42:36.472Z</time></trkpt><trkpt lat="42.2074817" lon="14.5944533"><ele>21.0</ele><time>2026-04-05T10:42:37.472Z</time></trkpt><trkpt lat="42.2072517" lon="14.5946533"><ele>19.0</ele><time>2026-04-05T10:42:38.472Z</time></trkpt><trkpt lat="42.2070233" lon="14.5948317"><ele>17.0</ele><time>2026-04-05T10:42:39.471Z</time></trkpt><trkpt lat="42.2068083" lon="14.5949883"><ele>17.0</ele><time>2026-04-05T10:42:40.474Z</time></trkpt><trkpt lat="42.2066133" lon="14.5951233"><ele>17.0</ele><time>2026-04-05T10:42:41.472Z</time></trkpt><trkpt lat="42.20643" lon="14.5952517"><ele>17.0</ele><time>2026-04-05T10:42:42.472Z</time></trkpt><trkpt lat="42.2062567" lon="14.5953683"><ele>15.333333333333334</ele><time>2026-04-05T10:42:43.472Z</time></trkpt><trkpt lat="42.2060917" lon="14.595475"><ele>13.666666666666668</ele><time>2026-04-05T10:42:44.473Z</time></trkpt><trkpt lat="42.20594" lon="14.5955767"><ele>12.0</ele><time>2026-04-05T10:42:45.47Z</time></trkpt><trkpt lat="42.2058017" lon="14.5956683"><ele>12.0</ele><time>2026-04-05T10:42:46.474Z</time></trkpt><trkpt lat="42.2056767" lon="14.5957517"><ele>12.0</ele><time>2026-04-05T10:42:47.469Z</time></trkpt><trkpt lat="42.2055617" lon="14.5958283"><ele>12.0</ele><time>2026-04-05T10:42:48.469Z</time></trkpt><trkpt lat="42.2054517" lon="14.5959"><ele>12.0</ele><time>2026-04-05T10:42:49.469Z</time></trkpt><trkpt lat="42.205345" lon="14.5959683"><ele>12.0</ele><time>2026-04-05T10:42:50.47Z</time></trkpt><trkpt lat="42.2052417" lon="14.5960367"><ele>12.0</ele><time>2026-04-05T10:42:51.469Z</time></trkpt><trkpt lat="42.205135" lon="14.5961083"><ele>12.0</ele><time>2026-04-05T10:42:52.474Z</time></trkpt><trkpt lat="42.2050267" lon="14.5961817"><ele>12.0</ele><time>2026-04-05T10:42:53.469Z</time></trkpt><trkpt lat="42.2049183" lon="14.5962517"><ele>11.166666666666666</ele><time>2026-04-05T10:42:54.47Z</time></trkpt><trkpt lat="42.2048217" lon="14.596315"><ele>10.333333333333334</ele><time>2026-04-05T10:42:55.469Z</time></trkpt><trkpt lat="42.204735" lon="14.5963633"><ele>9.5</ele><time>2026-04-05T10:42:56.47Z</time></trkpt><trkpt lat="42.204655" lon="14.596395"><ele>8.666666666666668</ele><time>2026-04-05T10:42:57.471Z</time></trkpt><trkpt lat="42.2045833" lon="14.5964133"><ele>7.833333333333334</ele><time>2026-04-05T10:42:58.471Z</time></trkpt><trkpt lat="42.204515" lon="14.5964133"><ele>7.0</ele><time>2026-04-05T10:42:59.47Z</time></trkpt><trkpt lat="42.204395" lon="14.5964467"><ele>7.0</ele><time>2026-04-05T10:43:01.47Z</time></trkpt><trkpt lat="42.2043383" lon="14.5965117"><ele>6.999999999999999</ele><time>2026-04-05T10:43:02.469Z</time></trkpt><trkpt lat="42.20428" lon="14.5966217"><ele>6.999999999999999</ele><time>2026-04-05T10:43:03.469Z</time></trkpt><trkpt lat="42.204185" lon="14.5967333"><ele>7.0</ele><time>2026-04-05T10:43:04.47Z</time></trkpt><trkpt lat="42.2040583" lon="14.5968233"><ele>7.0</ele><time>2026-04-05T10:43:05.47Z</time></trkpt><trkpt lat="42.2039" lon="14.596925"><ele>6.5</ele><time>2026-04-05T10:43:06.471Z</time></trkpt><trkpt lat="42.2036967" lon="14.5970633"><ele>6.0</ele><time>2026-04-05T10:43:07.47Z</time></trkpt><trkpt lat="42.2034467" lon="14.5972217"><ele>5.0</ele><time>2026-04-05T10:43:08.472Z</time></trkpt><trkpt lat="42.2031617" lon="14.5973967"><ele>4.0</ele><time>2026-04-05T10:43:09.474Z</time></trkpt><trkpt lat="42.2028583" lon="14.5976033"><ele>4.0</ele><time>2026-04-05T10:43:10.473Z</time></trkpt><trkpt lat="42.2025433" lon="14.5978333"><ele>4.0</ele><time>2026-04-05T10:43:11.472Z</time></trkpt><trkpt lat="42.2022333" lon="14.598045"><ele>5.0</ele><time>2026-04-05T10:43:12.472Z</time></trkpt><trkpt lat="42.2019333" lon="14.59824"><ele>6.0</ele><time>2026-04-05T10:43:13.47Z</time></trkpt><trkpt lat="42.2016267" lon="14.5984467"><ele>5.5</ele><time>2026-04-05T10:43:14.47Z</time></trkpt><trkpt lat="42.20132" lon="14.598715"><ele>5.0</ele><time>2026-04-05T10:43:15.47Z</time></trkpt><trkpt lat="42.2010033" lon="14.5990117"><ele>5.0</ele><time>2026-04-05T10:43:16.471Z</time></trkpt><trkpt lat="42.2006817" lon="14.5992967"><ele>5.0</ele><time>2026-04-05T10:43:17.471Z</time></trkpt><trkpt lat="42.2003817" lon="14.5995483"><ele>6.5</ele><time>2026-04-05T10:43:18.472Z</time></trkpt><trkpt lat="42.2001167" lon="14.59976"><ele>8.0</ele><time>2026-04-05T10:43:19.471Z</time></trkpt><trkpt lat="42.199875" lon="14.599955"><ele>9.5</ele><time>2026-04-05T10:43:20.471Z</time></trkpt><trkpt lat="42.1996583" lon="14.60017"><ele>11.0</ele><time>2026-04-05T10:43:21.475Z</time></trkpt><trkpt lat="42.1994533" lon="14.6004267"><ele>11.0</ele><time>2026-04-05T10:43:22.472Z</time></trkpt><trkpt lat="42.1992783" lon="14.6007317"><ele>11.0</ele><time>2026-04-05T10:43:23.473Z</time></trkpt><trkpt lat="42.1991367" lon="14.6010483"><ele>10.0</ele><time>2026-04-05T10:43:24.471Z</time></trkpt><trkpt lat="42.1990283" lon="14.6013917"><ele>9.0</ele><time>2026-04-05T10:43:25.471Z</time></trkpt><trkpt lat="42.198945" lon="14.60178"><ele>12.0</ele><time>2026-04-05T10:43:26.472Z</time></trkpt><trkpt lat="42.198875" lon="14.6022117"><ele>15.0</ele><time>2026-04-05T10:43:27.472Z</time></trkpt><trkpt lat="42.1988067" lon="14.6026817"><ele>16.0</ele><time>2026-04-05T10:43:28.472Z</time></trkpt><trkpt lat="42.198735" lon="14.603175"><ele>17.0</ele><time>2026-04-05T10:43:29.471Z</time></trkpt><trkpt lat="42.1986667" lon="14.60365"><ele>17.0</ele><time>2026-04-05T10:43:30.471Z</time></trkpt><trkpt lat="42.1985983" lon="14.604085"><ele>17.0</ele><time>2026-04-05T10:43:31.471Z</time></trkpt><trkpt lat="42.1985417" lon="14.6045183"><ele>18.0</ele><time>2026-04-05T10:43:32.472Z</time></trkpt><trkpt lat="42.19854" lon="14.604975"><ele>19.0</ele><time>2026-04-05T10:43:33.472Z</time></trkpt><trkpt lat="42.1985883" lon="14.60545"><ele>19.0</ele><time>2026-04-05T10:43:34.473Z</time></trkpt><trkpt lat="42.1986767" lon="14.605935"><ele>19.0</ele><time>2026-04-05T10:43:35.472Z</time></trkpt><trkpt lat="42.1987867" lon="14.6064317"><ele>19.0</ele><time>2026-04-05T10:43:36.472Z</time></trkpt><trkpt lat="42.19891" lon="14.6069433"><ele>19.0</ele><time>2026-04-05T10:43:37.47Z</time></trkpt><trkpt lat="42.1990383" lon="14.60747"><ele>16.5</ele><time>2026-04-05T10:43:38.471Z</time></trkpt><trkpt lat="42.19915" lon="14.6080217"><ele>14.0</ele><time>2026-04-05T10:43:39.472Z</time></trkpt><trkpt lat="42.1992667" lon="14.6085583"><ele>16.5</ele><time>2026-04-05T10:43:40.471Z</time></trkpt><trkpt lat="42.19937" lon="14.609065"><ele>19.0</ele><time>2026-04-05T10:43:41.472Z</time></trkpt><trkpt lat="42.1994783" lon="14.6095283"><ele>20.0</ele><time>2026-04-05T10:43:42.47Z</time></trkpt><trkpt lat="42.1995817" lon="14.6099433"><ele>21.0</ele><time>2026-04-05T10:43:43.471Z</time></trkpt><trkpt lat="42.1996717" lon="14.6103133"><ele>22.0</ele><time>2026-04-05T10:43:44.47Z</time></trkpt><trkpt lat="42.1997583" lon="14.61066"><ele>23.0</ele><time>2026-04-05T10:43:45.474Z</time></trkpt><trkpt lat="42.1998367" lon="14.6109983"><ele>17.5</ele><time>2026-04-05T10:43:46.476Z</time></trkpt><trkpt lat="42.19991" lon="14.6113533"><ele>12.0</ele><time>2026-04-05T10:43:47.472Z</time></trkpt><trkpt lat="42.1999633" lon="14.6117267"><ele>12.5</ele><time>2026-04-05T10:43:48.471Z</time></trkpt><trkpt lat="42.1999967" lon="14.612115"><ele>13.0</ele><time>2026-04-05T10:43:49.472Z</time></trkpt><trkpt lat="42.2000017" lon="14.612495"><ele>13.5</ele><time>2026-04-05T10:43:50.473Z</time></trkpt><trkpt lat="42.1999767" lon="14.6128517"><ele>14.0</ele><time>2026-04-05T10:43:51.471Z</time></trkpt><trkpt lat="42.19993" lon="14.6131783"><ele>14.0</ele><time>2026-04-05T10:43:52.474Z</time></trkpt><trkpt lat="42.199865" lon="14.613475"><ele>14.0</ele><time>2026-04-05T10:43:53.472Z</time></trkpt><trkpt lat="42.1997883" lon="14.613745"><ele>14.0</ele><time>2026-04-05T10:43:54.471Z</time></trkpt><trkpt lat="42.1996967" lon="14.6139917"><ele>16.333333333333336</ele><time>2026-04-05T10:43:55.472Z</time></trkpt><trkpt lat="42.1995983" lon="14.6142233"><ele>18.666666666666668</ele><time>2026-04-05T10:43:56.473Z</time></trkpt><trkpt lat="42.1994967" lon="14.614445"><ele>21.0</ele><time>2026-04-05T10:43:57.47Z</time></trkpt><trkpt lat="42.1993933" lon="14.6146517"><ele>21.0</ele><time>2026-04-05T10:43:58.474Z</time></trkpt><trkpt lat="42.1992917" lon="14.614855"><ele>21.0</ele><time>2026-04-05T10:43:59.471Z</time></trkpt><trkpt lat="42.1991833" lon="14.6150783"><ele>21.0</ele><time>2026-04-05T10:44:00.472Z</time></trkpt><trkpt lat="42.1990567" lon="14.615335"><ele>25.5</ele><time>2026-04-05T10:44:01.472Z</time></trkpt><trkpt lat="42.198905" lon="14.61562"><ele>30.0</ele><time>2026-04-05T10:44:02.471Z</time></trkpt><trkpt lat="42.1987183" lon="14.6159267"><ele>24.5</ele><time>2026-04-05T10:44:03.472Z</time></trkpt><trkpt lat="42.198525" lon="14.616275"><ele>19.0</ele><time>2026-04-05T10:44:04.47Z</time></trkpt><trkpt lat="42.19833" lon="14.6166433"><ele>25.5</ele><time>2026-04-05T10:44:05.472Z</time></trkpt><trkpt lat="42.1981383" lon="14.6170083"><ele>32.0</ele><time>2026-04-05T10:44:06.47Z</time></trkpt><trkpt lat="42.1979467" lon="14.617365"><ele>32.0</ele><time>2026-04-05T10:44:07.472Z</time></trkpt><trkpt lat="42.19777" lon="14.6177483"><ele>32.0</ele><time>2026-04-05T10:44:08.474Z</time></trkpt><trkpt lat="42.1976383" lon="14.6181783"><ele>28.5</ele><time>2026-04-05T10:44:09.47Z</time></trkpt><trkpt lat="42.1975317" lon="14.6186467"><ele>25.0</ele><time>2026-04-05T10:44:10.472Z</time></trkpt><trkpt lat="42.197445" lon="14.619145"><ele>26.0</ele><time>2026-04-05T10:44:11.471Z</time></trkpt><trkpt lat="42.1973617" lon="14.6196683"><ele>27.0</ele><time>2026-04-05T10:44:12.471Z</time></trkpt><trkpt lat="42.197275" lon="14.6202017"><ele>25.5</ele><time>2026-04-05T10:44:13.472Z</time></trkpt><trkpt lat="42.1971917" lon="14.6207167"><ele>24.0</ele><time>2026-04-05T10:44:14.47Z</time></trkpt><trkpt lat="42.1971167" lon="14.621185"><ele>22.0</ele><time>2026-04-05T10:44:15.471Z</time></trkpt><trkpt lat="42.1970483" lon="14.6216033"><ele>20.0</ele><time>2026-04-05T10:44:16.472Z</time></trkpt><trkpt lat="42.1969917" lon="14.6219783"><ele>19.0</ele><time>2026-04-05T10:44:17.474Z</time></trkpt><trkpt lat="42.19693" lon="14.6223217"><ele>18.0</ele><time>2026-04-05T10:44:18.474Z</time></trkpt><trkpt lat="42.1968583" lon="14.6226417"><ele>16.5</ele><time>2026-04-05T10:44:19.471Z</time></trkpt><trkpt lat="42.1967417" lon="14.6229367"><ele>15.0</ele><time>2026-04-05T10:44:20.472Z</time></trkpt><trkpt lat="42.1965933" lon="14.6232117"><ele>14.0</ele><time>2026-04-05T10:44:21.471Z</time></trkpt><trkpt lat="42.19641" lon="14.6234667"><ele>13.0</ele><time>2026-04-05T10:44:22.471Z</time></trkpt><trkpt lat="42.1961917" lon="14.6237"><ele>12.0</ele><time>2026-04-05T10:44:23.47Z</time></trkpt><trkpt lat="42.195945" lon="14.6239067"><ele>11.0</ele><time>2026-04-05T10:44:24.471Z</time></trkpt><trkpt lat="42.1956967" lon="14.6240767"><ele>11.5</ele><time>2026-04-05T10:44:25.47Z</time></trkpt><trkpt lat="42.1954767" lon="14.6242233"><ele>12.0</ele><time>2026-04-05T10:44:26.471Z</time></trkpt><trkpt lat="42.195285" lon="14.6243767"><ele>11.333333333333334</ele><time>2026-04-05T10:44:27.47Z</time></trkpt><trkpt lat="42.1951267" lon="14.6245767"><ele>10.666666666666668</ele><time>2026-04-05T10:44:28.472Z</time></trkpt><trkpt lat="42.195" lon="14.6248283"><ele>10.0</ele><time>2026-04-05T10:44:29.472Z</time></trkpt><trkpt lat="42.1948967" lon="14.6251367"><ele>10.5</ele><time>2026-04-05T10:44:30.471Z</time></trkpt><trkpt lat="42.1948183" lon="14.6255017"><ele>11.0</ele><time>2026-04-05T10:44:31.473Z</time></trkpt><trkpt lat="42.19474" lon="14.625875"><ele>12.0</ele><time>2026-04-05T10:44:32.856Z</time></trkpt><trkpt lat="42.1946033" lon="14.626475"><ele>12.0</ele><time>2026-04-05T10:44:34.473Z</time></trkpt><trkpt lat="42.19455" lon="14.6266883"><ele>12.0</ele><time>2026-04-05T10:44:35.472Z</time></trkpt><trkpt lat="42.1945017" lon="14.6268567"><ele>12.0</ele><time>2026-04-05T10:44:36.471Z</time></trkpt><trkpt lat="42.19442" lon="14.6269683"><ele>12.0</ele><time>2026-04-05T10:44:37.475Z</time></trkpt><trkpt lat="42.194325" lon="14.627045"><ele>11.6</ele><time>2026-04-05T10:44:38.471Z</time></trkpt><trkpt lat="42.19423" lon="14.62712"><ele>11.2</ele><time>2026-04-05T10:44:39.47Z</time></trkpt><trkpt lat="42.1941733" lon="14.627225"><ele>10.8</ele><time>2026-04-05T10:44:40.468Z</time></trkpt><trkpt lat="42.1941567" lon="14.6273467"><ele>10.4</ele><time>2026-04-05T10:44:41.471Z</time></trkpt><trkpt lat="42.1941717" lon="14.6274817"><ele>10.0</ele><time>2026-04-05T10:44:42.47Z</time></trkpt><trkpt lat="42.1942083" lon="14.6276217"><ele>10.0</ele><time>2026-04-05T10:44:43.47Z</time></trkpt><trkpt lat="42.1942433" lon="14.6277667"><ele>10.0</ele><time>2026-04-05T10:44:44.474Z</time></trkpt><trkpt lat="42.1942483" lon="14.6279367"><ele>10.0</ele><time>2026-04-05T10:44:45.471Z</time></trkpt><trkpt lat="42.1942133" lon="14.6281683"><ele>10.0</ele><time>2026-04-05T10:44:46.469Z</time></trkpt><trkpt lat="42.1941483" lon="14.6284717"><ele>9.0</ele><time>2026-04-05T10:44:47.471Z</time></trkpt><trkpt lat="42.1940683" lon="14.6288283"><ele>8.0</ele><time>2026-04-05T10:44:48.472Z</time></trkpt><trkpt lat="42.1939867" lon="14.62919"><ele>16.5</ele><time>2026-04-05T10:44:49.472Z</time></trkpt><trkpt lat="42.1939133" lon="14.6295167"><ele>25.0</ele><time>2026-04-05T10:44:50.475Z</time></trkpt><trkpt lat="42.1938483" lon="14.62981"><ele>25.0</ele><time>2026-04-05T10:44:51.473Z</time></trkpt><trkpt lat="42.1937867" lon="14.6300767"><ele>25.0</ele><time>2026-04-05T10:44:52.472Z</time></trkpt><trkpt lat="42.1937283" lon="14.6303367"><ele>25.0</ele><time>2026-04-05T10:44:53.473Z</time></trkpt><trkpt lat="42.193665" lon="14.6306367"><ele>19.5</ele><time>2026-04-05T10:44:54.471Z</time></trkpt><trkpt lat="42.1935833" lon="14.6309883"><ele>14.0</ele><time>2026-04-05T10:44:55.475Z</time></trkpt><trkpt lat="42.1934883" lon="14.6313633"><ele>12.5</ele><time>2026-04-05T10:44:56.475Z</time></trkpt><trkpt lat="42.1934033" lon="14.63171"><ele>11.0</ele><time>2026-04-05T10:44:57.471Z</time></trkpt><trkpt lat="42.19333" lon="14.631995"><ele>10.666666666666666</ele><time>2026-04-05T10:44:58.473Z</time></trkpt><trkpt lat="42.1932517" lon="14.6322367"><ele>10.333333333333334</ele><time>2026-04-05T10:44:59.472Z</time></trkpt><trkpt lat="42.19315" lon="14.6324433"><ele>10.0</ele><time>2026-04-05T10:45:00.473Z</time></trkpt><trkpt lat="42.1930233" lon="14.6326233"><ele>11.333333333333334</ele><time>2026-04-05T10:45:01.473Z</time></trkpt><trkpt lat="42.192875" lon="14.6327717"><ele>12.666666666666668</ele><time>2026-04-05T10:45:02.471Z</time></trkpt><trkpt lat="42.192705" lon="14.6328833"><ele>14.0</ele><time>2026-04-05T10:45:03.471Z</time></trkpt><trkpt lat="42.1924967" lon="14.6329633"><ele>12.5</ele><time>2026-04-05T10:45:04.472Z</time></trkpt><trkpt lat="42.19224" lon="14.63302"><ele>11.0</ele><time>2026-04-05T10:45:05.472Z</time></trkpt><trkpt lat="42.1919433" lon="14.6330767"><ele>11.0</ele><time>2026-04-05T10:45:06.473Z</time></trkpt><trkpt lat="42.19162" lon="14.6331317"><ele>11.0</ele><time>2026-04-05T10:45:07.473Z</time></trkpt><trkpt lat="42.1912733" lon="14.6331883"><ele>12.5</ele><time>2026-04-05T10:45:08.475Z</time></trkpt><trkpt lat="42.1909033" lon="14.6332533"><ele>14.0</ele><time>2026-04-05T10:45:09.473Z</time></trkpt><trkpt lat="42.1905133" lon="14.6333233"><ele>16.5</ele><time>2026-04-05T10:45:10.472Z</time></trkpt><trkpt lat="42.1901083" lon="14.6333933"><ele>19.0</ele><time>2026-04-05T10:45:11.473Z</time></trkpt><trkpt lat="42.18969" lon="14.63347"><ele>19.0</ele><time>2026-04-05T10:45:12.473Z</time></trkpt><trkpt lat="42.1892583" lon="14.6335483"><ele>19.0</ele><time>2026-04-05T10:45:13.473Z</time></trkpt><trkpt lat="42.1888167" lon="14.633625"><ele>12.0</ele><time>2026-04-05T10:45:14.472Z</time></trkpt><trkpt lat="42.188365" lon="14.6337033"><ele>12.0</ele><time>2026-04-05T10:45:15.472Z</time></trkpt><trkpt lat="42.1879017" lon="14.6337817"><ele>12.0</ele><time>2026-04-05T10:45:16.473Z</time></trkpt><trkpt lat="42.1874333" lon="14.6338633"><ele>12.0</ele><time>2026-04-05T10:45:17.471Z</time></trkpt><trkpt lat="42.1869733" lon="14.6339417"><ele>12.0</ele><time>2026-04-05T10:45:18.473Z</time></trkpt><trkpt lat="42.18654" lon="14.6340183"><ele>12.0</ele><time>2026-04-05T10:45:19.472Z</time></trkpt><trkpt lat="42.1861367" lon="14.6340867"><ele>12.5</ele><time>2026-04-05T10:45:20.472Z</time></trkpt><trkpt lat="42.1857583" lon="14.6341517"><ele>13.0</ele><time>2026-04-05T10:45:21.475Z</time></trkpt><trkpt lat="42.1854083" lon="14.6342067"><ele>13.5</ele><time>2026-04-05T10:45:22.472Z</time></trkpt><trkpt lat="42.1850783" lon="14.63426"><ele>14.0</ele><time>2026-04-05T10:45:23.472Z</time></trkpt><trkpt lat="42.1847817" lon="14.6343183"><ele>14.0</ele><time>2026-04-05T10:45:24.472Z</time></trkpt><trkpt lat="42.184515" lon="14.63439"><ele>14.0</ele><time>2026-04-05T10:45:25.474Z</time></trkpt><trkpt lat="42.18427" lon="14.6344767"><ele>13.333333333333334</ele><time>2026-04-05T10:45:26.475Z</time></trkpt><trkpt lat="42.1840533" lon="14.6345667"><ele>12.666666666666668</ele><time>2026-04-05T10:45:27.472Z</time></trkpt><trkpt lat="42.1838667" lon="14.6346567"><ele>12.0</ele><time>2026-04-05T10:45:28.471Z</time></trkpt><trkpt lat="42.183695" lon="14.6347467"><ele>12.0</ele><time>2026-04-05T10:45:29.473Z</time></trkpt><trkpt lat="42.18353" lon="14.63484"><ele>12.0</ele><time>2026-04-05T10:45:30.472Z</time></trkpt><trkpt lat="42.1833683" lon="14.6349383"><ele>12.0</ele><time>2026-04-05T10:45:31.47Z</time></trkpt><trkpt lat="42.1831983" lon="14.6350467"><ele>12.666666666666668</ele><time>2026-04-05T10:45:32.473Z</time></trkpt><trkpt lat="42.1830233" lon="14.6351617"><ele>13.333333333333334</ele><time>2026-04-05T10:45:33.473Z</time></trkpt><trkpt lat="42.1828467" lon="14.6352817"><ele>14.0</ele><time>2026-04-05T10:45:34.473Z</time></trkpt><trkpt lat="42.1826717" lon="14.6354017"><ele>14.666666666666668</ele><time>2026-04-05T10:45:35.472Z</time></trkpt><trkpt lat="42.1825" lon="14.6355167"><ele>15.333333333333332</ele><time>2026-04-05T10:45:36.473Z</time></trkpt><trkpt lat="42.1823317" lon="14.6356267"><ele>16.0</ele><time>2026-04-05T10:45:37.471Z</time></trkpt><trkpt lat="42.1821667" lon="14.6357333"><ele>16.0</ele><time>2026-04-05T10:45:38.472Z</time></trkpt><trkpt lat="42.1820033" lon="14.6358417"><ele>16.0</ele><time>2026-04-05T10:45:39.472Z</time></trkpt><trkpt lat="42.1818383" lon="14.6359517"><ele>16.0</ele><time>2026-04-05T10:45:40.471Z</time></trkpt><trkpt lat="42.1816533" lon="14.6360817"><ele>15.5</ele><time>2026-04-05T10:45:41.474Z</time></trkpt><trkpt lat="42.1814367" lon="14.6362333"><ele>15.0</ele><time>2026-04-05T10:45:42.472Z</time></trkpt><trkpt lat="42.18118" lon="14.6364033"><ele>15.0</ele><time>2026-04-05T10:45:43.473Z</time></trkpt><trkpt lat="42.18089" lon="14.6366"><ele>15.0</ele><time>2026-04-05T10:45:44.471Z</time></trkpt><trkpt lat="42.1805833" lon="14.6368217"><ele>15.0</ele><time>2026-04-05T10:45:45.472Z</time></trkpt><trkpt lat="42.1802583" lon="14.6370433"><ele>15.0</ele><time>2026-04-05T10:45:46.471Z</time></trkpt><trkpt lat="42.17994" lon="14.6372533"><ele>16.0</ele><time>2026-04-05T10:45:47.47Z</time></trkpt><trkpt lat="42.1796367" lon="14.6374567"><ele>17.0</ele><time>2026-04-05T10:45:48.475Z</time></trkpt><trkpt lat="42.1793283" lon="14.6376617"><ele>15.0</ele><time>2026-04-05T10:45:49.471Z</time></trkpt><trkpt lat="42.179015" lon="14.6378633"><ele>13.0</ele><time>2026-04-05T10:45:50.476Z</time></trkpt><trkpt lat="42.1786983" lon="14.6380333"><ele>13.0</ele><time>2026-04-05T10:45:51.471Z</time></trkpt><trkpt lat="42.1783833" lon="14.6381567"><ele>13.0</ele><time>2026-04-05T10:45:52.47Z</time></trkpt><trkpt lat="42.1780667" lon="14.6382417"><ele>13.5</ele><time>2026-04-05T10:45:53.472Z</time></trkpt><trkpt lat="42.1777583" lon="14.6383"><ele>14.0</ele><time>2026-04-05T10:45:54.473Z</time></trkpt><trkpt lat="42.1774717" lon="14.6383517"><ele>15.0</ele><time>2026-04-05T10:45:55.473Z</time></trkpt><trkpt lat="42.1772033" lon="14.6383983"><ele>16.0</ele><time>2026-04-05T10:45:56.471Z</time></trkpt><trkpt lat="42.176945" lon="14.6384417"><ele>16.0</ele><time>2026-04-05T10:45:57.471Z</time></trkpt><trkpt lat="42.1766917" lon="14.6384833"><ele>16.0</ele><time>2026-04-05T10:45:58.47Z</time></trkpt><trkpt lat="42.1764383" lon="14.638525"><ele>16.5</ele><time>2026-04-05T10:45:59.472Z</time></trkpt><trkpt lat="42.1761917" lon="14.6385667"><ele>17.0</ele><time>2026-04-05T10:46:00.471Z</time></trkpt><trkpt lat="42.1759417" lon="14.6386067"><ele>16.0</ele><time>2026-04-05T10:46:01.471Z</time></trkpt><trkpt lat="42.1756933" lon="14.6386467"><ele>15.0</ele><time>2026-04-05T10:46:02.471Z</time></trkpt><trkpt lat="42.1754517" lon="14.6386883"><ele>15.0</ele><time>2026-04-05T10:46:03.472Z</time></trkpt><trkpt lat="42.1752233" lon="14.638725"><ele>15.0</ele><time>2026-04-05T10:46:04.47Z</time></trkpt><trkpt lat="42.17501" lon="14.63876"><ele>15.0</ele><time>2026-04-05T10:46:05.473Z</time></trkpt><trkpt lat="42.1748133" lon="14.63879"><ele>14.666666666666668</ele><time>2026-04-05T10:46:06.471Z</time></trkpt><trkpt lat="42.174625" lon="14.63882"><ele>14.333333333333334</ele><time>2026-04-05T10:46:07.47Z</time></trkpt><trkpt lat="42.1744317" lon="14.638855"><ele>14.0</ele><time>2026-04-05T10:46:08.472Z</time></trkpt><trkpt lat="42.1742317" lon="14.6388917"><ele>14.0</ele><time>2026-04-05T10:46:09.471Z</time></trkpt><trkpt lat="42.1740233" lon="14.6389267"><ele>14.0</ele><time>2026-04-05T10:46:10.472Z</time></trkpt><trkpt lat="42.1738117" lon="14.6389583"><ele>14.0</ele><time>2026-04-05T10:46:11.471Z</time></trkpt><trkpt lat="42.1736" lon="14.6389917"><ele>14.0</ele><time>2026-04-05T10:46:12.474Z</time></trkpt><trkpt lat="42.1734" lon="14.6390283"><ele>14.0</ele><time>2026-04-05T10:46:13.471Z</time></trkpt><trkpt lat="42.1732133" lon="14.6390533"><ele>14.0</ele><time>2026-04-05T10:46:14.472Z</time></trkpt><trkpt lat="42.17304" lon="14.6390833"><ele>14.0</ele><time>2026-04-05T10:46:15.47Z</time></trkpt><trkpt lat="42.1728733" lon="14.6391083"><ele>14.0</ele><time>2026-04-05T10:46:16.47Z</time></trkpt><trkpt lat="42.1727117" lon="14.6391333"><ele>14.0</ele><time>2026-04-05T10:46:17.469Z</time></trkpt><trkpt lat="42.1725483" lon="14.639165"><ele>14.0</ele><time>2026-04-05T10:46:18.469Z</time></trkpt><trkpt lat="42.1723817" lon="14.6391917"><ele>14.0</ele><time>2026-04-05T10:46:19.473Z</time></trkpt><trkpt lat="42.1722133" lon="14.6392233"><ele>14.0</ele><time>2026-04-05T10:46:20.471Z</time></trkpt><trkpt lat="42.17204" lon="14.6392533"><ele>14.333333333333334</ele><time>2026-04-05T10:46:21.469Z</time></trkpt><trkpt lat="42.1718667" lon="14.6392817"><ele>14.666666666666668</ele><time>2026-04-05T10:46:22.471Z</time></trkpt><trkpt lat="42.1716933" lon="14.63931"><ele>15.0</ele><time>2026-04-05T10:46:23.469Z</time></trkpt><trkpt lat="42.1715217" lon="14.6393383"><ele>15.333333333333332</ele><time>2026-04-05T10:46:24.471Z</time></trkpt><trkpt lat="42.1713533" lon="14.6393633"><ele>15.666666666666666</ele><time>2026-04-05T10:46:25.472Z</time></trkpt><trkpt lat="42.1711917" lon="14.6393917"><ele>16.0</ele><time>2026-04-05T10:46:26.469Z</time></trkpt><trkpt lat="42.1710333" lon="14.6394167"><ele>16.0</ele><time>2026-04-05T10:46:27.469Z</time></trkpt><trkpt lat="42.1708617" lon="14.639445"><ele>16.0</ele><time>2026-04-05T10:46:28.471Z</time></trkpt><trkpt lat="42.1706583" lon="14.6394767"><ele>16.0</ele><time>2026-04-05T10:46:29.474Z</time></trkpt><trkpt lat="42.17042" lon="14.6395317"><ele>16.0</ele><time>2026-04-05T10:46:30.472Z</time></trkpt><trkpt lat="42.1701417" lon="14.639575"><ele>16.0</ele><time>2026-04-05T10:46:31.472Z</time></trkpt><trkpt lat="42.1698283" lon="14.639625"><ele>17.0</ele><time>2026-04-05T10:46:32.474Z</time></trkpt><trkpt lat="42.1694867" lon="14.6396767"><ele>18.0</ele><time>2026-04-05T10:46:33.472Z</time></trkpt><trkpt lat="42.1691233" lon="14.639735"><ele>18.0</ele><time>2026-04-05T10:46:34.472Z</time></trkpt><trkpt lat="42.1687367" lon="14.6397833"><ele>18.0</ele><time>2026-04-05T10:46:35.473Z</time></trkpt><trkpt lat="42.1683467" lon="14.6398383"><ele>17.5</ele><time>2026-04-05T10:46:36.473Z</time></trkpt><trkpt lat="42.1679733" lon="14.6399033"><ele>17.0</ele><time>2026-04-05T10:46:37.474Z</time></trkpt><trkpt lat="42.1676233" lon="14.6399633"><ele>17.0</ele><time>2026-04-05T10:46:38.474Z</time></trkpt><trkpt lat="42.1672967" lon="14.6400167"><ele>17.0</ele><time>2026-04-05T10:46:39.474Z</time></trkpt><trkpt lat="42.16699" lon="14.64007"><ele>17.0</ele><time>2026-04-05T10:46:40.473Z</time></trkpt><trkpt lat="42.1667017" lon="14.640115"><ele>17.0</ele><time>2026-04-05T10:46:41.472Z</time></trkpt><trkpt lat="42.16643" lon="14.640155"><ele>17.5</ele><time>2026-04-05T10:46:42.475Z</time></trkpt><trkpt lat="42.166175" lon="14.6401933"><ele>18.0</ele><time>2026-04-05T10:46:43.473Z</time></trkpt><trkpt lat="42.1659317" lon="14.6402317"><ele>18.0</ele><time>2026-04-05T10:46:44.475Z</time></trkpt><trkpt lat="42.1657033" lon="14.64027"><ele>18.0</ele><time>2026-04-05T10:46:45.474Z</time></trkpt><trkpt lat="42.16549" lon="14.6403017"><ele>18.0</ele><time>2026-04-05T10:46:46.472Z</time></trkpt><trkpt lat="42.1652867" lon="14.6403383"><ele>18.333333333333332</ele><time>2026-04-05T10:46:47.474Z</time></trkpt><trkpt lat="42.1650933" lon="14.6403767"><ele>18.666666666666664</ele><time>2026-04-05T10:46:48.472Z</time></trkpt><trkpt lat="42.1649217" lon="14.6404217"><ele>19.0</ele><time>2026-04-05T10:46:49.472Z</time></trkpt><trkpt lat="42.1647833" lon="14.6404717"><ele>19.2</ele><time>2026-04-05T10:46:50.474Z</time></trkpt><trkpt lat="42.16467" lon="14.6405317"><ele>19.4</ele><time>2026-04-05T10:46:51.473Z</time></trkpt><trkpt lat="42.1645833" lon="14.6405883"><ele>19.6</ele><time>2026-04-05T10:46:52.472Z</time></trkpt><trkpt lat="42.1645067" lon="14.6406217"><ele>19.8</ele><time>2026-04-05T10:46:53.474Z</time></trkpt><trkpt lat="42.1644433" lon="14.6406383"><ele>20.0</ele><time>2026-04-05T10:46:54.47Z</time></trkpt><trkpt lat="42.1643533" lon="14.6406467"><ele>20.0</ele><time>2026-04-05T10:46:56.472Z</time></trkpt><trkpt lat="42.1642833" lon="14.6406483"><ele>20.0</ele><time>2026-04-05T10:46:58.47Z</time></trkpt><trkpt lat="42.1641717" lon="14.6406183"><ele>20.0</ele><time>2026-04-05T10:47:00.471Z</time></trkpt><trkpt lat="42.164095" lon="14.6406067"><ele>20.0</ele><time>2026-04-05T10:47:01.469Z</time></trkpt><trkpt lat="42.1640217" lon="14.6406067"><ele>20.0</ele><time>2026-04-05T10:47:02.472Z</time></trkpt><trkpt lat="42.1639533" lon="14.64063"><ele>20.0</ele><time>2026-04-05T10:47:03.469Z</time></trkpt><trkpt lat="42.1639" lon="14.6406983"><ele>19.833333333333336</ele><time>2026-04-05T10:47:04.469Z</time></trkpt><trkpt lat="42.16386" lon="14.640775"><ele>19.666666666666668</ele><time>2026-04-05T10:47:05.472Z</time></trkpt><trkpt lat="42.16384" lon="14.6408683"><ele>19.5</ele><time>2026-04-05T10:47:06.472Z</time></trkpt><trkpt lat="42.1638517" lon="14.6409733"><ele>19.333333333333332</ele><time>2026-04-05T10:47:07.471Z</time></trkpt><trkpt lat="42.1638933" lon="14.6410733"><ele>19.166666666666664</ele><time>2026-04-05T10:47:08.471Z</time></trkpt><trkpt lat="42.1639317" lon="14.6411733"><ele>19.0</ele><time>2026-04-05T10:47:09.469Z</time></trkpt><trkpt lat="42.1639483" lon="14.6412867"><ele>19.0</ele><time>2026-04-05T10:47:10.475Z</time></trkpt><trkpt lat="42.16394" lon="14.6414017"><ele>19.0</ele><time>2026-04-05T10:47:11.469Z</time></trkpt><trkpt lat="42.1639233" lon="14.641515"><ele>19.0</ele><time>2026-04-05T10:47:12.469Z</time></trkpt><trkpt lat="42.1639083" lon="14.6416283"><ele>19.0</ele><time>2026-04-05T10:47:13.47Z</time></trkpt><trkpt lat="42.163895" lon="14.6417383"><ele>19.0</ele><time>2026-04-05T10:47:14.469Z</time></trkpt><trkpt lat="42.1638883" lon="14.6418483"><ele>19.0</ele><time>2026-04-05T10:47:15.47Z</time></trkpt><trkpt lat="42.1638867" lon="14.6419633"><ele>19.2</ele><time>2026-04-05T10:47:16.47Z</time></trkpt><trkpt lat="42.1638867" lon="14.6420767"><ele>19.4</ele><time>2026-04-05T10:47:17.471Z</time></trkpt><trkpt lat="42.163885" lon="14.6421917"><ele>19.6</ele><time>2026-04-05T10:47:18.47Z</time></trkpt><trkpt lat="42.1638833" lon="14.6423117"><ele>19.8</ele><time>2026-04-05T10:47:19.47Z</time></trkpt><trkpt lat="42.1638833" lon="14.64244"><ele>20.0</ele><time>2026-04-05T10:47:20.47Z</time></trkpt><trkpt lat="42.1638833" lon="14.6425717"><ele>20.0</ele><time>2026-04-05T10:47:21.473Z</time></trkpt><trkpt lat="42.163885" lon="14.6427067"><ele>20.0</ele><time>2026-04-05T10:47:22.469Z</time></trkpt><trkpt lat="42.1638883" lon="14.6428433"><ele>20.0</ele><time>2026-04-05T10:47:23.47Z</time></trkpt><trkpt lat="42.1638933" lon="14.6429833"><ele>20.0</ele><time>2026-04-05T10:47:24.471Z</time></trkpt><trkpt lat="42.1639" lon="14.643125"><ele>20.0</ele><time>2026-04-05T10:47:25.469Z</time></trkpt><trkpt lat="42.1639067" lon="14.6432733"><ele>20.0</ele><time>2026-04-05T10:47:26.469Z</time></trkpt><trkpt lat="42.16391" lon="14.643435"><ele>20.0</ele><time>2026-04-05T10:47:27.469Z</time></trkpt><trkpt lat="42.1639167" lon="14.6436233"><ele>20.0</ele><time>2026-04-05T10:47:28.47Z</time></trkpt><trkpt lat="42.1639283" lon="14.6438683"><ele>20.0</ele><time>2026-04-05T10:47:29.468Z</time></trkpt><trkpt lat="42.1639367" lon="14.6441767"><ele>18.5</ele><time>2026-04-05T10:47:30.473Z</time></trkpt><trkpt lat="42.1639467" lon="14.64455"><ele>17.0</ele><time>2026-04-05T10:47:31.471Z</time></trkpt><trkpt lat="42.1639633" lon="14.6449617"><ele>17.5</ele><time>2026-04-05T10:47:32.472Z</time></trkpt><trkpt lat="42.1639767" lon="14.6453383"><ele>18.0</ele><time>2026-04-05T10:47:33.471Z</time></trkpt><trkpt lat="42.1639833" lon="14.645665"><ele>18.0</ele><time>2026-04-05T10:47:34.469Z</time></trkpt><trkpt lat="42.163985" lon="14.645945"><ele>18.0</ele><time>2026-04-05T10:47:35.471Z</time></trkpt><trkpt lat="42.1639817" lon="14.6461833"><ele>18.0</ele><time>2026-04-05T10:47:36.472Z</time></trkpt><trkpt lat="42.1639783" lon="14.6463867"><ele>18.5</ele><time>2026-04-05T10:47:37.471Z</time></trkpt><trkpt lat="42.1639683" lon="14.6465617"><ele>19.0</ele><time>2026-04-05T10:47:38.471Z</time></trkpt><trkpt lat="42.1639583" lon="14.646715"><ele>19.5</ele><time>2026-04-05T10:47:39.473Z</time></trkpt><trkpt lat="42.163945" lon="14.64686"><ele>20.0</ele><time>2026-04-05T10:47:40.469Z</time></trkpt><trkpt lat="42.1639267" lon="14.6470117"><ele>20.0</ele><time>2026-04-05T10:47:41.471Z</time></trkpt><trkpt lat="42.1639067" lon="14.64717"><ele>20.0</ele><time>2026-04-05T10:47:42.468Z</time></trkpt><trkpt lat="42.1638883" lon="14.6473367"><ele>20.0</ele><time>2026-04-05T10:47:43.47Z</time></trkpt><trkpt lat="42.163875" lon="14.647515"><ele>20.0</ele><time>2026-04-05T10:47:44.47Z</time></trkpt><trkpt lat="42.1638633" lon="14.6477333"><ele>21.0</ele><time>2026-04-05T10:47:45.468Z</time></trkpt><trkpt lat="42.1638433" lon="14.6480167"><ele>22.0</ele><time>2026-04-05T10:47:46.47Z</time></trkpt><trkpt lat="42.16381" lon="14.6483633"><ele>22.0</ele><time>2026-04-05T10:47:47.471Z</time></trkpt><trkpt lat="42.1637683" lon="14.6487383"><ele>22.0</ele><time>2026-04-05T10:47:48.473Z</time></trkpt><trkpt lat="42.1637333" lon="14.6491"><ele>22.0</ele><time>2026-04-05T10:47:49.471Z</time></trkpt><trkpt lat="42.1637133" lon="14.649435"><ele>22.0</ele><time>2026-04-05T10:47:50.471Z</time></trkpt><trkpt lat="42.16371" lon="14.6497617"><ele>22.0</ele><time>2026-04-05T10:47:51.472Z</time></trkpt><trkpt lat="42.1637267" lon="14.6500867"><ele>22.0</ele><time>2026-04-05T10:47:52.472Z</time></trkpt><trkpt lat="42.1637617" lon="14.6504167"><ele>22.0</ele><time>2026-04-05T10:47:53.471Z</time></trkpt><trkpt lat="42.1638233" lon="14.6507533"><ele>22.0</ele><time>2026-04-05T10:47:54.474Z</time></trkpt><trkpt lat="42.16391" lon="14.6510933"><ele>25.0</ele><time>2026-04-05T10:47:55.472Z</time></trkpt><trkpt lat="42.1640217" lon="14.6514333"><ele>28.0</ele><time>2026-04-05T10:47:56.472Z</time></trkpt><trkpt lat="42.164165" lon="14.651775"><ele>35.5</ele><time>2026-04-05T10:47:57.472Z</time></trkpt><trkpt lat="42.164335" lon="14.65211"><ele>43.0</ele><time>2026-04-05T10:47:58.47Z</time></trkpt><trkpt lat="42.1645283" lon="14.65242"><ele>43.0</ele><time>2026-04-05T10:47:59.471Z</time></trkpt><trkpt lat="42.1647433" lon="14.6527"><ele>43.0</ele><time>2026-04-05T10:48:00.471Z</time></trkpt><trkpt lat="42.164975" lon="14.6529517"><ele>51.0</ele><time>2026-04-05T10:48:01.474Z</time></trkpt><trkpt lat="42.1652183" lon="14.6531783"><ele>59.0</ele><time>2026-04-05T10:48:02.471Z</time></trkpt><trkpt lat="42.1654567" lon="14.6533817"><ele>59.0</ele><time>2026-04-05T10:48:03.471Z</time></trkpt><trkpt lat="42.1656733" lon="14.6535683"><ele>59.0</ele><time>2026-04-05T10:48:04.472Z</time></trkpt><trkpt lat="42.1658767" lon="14.65374"><ele>63.5</ele><time>2026-04-05T10:48:05.472Z</time></trkpt><trkpt lat="42.166075" lon="14.6539067"><ele>68.0</ele><time>2026-04-05T10:48:06.472Z</time></trkpt><trkpt lat="42.16627" lon="14.6540717"><ele>68.0</ele><time>2026-04-05T10:48:07.475Z</time></trkpt><trkpt lat="42.1664567" lon="14.6542367"><ele>68.0</ele><time>2026-04-05T10:48:08.471Z</time></trkpt><trkpt lat="42.16663" lon="14.6543983"><ele>68.0</ele><time>2026-04-05T10:48:09.474Z</time></trkpt><trkpt lat="42.1667817" lon="14.6545583"><ele>65.33333333333334</ele><time>2026-04-05T10:48:10.471Z</time></trkpt><trkpt lat="42.166915" lon="14.654725"><ele>62.66666666666667</ele><time>2026-04-05T10:48:11.471Z</time></trkpt><trkpt lat="42.16704" lon="14.6549033"><ele>60.0</ele><time>2026-04-05T10:48:12.471Z</time></trkpt><trkpt lat="42.1671567" lon="14.6550933"><ele>64.0</ele><time>2026-04-05T10:48:13.471Z</time></trkpt><trkpt lat="42.1672633" lon="14.6552933"><ele>68.0</ele><time>2026-04-05T10:48:14.472Z</time></trkpt><trkpt lat="42.1673583" lon="14.6555"><ele>72.0</ele><time>2026-04-05T10:48:15.471Z</time></trkpt><trkpt lat="42.1674383" lon="14.6557117"><ele>72.0</ele><time>2026-04-05T10:48:16.469Z</time></trkpt><trkpt lat="42.167505" lon="14.6559283"><ele>72.0</ele><time>2026-04-05T10:48:17.47Z</time></trkpt><trkpt lat="42.1675617" lon="14.6561517"><ele>72.0</ele><time>2026-04-05T10:48:18.472Z</time></trkpt><trkpt lat="42.16761" lon="14.6563783"><ele>74.66666666666667</ele><time>2026-04-05T10:48:19.477Z</time></trkpt><trkpt lat="42.1676517" lon="14.65661"><ele>77.33333333333334</ele><time>2026-04-05T10:48:20.47Z</time></trkpt><trkpt lat="42.1676817" lon="14.656845"><ele>80.0</ele><time>2026-04-05T10:48:21.468Z</time></trkpt><trkpt lat="42.167695" lon="14.6570833"><ele>80.0</ele><time>2026-04-05T10:48:22.473Z</time></trkpt><trkpt lat="42.1677" lon="14.6573217"><ele>80.0</ele><time>2026-04-05T10:48:23.47Z</time></trkpt><trkpt lat="42.1676917" lon="14.6575533"><ele>80.0</ele><time>2026-04-05T10:48:24.469Z</time></trkpt><trkpt lat="42.1676783" lon="14.6577783"><ele>79.0</ele><time>2026-04-05T10:48:25.468Z</time></trkpt><trkpt lat="42.1676583" lon="14.657995"><ele>78.0</ele><time>2026-04-05T10:48:26.47Z</time></trkpt><trkpt lat="42.167625" lon="14.6582067"><ele>77.0</ele><time>2026-04-05T10:48:27.47Z</time></trkpt><trkpt lat="42.167585" lon="14.658415"><ele>76.66666666666667</ele><time>2026-04-05T10:48:28.468Z</time></trkpt><trkpt lat="42.1675333" lon="14.65862"><ele>76.33333333333333</ele><time>2026-04-05T10:48:29.47Z</time></trkpt><trkpt lat="42.1674767" lon="14.6588217"><ele>76.0</ele><time>2026-04-05T10:48:30.47Z</time></trkpt><trkpt lat="42.167415" lon="14.6590133"><ele>77.0</ele><time>2026-04-05T10:48:31.471Z</time></trkpt><trkpt lat="42.1673583" lon="14.6592017"><ele>78.0</ele><time>2026-04-05T10:48:32.469Z</time></trkpt><trkpt lat="42.1673083" lon="14.6593883"><ele>79.0</ele><time>2026-04-05T10:48:33.469Z</time></trkpt><trkpt lat="42.167255" lon="14.6595833"><ele>79.0</ele><time>2026-04-05T10:48:34.47Z</time></trkpt><trkpt lat="42.1671983" lon="14.659765"><ele>79.0</ele><time>2026-04-05T10:48:35.47Z</time></trkpt><trkpt lat="42.1671467" lon="14.6599417"><ele>79.0</ele><time>2026-04-05T10:48:36.469Z</time></trkpt><trkpt lat="42.1670933" lon="14.6601117"><ele>79.0</ele><time>2026-04-05T10:48:37.469Z</time></trkpt><trkpt lat="42.1670383" lon="14.6602767"><ele>78.5</ele><time>2026-04-05T10:48:38.47Z</time></trkpt><trkpt lat="42.1669883" lon="14.6604317"><ele>78.0</ele><time>2026-04-05T10:48:39.469Z</time></trkpt><trkpt lat="42.16694" lon="14.66058"><ele>77.5</ele><time>2026-04-05T10:48:40.47Z</time></trkpt><trkpt lat="42.16689" lon="14.6607283"><ele>77.0</ele><time>2026-04-05T10:48:41.468Z</time></trkpt><trkpt lat="42.166845" lon="14.660875"><ele>77.0</ele><time>2026-04-05T10:48:42.469Z</time></trkpt><trkpt lat="42.1668" lon="14.6610183"><ele>77.0</ele><time>2026-04-05T10:48:43.472Z</time></trkpt><trkpt lat="42.166755" lon="14.6611583"><ele>77.0</ele><time>2026-04-05T10:48:44.469Z</time></trkpt><trkpt lat="42.1667133" lon="14.6612983"><ele>77.0</ele><time>2026-04-05T10:48:45.469Z</time></trkpt><trkpt lat="42.1666767" lon="14.6614367"><ele>77.0</ele><time>2026-04-05T10:48:46.469Z</time></trkpt><trkpt lat="42.1666433" lon="14.66157"><ele>76.83333333333334</ele><time>2026-04-05T10:48:47.468Z</time></trkpt><trkpt lat="42.1666033" lon="14.66169"><ele>76.66666666666667</ele><time>2026-04-05T10:48:48.469Z</time></trkpt><trkpt lat="42.1665633" lon="14.661795"><ele>76.5</ele><time>2026-04-05T10:48:49.47Z</time></trkpt><trkpt lat="42.1665267" lon="14.6618883"><ele>76.33333333333333</ele><time>2026-04-05T10:48:50.47Z</time></trkpt><trkpt lat="42.1664933" lon="14.661965"><ele>76.16666666666666</ele><time>2026-04-05T10:48:51.468Z</time></trkpt><trkpt lat="42.1664183" lon="14.6620817"><ele>76.0</ele><time>2026-04-05T10:48:53.47Z</time></trkpt><trkpt lat="42.166315" lon="14.662175"><ele>76.0</ele><time>2026-04-05T10:48:55.468Z</time></trkpt><trkpt lat="42.1662417" lon="14.662305"><ele>76.0</ele><time>2026-04-05T10:48:57.468Z</time></trkpt><trkpt lat="42.16623" lon="14.66241"><ele>76.0</ele><time>2026-04-05T10:48:58.47Z</time></trkpt><trkpt lat="42.1662267" lon="14.6625467"><ele>76.0</ele><time>2026-04-05T10:48:59.469Z</time></trkpt><trkpt lat="42.166235" lon="14.6627167"><ele>76.0</ele><time>2026-04-05T10:49:00.47Z</time></trkpt><trkpt lat="42.1662117" lon="14.66291"><ele>75.66666666666666</ele><time>2026-04-05T10:49:01.47Z</time></trkpt><trkpt lat="42.1661533" lon="14.6631083"><ele>75.33333333333333</ele><time>2026-04-05T10:49:02.47Z</time></trkpt><trkpt lat="42.1660833" lon="14.6633083"><ele>75.0</ele><time>2026-04-05T10:49:03.468Z</time></trkpt><trkpt lat="42.1660317" lon="14.663505"><ele>75.25</ele><time>2026-04-05T10:49:04.469Z</time></trkpt><trkpt lat="42.1659817" lon="14.6636917"><ele>75.5</ele><time>2026-04-05T10:49:05.47Z</time></trkpt><trkpt lat="42.1659367" lon="14.66387"><ele>75.75</ele><time>2026-04-05T10:49:06.469Z</time></trkpt><trkpt lat="42.16589" lon="14.6640467"><ele>76.0</ele><time>2026-04-05T10:49:07.47Z</time></trkpt><trkpt lat="42.1658367" lon="14.6642583"><ele>76.0</ele><time>2026-04-05T10:49:08.47Z</time></trkpt><trkpt lat="42.165775" lon="14.66453"><ele>76.0</ele><time>2026-04-05T10:49:09.47Z</time></trkpt><trkpt lat="42.1656867" lon="14.6648633"><ele>76.0</ele><time>2026-04-05T10:49:10.47Z</time></trkpt><trkpt lat="42.165575" lon="14.66522"><ele>76.0</ele><time>2026-04-05T10:49:11.473Z</time></trkpt><trkpt lat="42.165465" lon="14.6655517"><ele>75.0</ele><time>2026-04-05T10:49:12.471Z</time></trkpt><trkpt lat="42.16537" lon="14.66586"><ele>74.0</ele><time>2026-04-05T10:49:13.47Z</time></trkpt><trkpt lat="42.1652967" lon="14.66615"><ele>74.0</ele><time>2026-04-05T10:49:14.473Z</time></trkpt><trkpt lat="42.1652383" lon="14.6664417"><ele>74.0</ele><time>2026-04-05T10:49:15.47Z</time></trkpt><trkpt lat="42.1651933" lon="14.6667617"><ele>73.5</ele><time>2026-04-05T10:49:16.471Z</time></trkpt><trkpt lat="42.1651433" lon="14.667105"><ele>73.0</ele><time>2026-04-05T10:49:17.472Z</time></trkpt><trkpt lat="42.1650883" lon="14.6674383"><ele>73.0</ele><time>2026-04-05T10:49:18.479Z</time></trkpt><trkpt lat="42.1650333" lon="14.66774"><ele>73.0</ele><time>2026-04-05T10:49:19.471Z</time></trkpt><trkpt lat="42.16499" lon="14.6680083"><ele>73.0</ele><time>2026-04-05T10:49:20.47Z</time></trkpt><trkpt lat="42.16495" lon="14.6682517"><ele>73.0</ele><time>2026-04-05T10:49:21.47Z</time></trkpt><trkpt lat="42.1649133" lon="14.66848"><ele>73.0</ele><time>2026-04-05T10:49:22.471Z</time></trkpt><trkpt lat="42.1648783" lon="14.6686933"><ele>73.0</ele><time>2026-04-05T10:49:23.471Z</time></trkpt><trkpt lat="42.1648517" lon="14.6688983"><ele>73.0</ele><time>2026-04-05T10:49:24.473Z</time></trkpt><trkpt lat="42.164835" lon="14.669105"><ele>73.0</ele><time>2026-04-05T10:49:25.469Z</time></trkpt><trkpt lat="42.1648283" lon="14.6693083"><ele>73.0</ele><time>2026-04-05T10:49:26.471Z</time></trkpt><trkpt lat="42.16483" lon="14.669505"><ele>72.66666666666666</ele><time>2026-04-05T10:49:27.471Z</time></trkpt><trkpt lat="42.1648333" lon="14.6697067"><ele>72.33333333333333</ele><time>2026-04-05T10:49:28.472Z</time></trkpt><trkpt lat="42.1648383" lon="14.669915"><ele>72.0</ele><time>2026-04-05T10:49:29.475Z</time></trkpt><trkpt lat="42.1648417" lon="14.670125"><ele>72.0</ele><time>2026-04-05T10:49:30.476Z</time></trkpt><trkpt lat="42.1648467" lon="14.67034"><ele>72.0</ele><time>2026-04-05T10:49:31.472Z</time></trkpt><trkpt lat="42.1648567" lon="14.6705867"><ele>72.0</ele><time>2026-04-05T10:49:32.471Z</time></trkpt><trkpt lat="42.1648667" lon="14.670885"><ele>70.5</ele><time>2026-04-05T10:49:33.471Z</time></trkpt><trkpt lat="42.1648767" lon="14.671225"><ele>69.0</ele><time>2026-04-05T10:49:34.472Z</time></trkpt><trkpt lat="42.164885" lon="14.67157"><ele>69.0</ele><time>2026-04-05T10:49:35.472Z</time></trkpt><trkpt lat="42.1648933" lon="14.6718733"><ele>69.0</ele><time>2026-04-05T10:49:36.471Z</time></trkpt><trkpt lat="42.164905" lon="14.6721467"><ele>69.0</ele><time>2026-04-05T10:49:37.472Z</time></trkpt><trkpt lat="42.16492" lon="14.6724133"><ele>68.0</ele><time>2026-04-05T10:49:38.471Z</time></trkpt><trkpt lat="42.1649333" lon="14.6726867"><ele>67.0</ele><time>2026-04-05T10:49:39.475Z</time></trkpt><trkpt lat="42.16495" lon="14.6729667"><ele>66.0</ele><time>2026-04-05T10:49:40.469Z</time></trkpt><trkpt lat="42.1649667" lon="14.6732783"><ele>64.5</ele><time>2026-04-05T10:49:41.471Z</time></trkpt><trkpt lat="42.1649783" lon="14.6736367"><ele>63.0</ele><time>2026-04-05T10:49:42.47Z</time></trkpt><trkpt lat="42.16499" lon="14.674045"><ele>61.5</ele><time>2026-04-05T10:49:43.471Z</time></trkpt><trkpt lat="42.1650067" lon="14.674475"><ele>60.0</ele><time>2026-04-05T10:49:44.471Z</time></trkpt><trkpt lat="42.165025" lon="14.6748867"><ele>60.0</ele><time>2026-04-05T10:49:45.471Z</time></trkpt><trkpt lat="42.1650433" lon="14.6752767"><ele>60.0</ele><time>2026-04-05T10:49:46.47Z</time></trkpt><trkpt lat="42.1650617" lon="14.6756567"><ele>60.0</ele><time>2026-04-05T10:49:47.471Z</time></trkpt><trkpt lat="42.1650783" lon="14.6760383"><ele>60.0</ele><time>2026-04-05T10:49:48.472Z</time></trkpt><trkpt lat="42.1650983" lon="14.676435"><ele>58.5</ele><time>2026-04-05T10:49:49.475Z</time></trkpt><trkpt lat="42.1651283" lon="14.6768667"><ele>57.0</ele><time>2026-04-05T10:49:50.47Z</time></trkpt><trkpt lat="42.1651733" lon="14.677335"><ele>55.0</ele><time>2026-04-05T10:49:51.471Z</time></trkpt><trkpt lat="42.1652317" lon="14.6778267"><ele>53.0</ele><time>2026-04-05T10:49:52.47Z</time></trkpt><trkpt lat="42.1653017" lon="14.6783067"><ele>55.0</ele><time>2026-04-05T10:49:53.47Z</time></trkpt><trkpt lat="42.1653767" lon="14.6787483"><ele>57.0</ele><time>2026-04-05T10:49:54.471Z</time></trkpt><trkpt lat="42.1654433" lon="14.679155"><ele>56.5</ele><time>2026-04-05T10:49:55.471Z</time></trkpt><trkpt lat="42.165495" lon="14.6795333"><ele>56.0</ele><time>2026-04-05T10:49:56.473Z</time></trkpt><trkpt lat="42.16553" lon="14.6798983"><ele>56.0</ele><time>2026-04-05T10:49:57.474Z</time></trkpt><trkpt lat="42.165555" lon="14.680255"><ele>56.0</ele><time>2026-04-05T10:49:58.469Z</time></trkpt><trkpt lat="42.1655767" lon="14.6806083"><ele>55.5</ele><time>2026-04-05T10:49:59.47Z</time></trkpt><trkpt lat="42.1656" lon="14.6809417"><ele>55.0</ele><time>2026-04-05T10:50:00.47Z</time></trkpt><trkpt lat="42.165625" lon="14.6812433"><ele>54.33333333333333</ele><time>2026-04-05T10:50:01.47Z</time></trkpt><trkpt lat="42.1656467" lon="14.6815083"><ele>53.66666666666667</ele><time>2026-04-05T10:50:02.473Z</time></trkpt><trkpt lat="42.165665" lon="14.6817217"><ele>53.0</ele><time>2026-04-05T10:50:03.47Z</time></trkpt><trkpt lat="42.1656683" lon="14.6819017"><ele>52.599999999999994</ele><time>2026-04-05T10:50:04.47Z</time></trkpt><trkpt lat="42.1656517" lon="14.6820633"><ele>52.199999999999996</ele><time>2026-04-05T10:50:05.469Z</time></trkpt><trkpt lat="42.1656117" lon="14.6822067"><ele>51.8</ele><time>2026-04-05T10:50:06.47Z</time></trkpt><trkpt lat="42.1655717" lon="14.68234"><ele>51.4</ele><time>2026-04-05T10:50:07.469Z</time></trkpt><trkpt lat="42.16555" lon="14.6824683"><ele>51.0</ele><time>2026-04-05T10:50:08.471Z</time></trkpt><trkpt lat="42.165555" lon="14.6825883"><ele>51.0</ele><time>2026-04-05T10:50:09.472Z</time></trkpt><trkpt lat="42.1655883" lon="14.6826967"><ele>51.0</ele><time>2026-04-05T10:50:10.47Z</time></trkpt><trkpt lat="42.16564" lon="14.6827867"><ele>51.0</ele><time>2026-04-05T10:50:11.471Z</time></trkpt><trkpt lat="42.1657067" lon="14.6828583"><ele>51.0</ele><time>2026-04-05T10:50:12.47Z</time></trkpt><trkpt lat="42.1657867" lon="14.6829183"><ele>51.0</ele><time>2026-04-05T10:50:13.469Z</time></trkpt><trkpt lat="42.1658767" lon="14.6829833"><ele>50.5</ele><time>2026-04-05T10:50:14.473Z</time></trkpt><trkpt lat="42.1659633" lon="14.6830667"><ele>50.0</ele><time>2026-04-05T10:50:15.469Z</time></trkpt><trkpt lat="42.1660367" lon="14.6831783"><ele>49.5</ele><time>2026-04-05T10:50:16.469Z</time></trkpt><trkpt lat="42.1660967" lon="14.6833183"><ele>49.0</ele><time>2026-04-05T10:50:17.468Z</time></trkpt><trkpt lat="42.166145" lon="14.6834767"><ele>49.25</ele><time>2026-04-05T10:50:18.469Z</time></trkpt><trkpt lat="42.166185" lon="14.6836483"><ele>49.5</ele><time>2026-04-05T10:50:19.47Z</time></trkpt><trkpt lat="42.166225" lon="14.6838183"><ele>49.75</ele><time>2026-04-05T10:50:20.471Z</time></trkpt><trkpt lat="42.16627" lon="14.6839967"><ele>50.0</ele><time>2026-04-05T10:50:21.471Z</time></trkpt><trkpt lat="42.166325" lon="14.6841883"><ele>50.0</ele><time>2026-04-05T10:50:22.469Z</time></trkpt><trkpt lat="42.1663783" lon="14.6843983"><ele>50.0</ele><time>2026-04-05T10:50:23.47Z</time></trkpt><trkpt lat="42.1664383" lon="14.6846217"><ele>50.0</ele><time>2026-04-05T10:50:24.47Z</time></trkpt><trkpt lat="42.166495" lon="14.6848683"><ele>49.333333333333336</ele><time>2026-04-05T10:50:25.47Z</time></trkpt><trkpt lat="42.166535" lon="14.6851333"><ele>48.66666666666667</ele><time>2026-04-05T10:50:26.471Z</time></trkpt><trkpt lat="42.1665583" lon="14.685415"><ele>48.0</ele><time>2026-04-05T10:50:27.47Z</time></trkpt><trkpt lat="42.166565" lon="14.6857083"><ele>48.0</ele><time>2026-04-05T10:50:28.471Z</time></trkpt><trkpt lat="42.1665667" lon="14.6860133"><ele>48.0</ele><time>2026-04-05T10:50:29.472Z</time></trkpt><trkpt lat="42.1665667" lon="14.6863267"><ele>47.5</ele><time>2026-04-05T10:50:30.471Z</time></trkpt><trkpt lat="42.1665683" lon="14.6866483"><ele>47.0</ele><time>2026-04-05T10:50:31.471Z</time></trkpt><trkpt lat="42.16657" lon="14.686975"><ele>46.5</ele><time>2026-04-05T10:50:32.47Z</time></trkpt><trkpt lat="42.166575" lon="14.687305"><ele>46.0</ele><time>2026-04-05T10:50:33.471Z</time></trkpt><trkpt lat="42.1665833" lon="14.6876433"><ele>46.0</ele><time>2026-04-05T10:50:34.47Z</time></trkpt><trkpt lat="42.1665983" lon="14.6879867"><ele>46.0</ele><time>2026-04-05T10:50:35.473Z</time></trkpt><trkpt lat="42.16662" lon="14.6883367"><ele>45.5</ele><time>2026-04-05T10:50:36.471Z</time></trkpt><trkpt lat="42.166645" lon="14.6886917"><ele>45.0</ele><time>2026-04-05T10:50:37.472Z</time></trkpt><trkpt lat="42.1666733" lon="14.68905"><ele>45.0</ele><time>2026-04-05T10:50:38.472Z</time></trkpt><trkpt lat="42.1667033" lon="14.68941"><ele>45.0</ele><time>2026-04-05T10:50:39.471Z</time></trkpt><trkpt lat="42.166735" lon="14.68977"><ele>45.0</ele><time>2026-04-05T10:50:40.47Z</time></trkpt><trkpt lat="42.1667667" lon="14.6901317"><ele>45.0</ele><time>2026-04-05T10:50:41.471Z</time></trkpt><trkpt lat="42.1667983" lon="14.6904917"><ele>44.5</ele><time>2026-04-05T10:50:42.47Z</time></trkpt><trkpt lat="42.16683" lon="14.6908483"><ele>44.0</ele><time>2026-04-05T10:50:43.472Z</time></trkpt><trkpt lat="42.1668667" lon="14.691205"><ele>43.0</ele><time>2026-04-05T10:50:44.473Z</time></trkpt><trkpt lat="42.16691" lon="14.6915583"><ele>42.0</ele><time>2026-04-05T10:50:45.471Z</time></trkpt><trkpt lat="42.1669667" lon="14.691905"><ele>42.0</ele><time>2026-04-05T10:50:46.471Z</time></trkpt><trkpt lat="42.167035" lon="14.692245"><ele>42.0</ele><time>2026-04-05T10:50:47.472Z</time></trkpt><trkpt lat="42.167115" lon="14.6925733"><ele>41.0</ele><time>2026-04-05T10:50:48.473Z</time></trkpt><trkpt lat="42.167195" lon="14.6928833"><ele>40.0</ele><time>2026-04-05T10:50:49.472Z</time></trkpt><trkpt lat="42.167275" lon="14.6931733"><ele>40.0</ele><time>2026-04-05T10:50:50.471Z</time></trkpt><trkpt lat="42.16735" lon="14.693445"><ele>40.0</ele><time>2026-04-05T10:50:51.471Z</time></trkpt><trkpt lat="42.1674167" lon="14.6936967"><ele>40.0</ele><time>2026-04-05T10:50:52.472Z</time></trkpt><trkpt lat="42.1674783" lon="14.6939317"><ele>40.333333333333336</ele><time>2026-04-05T10:50:53.47Z</time></trkpt><trkpt lat="42.16754" lon="14.6941467"><ele>40.666666666666664</ele><time>2026-04-05T10:50:54.476Z</time></trkpt><trkpt lat="42.16761" lon="14.69433"><ele>41.0</ele><time>2026-04-05T10:50:55.471Z</time></trkpt><trkpt lat="42.1676817" lon="14.6944817"><ele>40.599999999999994</ele><time>2026-04-05T10:50:56.473Z</time></trkpt><trkpt lat="42.1677433" lon="14.69461"><ele>40.199999999999996</ele><time>2026-04-05T10:50:57.47Z</time></trkpt><trkpt lat="42.1677817" lon="14.6947333"><ele>39.8</ele><time>2026-04-05T10:50:58.471Z</time></trkpt><trkpt lat="42.1677983" lon="14.6948533"><ele>39.4</ele><time>2026-04-05T10:50:59.471Z</time></trkpt><trkpt lat="42.167805" lon="14.6949683"><ele>39.0</ele><time>2026-04-05T10:51:00.472Z</time></trkpt><trkpt lat="42.167825" lon="14.6950783"><ele>39.0</ele><time>2026-04-05T10:51:01.472Z</time></trkpt><trkpt lat="42.1678617" lon="14.69519"><ele>39.0</ele><time>2026-04-05T10:51:02.471Z</time></trkpt><trkpt lat="42.1679083" lon="14.695315"><ele>39.0</ele><time>2026-04-05T10:51:03.474Z</time></trkpt><trkpt lat="42.1679467" lon="14.69547"><ele>39.0</ele><time>2026-04-05T10:51:04.472Z</time></trkpt><trkpt lat="42.1679767" lon="14.6956567"><ele>38.666666666666664</ele><time>2026-04-05T10:51:05.472Z</time></trkpt><trkpt lat="42.1679933" lon="14.69587"><ele>38.33333333333333</ele><time>2026-04-05T10:51:06.469Z</time></trkpt><trkpt lat="42.1680017" lon="14.6961"><ele>38.0</ele><time>2026-04-05T10:51:07.472Z</time></trkpt><trkpt lat="42.1679917" lon="14.6963417"><ele>37.666666666666664</ele><time>2026-04-05T10:51:08.473Z</time></trkpt><trkpt lat="42.1679617" lon="14.6965967"><ele>37.333333333333336</ele><time>2026-04-05T10:51:09.472Z</time></trkpt><trkpt lat="42.1679117" lon="14.6968533"><ele>37.0</ele><time>2026-04-05T10:51:10.475Z</time></trkpt><trkpt lat="42.16784" lon="14.6971183"><ele>36.333333333333336</ele><time>2026-04-05T10:51:11.471Z</time></trkpt><trkpt lat="42.167755" lon="14.6973883"><ele>35.666666666666664</ele><time>2026-04-05T10:51:12.471Z</time></trkpt><trkpt lat="42.16766" lon="14.69767"><ele>35.0</ele><time>2026-04-05T10:51:13.471Z</time></trkpt><trkpt lat="42.1675617" lon="14.69796"><ele>33.5</ele><time>2026-04-05T10:51:14.47Z</time></trkpt><trkpt lat="42.1674633" lon="14.6982583"><ele>32.0</ele><time>2026-04-05T10:51:15.47Z</time></trkpt><trkpt lat="42.167365" lon="14.69856"><ele>26.5</ele><time>2026-04-05T10:51:16.471Z</time></trkpt><trkpt lat="42.1672667" lon="14.6988617"><ele>21.0</ele><time>2026-04-05T10:51:17.471Z</time></trkpt><trkpt lat="42.1671617" lon="14.6991633"><ele>21.5</ele><time>2026-04-05T10:51:18.471Z</time></trkpt><trkpt lat="42.1670433" lon="14.6994617"><ele>22.0</ele><time>2026-04-05T10:51:19.471Z</time></trkpt><trkpt lat="42.1669133" lon="14.6997767"><ele>22.0</ele><time>2026-04-05T10:51:20.472Z</time></trkpt><trkpt lat="42.166755" lon="14.7001133"><ele>22.0</ele><time>2026-04-05T10:51:21.471Z</time></trkpt><trkpt lat="42.1665583" lon="14.7004683"><ele>21.5</ele><time>2026-04-05T10:51:22.47Z</time></trkpt><trkpt lat="42.16635" lon="14.7008533"><ele>21.0</ele><time>2026-04-05T10:51:23.47Z</time></trkpt><trkpt lat="42.1661417" lon="14.7012767"><ele>24.0</ele><time>2026-04-05T10:51:24.472Z</time></trkpt><trkpt lat="42.1659117" lon="14.701705"><ele>27.0</ele><time>2026-04-05T10:51:25.472Z</time></trkpt><trkpt lat="42.1656767" lon="14.7021117"><ele>29.5</ele><time>2026-04-05T10:51:26.473Z</time></trkpt><trkpt lat="42.1654533" lon="14.7024867"><ele>32.0</ele><time>2026-04-05T10:51:27.47Z</time></trkpt><trkpt lat="42.1652483" lon="14.702835"><ele>32.0</ele><time>2026-04-05T10:51:28.47Z</time></trkpt><trkpt lat="42.16505" lon="14.7031567"><ele>32.0</ele><time>2026-04-05T10:51:29.471Z</time></trkpt><trkpt lat="42.1648533" lon="14.7034583"><ele>32.5</ele><time>2026-04-05T10:51:30.471Z</time></trkpt><trkpt lat="42.1646383" lon="14.7037467"><ele>33.0</ele><time>2026-04-05T10:51:31.475Z</time></trkpt><trkpt lat="42.16441" lon="14.7040333"><ele>33.0</ele><time>2026-04-05T10:51:32.471Z</time></trkpt><trkpt lat="42.164175" lon="14.7043217"><ele>33.0</ele><time>2026-04-05T10:51:33.47Z</time></trkpt><trkpt lat="42.163945" lon="14.7046067"><ele>33.0</ele><time>2026-04-05T10:51:34.469Z</time></trkpt><trkpt lat="42.16373" lon="14.7048833"><ele>33.0</ele><time>2026-04-05T10:51:35.471Z</time></trkpt><trkpt lat="42.1635367" lon="14.7051317"><ele>32.666666666666664</ele><time>2026-04-05T10:51:36.471Z</time></trkpt><trkpt lat="42.1633683" lon="14.7053367"><ele>32.33333333333333</ele><time>2026-04-05T10:51:37.473Z</time></trkpt><trkpt lat="42.16322" lon="14.7054967"><ele>32.0</ele><time>2026-04-05T10:51:38.478Z</time></trkpt><trkpt lat="42.1630983" lon="14.7056133"><ele>32.0</ele><time>2026-04-05T10:51:39.47Z</time></trkpt><trkpt lat="42.1629917" lon="14.705685"><ele>32.0</ele><time>2026-04-05T10:51:40.469Z</time></trkpt><trkpt lat="42.1628917" lon="14.7056817"><ele>32.0</ele><time>2026-04-05T10:51:41.468Z</time></trkpt><trkpt lat="42.16281" lon="14.7056233"><ele>32.0</ele><time>2026-04-05T10:51:42.469Z</time></trkpt><trkpt lat="42.1627317" lon="14.705515"><ele>32.0</ele><time>2026-04-05T10:51:43.47Z</time></trkpt><trkpt lat="42.1626433" lon="14.705355"><ele>32.0</ele><time>2026-04-05T10:51:44.474Z</time></trkpt><trkpt lat="42.16254" lon="14.70516"><ele>32.0</ele><time>2026-04-05T10:51:45.47Z</time></trkpt><trkpt lat="42.1623983" lon="14.7049583"><ele>32.0</ele><time>2026-04-05T10:51:46.47Z</time></trkpt><trkpt lat="42.1622033" lon="14.704755"><ele>33.0</ele><time>2026-04-05T10:51:47.472Z</time></trkpt><trkpt lat="42.1619567" lon="14.704555"><ele>34.0</ele><time>2026-04-05T10:51:48.473Z</time></trkpt><trkpt lat="42.1616717" lon="14.704345"><ele>37.0</ele><time>2026-04-05T10:51:49.473Z</time></trkpt><trkpt lat="42.1613617" lon="14.70412"><ele>40.0</ele><time>2026-04-05T10:51:50.471Z</time></trkpt><trkpt lat="42.16103" lon="14.7038767"><ele>40.0</ele><time>2026-04-05T10:51:51.471Z</time></trkpt><trkpt lat="42.160685" lon="14.703625"><ele>40.0</ele><time>2026-04-05T10:51:52.471Z</time></trkpt><trkpt lat="42.160325" lon="14.7033567"><ele>41.0</ele><time>2026-04-05T10:51:53.473Z</time></trkpt><trkpt lat="42.1599517" lon="14.7030767"><ele>42.0</ele><time>2026-04-05T10:51:54.471Z</time></trkpt><trkpt lat="42.1595667" lon="14.702795"><ele>44.5</ele><time>2026-04-05T10:51:55.475Z</time></trkpt><trkpt lat="42.159195" lon="14.70251"><ele>47.0</ele><time>2026-04-05T10:51:56.472Z</time></trkpt><trkpt lat="42.158845" lon="14.7022433"><ele>47.0</ele><time>2026-04-05T10:51:57.471Z</time></trkpt><trkpt lat="42.1585167" lon="14.7019983"><ele>47.0</ele><time>2026-04-05T10:51:58.472Z</time></trkpt><trkpt lat="42.1582017" lon="14.7017717"><ele>48.0</ele><time>2026-04-05T10:51:59.472Z</time></trkpt><trkpt lat="42.15789" lon="14.7015667"><ele>49.0</ele><time>2026-04-05T10:52:00.473Z</time></trkpt><trkpt lat="42.1575567" lon="14.70141"><ele>50.0</ele><time>2026-04-05T10:52:01.473Z</time></trkpt><trkpt lat="42.1572033" lon="14.7012967"><ele>51.0</ele><time>2026-04-05T10:52:02.473Z</time></trkpt><trkpt lat="42.156835" lon="14.7011833"><ele>53.0</ele><time>2026-04-05T10:52:03.472Z</time></trkpt><trkpt lat="42.156465" lon="14.7010667"><ele>55.0</ele><time>2026-04-05T10:52:04.472Z</time></trkpt><trkpt lat="42.15612" lon="14.7009483"><ele>55.0</ele><time>2026-04-05T10:52:05.472Z</time></trkpt><trkpt lat="42.1558033" lon="14.7008567"><ele>55.0</ele><time>2026-04-05T10:52:06.475Z</time></trkpt><trkpt lat="42.1555117" lon="14.70077"><ele>55.5</ele><time>2026-04-05T10:52:07.472Z</time></trkpt><trkpt lat="42.1552333" lon="14.7006783"><ele>56.0</ele><time>2026-04-05T10:52:08.474Z</time></trkpt><trkpt lat="42.15497" lon="14.70059"><ele>57.0</ele><time>2026-04-05T10:52:09.471Z</time></trkpt><trkpt lat="42.1547233" lon="14.70051"><ele>58.0</ele><time>2026-04-05T10:52:10.473Z</time></trkpt><trkpt lat="42.1544933" lon="14.70044"><ele>58.0</ele><time>2026-04-05T10:52:11.472Z</time></trkpt><trkpt lat="42.1542667" lon="14.70037"><ele>58.0</ele><time>2026-04-05T10:52:12.472Z</time></trkpt><trkpt lat="42.1540317" lon="14.70029"><ele>60.0</ele><time>2026-04-05T10:52:13.473Z</time></trkpt><trkpt lat="42.1537833" lon="14.7002083"><ele>62.0</ele><time>2026-04-05T10:52:14.474Z</time></trkpt><trkpt lat="42.15353" lon="14.7001283"><ele>62.0</ele><time>2026-04-05T10:52:15.472Z</time></trkpt><trkpt lat="42.1532717" lon="14.7000467"><ele>62.0</ele><time>2026-04-05T10:52:16.472Z</time></trkpt><trkpt lat="42.1530083" lon="14.6999683"><ele>63.0</ele><time>2026-04-05T10:52:17.472Z</time></trkpt><trkpt lat="42.15274" lon="14.6998917"><ele>64.0</ele><time>2026-04-05T10:52:18.472Z</time></trkpt><trkpt lat="42.1524717" lon="14.6998067"><ele>65.5</ele><time>2026-04-05T10:52:19.475Z</time></trkpt><trkpt lat="42.1522033" lon="14.69973"><ele>67.0</ele><time>2026-04-05T10:52:20.472Z</time></trkpt><trkpt lat="42.1519433" lon="14.6996467"><ele>67.0</ele><time>2026-04-05T10:52:21.471Z</time></trkpt><trkpt lat="42.1517" lon="14.6995617"><ele>67.0</ele><time>2026-04-05T10:52:22.469Z</time></trkpt><trkpt lat="42.1514683" lon="14.6994833"><ele>68.0</ele><time>2026-04-05T10:52:23.471Z</time></trkpt><trkpt lat="42.1512383" lon="14.699415"><ele>69.0</ele><time>2026-04-05T10:52:24.47Z</time></trkpt><trkpt lat="42.1510117" lon="14.699345"><ele>69.0</ele><time>2026-04-05T10:52:25.472Z</time></trkpt><trkpt lat="42.150785" lon="14.6992733"><ele>69.0</ele><time>2026-04-05T10:52:26.471Z</time></trkpt><trkpt lat="42.1505533" lon="14.6992017"><ele>70.5</ele><time>2026-04-05T10:52:27.47Z</time></trkpt><trkpt lat="42.1503183" lon="14.69913"><ele>72.0</ele><time>2026-04-05T10:52:28.472Z</time></trkpt><trkpt lat="42.15008" lon="14.69906"><ele>73.0</ele><time>2026-04-05T10:52:29.471Z</time></trkpt><trkpt lat="42.1498417" lon="14.6989783"><ele>74.0</ele><time>2026-04-05T10:52:30.472Z</time></trkpt><trkpt lat="42.1496033" lon="14.698905"><ele>74.0</ele><time>2026-04-05T10:52:31.472Z</time></trkpt><trkpt lat="42.14937" lon="14.698835"><ele>74.0</ele><time>2026-04-05T10:52:32.472Z</time></trkpt><trkpt lat="42.1491517" lon="14.6987633"><ele>74.66666666666667</ele><time>2026-04-05T10:52:33.47Z</time></trkpt><trkpt lat="42.1489467" lon="14.698695"><ele>75.33333333333333</ele><time>2026-04-05T10:52:34.47Z</time></trkpt><trkpt lat="42.148755" lon="14.69864"><ele>76.0</ele><time>2026-04-05T10:52:35.47Z</time></trkpt><trkpt lat="42.148575" lon="14.6986"><ele>76.66666666666666</ele><time>2026-04-05T10:52:36.472Z</time></trkpt><trkpt lat="42.1484067" lon="14.69857"><ele>77.33333333333333</ele><time>2026-04-05T10:52:37.468Z</time></trkpt><trkpt lat="42.148245" lon="14.6985383"><ele>78.0</ele><time>2026-04-05T10:52:38.471Z</time></trkpt><trkpt lat="42.1480833" lon="14.6985133"><ele>79.0</ele><time>2026-04-05T10:52:39.473Z</time></trkpt><trkpt lat="42.1479233" lon="14.6984833"><ele>80.0</ele><time>2026-04-05T10:52:40.468Z</time></trkpt><trkpt lat="42.1477617" lon="14.6984433"><ele>81.0</ele><time>2026-04-05T10:52:41.468Z</time></trkpt><trkpt lat="42.1475983" lon="14.6984033"><ele>81.0</ele><time>2026-04-05T10:52:42.47Z</time></trkpt><trkpt lat="42.147435" lon="14.69837"><ele>81.0</ele><time>2026-04-05T10:52:43.47Z</time></trkpt><trkpt lat="42.1472733" lon="14.698325"><ele>81.0</ele><time>2026-04-05T10:52:44.47Z</time></trkpt><trkpt lat="42.1471133" lon="14.698265"><ele>82.0</ele><time>2026-04-05T10:52:45.469Z</time></trkpt><trkpt lat="42.14696" lon="14.69819"><ele>83.0</ele><time>2026-04-05T10:52:46.47Z</time></trkpt><trkpt lat="42.1468117" lon="14.6981183"><ele>84.0</ele><time>2026-04-05T10:52:47.472Z</time></trkpt><trkpt lat="42.1466783" lon="14.698055"><ele>84.0</ele><time>2026-04-05T10:52:48.472Z</time></trkpt><trkpt lat="42.1465533" lon="14.6980117"><ele>84.0</ele><time>2026-04-05T10:52:49.471Z</time></trkpt><trkpt lat="42.1464367" lon="14.6979817"><ele>84.0</ele><time>2026-04-05T10:52:50.473Z</time></trkpt><trkpt lat="42.1463167" lon="14.69797"><ele>84.0</ele><time>2026-04-05T10:52:51.471Z</time></trkpt><trkpt lat="42.1461883" lon="14.6979517"><ele>83.5</ele><time>2026-04-05T10:52:52.471Z</time></trkpt><trkpt lat="42.1460567" lon="14.69794"><ele>83.0</ele><time>2026-04-05T10:52:53.475Z</time></trkpt><trkpt lat="42.1459233" lon="14.6979333"><ele>82.5</ele><time>2026-04-05T10:52:54.472Z</time></trkpt><trkpt lat="42.1457983" lon="14.6979283"><ele>82.0</ele><time>2026-04-05T10:52:55.473Z</time></trkpt><trkpt lat="42.1456783" lon="14.6979367"><ele>82.0</ele><time>2026-04-05T10:52:56.472Z</time></trkpt><trkpt lat="42.1455583" lon="14.697975"><ele>82.0</ele><time>2026-04-05T10:52:57.472Z</time></trkpt><trkpt lat="42.1454433" lon="14.69802"><ele>82.0</ele><time>2026-04-05T10:52:58.474Z</time></trkpt><trkpt lat="42.1453383" lon="14.698065"><ele>82.0</ele><time>2026-04-05T10:52:59.469Z</time></trkpt><trkpt lat="42.1452417" lon="14.698105"><ele>82.0</ele><time>2026-04-05T10:53:00.47Z</time></trkpt><trkpt lat="42.145155" lon="14.69814"><ele>82.0</ele><time>2026-04-05T10:53:01.47Z</time></trkpt><trkpt lat="42.1450817" lon="14.698165"><ele>82.0</ele><time>2026-04-05T10:53:02.47Z</time></trkpt><trkpt lat="42.1450117" lon="14.6981917"><ele>82.0</ele><time>2026-04-05T10:53:03.471Z</time></trkpt><trkpt lat="42.1449367" lon="14.698215"><ele>82.0</ele><time>2026-04-05T10:53:04.47Z</time></trkpt><trkpt lat="42.14486" lon="14.6982417"><ele>82.0</ele><time>2026-04-05T10:53:05.473Z</time></trkpt><trkpt lat="42.1447783" lon="14.6982733"><ele>82.19999999999999</ele><time>2026-04-05T10:53:06.472Z</time></trkpt><trkpt lat="42.144685" lon="14.6983017"><ele>82.4</ele><time>2026-04-05T10:53:07.469Z</time></trkpt><trkpt lat="42.144585" lon="14.6983367"><ele>82.6</ele><time>2026-04-05T10:53:08.472Z</time></trkpt><trkpt lat="42.1444833" lon="14.6983683"><ele>82.80000000000001</ele><time>2026-04-05T10:53:09.47Z</time></trkpt><trkpt lat="42.1443817" lon="14.6984033"><ele>83.0</ele><time>2026-04-05T10:53:10.47Z</time></trkpt><trkpt lat="42.144275" lon="14.6984367"><ele>83.0</ele><time>2026-04-05T10:53:11.471Z</time></trkpt><trkpt lat="42.1441667" lon="14.6984733"><ele>83.0</ele><time>2026-04-05T10:53:12.47Z</time></trkpt><trkpt lat="42.144055" lon="14.69849"><ele>83.0</ele><time>2026-04-05T10:53:13.469Z</time></trkpt><trkpt lat="42.14394" lon="14.6984967"><ele>83.0</ele><time>2026-04-05T10:53:14.471Z</time></trkpt><trkpt lat="42.1438233" lon="14.6985067"><ele>83.5</ele><time>2026-04-05T10:53:15.471Z</time></trkpt><trkpt lat="42.1437083" lon="14.69852"><ele>84.0</ele><time>2026-04-05T10:53:16.469Z</time></trkpt><trkpt lat="42.1435917" lon="14.6985333"><ele>84.5</ele><time>2026-04-05T10:53:17.474Z</time></trkpt><trkpt lat="42.1434717" lon="14.6985483"><ele>85.0</ele><time>2026-04-05T10:53:18.471Z</time></trkpt><trkpt lat="42.1433517" lon="14.698565"><ele>85.2</ele><time>2026-04-05T10:53:19.471Z</time></trkpt><trkpt lat="42.143235" lon="14.698585"><ele>85.4</ele><time>2026-04-05T10:53:20.473Z</time></trkpt><trkpt lat="42.1431217" lon="14.6986033"><ele>85.6</ele><time>2026-04-05T10:53:21.472Z</time></trkpt><trkpt lat="42.1430167" lon="14.6986167"><ele>85.8</ele><time>2026-04-05T10:53:22.472Z</time></trkpt><trkpt lat="42.1429217" lon="14.6986283"><ele>86.0</ele><time>2026-04-05T10:53:23.473Z</time></trkpt><trkpt lat="42.14284" lon="14.69864"><ele>86.4</ele><time>2026-04-05T10:53:24.471Z</time></trkpt><trkpt lat="42.1427667" lon="14.6986467"><ele>86.8</ele><time>2026-04-05T10:53:25.472Z</time></trkpt><trkpt lat="42.142645" lon="14.698655"><ele>87.2</ele><time>2026-04-05T10:53:27.473Z</time></trkpt><trkpt lat="42.1425433" lon="14.6986133"><ele>87.60000000000001</ele><time>2026-04-05T10:53:29.471Z</time></trkpt><trkpt lat="42.1424367" lon="14.6985933"><ele>88.0</ele><time>2026-04-05T10:53:31.471Z</time></trkpt><trkpt lat="42.1423683" lon="14.6985783"><ele>88.5</ele><time>2026-04-05T10:53:32.474Z</time></trkpt><trkpt lat="42.1422833" lon="14.6985733"><ele>89.0</ele><time>2026-04-05T10:53:33.469Z</time></trkpt><trkpt lat="42.1421917" lon="14.6985767"><ele>89.5</ele><time>2026-04-05T10:53:34.472Z</time></trkpt><trkpt lat="42.1421033" lon="14.6985833"><ele>90.0</ele><time>2026-04-05T10:53:35.469Z</time></trkpt><trkpt lat="42.14202" lon="14.6985933"><ele>90.5</ele><time>2026-04-05T10:53:36.469Z</time></trkpt><trkpt lat="42.1419417" lon="14.6985967"><ele>91.0</ele><time>2026-04-05T10:53:37.472Z</time></trkpt><trkpt lat="42.1418767" lon="14.698605"><ele>91.0</ele><time>2026-04-05T10:53:38.471Z</time></trkpt><trkpt lat="42.141795" lon="14.698595"><ele>91.0</ele><time>2026-04-05T10:53:40.472Z</time></trkpt><trkpt lat="42.1417067" lon="14.698515"><ele>91.0</ele><time>2026-04-05T10:56:53.471Z</time></trkpt><trkpt lat="42.14162" lon="14.6984517"><ele>91.0</ele><time>2026-04-05T10:56:54.469Z</time></trkpt><trkpt lat="42.1413633" lon="14.6983533"><ele>92.33333333333333</ele><time>2026-04-05T10:56:56.475Z</time></trkpt><trkpt lat="42.1411967" lon="14.6982967"><ele>93.66666666666667</ele><time>2026-04-05T10:56:57.47Z</time></trkpt><trkpt lat="42.141" lon="14.698225"><ele>95.0</ele><time>2026-04-05T10:56:58.471Z</time></trkpt><trkpt lat="42.1407933" lon="14.6981467"><ele>96.0</ele><time>2026-04-05T10:56:59.471Z</time></trkpt><trkpt lat="42.1406033" lon="14.6980783"><ele>97.0</ele><time>2026-04-05T10:57:00.471Z</time></trkpt><trkpt lat="42.1404267" lon="14.698025"><ele>98.0</ele><time>2026-04-05T10:57:01.47Z</time></trkpt><trkpt lat="42.140265" lon="14.6979767"><ele>98.0</ele><time>2026-04-05T10:57:02.473Z</time></trkpt><trkpt lat="42.140105" lon="14.697925"><ele>98.0</ele><time>2026-04-05T10:57:03.47Z</time></trkpt><trkpt lat="42.1399367" lon="14.6978683"><ele>98.0</ele><time>2026-04-05T10:57:04.471Z</time></trkpt><trkpt lat="42.1397667" lon="14.6978183"><ele>99.33333333333333</ele><time>2026-04-05T10:57:05.472Z</time></trkpt><trkpt lat="42.13959" lon="14.6977567"><ele>100.66666666666666</ele><time>2026-04-05T10:57:06.47Z</time></trkpt><trkpt lat="42.1394117" lon="14.6977033"><ele>102.0</ele><time>2026-04-05T10:57:07.472Z</time></trkpt><trkpt lat="42.139245" lon="14.69766"><ele>102.5</ele><time>2026-04-05T10:57:08.47Z</time></trkpt><trkpt lat="42.13909" lon="14.6976233"><ele>103.0</ele><time>2026-04-05T10:57:09.471Z</time></trkpt><trkpt lat="42.1389483" lon="14.697595"><ele>103.5</ele><time>2026-04-05T10:57:10.469Z</time></trkpt><trkpt lat="42.138815" lon="14.697595"><ele>104.0</ele><time>2026-04-05T10:57:11.471Z</time></trkpt><trkpt lat="42.1386983" lon="14.6976083"><ele>104.6</ele><time>2026-04-05T10:57:12.473Z</time></trkpt><trkpt lat="42.1385933" lon="14.697625"><ele>105.2</ele><time>2026-04-05T10:57:13.469Z</time></trkpt><trkpt lat="42.1385" lon="14.6976383"><ele>105.79999999999998</ele><time>2026-04-05T10:57:14.471Z</time></trkpt><trkpt lat="42.1384117" lon="14.6976517"><ele>106.39999999999999</ele><time>2026-04-05T10:57:15.47Z</time></trkpt><trkpt lat="42.138325" lon="14.6976633"><ele>107.0</ele><time>2026-04-05T10:57:16.47Z</time></trkpt><trkpt lat="42.138235" lon="14.6976733"><ele>107.33333333333333</ele><time>2026-04-05T10:57:17.475Z</time></trkpt><trkpt lat="42.1381467" lon="14.6976817"><ele>107.66666666666666</ele><time>2026-04-05T10:57:18.471Z</time></trkpt><trkpt lat="42.13806" lon="14.6976983"><ele>108.0</ele><time>2026-04-05T10:57:19.47Z</time></trkpt><trkpt lat="42.137975" lon="14.6977117"><ele>108.33333333333334</ele><time>2026-04-05T10:57:20.469Z</time></trkpt><trkpt lat="42.13789" lon="14.6977233"><ele>108.66666666666667</ele><time>2026-04-05T10:57:21.469Z</time></trkpt><trkpt lat="42.13781" lon="14.6977317"><ele>109.0</ele><time>2026-04-05T10:57:22.473Z</time></trkpt><trkpt lat="42.1377267" lon="14.6977417"><ele>109.00000000000001</ele><time>2026-04-05T10:57:23.47Z</time></trkpt><trkpt lat="42.13764" lon="14.6977517"><ele>109.0</ele><time>2026-04-05T10:57:24.47Z</time></trkpt><trkpt lat="42.13755" lon="14.6977583"><ele>109.0</ele><time>2026-04-05T10:57:25.469Z</time></trkpt><trkpt lat="42.1374667" lon="14.6977667"><ele>109.0</ele><time>2026-04-05T10:57:26.471Z</time></trkpt><trkpt lat="42.1374017" lon="14.6977717"><ele>109.00000000000001</ele><time>2026-04-05T10:57:27.475Z</time></trkpt><trkpt lat="42.137345" lon="14.697705"><ele>109.0</ele><time>2026-04-05T10:57:29.469Z</time></trkpt><trkpt lat="42.137315" lon="14.69747"><ele>108.80000000000001</ele><time>2026-04-05T10:57:31.469Z</time></trkpt><trkpt lat="42.1372917" lon="14.6972733"><ele>108.60000000000001</ele><time>2026-04-05T10:57:32.474Z</time></trkpt><trkpt lat="42.137265" lon="14.6970983"><ele>108.4</ele><time>2026-04-05T10:57:33.469Z</time></trkpt><trkpt lat="42.1372483" lon="14.696975"><ele>108.2</ele><time>2026-04-05T10:57:34.469Z</time></trkpt><trkpt lat="42.137245" lon="14.6968833"><ele>108.0</ele><time>2026-04-05T10:57:35.47Z</time></trkpt><trkpt lat="42.1372567" lon="14.6967967"><ele>107.0</ele><time>2026-04-05T10:57:36.475Z</time></trkpt><trkpt lat="42.1373383" lon="14.6966533"><ele>106.0</ele><time>2026-04-05T10:57:37.47Z</time></trkpt><trkpt lat="42.137435" lon="14.6964967"><ele>105.0</ele><time>2026-04-05T10:57:38.47Z</time></trkpt><trkpt lat="42.13754" lon="14.6963467"><ele>104.0</ele><time>2026-04-05T10:57:39.469Z</time></trkpt><trkpt lat="42.13764" lon="14.6962167"><ele>104.0</ele><time>2026-04-05T10:57:40.469Z</time></trkpt><trkpt lat="42.1377233" lon="14.696105"><ele>104.0</ele><time>2026-04-05T10:57:41.47Z</time></trkpt><trkpt lat="42.1378" lon="14.6960017"><ele>104.0</ele><time>2026-04-05T10:57:42.469Z</time></trkpt><trkpt lat="42.1378567" lon="14.69591"><ele>104.0</ele><time>2026-04-05T10:57:43.471Z</time></trkpt><trkpt lat="42.1379" lon="14.69582"><ele>104.0</ele><time>2026-04-05T10:57:44.471Z</time></trkpt><trkpt lat="42.13793" lon="14.695725"><ele>101.2</ele><time>2026-04-05T10:57:45.472Z</time></trkpt><trkpt lat="42.13794" lon="14.6956083"><ele>98.4</ele><time>2026-04-05T10:57:46.471Z</time></trkpt><trkpt lat="42.13794" lon="14.6954817"><ele>95.6</ele><time>2026-04-05T10:57:47.473Z</time></trkpt><trkpt lat="42.1379383" lon="14.6953583"><ele>92.8</ele><time>2026-04-05T10:57:48.469Z</time></trkpt><trkpt lat="42.13794" lon="14.695235"><ele>90.0</ele><time>2026-04-05T10:57:49.469Z</time></trkpt><trkpt lat="42.13795" lon="14.6951117"><ele>88.33333333333333</ele><time>2026-04-05T10:57:50.47Z</time></trkpt><trkpt lat="42.1379783" lon="14.6949983"><ele>86.66666666666667</ele><time>2026-04-05T10:57:51.469Z</time></trkpt><trkpt lat="42.1380033" lon="14.6948833"><ele>85.0</ele><time>2026-04-05T10:57:52.472Z</time></trkpt><trkpt lat="42.1380283" lon="14.6947733"><ele>83.33333333333334</ele><time>2026-04-05T10:57:53.47Z</time></trkpt><trkpt lat="42.13806" lon="14.6946717"><ele>81.66666666666667</ele><time>2026-04-05T10:57:54.469Z</time></trkpt><trkpt lat="42.1381" lon="14.6945767"><ele>80.0</ele><time>2026-04-05T10:57:55.47Z</time></trkpt><trkpt lat="42.1381483" lon="14.6944783"><ele>78.8</ele><time>2026-04-05T10:57:56.476Z</time></trkpt><trkpt lat="42.1381967" lon="14.694375"><ele>77.6</ele><time>2026-04-05T10:57:57.469Z</time></trkpt><trkpt lat="42.1382467" lon="14.6942733"><ele>76.4</ele><time>2026-04-05T10:57:58.47Z</time></trkpt><trkpt lat="42.1382983" lon="14.6941683"><ele>75.2</ele><time>2026-04-05T10:57:59.469Z</time></trkpt><trkpt lat="42.1383483" lon="14.6940517"><ele>74.0</ele><time>2026-04-05T10:58:00.47Z</time></trkpt><trkpt lat="42.1383917" lon="14.6939017"><ele>74.0</ele><time>2026-04-05T10:58:01.469Z</time></trkpt><trkpt lat="42.1384317" lon="14.6937017"><ele>74.0</ele><time>2026-04-05T10:58:02.473Z</time></trkpt><trkpt lat="42.138465" lon="14.69345"><ele>74.0</ele><time>2026-04-05T10:58:03.469Z</time></trkpt><trkpt lat="42.1385067" lon="14.6931817"><ele>70.33333333333334</ele><time>2026-04-05T10:58:04.471Z</time></trkpt><trkpt lat="42.1385533" lon="14.6929167"><ele>66.66666666666667</ele><time>2026-04-05T10:58:05.471Z</time></trkpt><trkpt lat="42.1385967" lon="14.6926717"><ele>63.0</ele><time>2026-04-05T10:58:06.472Z</time></trkpt><trkpt lat="42.1386383" lon="14.69244"><ele>61.66666666666667</ele><time>2026-04-05T10:58:07.47Z</time></trkpt><trkpt lat="42.138675" lon="14.6922283"><ele>60.333333333333336</ele><time>2026-04-05T10:58:08.472Z</time></trkpt><trkpt lat="42.1387117" lon="14.6920167"><ele>59.0</ele><time>2026-04-05T10:58:09.47Z</time></trkpt><trkpt lat="42.138745" lon="14.6918033"><ele>59.0</ele><time>2026-04-05T10:58:10.47Z</time></trkpt><trkpt lat="42.1387533" lon="14.6916117"><ele>59.0</ele><time>2026-04-05T10:58:11.469Z</time></trkpt><trkpt lat="42.1387317" lon="14.6914267"><ele>59.0</ele><time>2026-04-05T10:58:12.471Z</time></trkpt><trkpt lat="42.1386767" lon="14.6912483"><ele>59.0</ele><time>2026-04-05T10:58:13.474Z</time></trkpt><trkpt lat="42.1386017" lon="14.6910633"><ele>60.25</ele><time>2026-04-05T10:58:14.469Z</time></trkpt><trkpt lat="42.1385183" lon="14.6908733"><ele>61.5</ele><time>2026-04-05T10:58:15.47Z</time></trkpt><trkpt lat="42.1384483" lon="14.690705"><ele>62.75</ele><time>2026-04-05T10:58:16.47Z</time></trkpt><trkpt lat="42.138405" lon="14.69055"><ele>64.0</ele><time>2026-04-05T10:58:17.469Z</time></trkpt><trkpt lat="42.138385" lon="14.6904"><ele>66.66666666666666</ele><time>2026-04-05T10:58:18.469Z</time></trkpt><trkpt lat="42.1383867" lon="14.6902333"><ele>69.33333333333333</ele><time>2026-04-05T10:58:19.474Z</time></trkpt><trkpt lat="42.1384167" lon="14.690035"><ele>72.0</ele><time>2026-04-05T10:58:20.47Z</time></trkpt><trkpt lat="42.1384733" lon="14.6897867"><ele>72.0</ele><time>2026-04-05T10:58:21.469Z</time></trkpt><trkpt lat="42.1385383" lon="14.6894867"><ele>72.0</ele><time>2026-04-05T10:58:22.47Z</time></trkpt><trkpt lat="42.13861" lon="14.6891367"><ele>76.0</ele><time>2026-04-05T10:58:23.474Z</time></trkpt><trkpt lat="42.1386867" lon="14.6887483"><ele>80.0</ele><time>2026-04-05T10:58:24.472Z</time></trkpt><trkpt lat="42.138755" lon="14.6883617"><ele>84.0</ele><time>2026-04-05T10:58:25.471Z</time></trkpt><trkpt lat="42.1388083" lon="14.68802"><ele>88.0</ele><time>2026-04-05T10:58:26.471Z</time></trkpt><trkpt lat="42.1388633" lon="14.6877283"><ele>91.0</ele><time>2026-04-05T10:58:27.471Z</time></trkpt><trkpt lat="42.138935" lon="14.6874617"><ele>94.0</ele><time>2026-04-05T10:58:28.471Z</time></trkpt><trkpt lat="42.13904" lon="14.68719"><ele>97.0</ele><time>2026-04-05T10:58:29.471Z</time></trkpt><trkpt lat="42.139155" lon="14.686895"><ele>102.0</ele><time>2026-04-05T10:58:30.471Z</time></trkpt><trkpt lat="42.1392683" lon="14.686565"><ele>107.0</ele><time>2026-04-05T10:58:31.471Z</time></trkpt><trkpt lat="42.1393733" lon="14.68624"><ele>109.33333333333333</ele><time>2026-04-05T10:58:32.471Z</time></trkpt><trkpt lat="42.1394583" lon="14.6859733"><ele>111.66666666666666</ele><time>2026-04-05T10:58:33.472Z</time></trkpt><trkpt lat="42.1395367" lon="14.6857533"><ele>114.0</ele><time>2026-04-05T10:58:34.47Z</time></trkpt><trkpt lat="42.1396133" lon="14.685545"><ele>114.0</ele><time>2026-04-05T10:58:35.469Z</time></trkpt><trkpt lat="42.1396967" lon="14.68533"><ele>114.0</ele><time>2026-04-05T10:58:36.469Z</time></trkpt><trkpt lat="42.1397767" lon="14.685105"><ele>114.0</ele><time>2026-04-05T10:58:37.471Z</time></trkpt><trkpt lat="42.1398517" lon="14.68486"><ele>113.33333333333334</ele><time>2026-04-05T10:58:38.473Z</time></trkpt><trkpt lat="42.1399133" lon="14.6845933"><ele>112.66666666666667</ele><time>2026-04-05T10:58:39.471Z</time></trkpt><trkpt lat="42.1399583" lon="14.684325"><ele>112.0</ele><time>2026-04-05T10:58:40.474Z</time></trkpt><trkpt lat="42.139995" lon="14.68407"><ele>112.0</ele><time>2026-04-05T10:58:41.471Z</time></trkpt><trkpt lat="42.140035" lon="14.6838283"><ele>112.0</ele><time>2026-04-05T10:58:42.471Z</time></trkpt><trkpt lat="42.1400733" lon="14.6835933"><ele>112.0</ele><time>2026-04-05T10:58:43.473Z</time></trkpt><trkpt lat="42.140095" lon="14.6833667"><ele>111.25</ele><time>2026-04-05T10:58:44.47Z</time></trkpt><trkpt lat="42.1401067" lon="14.6831533"><ele>110.5</ele><time>2026-04-05T10:58:45.469Z</time></trkpt><trkpt lat="42.1401133" lon="14.6829667"><ele>109.75</ele><time>2026-04-05T10:58:46.469Z</time></trkpt><trkpt lat="42.1401183" lon="14.6828083"><ele>109.0</ele><time>2026-04-05T10:58:47.473Z</time></trkpt><trkpt lat="42.1401217" lon="14.6826817"><ele>109.00000000000001</ele><time>2026-04-05T10:58:48.471Z</time></trkpt><trkpt lat="42.140125" lon="14.6825767"><ele>109.0</ele><time>2026-04-05T10:58:49.472Z</time></trkpt><trkpt lat="42.140125" lon="14.682445"><ele>109.0</ele><time>2026-04-05T10:58:51.472Z</time></trkpt><trkpt lat="42.1400417" lon="14.68243"><ele>109.0</ele><time>2026-04-05T10:58:54.469Z</time></trkpt><trkpt lat="42.1399833" lon="14.682395"><ele>109.00000000000001</ele><time>2026-04-05T10:58:56.469Z</time></trkpt><trkpt lat="42.1399283" lon="14.6823267"><ele>109.0</ele><time>2026-04-05T10:58:59.471Z</time></trkpt><trkpt lat="42.1398617" lon="14.68232"><ele>112.0</ele><time>2026-04-05T10:59:02.469Z</time></trkpt><trkpt lat="42.1397767" lon="14.682325"><ele>112.0</ele><time>2026-04-05T10:59:07.47Z</time></trkpt><trkpt lat="42.139715" lon="14.6823583"><ele>112.0</ele><time>2026-04-05T10:59:11.47Z</time></trkpt></trkseg></trk></gpx>